<?xml version="1.0" encoding="UTF-8" standalone="no" ?>
<gpx xmlns="http://www.topografix.com/GPX/1/1" xmlns:xsi="http://www.w3.org/2001/XMLSchema-instance" xsi:schemaLocation="http://www.topografix.com/GPX/1/1 http://www.topografix.com/GPX/1/1/gpx.xsd" version="1.1" creator="VisuGPX - https://www.visugpx.com">
  <metadata>
    <name>Hardangervidda 2019</name>
  </metadata>
  <trk>
    <name><![CDATA[2019-04-05]]></name>
    <trkseg>
      <trkpt lat="60.184" lon="7.48206">
        <ele>1249.85</ele>
        <time>2019-04-05T08:42:24Z</time>
      </trkpt>
      <trkpt lat="60.184" lon="7.48206">
        <ele>1249.85</ele>
        <time>2019-04-05T08:42:25Z</time>
      </trkpt>
      <trkpt lat="60.18402" lon="7.48217">
        <ele>1251.77</ele>
        <time>2019-04-05T08:42:45Z</time>
      </trkpt>
      <trkpt lat="60.18402" lon="7.48238">
        <ele>1249.85</ele>
        <time>2019-04-05T08:42:57Z</time>
      </trkpt>
      <trkpt lat="60.18407" lon="7.4828">
        <ele>1249.85</ele>
        <time>2019-04-05T08:43:15Z</time>
      </trkpt>
      <trkpt lat="60.18413" lon="7.48314">
        <ele>1251.29</ele>
        <time>2019-04-05T08:43:32Z</time>
      </trkpt>
      <trkpt lat="60.18417" lon="7.48344">
        <ele>1251.77</ele>
        <time>2019-04-05T08:43:48Z</time>
      </trkpt>
      <trkpt lat="60.18419" lon="7.48351">
        <ele>1252.25</ele>
        <time>2019-04-05T08:44:03Z</time>
      </trkpt>
      <trkpt lat="60.18419" lon="7.48354">
        <ele>1252.74</ele>
        <time>2019-04-05T08:44:28Z</time>
      </trkpt>
      <trkpt lat="60.18418" lon="7.48353">
        <ele>1252.74</ele>
        <time>2019-04-05T08:44:40Z</time>
      </trkpt>
      <trkpt lat="60.18422" lon="7.48366">
        <ele>1252.25</ele>
        <time>2019-04-05T08:45:02Z</time>
      </trkpt>
      <trkpt lat="60.18429" lon="7.48392">
        <ele>1252.25</ele>
        <time>2019-04-05T08:45:20Z</time>
      </trkpt>
      <trkpt lat="60.18434" lon="7.48406">
        <ele>1253.22</ele>
        <time>2019-04-05T08:45:30Z</time>
      </trkpt>
      <trkpt lat="60.18443" lon="7.48428">
        <ele>1253.7</ele>
        <time>2019-04-05T08:45:46Z</time>
      </trkpt>
      <trkpt lat="60.18452" lon="7.48454">
        <ele>1254.66</ele>
        <time>2019-04-05T08:46:03Z</time>
      </trkpt>
      <trkpt lat="60.18461" lon="7.48478">
        <ele>1254.66</ele>
        <time>2019-04-05T08:46:18Z</time>
      </trkpt>
      <trkpt lat="60.18463" lon="7.48484">
        <ele>1255.62</ele>
        <time>2019-04-05T08:46:32Z</time>
      </trkpt>
      <trkpt lat="60.18472" lon="7.48508">
        <ele>1255.62</ele>
        <time>2019-04-05T08:46:47Z</time>
      </trkpt>
      <trkpt lat="60.18478" lon="7.48528">
        <ele>1256.1</ele>
        <time>2019-04-05T08:47:02Z</time>
      </trkpt>
      <trkpt lat="60.18487" lon="7.48551">
        <ele>1256.58</ele>
        <time>2019-04-05T08:47:18Z</time>
      </trkpt>
      <trkpt lat="60.18494" lon="7.48573">
        <ele>1257.54</ele>
        <time>2019-04-05T08:47:33Z</time>
      </trkpt>
      <trkpt lat="60.18501" lon="7.48594">
        <ele>1258.02</ele>
        <time>2019-04-05T08:47:49Z</time>
      </trkpt>
      <trkpt lat="60.18508" lon="7.48613">
        <ele>1258.98</ele>
        <time>2019-04-05T08:48:04Z</time>
      </trkpt>
      <trkpt lat="60.18517" lon="7.48637">
        <ele>1260.43</ele>
        <time>2019-04-05T08:48:21Z</time>
      </trkpt>
      <trkpt lat="60.18525" lon="7.48659">
        <ele>1260.91</ele>
        <time>2019-04-05T08:48:38Z</time>
      </trkpt>
      <trkpt lat="60.18533" lon="7.48678">
        <ele>1261.87</ele>
        <time>2019-04-05T08:48:53Z</time>
      </trkpt>
      <trkpt lat="60.18541" lon="7.48703">
        <ele>1262.35</ele>
        <time>2019-04-05T08:49:11Z</time>
      </trkpt>
      <trkpt lat="60.18551" lon="7.4873">
        <ele>1263.79</ele>
        <time>2019-04-05T08:49:31Z</time>
      </trkpt>
      <trkpt lat="60.18558" lon="7.48749">
        <ele>1264.75</ele>
        <time>2019-04-05T08:49:47Z</time>
      </trkpt>
      <trkpt lat="60.18564" lon="7.48766">
        <ele>1266.67</ele>
        <time>2019-04-05T08:50:04Z</time>
      </trkpt>
      <trkpt lat="60.18574" lon="7.48793">
        <ele>1266.67</ele>
        <time>2019-04-05T08:50:21Z</time>
      </trkpt>
      <trkpt lat="60.18582" lon="7.48814">
        <ele>1267.16</ele>
        <time>2019-04-05T08:50:36Z</time>
      </trkpt>
      <trkpt lat="60.18584" lon="7.48818">
        <ele>1267.64</ele>
        <time>2019-04-05T08:50:40Z</time>
      </trkpt>
      <trkpt lat="60.18589" lon="7.4883">
        <ele>1267.64</ele>
        <time>2019-04-05T08:50:49Z</time>
      </trkpt>
      <trkpt lat="60.18594" lon="7.48846">
        <ele>1268.12</ele>
        <time>2019-04-05T08:51:01Z</time>
      </trkpt>
      <trkpt lat="60.18597" lon="7.48852">
        <ele>1268.12</ele>
        <time>2019-04-05T08:51:18Z</time>
      </trkpt>
      <trkpt lat="60.18599" lon="7.48856">
        <ele>1268.12</ele>
        <time>2019-04-05T08:51:48Z</time>
      </trkpt>
      <trkpt lat="60.18603" lon="7.48864">
        <ele>1268.12</ele>
        <time>2019-04-05T08:52:07Z</time>
      </trkpt>
      <trkpt lat="60.18609" lon="7.48882">
        <ele>1268.12</ele>
        <time>2019-04-05T08:52:22Z</time>
      </trkpt>
      <trkpt lat="60.18617" lon="7.48902">
        <ele>1268.12</ele>
        <time>2019-04-05T08:52:38Z</time>
      </trkpt>
      <trkpt lat="60.18626" lon="7.48925">
        <ele>1268.12</ele>
        <time>2019-04-05T08:52:56Z</time>
      </trkpt>
      <trkpt lat="60.18635" lon="7.48945">
        <ele>1268.12</ele>
        <time>2019-04-05T08:53:13Z</time>
      </trkpt>
      <trkpt lat="60.18644" lon="7.48964">
        <ele>1268.12</ele>
        <time>2019-04-05T08:53:30Z</time>
      </trkpt>
      <trkpt lat="60.18653" lon="7.48984">
        <ele>1268.6</ele>
        <time>2019-04-05T08:53:47Z</time>
      </trkpt>
      <trkpt lat="60.18662" lon="7.49004">
        <ele>1269.56</ele>
        <time>2019-04-05T08:54:04Z</time>
      </trkpt>
      <trkpt lat="60.18669" lon="7.49018">
        <ele>1270.04</ele>
        <time>2019-04-05T08:54:19Z</time>
      </trkpt>
      <trkpt lat="60.18676" lon="7.49035">
        <ele>1270.04</ele>
        <time>2019-04-05T08:54:36Z</time>
      </trkpt>
      <trkpt lat="60.18685" lon="7.49051">
        <ele>1270.52</ele>
        <time>2019-04-05T08:54:52Z</time>
      </trkpt>
      <trkpt lat="60.18694" lon="7.4907">
        <ele>1271</ele>
        <time>2019-04-05T08:55:11Z</time>
      </trkpt>
      <trkpt lat="60.18704" lon="7.49089">
        <ele>1271.48</ele>
        <time>2019-04-05T08:55:30Z</time>
      </trkpt>
      <trkpt lat="60.1871" lon="7.49102">
        <ele>1271.96</ele>
        <time>2019-04-05T08:55:44Z</time>
      </trkpt>
      <trkpt lat="60.18718" lon="7.49117">
        <ele>1272.92</ele>
        <time>2019-04-05T08:55:59Z</time>
      </trkpt>
      <trkpt lat="60.18727" lon="7.49136">
        <ele>1272.92</ele>
        <time>2019-04-05T08:56:15Z</time>
      </trkpt>
      <trkpt lat="60.18733" lon="7.49149">
        <ele>1272.44</ele>
        <time>2019-04-05T08:56:32Z</time>
      </trkpt>
      <trkpt lat="60.18744" lon="7.49169">
        <ele>1272.44</ele>
        <time>2019-04-05T08:56:48Z</time>
      </trkpt>
      <trkpt lat="60.18756" lon="7.49192">
        <ele>1273.4</ele>
        <time>2019-04-05T08:57:06Z</time>
      </trkpt>
      <trkpt lat="60.18767" lon="7.49212">
        <ele>1273.88</ele>
        <time>2019-04-05T08:57:24Z</time>
      </trkpt>
      <trkpt lat="60.1878" lon="7.49228">
        <ele>1273.88</ele>
        <time>2019-04-05T08:57:39Z</time>
      </trkpt>
      <trkpt lat="60.18792" lon="7.49243">
        <ele>1273.88</ele>
        <time>2019-04-05T08:57:53Z</time>
      </trkpt>
      <trkpt lat="60.18805" lon="7.4926">
        <ele>1273.88</ele>
        <time>2019-04-05T08:58:08Z</time>
      </trkpt>
      <trkpt lat="60.18818" lon="7.49277">
        <ele>1273.88</ele>
        <time>2019-04-05T08:58:24Z</time>
      </trkpt>
      <trkpt lat="60.18833" lon="7.49294">
        <ele>1273.88</ele>
        <time>2019-04-05T08:58:42Z</time>
      </trkpt>
      <trkpt lat="60.18845" lon="7.49309">
        <ele>1274.36</ele>
        <time>2019-04-05T08:58:58Z</time>
      </trkpt>
      <trkpt lat="60.18856" lon="7.49324">
        <ele>1275.33</ele>
        <time>2019-04-05T08:59:15Z</time>
      </trkpt>
      <trkpt lat="60.18868" lon="7.49338">
        <ele>1276.29</ele>
        <time>2019-04-05T08:59:33Z</time>
      </trkpt>
      <trkpt lat="60.18881" lon="7.49355">
        <ele>1276.77</ele>
        <time>2019-04-05T08:59:52Z</time>
      </trkpt>
      <trkpt lat="60.18892" lon="7.49372">
        <ele>1277.25</ele>
        <time>2019-04-05T09:00:06Z</time>
      </trkpt>
      <trkpt lat="60.18906" lon="7.49389">
        <ele>1277.25</ele>
        <time>2019-04-05T09:00:22Z</time>
      </trkpt>
      <trkpt lat="60.18922" lon="7.49407">
        <ele>1277.25</ele>
        <time>2019-04-05T09:00:40Z</time>
      </trkpt>
      <trkpt lat="60.18937" lon="7.49426">
        <ele>1277.25</ele>
        <time>2019-04-05T09:00:57Z</time>
      </trkpt>
      <trkpt lat="60.18949" lon="7.49441">
        <ele>1277.25</ele>
        <time>2019-04-05T09:01:11Z</time>
      </trkpt>
      <trkpt lat="60.18964" lon="7.49458">
        <ele>1277.25</ele>
        <time>2019-04-05T09:01:26Z</time>
      </trkpt>
      <trkpt lat="60.18976" lon="7.49471">
        <ele>1277.25</ele>
        <time>2019-04-05T09:01:38Z</time>
      </trkpt>
      <trkpt lat="60.1899" lon="7.49484">
        <ele>1277.25</ele>
        <time>2019-04-05T09:01:53Z</time>
      </trkpt>
      <trkpt lat="60.19002" lon="7.49501">
        <ele>1277.25</ele>
        <time>2019-04-05T09:02:08Z</time>
      </trkpt>
      <trkpt lat="60.19016" lon="7.49516">
        <ele>1277.25</ele>
        <time>2019-04-05T09:02:24Z</time>
      </trkpt>
      <trkpt lat="60.19031" lon="7.49533">
        <ele>1277.25</ele>
        <time>2019-04-05T09:02:39Z</time>
      </trkpt>
      <trkpt lat="60.19044" lon="7.4955">
        <ele>1277.25</ele>
        <time>2019-04-05T09:02:55Z</time>
      </trkpt>
      <trkpt lat="60.19058" lon="7.49567">
        <ele>1277.25</ele>
        <time>2019-04-05T09:03:12Z</time>
      </trkpt>
      <trkpt lat="60.19073" lon="7.49586">
        <ele>1277.25</ele>
        <time>2019-04-05T09:03:29Z</time>
      </trkpt>
      <trkpt lat="60.19081" lon="7.49597">
        <ele>1277.25</ele>
        <time>2019-04-05T09:03:42Z</time>
      </trkpt>
      <trkpt lat="60.19082" lon="7.49599">
        <ele>1277.25</ele>
        <time>2019-04-05T09:04:13Z</time>
      </trkpt>
      <trkpt lat="60.19084" lon="7.496">
        <ele>1277.25</ele>
        <time>2019-04-05T09:04:36Z</time>
      </trkpt>
      <trkpt lat="60.19092" lon="7.49614">
        <ele>1277.25</ele>
        <time>2019-04-05T09:04:48Z</time>
      </trkpt>
      <trkpt lat="60.19103" lon="7.49636">
        <ele>1277.25</ele>
        <time>2019-04-05T09:05:03Z</time>
      </trkpt>
      <trkpt lat="60.19112" lon="7.49653">
        <ele>1277.25</ele>
        <time>2019-04-05T09:05:17Z</time>
      </trkpt>
      <trkpt lat="60.19119" lon="7.49665">
        <ele>1277.25</ele>
        <time>2019-04-05T09:05:26Z</time>
      </trkpt>
      <trkpt lat="60.19124" lon="7.49669">
        <ele>1277.25</ele>
        <time>2019-04-05T09:05:44Z</time>
      </trkpt>
      <trkpt lat="60.19125" lon="7.49671">
        <ele>1277.25</ele>
        <time>2019-04-05T09:05:47Z</time>
      </trkpt>
      <trkpt lat="60.19134" lon="7.49696">
        <ele>1277.25</ele>
        <time>2019-04-05T09:06:01Z</time>
      </trkpt>
      <trkpt lat="60.19145" lon="7.49718">
        <ele>1278.21</ele>
        <time>2019-04-05T09:06:17Z</time>
      </trkpt>
      <trkpt lat="60.19156" lon="7.49742">
        <ele>1278.21</ele>
        <time>2019-04-05T09:06:34Z</time>
      </trkpt>
      <trkpt lat="60.19167" lon="7.49763">
        <ele>1279.17</ele>
        <time>2019-04-05T09:06:49Z</time>
      </trkpt>
      <trkpt lat="60.19176" lon="7.49782">
        <ele>1279.65</ele>
        <time>2019-04-05T09:07:03Z</time>
      </trkpt>
      <trkpt lat="60.19186" lon="7.49806">
        <ele>1280.13</ele>
        <time>2019-04-05T09:07:20Z</time>
      </trkpt>
      <trkpt lat="60.19193" lon="7.49823">
        <ele>1280.61</ele>
        <time>2019-04-05T09:07:36Z</time>
      </trkpt>
      <trkpt lat="60.19195" lon="7.49823">
        <ele>1280.61</ele>
        <time>2019-04-05T09:08:01Z</time>
      </trkpt>
      <trkpt lat="60.19195" lon="7.49826">
        <ele>1280.61</ele>
        <time>2019-04-05T09:08:30Z</time>
      </trkpt>
      <trkpt lat="60.19194" lon="7.49826">
        <ele>1280.61</ele>
        <time>2019-04-05T09:08:51Z</time>
      </trkpt>
      <trkpt lat="60.19194" lon="7.49826">
        <ele>1281.09</ele>
        <time>2019-04-05T09:09:14Z</time>
      </trkpt>
      <trkpt lat="60.19194" lon="7.49831">
        <ele>1280.61</ele>
        <time>2019-04-05T09:09:25Z</time>
      </trkpt>
      <trkpt lat="60.19193" lon="7.49836">
        <ele>1280.61</ele>
        <time>2019-04-05T09:09:28Z</time>
      </trkpt>
      <trkpt lat="60.19194" lon="7.4987">
        <ele>1280.13</ele>
        <time>2019-04-05T09:09:43Z</time>
      </trkpt>
      <trkpt lat="60.19197" lon="7.49901">
        <ele>1280.13</ele>
        <time>2019-04-05T09:09:56Z</time>
      </trkpt>
      <trkpt lat="60.19199" lon="7.49903">
        <ele>1282.06</ele>
        <time>2019-04-05T09:10:07Z</time>
      </trkpt>
      <trkpt lat="60.19198" lon="7.49903">
        <ele>1281.57</ele>
        <time>2019-04-05T09:10:27Z</time>
      </trkpt>
      <trkpt lat="60.19198" lon="7.49904">
        <ele>1281.57</ele>
        <time>2019-04-05T09:10:28Z</time>
      </trkpt>
      <trkpt lat="60.19199" lon="7.49903">
        <ele>1283.02</ele>
        <time>2019-04-05T09:10:42Z</time>
      </trkpt>
      <trkpt lat="60.19198" lon="7.49899">
        <ele>1281.09</ele>
        <time>2019-04-05T09:10:52Z</time>
      </trkpt>
      <trkpt lat="60.19195" lon="7.49898">
        <ele>1281.09</ele>
        <time>2019-04-05T09:11:02Z</time>
      </trkpt>
      <trkpt lat="60.19195" lon="7.49894">
        <ele>1281.09</ele>
        <time>2019-04-05T09:11:27Z</time>
      </trkpt>
      <trkpt lat="60.19196" lon="7.49896">
        <ele>1281.09</ele>
        <time>2019-04-05T09:11:57Z</time>
      </trkpt>
      <trkpt lat="60.19196" lon="7.49896">
        <ele>1281.09</ele>
        <time>2019-04-05T09:12:32Z</time>
      </trkpt>
      <trkpt lat="60.19193" lon="7.49894">
        <ele>1281.09</ele>
        <time>2019-04-05T09:13:07Z</time>
      </trkpt>
      <trkpt lat="60.19195" lon="7.49895">
        <ele>1281.09</ele>
        <time>2019-04-05T09:13:45Z</time>
      </trkpt>
      <trkpt lat="60.19196" lon="7.49891">
        <ele>1281.09</ele>
        <time>2019-04-05T09:14:14Z</time>
      </trkpt>
      <trkpt lat="60.19196" lon="7.49895">
        <ele>1281.09</ele>
        <time>2019-04-05T09:14:53Z</time>
      </trkpt>
      <trkpt lat="60.19196" lon="7.49895">
        <ele>1281.09</ele>
        <time>2019-04-05T09:15:31Z</time>
      </trkpt>
      <trkpt lat="60.19196" lon="7.49896">
        <ele>1281.09</ele>
        <time>2019-04-05T09:16:06Z</time>
      </trkpt>
      <trkpt lat="60.19197" lon="7.49893">
        <ele>1281.09</ele>
        <time>2019-04-05T09:16:45Z</time>
      </trkpt>
      <trkpt lat="60.19196" lon="7.49893">
        <ele>1281.09</ele>
        <time>2019-04-05T09:17:16Z</time>
      </trkpt>
      <trkpt lat="60.19196" lon="7.49893">
        <ele>1281.09</ele>
        <time>2019-04-05T09:17:55Z</time>
      </trkpt>
      <trkpt lat="60.19194" lon="7.49894">
        <ele>1280.61</ele>
        <time>2019-04-05T09:18:26Z</time>
      </trkpt>
      <trkpt lat="60.19194" lon="7.49894">
        <ele>1280.61</ele>
        <time>2019-04-05T09:18:59Z</time>
      </trkpt>
      <trkpt lat="60.19195" lon="7.49894">
        <ele>1280.61</ele>
        <time>2019-04-05T09:19:35Z</time>
      </trkpt>
      <trkpt lat="60.19195" lon="7.49894">
        <ele>1280.61</ele>
        <time>2019-04-05T09:20:15Z</time>
      </trkpt>
      <trkpt lat="60.19195" lon="7.49893">
        <ele>1280.61</ele>
        <time>2019-04-05T09:20:56Z</time>
      </trkpt>
      <trkpt lat="60.19194" lon="7.49895">
        <ele>1280.61</ele>
        <time>2019-04-05T09:21:27Z</time>
      </trkpt>
      <trkpt lat="60.19195" lon="7.49897">
        <ele>1280.61</ele>
        <time>2019-04-05T09:22:00Z</time>
      </trkpt>
      <trkpt lat="60.19195" lon="7.49896">
        <ele>1281.09</ele>
        <time>2019-04-05T09:22:33Z</time>
      </trkpt>
      <trkpt lat="60.19195" lon="7.49898">
        <ele>1281.09</ele>
        <time>2019-04-05T09:23:03Z</time>
      </trkpt>
      <trkpt lat="60.19195" lon="7.49898">
        <ele>1281.09</ele>
        <time>2019-04-05T09:23:33Z</time>
      </trkpt>
      <trkpt lat="60.19196" lon="7.49898">
        <ele>1281.09</ele>
        <time>2019-04-05T09:24:03Z</time>
      </trkpt>
      <trkpt lat="60.19196" lon="7.49896">
        <ele>1281.57</ele>
        <time>2019-04-05T09:24:46Z</time>
      </trkpt>
      <trkpt lat="60.19197" lon="7.49896">
        <ele>1281.57</ele>
        <time>2019-04-05T09:25:22Z</time>
      </trkpt>
      <trkpt lat="60.19197" lon="7.49896">
        <ele>1281.57</ele>
        <time>2019-04-05T09:26:00Z</time>
      </trkpt>
      <trkpt lat="60.19196" lon="7.49894">
        <ele>1281.57</ele>
        <time>2019-04-05T09:26:41Z</time>
      </trkpt>
      <trkpt lat="60.19198" lon="7.49895">
        <ele>1281.57</ele>
        <time>2019-04-05T09:27:25Z</time>
      </trkpt>
      <trkpt lat="60.19196" lon="7.49897">
        <ele>1283.02</ele>
        <time>2019-04-05T09:28:01Z</time>
      </trkpt>
      <trkpt lat="60.19198" lon="7.49899">
        <ele>1284.46</ele>
        <time>2019-04-05T09:28:21Z</time>
      </trkpt>
      <trkpt lat="60.19198" lon="7.499">
        <ele>1284.46</ele>
        <time>2019-04-05T09:28:35Z</time>
      </trkpt>
      <trkpt lat="60.19198" lon="7.499">
        <ele>1284.94</ele>
        <time>2019-04-05T09:28:40Z</time>
      </trkpt>
      <trkpt lat="60.19198" lon="7.49904">
        <ele>1284.94</ele>
        <time>2019-04-05T09:28:54Z</time>
      </trkpt>
      <trkpt lat="60.19198" lon="7.49903">
        <ele>1284.94</ele>
        <time>2019-04-05T09:28:55Z</time>
      </trkpt>
      <trkpt lat="60.19199" lon="7.49902">
        <ele>1283.5</ele>
        <time>2019-04-05T09:29:01Z</time>
      </trkpt>
      <trkpt lat="60.19194" lon="7.49934">
        <ele>1284.94</ele>
        <time>2019-04-05T09:29:15Z</time>
      </trkpt>
      <trkpt lat="60.19193" lon="7.49939">
        <ele>1284.94</ele>
        <time>2019-04-05T09:29:18Z</time>
      </trkpt>
      <trkpt lat="60.19197" lon="7.49946">
        <ele>1284.94</ele>
        <time>2019-04-05T09:29:24Z</time>
      </trkpt>
      <trkpt lat="60.19198" lon="7.49937">
        <ele>1283.02</ele>
        <time>2019-04-05T09:29:35Z</time>
      </trkpt>
      <trkpt lat="60.19197" lon="7.49935">
        <ele>1284.94</ele>
        <time>2019-04-05T09:29:46Z</time>
      </trkpt>
      <trkpt lat="60.19196" lon="7.49933">
        <ele>1284.46</ele>
        <time>2019-04-05T09:29:56Z</time>
      </trkpt>
      <trkpt lat="60.19196" lon="7.49934">
        <ele>1279.17</ele>
        <time>2019-04-05T09:29:58Z</time>
      </trkpt>
      <trkpt lat="60.19196" lon="7.49932">
        <ele>1287.34</ele>
        <time>2019-04-05T09:29:59Z</time>
      </trkpt>
      <trkpt lat="60.19196" lon="7.49932">
        <ele>1283.02</ele>
        <time>2019-04-05T09:30:02Z</time>
      </trkpt>
      <trkpt lat="60.19194" lon="7.49932">
        <ele>1284.94</ele>
        <time>2019-04-05T09:30:18Z</time>
      </trkpt>
      <trkpt lat="60.19194" lon="7.49933">
        <ele>1283.98</ele>
        <time>2019-04-05T09:30:35Z</time>
      </trkpt>
      <trkpt lat="60.19195" lon="7.49932">
        <ele>1284.94</ele>
        <time>2019-04-05T09:30:44Z</time>
      </trkpt>
      <trkpt lat="60.19194" lon="7.49929">
        <ele>1284.94</ele>
        <time>2019-04-05T09:31:06Z</time>
      </trkpt>
      <trkpt lat="60.19193" lon="7.49927">
        <ele>1284.94</ele>
        <time>2019-04-05T09:31:28Z</time>
      </trkpt>
      <trkpt lat="60.19195" lon="7.49931">
        <ele>1284.94</ele>
        <time>2019-04-05T09:31:48Z</time>
      </trkpt>
      <trkpt lat="60.19194" lon="7.49931">
        <ele>1283.02</ele>
        <time>2019-04-05T09:32:05Z</time>
      </trkpt>
      <trkpt lat="60.19196" lon="7.49931">
        <ele>1283.98</ele>
        <time>2019-04-05T09:32:31Z</time>
      </trkpt>
      <trkpt lat="60.19196" lon="7.4993">
        <ele>1283.98</ele>
        <time>2019-04-05T09:32:56Z</time>
      </trkpt>
      <trkpt lat="60.19195" lon="7.49929">
        <ele>1283.5</ele>
        <time>2019-04-05T09:33:22Z</time>
      </trkpt>
      <trkpt lat="60.19195" lon="7.49929">
        <ele>1283.5</ele>
        <time>2019-04-05T09:33:23Z</time>
      </trkpt>
      <trkpt lat="60.19195" lon="7.49928">
        <ele>1284.94</ele>
        <time>2019-04-05T09:33:28Z</time>
      </trkpt>
      <trkpt lat="60.19194" lon="7.4993">
        <ele>1284.46</ele>
        <time>2019-04-05T09:33:46Z</time>
      </trkpt>
      <trkpt lat="60.19195" lon="7.49927">
        <ele>1284.46</ele>
        <time>2019-04-05T09:34:12Z</time>
      </trkpt>
      <trkpt lat="60.19195" lon="7.49931">
        <ele>1284.46</ele>
        <time>2019-04-05T09:34:31Z</time>
      </trkpt>
      <trkpt lat="60.19199" lon="7.49935">
        <ele>1284.46</ele>
        <time>2019-04-05T09:34:45Z</time>
      </trkpt>
      <trkpt lat="60.19198" lon="7.49931">
        <ele>1284.46</ele>
        <time>2019-04-05T09:34:56Z</time>
      </trkpt>
      <trkpt lat="60.19177" lon="7.49955">
        <ele>1284.46</ele>
        <time>2019-04-05T09:35:09Z</time>
      </trkpt>
      <trkpt lat="60.19174" lon="7.49958">
        <ele>1284.46</ele>
        <time>2019-04-05T09:35:10Z</time>
      </trkpt>
      <trkpt lat="60.19162" lon="7.49995">
        <ele>1284.46</ele>
        <time>2019-04-05T09:35:15Z</time>
      </trkpt>
      <trkpt lat="60.1916" lon="7.50013">
        <ele>1284.94</ele>
        <time>2019-04-05T09:35:17Z</time>
      </trkpt>
      <trkpt lat="60.19148" lon="7.50085">
        <ele>1285.42</ele>
        <time>2019-04-05T09:35:27Z</time>
      </trkpt>
      <trkpt lat="60.19144" lon="7.50109">
        <ele>1285.42</ele>
        <time>2019-04-05T09:35:30Z</time>
      </trkpt>
      <trkpt lat="60.19138" lon="7.50131">
        <ele>1286.38</ele>
        <time>2019-04-05T09:35:33Z</time>
      </trkpt>
      <trkpt lat="60.19131" lon="7.50176">
        <ele>1286.38</ele>
        <time>2019-04-05T09:35:38Z</time>
      </trkpt>
      <trkpt lat="60.19124" lon="7.50196">
        <ele>1286.38</ele>
        <time>2019-04-05T09:35:43Z</time>
      </trkpt>
      <trkpt lat="60.19121" lon="7.50198">
        <ele>1286.86</ele>
        <time>2019-04-05T09:36:02Z</time>
      </trkpt>
      <trkpt lat="60.1912" lon="7.50199">
        <ele>1286.86</ele>
        <time>2019-04-05T09:36:27Z</time>
      </trkpt>
      <trkpt lat="60.1912" lon="7.50202">
        <ele>1287.34</ele>
        <time>2019-04-05T09:37:01Z</time>
      </trkpt>
      <trkpt lat="60.19115" lon="7.50203">
        <ele>1287.34</ele>
        <time>2019-04-05T09:37:25Z</time>
      </trkpt>
      <trkpt lat="60.191" lon="7.50242">
        <ele>1288.78</ele>
        <time>2019-04-05T09:37:31Z</time>
      </trkpt>
      <trkpt lat="60.19088" lon="7.503">
        <ele>1291.19</ele>
        <time>2019-04-05T09:37:37Z</time>
      </trkpt>
      <trkpt lat="60.19086" lon="7.50341">
        <ele>1288.3</ele>
        <time>2019-04-05T09:37:41Z</time>
      </trkpt>
      <trkpt lat="60.19086" lon="7.50362">
        <ele>1285.9</ele>
        <time>2019-04-05T09:37:44Z</time>
      </trkpt>
      <trkpt lat="60.19086" lon="7.50368">
        <ele>1288.3</ele>
        <time>2019-04-05T09:37:45Z</time>
      </trkpt>
      <trkpt lat="60.19079" lon="7.50369">
        <ele>1288.78</ele>
        <time>2019-04-05T09:37:53Z</time>
      </trkpt>
      <trkpt lat="60.19091" lon="7.50361">
        <ele>1290.71</ele>
        <time>2019-04-05T09:37:58Z</time>
      </trkpt>
      <trkpt lat="60.191" lon="7.50363">
        <ele>1290.71</ele>
        <time>2019-04-05T09:38:00Z</time>
      </trkpt>
      <trkpt lat="60.19142" lon="7.50373">
        <ele>1289.27</ele>
        <time>2019-04-05T09:38:08Z</time>
      </trkpt>
      <trkpt lat="60.19214" lon="7.50387">
        <ele>1289.75</ele>
        <time>2019-04-05T09:38:21Z</time>
      </trkpt>
      <trkpt lat="60.19218" lon="7.50388">
        <ele>1289.75</ele>
        <time>2019-04-05T09:38:22Z</time>
      </trkpt>
      <trkpt lat="60.19251" lon="7.50401">
        <ele>1288.78</ele>
        <time>2019-04-05T09:38:29Z</time>
      </trkpt>
      <trkpt lat="60.19264" lon="7.50404">
        <ele>1288.78</ele>
        <time>2019-04-05T09:38:32Z</time>
      </trkpt>
      <trkpt lat="60.19278" lon="7.50417">
        <ele>1287.82</ele>
        <time>2019-04-05T09:38:38Z</time>
      </trkpt>
      <trkpt lat="60.19278" lon="7.50416">
        <ele>1287.34</ele>
        <time>2019-04-05T09:38:40Z</time>
      </trkpt>
      <trkpt lat="60.19276" lon="7.50411">
        <ele>1286.86</ele>
        <time>2019-04-05T09:38:49Z</time>
      </trkpt>
      <trkpt lat="60.19273" lon="7.50409">
        <ele>1286.86</ele>
        <time>2019-04-05T09:39:08Z</time>
      </trkpt>
      <trkpt lat="60.19276" lon="7.50407">
        <ele>1286.86</ele>
        <time>2019-04-05T09:39:20Z</time>
      </trkpt>
      <trkpt lat="60.19277" lon="7.50406">
        <ele>1286.86</ele>
        <time>2019-04-05T09:39:29Z</time>
      </trkpt>
      <trkpt lat="60.19287" lon="7.50404">
        <ele>1288.3</ele>
        <time>2019-04-05T09:39:34Z</time>
      </trkpt>
      <trkpt lat="60.19321" lon="7.50416">
        <ele>1289.27</ele>
        <time>2019-04-05T09:39:45Z</time>
      </trkpt>
      <trkpt lat="60.19329" lon="7.50416">
        <ele>1289.27</ele>
        <time>2019-04-05T09:39:47Z</time>
      </trkpt>
      <trkpt lat="60.19342" lon="7.5042">
        <ele>1289.27</ele>
        <time>2019-04-05T09:39:50Z</time>
      </trkpt>
      <trkpt lat="60.19362" lon="7.50423">
        <ele>1288.78</ele>
        <time>2019-04-05T09:39:54Z</time>
      </trkpt>
      <trkpt lat="60.19384" lon="7.50428">
        <ele>1289.27</ele>
        <time>2019-04-05T09:39:58Z</time>
      </trkpt>
      <trkpt lat="60.19406" lon="7.50436">
        <ele>1287.82</ele>
        <time>2019-04-05T09:40:02Z</time>
      </trkpt>
      <trkpt lat="60.19421" lon="7.50441">
        <ele>1287.34</ele>
        <time>2019-04-05T09:40:05Z</time>
      </trkpt>
      <trkpt lat="60.19446" lon="7.50452">
        <ele>1287.34</ele>
        <time>2019-04-05T09:40:10Z</time>
      </trkpt>
      <trkpt lat="60.19459" lon="7.50458">
        <ele>1287.34</ele>
        <time>2019-04-05T09:40:13Z</time>
      </trkpt>
      <trkpt lat="60.19481" lon="7.50458">
        <ele>1287.34</ele>
        <time>2019-04-05T09:40:18Z</time>
      </trkpt>
      <trkpt lat="60.19495" lon="7.50454">
        <ele>1288.78</ele>
        <time>2019-04-05T09:40:21Z</time>
      </trkpt>
      <trkpt lat="60.195" lon="7.50452">
        <ele>1289.75</ele>
        <time>2019-04-05T09:40:22Z</time>
      </trkpt>
      <trkpt lat="60.19544" lon="7.50453">
        <ele>1293.59</ele>
        <time>2019-04-05T09:40:34Z</time>
      </trkpt>
      <trkpt lat="60.19546" lon="7.50454">
        <ele>1294.55</ele>
        <time>2019-04-05T09:40:35Z</time>
      </trkpt>
      <trkpt lat="60.19541" lon="7.50461">
        <ele>1291.19</ele>
        <time>2019-04-05T09:40:41Z</time>
      </trkpt>
      <trkpt lat="60.19539" lon="7.50482">
        <ele>1290.23</ele>
        <time>2019-04-05T09:40:43Z</time>
      </trkpt>
      <trkpt lat="60.19538" lon="7.50492">
        <ele>1290.23</ele>
        <time>2019-04-05T09:40:44Z</time>
      </trkpt>
      <trkpt lat="60.19536" lon="7.50527">
        <ele>1287.34</ele>
        <time>2019-04-05T09:40:47Z</time>
      </trkpt>
      <trkpt lat="60.19535" lon="7.50571">
        <ele>1283.5</ele>
        <time>2019-04-05T09:40:51Z</time>
      </trkpt>
      <trkpt lat="60.19535" lon="7.50582">
        <ele>1283.5</ele>
        <time>2019-04-05T09:40:52Z</time>
      </trkpt>
      <trkpt lat="60.19535" lon="7.50592">
        <ele>1283.5</ele>
        <time>2019-04-05T09:40:53Z</time>
      </trkpt>
      <trkpt lat="60.19532" lon="7.50625">
        <ele>1284.46</ele>
        <time>2019-04-05T09:40:56Z</time>
      </trkpt>
      <trkpt lat="60.19531" lon="7.50646">
        <ele>1283.5</ele>
        <time>2019-04-05T09:40:58Z</time>
      </trkpt>
      <trkpt lat="60.19529" lon="7.50666">
        <ele>1283.02</ele>
        <time>2019-04-05T09:41:00Z</time>
      </trkpt>
      <trkpt lat="60.19519" lon="7.50733">
        <ele>1284.46</ele>
        <time>2019-04-05T09:41:08Z</time>
      </trkpt>
      <trkpt lat="60.19513" lon="7.50757">
        <ele>1283.02</ele>
        <time>2019-04-05T09:41:11Z</time>
      </trkpt>
      <trkpt lat="60.19499" lon="7.50819">
        <ele>1283.5</ele>
        <time>2019-04-05T09:41:18Z</time>
      </trkpt>
      <trkpt lat="60.19493" lon="7.50858">
        <ele>1283.5</ele>
        <time>2019-04-05T09:41:22Z</time>
      </trkpt>
      <trkpt lat="60.19488" lon="7.50875">
        <ele>1284.46</ele>
        <time>2019-04-05T09:41:24Z</time>
      </trkpt>
      <trkpt lat="60.19456" lon="7.51041">
        <ele>1281.57</ele>
        <time>2019-04-05T09:41:41Z</time>
      </trkpt>
      <trkpt lat="60.19442" lon="7.51103">
        <ele>1278.69</ele>
        <time>2019-04-05T09:41:47Z</time>
      </trkpt>
      <trkpt lat="60.19432" lon="7.51146">
        <ele>1280.13</ele>
        <time>2019-04-05T09:41:51Z</time>
      </trkpt>
      <trkpt lat="60.19425" lon="7.51175">
        <ele>1280.13</ele>
        <time>2019-04-05T09:41:54Z</time>
      </trkpt>
      <trkpt lat="60.19406" lon="7.51271">
        <ele>1280.61</ele>
        <time>2019-04-05T09:42:04Z</time>
      </trkpt>
      <trkpt lat="60.194" lon="7.51304">
        <ele>1278.69</ele>
        <time>2019-04-05T09:42:07Z</time>
      </trkpt>
      <trkpt lat="60.19398" lon="7.51315">
        <ele>1278.69</ele>
        <time>2019-04-05T09:42:08Z</time>
      </trkpt>
      <trkpt lat="60.19389" lon="7.51358">
        <ele>1278.69</ele>
        <time>2019-04-05T09:42:13Z</time>
      </trkpt>
      <trkpt lat="60.19385" lon="7.51366">
        <ele>1280.13</ele>
        <time>2019-04-05T09:42:15Z</time>
      </trkpt>
      <trkpt lat="60.1937" lon="7.51366">
        <ele>1281.57</ele>
        <time>2019-04-05T09:42:20Z</time>
      </trkpt>
      <trkpt lat="60.19359" lon="7.51378">
        <ele>1284.94</ele>
        <time>2019-04-05T09:42:23Z</time>
      </trkpt>
      <trkpt lat="60.19348" lon="7.51411">
        <ele>1287.82</ele>
        <time>2019-04-05T09:42:28Z</time>
      </trkpt>
      <trkpt lat="60.19338" lon="7.51428">
        <ele>1288.78</ele>
        <time>2019-04-05T09:42:32Z</time>
      </trkpt>
      <trkpt lat="60.19323" lon="7.51457">
        <ele>1291.19</ele>
        <time>2019-04-05T09:42:37Z</time>
      </trkpt>
      <trkpt lat="60.19296" lon="7.51524">
        <ele>1295.03</ele>
        <time>2019-04-05T09:42:48Z</time>
      </trkpt>
      <trkpt lat="60.19276" lon="7.51553">
        <ele>1296.96</ele>
        <time>2019-04-05T09:42:57Z</time>
      </trkpt>
      <trkpt lat="60.19274" lon="7.51551">
        <ele>1297.92</ele>
        <time>2019-04-05T09:43:11Z</time>
      </trkpt>
      <trkpt lat="60.19275" lon="7.51551">
        <ele>1297.92</ele>
        <time>2019-04-05T09:43:44Z</time>
      </trkpt>
      <trkpt lat="60.19275" lon="7.5155">
        <ele>1297.92</ele>
        <time>2019-04-05T09:44:11Z</time>
      </trkpt>
      <trkpt lat="60.19275" lon="7.5155">
        <ele>1297.92</ele>
        <time>2019-04-05T09:44:49Z</time>
      </trkpt>
      <trkpt lat="60.19275" lon="7.51548">
        <ele>1297.92</ele>
        <time>2019-04-05T09:45:06Z</time>
      </trkpt>
      <trkpt lat="60.19285" lon="7.51552">
        <ele>1295.51</ele>
        <time>2019-04-05T09:45:15Z</time>
      </trkpt>
      <trkpt lat="60.19285" lon="7.51555">
        <ele>1295.51</ele>
        <time>2019-04-05T09:45:35Z</time>
      </trkpt>
      <trkpt lat="60.19287" lon="7.51556">
        <ele>1295.51</ele>
        <time>2019-04-05T09:45:58Z</time>
      </trkpt>
      <trkpt lat="60.19288" lon="7.51555">
        <ele>1295.99</ele>
        <time>2019-04-05T09:46:09Z</time>
      </trkpt>
      <trkpt lat="60.193" lon="7.51548">
        <ele>1295.51</ele>
        <time>2019-04-05T09:46:15Z</time>
      </trkpt>
      <trkpt lat="60.19314" lon="7.5153">
        <ele>1294.55</ele>
        <time>2019-04-05T09:46:18Z</time>
      </trkpt>
      <trkpt lat="60.19352" lon="7.51498">
        <ele>1291.19</ele>
        <time>2019-04-05T09:46:23Z</time>
      </trkpt>
      <trkpt lat="60.19383" lon="7.51466">
        <ele>1286.86</ele>
        <time>2019-04-05T09:46:27Z</time>
      </trkpt>
      <trkpt lat="60.19408" lon="7.51451">
        <ele>1284.94</ele>
        <time>2019-04-05T09:46:30Z</time>
      </trkpt>
      <trkpt lat="60.19416" lon="7.51449">
        <ele>1283.98</ele>
        <time>2019-04-05T09:46:31Z</time>
      </trkpt>
      <trkpt lat="60.19425" lon="7.51435">
        <ele>1278.69</ele>
        <time>2019-04-05T09:46:33Z</time>
      </trkpt>
      <trkpt lat="60.19424" lon="7.51426">
        <ele>1276.77</ele>
        <time>2019-04-05T09:46:35Z</time>
      </trkpt>
      <trkpt lat="60.19422" lon="7.51419">
        <ele>1276.77</ele>
        <time>2019-04-05T09:46:38Z</time>
      </trkpt>
      <trkpt lat="60.19397" lon="7.51405">
        <ele>1279.17</ele>
        <time>2019-04-05T09:46:46Z</time>
      </trkpt>
      <trkpt lat="60.19395" lon="7.51405">
        <ele>1279.65</ele>
        <time>2019-04-05T09:46:47Z</time>
      </trkpt>
      <trkpt lat="60.19369" lon="7.51413">
        <ele>1283.98</ele>
        <time>2019-04-05T09:46:56Z</time>
      </trkpt>
      <trkpt lat="60.19364" lon="7.51423">
        <ele>1284.94</ele>
        <time>2019-04-05T09:46:58Z</time>
      </trkpt>
      <trkpt lat="60.19356" lon="7.51435">
        <ele>1286.86</ele>
        <time>2019-04-05T09:47:01Z</time>
      </trkpt>
      <trkpt lat="60.19353" lon="7.51436">
        <ele>1287.34</ele>
        <time>2019-04-05T09:47:03Z</time>
      </trkpt>
      <trkpt lat="60.19342" lon="7.51433">
        <ele>1287.82</ele>
        <time>2019-04-05T09:47:09Z</time>
      </trkpt>
      <trkpt lat="60.1934" lon="7.51433">
        <ele>1288.78</ele>
        <time>2019-04-05T09:47:23Z</time>
      </trkpt>
      <trkpt lat="60.1934" lon="7.51431">
        <ele>1288.78</ele>
        <time>2019-04-05T09:47:32Z</time>
      </trkpt>
      <trkpt lat="60.19353" lon="7.51428">
        <ele>1288.78</ele>
        <time>2019-04-05T09:47:38Z</time>
      </trkpt>
      <trkpt lat="60.1938" lon="7.51445">
        <ele>1287.34</ele>
        <time>2019-04-05T09:47:44Z</time>
      </trkpt>
      <trkpt lat="60.19398" lon="7.51456">
        <ele>1284.94</ele>
        <time>2019-04-05T09:47:47Z</time>
      </trkpt>
      <trkpt lat="60.19417" lon="7.51465">
        <ele>1283.5</ele>
        <time>2019-04-05T09:47:50Z</time>
      </trkpt>
      <trkpt lat="60.19429" lon="7.51473">
        <ele>1280.13</ele>
        <time>2019-04-05T09:47:52Z</time>
      </trkpt>
      <trkpt lat="60.19436" lon="7.51477">
        <ele>1280.13</ele>
        <time>2019-04-05T09:47:53Z</time>
      </trkpt>
      <trkpt lat="60.19452" lon="7.51484">
        <ele>1278.69</ele>
        <time>2019-04-05T09:47:56Z</time>
      </trkpt>
      <trkpt lat="60.19487" lon="7.51492">
        <ele>1279.17</ele>
        <time>2019-04-05T09:48:03Z</time>
      </trkpt>
      <trkpt lat="60.19497" lon="7.51492">
        <ele>1279.17</ele>
        <time>2019-04-05T09:48:05Z</time>
      </trkpt>
      <trkpt lat="60.19528" lon="7.51497">
        <ele>1279.17</ele>
        <time>2019-04-05T09:48:12Z</time>
      </trkpt>
      <trkpt lat="60.19554" lon="7.51507">
        <ele>1279.17</ele>
        <time>2019-04-05T09:48:18Z</time>
      </trkpt>
      <trkpt lat="60.19562" lon="7.51513">
        <ele>1279.17</ele>
        <time>2019-04-05T09:48:20Z</time>
      </trkpt>
      <trkpt lat="60.19571" lon="7.51516">
        <ele>1278.21</ele>
        <time>2019-04-05T09:48:22Z</time>
      </trkpt>
      <trkpt lat="60.19587" lon="7.51528">
        <ele>1278.21</ele>
        <time>2019-04-05T09:48:26Z</time>
      </trkpt>
      <trkpt lat="60.19587" lon="7.51526">
        <ele>1276.77</ele>
        <time>2019-04-05T09:48:28Z</time>
      </trkpt>
      <trkpt lat="60.19577" lon="7.5154">
        <ele>1274.36</ele>
        <time>2019-04-05T09:48:31Z</time>
      </trkpt>
      <trkpt lat="60.19567" lon="7.5156">
        <ele>1275.81</ele>
        <time>2019-04-05T09:48:34Z</time>
      </trkpt>
      <trkpt lat="60.19555" lon="7.51588">
        <ele>1275.81</ele>
        <time>2019-04-05T09:48:37Z</time>
      </trkpt>
      <trkpt lat="60.19532" lon="7.51672">
        <ele>1275.33</ele>
        <time>2019-04-05T09:48:45Z</time>
      </trkpt>
      <trkpt lat="60.19524" lon="7.517">
        <ele>1277.73</ele>
        <time>2019-04-05T09:48:48Z</time>
      </trkpt>
      <trkpt lat="60.19517" lon="7.5172">
        <ele>1276.29</ele>
        <time>2019-04-05T09:48:50Z</time>
      </trkpt>
      <trkpt lat="60.19505" lon="7.51757">
        <ele>1278.21</ele>
        <time>2019-04-05T09:48:54Z</time>
      </trkpt>
      <trkpt lat="60.19494" lon="7.51799">
        <ele>1279.17</ele>
        <time>2019-04-05T09:48:59Z</time>
      </trkpt>
      <trkpt lat="60.1949" lon="7.51809">
        <ele>1279.17</ele>
        <time>2019-04-05T09:49:01Z</time>
      </trkpt>
      <trkpt lat="60.19483" lon="7.51826">
        <ele>1279.65</ele>
        <time>2019-04-05T09:49:06Z</time>
      </trkpt>
      <trkpt lat="60.19468" lon="7.51839">
        <ele>1281.57</ele>
        <time>2019-04-05T09:49:11Z</time>
      </trkpt>
      <trkpt lat="60.19448" lon="7.51876">
        <ele>1283.98</ele>
        <time>2019-04-05T09:49:20Z</time>
      </trkpt>
      <trkpt lat="60.19433" lon="7.51925">
        <ele>1285.9</ele>
        <time>2019-04-05T09:49:29Z</time>
      </trkpt>
      <trkpt lat="60.19423" lon="7.51948">
        <ele>1287.34</ele>
        <time>2019-04-05T09:49:35Z</time>
      </trkpt>
      <trkpt lat="60.19415" lon="7.51951">
        <ele>1287.82</ele>
        <time>2019-04-05T09:49:37Z</time>
      </trkpt>
      <trkpt lat="60.19394" lon="7.51997">
        <ele>1289.75</ele>
        <time>2019-04-05T09:49:44Z</time>
      </trkpt>
      <trkpt lat="60.19381" lon="7.52023">
        <ele>1290.23</ele>
        <time>2019-04-05T09:49:48Z</time>
      </trkpt>
      <trkpt lat="60.19365" lon="7.52056">
        <ele>1290.71</ele>
        <time>2019-04-05T09:49:53Z</time>
      </trkpt>
      <trkpt lat="60.19353" lon="7.52082">
        <ele>1291.19</ele>
        <time>2019-04-05T09:49:57Z</time>
      </trkpt>
      <trkpt lat="60.19334" lon="7.52113">
        <ele>1292.63</ele>
        <time>2019-04-05T09:50:02Z</time>
      </trkpt>
      <trkpt lat="60.19325" lon="7.52133">
        <ele>1293.59</ele>
        <time>2019-04-05T09:50:05Z</time>
      </trkpt>
      <trkpt lat="60.19315" lon="7.52148">
        <ele>1293.59</ele>
        <time>2019-04-05T09:50:08Z</time>
      </trkpt>
      <trkpt lat="60.19294" lon="7.52188">
        <ele>1295.03</ele>
        <time>2019-04-05T09:50:14Z</time>
      </trkpt>
      <trkpt lat="60.19286" lon="7.52201">
        <ele>1295.03</ele>
        <time>2019-04-05T09:50:16Z</time>
      </trkpt>
      <trkpt lat="60.19258" lon="7.52262">
        <ele>1295.03</ele>
        <time>2019-04-05T09:50:23Z</time>
      </trkpt>
      <trkpt lat="60.19245" lon="7.52282">
        <ele>1292.63</ele>
        <time>2019-04-05T09:50:27Z</time>
      </trkpt>
      <trkpt lat="60.19253" lon="7.52274">
        <ele>1294.55</ele>
        <time>2019-04-05T09:50:32Z</time>
      </trkpt>
      <trkpt lat="60.19269" lon="7.52255">
        <ele>1294.55</ele>
        <time>2019-04-05T09:50:38Z</time>
      </trkpt>
      <trkpt lat="60.19312" lon="7.5225">
        <ele>1295.51</ele>
        <time>2019-04-05T09:50:50Z</time>
      </trkpt>
      <trkpt lat="60.19345" lon="7.52254">
        <ele>1295.99</ele>
        <time>2019-04-05T09:51:00Z</time>
      </trkpt>
      <trkpt lat="60.1935" lon="7.52254">
        <ele>1295.99</ele>
        <time>2019-04-05T09:51:01Z</time>
      </trkpt>
      <trkpt lat="60.1938" lon="7.52264">
        <ele>1294.55</ele>
        <time>2019-04-05T09:51:08Z</time>
      </trkpt>
      <trkpt lat="60.19393" lon="7.52269">
        <ele>1294.55</ele>
        <time>2019-04-05T09:51:11Z</time>
      </trkpt>
      <trkpt lat="60.19402" lon="7.52271">
        <ele>1294.07</ele>
        <time>2019-04-05T09:51:13Z</time>
      </trkpt>
      <trkpt lat="60.19415" lon="7.52276">
        <ele>1294.07</ele>
        <time>2019-04-05T09:51:16Z</time>
      </trkpt>
      <trkpt lat="60.19425" lon="7.52278">
        <ele>1293.11</ele>
        <time>2019-04-05T09:51:18Z</time>
      </trkpt>
      <trkpt lat="60.19455" lon="7.52295">
        <ele>1292.15</ele>
        <time>2019-04-05T09:51:26Z</time>
      </trkpt>
      <trkpt lat="60.19463" lon="7.52301">
        <ele>1292.15</ele>
        <time>2019-04-05T09:51:28Z</time>
      </trkpt>
      <trkpt lat="60.19498" lon="7.5232">
        <ele>1290.71</ele>
        <time>2019-04-05T09:51:36Z</time>
      </trkpt>
      <trkpt lat="60.19513" lon="7.52328">
        <ele>1289.75</ele>
        <time>2019-04-05T09:51:39Z</time>
      </trkpt>
      <trkpt lat="60.19536" lon="7.52343">
        <ele>1288.78</ele>
        <time>2019-04-05T09:51:44Z</time>
      </trkpt>
      <trkpt lat="60.19561" lon="7.52357">
        <ele>1287.82</ele>
        <time>2019-04-05T09:51:51Z</time>
      </trkpt>
      <trkpt lat="60.19571" lon="7.52361">
        <ele>1287.34</ele>
        <time>2019-04-05T09:51:54Z</time>
      </trkpt>
      <trkpt lat="60.19615" lon="7.52401">
        <ele>1285.9</ele>
        <time>2019-04-05T09:52:07Z</time>
      </trkpt>
      <trkpt lat="60.19643" lon="7.52423">
        <ele>1284.46</ele>
        <time>2019-04-05T09:52:15Z</time>
      </trkpt>
      <trkpt lat="60.19676" lon="7.52461">
        <ele>1283.98</ele>
        <time>2019-04-05T09:52:27Z</time>
      </trkpt>
      <trkpt lat="60.19706" lon="7.52485">
        <ele>1282.54</ele>
        <time>2019-04-05T09:52:37Z</time>
      </trkpt>
      <trkpt lat="60.19717" lon="7.52496">
        <ele>1282.06</ele>
        <time>2019-04-05T09:52:40Z</time>
      </trkpt>
      <trkpt lat="60.19743" lon="7.52528">
        <ele>1280.61</ele>
        <time>2019-04-05T09:52:48Z</time>
      </trkpt>
      <trkpt lat="60.19745" lon="7.52526">
        <ele>1279.17</ele>
        <time>2019-04-05T09:52:52Z</time>
      </trkpt>
      <trkpt lat="60.19732" lon="7.52535">
        <ele>1280.61</ele>
        <time>2019-04-05T09:52:57Z</time>
      </trkpt>
      <trkpt lat="60.1971" lon="7.52544">
        <ele>1282.54</ele>
        <time>2019-04-05T09:53:03Z</time>
      </trkpt>
      <trkpt lat="60.19707" lon="7.52549">
        <ele>1282.54</ele>
        <time>2019-04-05T09:53:04Z</time>
      </trkpt>
      <trkpt lat="60.19702" lon="7.52557">
        <ele>1282.54</ele>
        <time>2019-04-05T09:53:06Z</time>
      </trkpt>
      <trkpt lat="60.19673" lon="7.52574">
        <ele>1284.94</ele>
        <time>2019-04-05T09:53:14Z</time>
      </trkpt>
      <trkpt lat="60.1967" lon="7.5258">
        <ele>1285.42</ele>
        <time>2019-04-05T09:53:15Z</time>
      </trkpt>
      <trkpt lat="60.19665" lon="7.52587">
        <ele>1285.42</ele>
        <time>2019-04-05T09:53:17Z</time>
      </trkpt>
      <trkpt lat="60.19649" lon="7.52589">
        <ele>1286.86</ele>
        <time>2019-04-05T09:53:22Z</time>
      </trkpt>
      <trkpt lat="60.19635" lon="7.52598">
        <ele>1286.86</ele>
        <time>2019-04-05T09:53:26Z</time>
      </trkpt>
      <trkpt lat="60.19624" lon="7.52612">
        <ele>1288.78</ele>
        <time>2019-04-05T09:53:29Z</time>
      </trkpt>
      <trkpt lat="60.19618" lon="7.52619">
        <ele>1288.78</ele>
        <time>2019-04-05T09:53:31Z</time>
      </trkpt>
      <trkpt lat="60.19606" lon="7.52634">
        <ele>1289.75</ele>
        <time>2019-04-05T09:53:35Z</time>
      </trkpt>
      <trkpt lat="60.1959" lon="7.52653">
        <ele>1290.71</ele>
        <time>2019-04-05T09:53:41Z</time>
      </trkpt>
      <trkpt lat="60.19577" lon="7.52658">
        <ele>1291.19</ele>
        <time>2019-04-05T09:53:46Z</time>
      </trkpt>
      <trkpt lat="60.19546" lon="7.52699">
        <ele>1293.11</ele>
        <time>2019-04-05T09:53:55Z</time>
      </trkpt>
      <trkpt lat="60.19537" lon="7.52703">
        <ele>1293.11</ele>
        <time>2019-04-05T09:54:02Z</time>
      </trkpt>
      <trkpt lat="60.19539" lon="7.52704">
        <ele>1293.11</ele>
        <time>2019-04-05T09:54:03Z</time>
      </trkpt>
      <trkpt lat="60.19549" lon="7.52717">
        <ele>1293.11</ele>
        <time>2019-04-05T09:54:10Z</time>
      </trkpt>
      <trkpt lat="60.19575" lon="7.52732">
        <ele>1293.11</ele>
        <time>2019-04-05T09:54:21Z</time>
      </trkpt>
      <trkpt lat="60.19591" lon="7.52747">
        <ele>1291.67</ele>
        <time>2019-04-05T09:54:27Z</time>
      </trkpt>
      <trkpt lat="60.19626" lon="7.52781">
        <ele>1290.23</ele>
        <time>2019-04-05T09:54:38Z</time>
      </trkpt>
      <trkpt lat="60.19662" lon="7.52814">
        <ele>1288.78</ele>
        <time>2019-04-05T09:54:50Z</time>
      </trkpt>
      <trkpt lat="60.19669" lon="7.52815">
        <ele>1288.3</ele>
        <time>2019-04-05T09:54:52Z</time>
      </trkpt>
      <trkpt lat="60.19687" lon="7.52824">
        <ele>1288.3</ele>
        <time>2019-04-05T09:54:56Z</time>
      </trkpt>
      <trkpt lat="60.19728" lon="7.52866">
        <ele>1286.86</ele>
        <time>2019-04-05T09:55:08Z</time>
      </trkpt>
      <trkpt lat="60.19782" lon="7.52934">
        <ele>1283.02</ele>
        <time>2019-04-05T09:55:23Z</time>
      </trkpt>
      <trkpt lat="60.19813" lon="7.52964">
        <ele>1280.61</ele>
        <time>2019-04-05T09:55:31Z</time>
      </trkpt>
      <trkpt lat="60.19825" lon="7.52978">
        <ele>1280.13</ele>
        <time>2019-04-05T09:55:34Z</time>
      </trkpt>
      <trkpt lat="60.19853" lon="7.53005">
        <ele>1278.21</ele>
        <time>2019-04-05T09:55:41Z</time>
      </trkpt>
      <trkpt lat="60.1989" lon="7.53055">
        <ele>1275.81</ele>
        <time>2019-04-05T09:55:50Z</time>
      </trkpt>
      <trkpt lat="60.19916" lon="7.5309">
        <ele>1272.44</ele>
        <time>2019-04-05T09:55:56Z</time>
      </trkpt>
      <trkpt lat="60.19938" lon="7.53119">
        <ele>1269.56</ele>
        <time>2019-04-05T09:56:01Z</time>
      </trkpt>
      <trkpt lat="60.19942" lon="7.53125">
        <ele>1269.56</ele>
        <time>2019-04-05T09:56:02Z</time>
      </trkpt>
      <trkpt lat="60.1996" lon="7.53147">
        <ele>1267.16</ele>
        <time>2019-04-05T09:56:06Z</time>
      </trkpt>
      <trkpt lat="60.19977" lon="7.53167">
        <ele>1266.19</ele>
        <time>2019-04-05T09:56:10Z</time>
      </trkpt>
      <trkpt lat="60.2" lon="7.53192">
        <ele>1266.19</ele>
        <time>2019-04-05T09:56:16Z</time>
      </trkpt>
      <trkpt lat="60.20027" lon="7.53231">
        <ele>1263.31</ele>
        <time>2019-04-05T09:56:23Z</time>
      </trkpt>
      <trkpt lat="60.20041" lon="7.53251">
        <ele>1260.91</ele>
        <time>2019-04-05T09:56:26Z</time>
      </trkpt>
      <trkpt lat="60.20065" lon="7.53285">
        <ele>1258.02</ele>
        <time>2019-04-05T09:56:31Z</time>
      </trkpt>
      <trkpt lat="60.20092" lon="7.53314">
        <ele>1256.58</ele>
        <time>2019-04-05T09:56:39Z</time>
      </trkpt>
      <trkpt lat="60.20107" lon="7.53329">
        <ele>1256.1</ele>
        <time>2019-04-05T09:56:43Z</time>
      </trkpt>
      <trkpt lat="60.2014" lon="7.53355">
        <ele>1255.62</ele>
        <time>2019-04-05T09:56:50Z</time>
      </trkpt>
      <trkpt lat="60.20153" lon="7.53369">
        <ele>1255.62</ele>
        <time>2019-04-05T09:56:53Z</time>
      </trkpt>
      <trkpt lat="60.20166" lon="7.53384">
        <ele>1254.66</ele>
        <time>2019-04-05T09:56:56Z</time>
      </trkpt>
      <trkpt lat="60.2018" lon="7.53403">
        <ele>1254.66</ele>
        <time>2019-04-05T09:57:00Z</time>
      </trkpt>
      <trkpt lat="60.20181" lon="7.53398">
        <ele>1252.74</ele>
        <time>2019-04-05T09:57:04Z</time>
      </trkpt>
      <trkpt lat="60.20165" lon="7.5341">
        <ele>1253.7</ele>
        <time>2019-04-05T09:57:08Z</time>
      </trkpt>
      <trkpt lat="60.20141" lon="7.53426">
        <ele>1254.18</ele>
        <time>2019-04-05T09:57:13Z</time>
      </trkpt>
      <trkpt lat="60.20129" lon="7.53442">
        <ele>1255.62</ele>
        <time>2019-04-05T09:57:15Z</time>
      </trkpt>
      <trkpt lat="60.20104" lon="7.53463">
        <ele>1256.58</ele>
        <time>2019-04-05T09:57:19Z</time>
      </trkpt>
      <trkpt lat="60.20079" lon="7.53481">
        <ele>1258.98</ele>
        <time>2019-04-05T09:57:23Z</time>
      </trkpt>
      <trkpt lat="60.20062" lon="7.53491">
        <ele>1261.87</ele>
        <time>2019-04-05T09:57:26Z</time>
      </trkpt>
      <trkpt lat="60.20057" lon="7.53492">
        <ele>1261.87</ele>
        <time>2019-04-05T09:57:27Z</time>
      </trkpt>
      <trkpt lat="60.20036" lon="7.53501">
        <ele>1264.75</ele>
        <time>2019-04-05T09:57:31Z</time>
      </trkpt>
      <trkpt lat="60.20026" lon="7.53504">
        <ele>1266.19</ele>
        <time>2019-04-05T09:57:33Z</time>
      </trkpt>
      <trkpt lat="60.20016" lon="7.5351">
        <ele>1267.16</ele>
        <time>2019-04-05T09:57:35Z</time>
      </trkpt>
      <trkpt lat="60.19995" lon="7.53512">
        <ele>1269.08</ele>
        <time>2019-04-05T09:57:39Z</time>
      </trkpt>
      <trkpt lat="60.19959" lon="7.53517">
        <ele>1273.88</ele>
        <time>2019-04-05T09:57:46Z</time>
      </trkpt>
      <trkpt lat="60.19949" lon="7.5352">
        <ele>1275.33</ele>
        <time>2019-04-05T09:57:48Z</time>
      </trkpt>
      <trkpt lat="60.1994" lon="7.53521">
        <ele>1275.81</ele>
        <time>2019-04-05T09:57:50Z</time>
      </trkpt>
      <trkpt lat="60.19925" lon="7.53531">
        <ele>1277.73</ele>
        <time>2019-04-05T09:57:53Z</time>
      </trkpt>
      <trkpt lat="60.19915" lon="7.53536">
        <ele>1279.17</ele>
        <time>2019-04-05T09:57:55Z</time>
      </trkpt>
      <trkpt lat="60.19889" lon="7.53545">
        <ele>1282.54</ele>
        <time>2019-04-05T09:58:00Z</time>
      </trkpt>
      <trkpt lat="60.19862" lon="7.53561">
        <ele>1285.42</ele>
        <time>2019-04-05T09:58:05Z</time>
      </trkpt>
      <trkpt lat="60.19832" lon="7.5359">
        <ele>1288.78</ele>
        <time>2019-04-05T09:58:11Z</time>
      </trkpt>
      <trkpt lat="60.19817" lon="7.53607">
        <ele>1290.23</ele>
        <time>2019-04-05T09:58:15Z</time>
      </trkpt>
      <trkpt lat="60.19779" lon="7.53647">
        <ele>1292.63</ele>
        <time>2019-04-05T09:58:23Z</time>
      </trkpt>
      <trkpt lat="60.19753" lon="7.53682">
        <ele>1295.51</ele>
        <time>2019-04-05T09:58:31Z</time>
      </trkpt>
      <trkpt lat="60.19729" lon="7.5371">
        <ele>1296.96</ele>
        <time>2019-04-05T09:58:41Z</time>
      </trkpt>
      <trkpt lat="60.19709" lon="7.53742">
        <ele>1298.88</ele>
        <time>2019-04-05T09:58:48Z</time>
      </trkpt>
      <trkpt lat="60.19703" lon="7.5375">
        <ele>1298.88</ele>
        <time>2019-04-05T09:58:52Z</time>
      </trkpt>
      <trkpt lat="60.19699" lon="7.53751">
        <ele>1299.36</ele>
        <time>2019-04-05T09:59:11Z</time>
      </trkpt>
      <trkpt lat="60.19698" lon="7.5375">
        <ele>1299.36</ele>
        <time>2019-04-05T09:59:48Z</time>
      </trkpt>
      <trkpt lat="60.19688" lon="7.53761">
        <ele>1300.32</ele>
        <time>2019-04-05T09:59:53Z</time>
      </trkpt>
      <trkpt lat="60.19658" lon="7.5382">
        <ele>1302.72</ele>
        <time>2019-04-05T10:00:05Z</time>
      </trkpt>
      <trkpt lat="60.19632" lon="7.53888">
        <ele>1303.69</ele>
        <time>2019-04-05T10:00:19Z</time>
      </trkpt>
      <trkpt lat="60.19609" lon="7.53927">
        <ele>1304.65</ele>
        <time>2019-04-05T10:00:34Z</time>
      </trkpt>
      <trkpt lat="60.19608" lon="7.53927">
        <ele>1304.65</ele>
        <time>2019-04-05T10:00:50Z</time>
      </trkpt>
      <trkpt lat="60.19605" lon="7.53928">
        <ele>1304.65</ele>
        <time>2019-04-05T10:01:03Z</time>
      </trkpt>
      <trkpt lat="60.19626" lon="7.53943">
        <ele>1305.13</ele>
        <time>2019-04-05T10:01:13Z</time>
      </trkpt>
      <trkpt lat="60.19656" lon="7.53992">
        <ele>1301.76</ele>
        <time>2019-04-05T10:01:26Z</time>
      </trkpt>
      <trkpt lat="60.19666" lon="7.54016">
        <ele>1299.84</ele>
        <time>2019-04-05T10:01:38Z</time>
      </trkpt>
      <trkpt lat="60.19666" lon="7.54016">
        <ele>1300.32</ele>
        <time>2019-04-05T10:02:06Z</time>
      </trkpt>
      <trkpt lat="60.19667" lon="7.54017">
        <ele>1300.32</ele>
        <time>2019-04-05T10:02:28Z</time>
      </trkpt>
      <trkpt lat="60.19667" lon="7.54018">
        <ele>1300.32</ele>
        <time>2019-04-05T10:02:56Z</time>
      </trkpt>
      <trkpt lat="60.19668" lon="7.54016">
        <ele>1300.32</ele>
        <time>2019-04-05T10:03:19Z</time>
      </trkpt>
      <trkpt lat="60.19668" lon="7.54017">
        <ele>1300.32</ele>
        <time>2019-04-05T10:03:40Z</time>
      </trkpt>
      <trkpt lat="60.19669" lon="7.54015">
        <ele>1300.32</ele>
        <time>2019-04-05T10:04:02Z</time>
      </trkpt>
      <trkpt lat="60.19667" lon="7.54013">
        <ele>1300.32</ele>
        <time>2019-04-05T10:04:26Z</time>
      </trkpt>
      <trkpt lat="60.19669" lon="7.54015">
        <ele>1300.32</ele>
        <time>2019-04-05T10:04:58Z</time>
      </trkpt>
      <trkpt lat="60.19669" lon="7.54014">
        <ele>1300.32</ele>
        <time>2019-04-05T10:05:23Z</time>
      </trkpt>
      <trkpt lat="60.19668" lon="7.54015">
        <ele>1300.32</ele>
        <time>2019-04-05T10:05:48Z</time>
      </trkpt>
      <trkpt lat="60.19669" lon="7.54015">
        <ele>1300.32</ele>
        <time>2019-04-05T10:06:19Z</time>
      </trkpt>
      <trkpt lat="60.19671" lon="7.54013">
        <ele>1300.32</ele>
        <time>2019-04-05T10:06:44Z</time>
      </trkpt>
      <trkpt lat="60.19671" lon="7.54011">
        <ele>1299.84</ele>
        <time>2019-04-05T10:07:06Z</time>
      </trkpt>
      <trkpt lat="60.19673" lon="7.54013">
        <ele>1299.84</ele>
        <time>2019-04-05T10:07:28Z</time>
      </trkpt>
      <trkpt lat="60.19673" lon="7.54013">
        <ele>1299.84</ele>
        <time>2019-04-05T10:07:57Z</time>
      </trkpt>
      <trkpt lat="60.19677" lon="7.54012">
        <ele>1299.84</ele>
        <time>2019-04-05T10:08:10Z</time>
      </trkpt>
      <trkpt lat="60.19678" lon="7.54012">
        <ele>1299.84</ele>
        <time>2019-04-05T10:08:15Z</time>
      </trkpt>
      <trkpt lat="60.19681" lon="7.54015">
        <ele>1298.4</ele>
        <time>2019-04-05T10:08:23Z</time>
      </trkpt>
      <trkpt lat="60.19671" lon="7.54022">
        <ele>1297.44</ele>
        <time>2019-04-05T10:08:25Z</time>
      </trkpt>
      <trkpt lat="60.19656" lon="7.54047">
        <ele>1295.99</ele>
        <time>2019-04-05T10:08:28Z</time>
      </trkpt>
      <trkpt lat="60.19639" lon="7.54087">
        <ele>1299.36</ele>
        <time>2019-04-05T10:08:32Z</time>
      </trkpt>
      <trkpt lat="60.19623" lon="7.54126">
        <ele>1302.24</ele>
        <time>2019-04-05T10:08:36Z</time>
      </trkpt>
      <trkpt lat="60.1962" lon="7.54136">
        <ele>1302.24</ele>
        <time>2019-04-05T10:08:37Z</time>
      </trkpt>
      <trkpt lat="60.19604" lon="7.54169">
        <ele>1304.65</ele>
        <time>2019-04-05T10:08:41Z</time>
      </trkpt>
      <trkpt lat="60.19593" lon="7.5419">
        <ele>1306.09</ele>
        <time>2019-04-05T10:08:44Z</time>
      </trkpt>
      <trkpt lat="60.19594" lon="7.54185">
        <ele>1307.53</ele>
        <time>2019-04-05T10:08:48Z</time>
      </trkpt>
      <trkpt lat="60.19597" lon="7.54187">
        <ele>1308.49</ele>
        <time>2019-04-05T10:08:49Z</time>
      </trkpt>
      <trkpt lat="60.19609" lon="7.54199">
        <ele>1307.05</ele>
        <time>2019-04-05T10:08:52Z</time>
      </trkpt>
      <trkpt lat="60.19636" lon="7.5423">
        <ele>1304.65</ele>
        <time>2019-04-05T10:08:58Z</time>
      </trkpt>
      <trkpt lat="60.19652" lon="7.54258">
        <ele>1301.28</ele>
        <time>2019-04-05T10:09:02Z</time>
      </trkpt>
      <trkpt lat="60.19664" lon="7.54288">
        <ele>1297.92</ele>
        <time>2019-04-05T10:09:06Z</time>
      </trkpt>
      <trkpt lat="60.19675" lon="7.5431">
        <ele>1296.48</ele>
        <time>2019-04-05T10:09:09Z</time>
      </trkpt>
      <trkpt lat="60.19684" lon="7.5434">
        <ele>1291.67</ele>
        <time>2019-04-05T10:09:14Z</time>
      </trkpt>
      <trkpt lat="60.19686" lon="7.54346">
        <ele>1289.75</ele>
        <time>2019-04-05T10:09:27Z</time>
      </trkpt>
      <trkpt lat="60.1969" lon="7.54348">
        <ele>1288.78</ele>
        <time>2019-04-05T10:09:46Z</time>
      </trkpt>
      <trkpt lat="60.19696" lon="7.54357">
        <ele>1288.78</ele>
        <time>2019-04-05T10:09:49Z</time>
      </trkpt>
      <trkpt lat="60.19709" lon="7.54396">
        <ele>1285.9</ele>
        <time>2019-04-05T10:09:54Z</time>
      </trkpt>
      <trkpt lat="60.19716" lon="7.54424">
        <ele>1281.09</ele>
        <time>2019-04-05T10:09:57Z</time>
      </trkpt>
      <trkpt lat="60.19726" lon="7.54457">
        <ele>1276.77</ele>
        <time>2019-04-05T10:10:01Z</time>
      </trkpt>
      <trkpt lat="60.19753" lon="7.54502">
        <ele>1271</ele>
        <time>2019-04-05T10:10:07Z</time>
      </trkpt>
      <trkpt lat="60.19766" lon="7.54519">
        <ele>1268.12</ele>
        <time>2019-04-05T10:10:09Z</time>
      </trkpt>
      <trkpt lat="60.19804" lon="7.54567">
        <ele>1264.75</ele>
        <time>2019-04-05T10:10:16Z</time>
      </trkpt>
      <trkpt lat="60.19808" lon="7.54572">
        <ele>1264.27</ele>
        <time>2019-04-05T10:10:17Z</time>
      </trkpt>
      <trkpt lat="60.19827" lon="7.54585">
        <ele>1262.83</ele>
        <time>2019-04-05T10:10:21Z</time>
      </trkpt>
      <trkpt lat="60.19838" lon="7.54591">
        <ele>1262.83</ele>
        <time>2019-04-05T10:10:23Z</time>
      </trkpt>
      <trkpt lat="60.19854" lon="7.54596">
        <ele>1262.35</ele>
        <time>2019-04-05T10:10:26Z</time>
      </trkpt>
      <trkpt lat="60.19877" lon="7.54604">
        <ele>1262.35</ele>
        <time>2019-04-05T10:10:30Z</time>
      </trkpt>
      <trkpt lat="60.19899" lon="7.5462">
        <ele>1261.39</ele>
        <time>2019-04-05T10:10:34Z</time>
      </trkpt>
      <trkpt lat="60.19933" lon="7.54647">
        <ele>1258.5</ele>
        <time>2019-04-05T10:10:40Z</time>
      </trkpt>
      <trkpt lat="60.19954" lon="7.54657">
        <ele>1255.62</ele>
        <time>2019-04-05T10:10:43Z</time>
      </trkpt>
      <trkpt lat="60.1996" lon="7.5466">
        <ele>1255.62</ele>
        <time>2019-04-05T10:10:44Z</time>
      </trkpt>
      <trkpt lat="60.19974" lon="7.54666">
        <ele>1254.18</ele>
        <time>2019-04-05T10:10:46Z</time>
      </trkpt>
      <trkpt lat="60.20027" lon="7.54683">
        <ele>1253.22</ele>
        <time>2019-04-05T10:10:54Z</time>
      </trkpt>
      <trkpt lat="60.20086" lon="7.54692">
        <ele>1249.85</ele>
        <time>2019-04-05T10:11:03Z</time>
      </trkpt>
      <trkpt lat="60.20094" lon="7.54694">
        <ele>1249.85</ele>
        <time>2019-04-05T10:11:04Z</time>
      </trkpt>
      <trkpt lat="60.20138" lon="7.54708">
        <ele>1246.97</ele>
        <time>2019-04-05T10:11:10Z</time>
      </trkpt>
      <trkpt lat="60.20166" lon="7.54718">
        <ele>1245.53</ele>
        <time>2019-04-05T10:11:14Z</time>
      </trkpt>
      <trkpt lat="60.20179" lon="7.54723">
        <ele>1245.53</ele>
        <time>2019-04-05T10:11:16Z</time>
      </trkpt>
      <trkpt lat="60.20278" lon="7.54743">
        <ele>1245.04</ele>
        <time>2019-04-05T10:11:32Z</time>
      </trkpt>
      <trkpt lat="60.20299" lon="7.54745">
        <ele>1244.56</ele>
        <time>2019-04-05T10:11:35Z</time>
      </trkpt>
      <trkpt lat="60.20325" lon="7.54749">
        <ele>1244.08</ele>
        <time>2019-04-05T10:11:39Z</time>
      </trkpt>
      <trkpt lat="60.20346" lon="7.54752">
        <ele>1243.12</ele>
        <time>2019-04-05T10:11:42Z</time>
      </trkpt>
      <trkpt lat="60.20366" lon="7.54756">
        <ele>1243.12</ele>
        <time>2019-04-05T10:11:45Z</time>
      </trkpt>
      <trkpt lat="60.20414" lon="7.54767">
        <ele>1244.08</ele>
        <time>2019-04-05T10:11:53Z</time>
      </trkpt>
      <trkpt lat="60.20438" lon="7.54779">
        <ele>1244.08</ele>
        <time>2019-04-05T10:11:57Z</time>
      </trkpt>
      <trkpt lat="60.20469" lon="7.54784">
        <ele>1244.08</ele>
        <time>2019-04-05T10:12:02Z</time>
      </trkpt>
      <trkpt lat="60.20506" lon="7.54775">
        <ele>1244.08</ele>
        <time>2019-04-05T10:12:07Z</time>
      </trkpt>
      <trkpt lat="60.20528" lon="7.54774">
        <ele>1243.12</ele>
        <time>2019-04-05T10:12:10Z</time>
      </trkpt>
      <trkpt lat="60.20548" lon="7.54776">
        <ele>1243.12</ele>
        <time>2019-04-05T10:12:13Z</time>
      </trkpt>
      <trkpt lat="60.20591" lon="7.54788">
        <ele>1243.12</ele>
        <time>2019-04-05T10:12:20Z</time>
      </trkpt>
      <trkpt lat="60.20633" lon="7.54799">
        <ele>1244.56</ele>
        <time>2019-04-05T10:12:27Z</time>
      </trkpt>
      <trkpt lat="60.20653" lon="7.54802">
        <ele>1243.12</ele>
        <time>2019-04-05T10:12:30Z</time>
      </trkpt>
      <trkpt lat="60.20672" lon="7.54811">
        <ele>1244.56</ele>
        <time>2019-04-05T10:12:33Z</time>
      </trkpt>
      <trkpt lat="60.20684" lon="7.54814">
        <ele>1244.56</ele>
        <time>2019-04-05T10:12:35Z</time>
      </trkpt>
      <trkpt lat="60.20707" lon="7.54818">
        <ele>1243.12</ele>
        <time>2019-04-05T10:12:39Z</time>
      </trkpt>
      <trkpt lat="60.20741" lon="7.54827">
        <ele>1244.56</ele>
        <time>2019-04-05T10:12:45Z</time>
      </trkpt>
      <trkpt lat="60.20746" lon="7.54828">
        <ele>1244.56</ele>
        <time>2019-04-05T10:12:46Z</time>
      </trkpt>
      <trkpt lat="60.20806" lon="7.54845">
        <ele>1247.93</ele>
        <time>2019-04-05T10:12:57Z</time>
      </trkpt>
      <trkpt lat="60.2081" lon="7.54847">
        <ele>1247.93</ele>
        <time>2019-04-05T10:12:58Z</time>
      </trkpt>
      <trkpt lat="60.20814" lon="7.54849">
        <ele>1247.93</ele>
        <time>2019-04-05T10:13:06Z</time>
      </trkpt>
      <trkpt lat="60.20813" lon="7.54847">
        <ele>1247.93</ele>
        <time>2019-04-05T10:13:29Z</time>
      </trkpt>
      <trkpt lat="60.20813" lon="7.54846">
        <ele>1247.93</ele>
        <time>2019-04-05T10:13:43Z</time>
      </trkpt>
      <trkpt lat="60.20812" lon="7.5484">
        <ele>1246.49</ele>
        <time>2019-04-05T10:13:46Z</time>
      </trkpt>
      <trkpt lat="60.20806" lon="7.54846">
        <ele>1242.16</ele>
        <time>2019-04-05T10:13:48Z</time>
      </trkpt>
      <trkpt lat="60.20802" lon="7.54852">
        <ele>1242.16</ele>
        <time>2019-04-05T10:13:49Z</time>
      </trkpt>
      <trkpt lat="60.20799" lon="7.54861">
        <ele>1240.72</ele>
        <time>2019-04-05T10:13:50Z</time>
      </trkpt>
      <trkpt lat="60.20785" lon="7.54893">
        <ele>1242.64</ele>
        <time>2019-04-05T10:13:54Z</time>
      </trkpt>
      <trkpt lat="60.20761" lon="7.54956">
        <ele>1242.64</ele>
        <time>2019-04-05T10:14:01Z</time>
      </trkpt>
      <trkpt lat="60.2073" lon="7.55061">
        <ele>1241.68</ele>
        <time>2019-04-05T10:14:11Z</time>
      </trkpt>
      <trkpt lat="60.20699" lon="7.55178">
        <ele>1241.2</ele>
        <time>2019-04-05T10:14:22Z</time>
      </trkpt>
      <trkpt lat="60.20687" lon="7.55226">
        <ele>1244.08</ele>
        <time>2019-04-05T10:14:27Z</time>
      </trkpt>
      <trkpt lat="60.20667" lon="7.55304">
        <ele>1245.53</ele>
        <time>2019-04-05T10:14:35Z</time>
      </trkpt>
      <trkpt lat="60.20652" lon="7.55363">
        <ele>1243.6</ele>
        <time>2019-04-05T10:14:41Z</time>
      </trkpt>
      <trkpt lat="60.20623" lon="7.55472">
        <ele>1243.6</ele>
        <time>2019-04-05T10:14:51Z</time>
      </trkpt>
      <trkpt lat="60.20591" lon="7.55589">
        <ele>1246.01</ele>
        <time>2019-04-05T10:15:02Z</time>
      </trkpt>
      <trkpt lat="60.20584" lon="7.55616">
        <ele>1246.49</ele>
        <time>2019-04-05T10:15:05Z</time>
      </trkpt>
      <trkpt lat="60.20571" lon="7.55663">
        <ele>1247.45</ele>
        <time>2019-04-05T10:15:10Z</time>
      </trkpt>
      <trkpt lat="60.20558" lon="7.55709">
        <ele>1247.93</ele>
        <time>2019-04-05T10:15:15Z</time>
      </trkpt>
      <trkpt lat="60.20546" lon="7.55754">
        <ele>1249.37</ele>
        <time>2019-04-05T10:15:20Z</time>
      </trkpt>
      <trkpt lat="60.20536" lon="7.55794">
        <ele>1247.93</ele>
        <time>2019-04-05T10:15:24Z</time>
      </trkpt>
      <trkpt lat="60.20513" lon="7.55889">
        <ele>1250.33</ele>
        <time>2019-04-05T10:15:34Z</time>
      </trkpt>
      <trkpt lat="60.20488" lon="7.55975">
        <ele>1252.25</ele>
        <time>2019-04-05T10:15:43Z</time>
      </trkpt>
      <trkpt lat="60.20467" lon="7.56038">
        <ele>1251.77</ele>
        <time>2019-04-05T10:15:49Z</time>
      </trkpt>
      <trkpt lat="60.20441" lon="7.56145">
        <ele>1253.22</ele>
        <time>2019-04-05T10:15:59Z</time>
      </trkpt>
      <trkpt lat="60.20437" lon="7.56166">
        <ele>1253.22</ele>
        <time>2019-04-05T10:16:01Z</time>
      </trkpt>
      <trkpt lat="60.20431" lon="7.56176">
        <ele>1253.22</ele>
        <time>2019-04-05T10:16:06Z</time>
      </trkpt>
      <trkpt lat="60.20442" lon="7.56168">
        <ele>1254.18</ele>
        <time>2019-04-05T10:16:09Z</time>
      </trkpt>
      <trkpt lat="60.20466" lon="7.56155">
        <ele>1255.14</ele>
        <time>2019-04-05T10:16:15Z</time>
      </trkpt>
      <trkpt lat="60.20481" lon="7.56149">
        <ele>1256.1</ele>
        <time>2019-04-05T10:16:18Z</time>
      </trkpt>
      <trkpt lat="60.20486" lon="7.56146">
        <ele>1256.1</ele>
        <time>2019-04-05T10:16:19Z</time>
      </trkpt>
      <trkpt lat="60.20544" lon="7.56133">
        <ele>1258.5</ele>
        <time>2019-04-05T10:16:30Z</time>
      </trkpt>
      <trkpt lat="60.20569" lon="7.56123">
        <ele>1259.46</ele>
        <time>2019-04-05T10:16:35Z</time>
      </trkpt>
      <trkpt lat="60.20622" lon="7.56106">
        <ele>1260.43</ele>
        <time>2019-04-05T10:16:44Z</time>
      </trkpt>
      <trkpt lat="60.20632" lon="7.56106">
        <ele>1260.43</ele>
        <time>2019-04-05T10:16:46Z</time>
      </trkpt>
      <trkpt lat="60.20647" lon="7.56099">
        <ele>1260.91</ele>
        <time>2019-04-05T10:16:49Z</time>
      </trkpt>
      <trkpt lat="60.20668" lon="7.56094">
        <ele>1261.87</ele>
        <time>2019-04-05T10:16:53Z</time>
      </trkpt>
      <trkpt lat="60.20691" lon="7.56085">
        <ele>1262.35</ele>
        <time>2019-04-05T10:16:57Z</time>
      </trkpt>
      <trkpt lat="60.20734" lon="7.56082">
        <ele>1262.83</ele>
        <time>2019-04-05T10:17:04Z</time>
      </trkpt>
      <trkpt lat="60.208" lon="7.5607">
        <ele>1264.27</ele>
        <time>2019-04-05T10:17:16Z</time>
      </trkpt>
      <trkpt lat="60.20825" lon="7.56063">
        <ele>1264.27</ele>
        <time>2019-04-05T10:17:20Z</time>
      </trkpt>
      <trkpt lat="60.20838" lon="7.56061">
        <ele>1263.31</ele>
        <time>2019-04-05T10:17:22Z</time>
      </trkpt>
      <trkpt lat="60.20927" lon="7.56037">
        <ele>1259.94</ele>
        <time>2019-04-05T10:17:35Z</time>
      </trkpt>
      <trkpt lat="60.20933" lon="7.56034">
        <ele>1259.94</ele>
        <time>2019-04-05T10:17:36Z</time>
      </trkpt>
      <trkpt lat="60.20967" lon="7.5603">
        <ele>1259.94</ele>
        <time>2019-04-05T10:17:41Z</time>
      </trkpt>
      <trkpt lat="60.20981" lon="7.5603">
        <ele>1258.98</ele>
        <time>2019-04-05T10:17:43Z</time>
      </trkpt>
      <trkpt lat="60.21027" lon="7.56043">
        <ele>1259.46</ele>
        <time>2019-04-05T10:17:51Z</time>
      </trkpt>
      <trkpt lat="60.21051" lon="7.56049">
        <ele>1258.5</ele>
        <time>2019-04-05T10:17:56Z</time>
      </trkpt>
      <trkpt lat="60.21065" lon="7.56051">
        <ele>1258.5</ele>
        <time>2019-04-05T10:17:59Z</time>
      </trkpt>
      <trkpt lat="60.21081" lon="7.56053">
        <ele>1259.94</ele>
        <time>2019-04-05T10:18:02Z</time>
      </trkpt>
      <trkpt lat="60.21097" lon="7.56053">
        <ele>1259.94</ele>
        <time>2019-04-05T10:18:05Z</time>
      </trkpt>
      <trkpt lat="60.2113" lon="7.56066">
        <ele>1260.43</ele>
        <time>2019-04-05T10:18:11Z</time>
      </trkpt>
      <trkpt lat="60.2115" lon="7.5607">
        <ele>1260.91</ele>
        <time>2019-04-05T10:18:15Z</time>
      </trkpt>
      <trkpt lat="60.21172" lon="7.56074">
        <ele>1260.91</ele>
        <time>2019-04-05T10:18:19Z</time>
      </trkpt>
      <trkpt lat="60.21233" lon="7.56093">
        <ele>1257.54</ele>
        <time>2019-04-05T10:18:29Z</time>
      </trkpt>
      <trkpt lat="60.21291" lon="7.56114">
        <ele>1256.1</ele>
        <time>2019-04-05T10:18:38Z</time>
      </trkpt>
      <trkpt lat="60.21303" lon="7.56119">
        <ele>1256.1</ele>
        <time>2019-04-05T10:18:40Z</time>
      </trkpt>
      <trkpt lat="60.21337" lon="7.5613">
        <ele>1255.62</ele>
        <time>2019-04-05T10:18:46Z</time>
      </trkpt>
      <trkpt lat="60.21411" lon="7.56146">
        <ele>1255.14</ele>
        <time>2019-04-05T10:18:59Z</time>
      </trkpt>
      <trkpt lat="60.21422" lon="7.5615">
        <ele>1255.14</ele>
        <time>2019-04-05T10:19:01Z</time>
      </trkpt>
      <trkpt lat="60.21452" lon="7.5617">
        <ele>1253.22</ele>
        <time>2019-04-05T10:19:06Z</time>
      </trkpt>
      <trkpt lat="60.2147" lon="7.5618">
        <ele>1251.77</ele>
        <time>2019-04-05T10:19:09Z</time>
      </trkpt>
      <trkpt lat="60.215" lon="7.56194">
        <ele>1251.29</ele>
        <time>2019-04-05T10:19:14Z</time>
      </trkpt>
      <trkpt lat="60.21524" lon="7.56206">
        <ele>1251.29</ele>
        <time>2019-04-05T10:19:18Z</time>
      </trkpt>
      <trkpt lat="60.21579" lon="7.56241">
        <ele>1249.85</ele>
        <time>2019-04-05T10:19:28Z</time>
      </trkpt>
      <trkpt lat="60.2162" lon="7.56264">
        <ele>1248.41</ele>
        <time>2019-04-05T10:19:36Z</time>
      </trkpt>
      <trkpt lat="60.21639" lon="7.56276">
        <ele>1247.45</ele>
        <time>2019-04-05T10:19:40Z</time>
      </trkpt>
      <trkpt lat="60.21644" lon="7.56284">
        <ele>1246.49</ele>
        <time>2019-04-05T10:19:53Z</time>
      </trkpt>
      <trkpt lat="60.21645" lon="7.56284">
        <ele>1246.01</ele>
        <time>2019-04-05T10:19:58Z</time>
      </trkpt>
      <trkpt lat="60.21655" lon="7.5629">
        <ele>1246.01</ele>
        <time>2019-04-05T10:20:02Z</time>
      </trkpt>
      <trkpt lat="60.21687" lon="7.56313">
        <ele>1246.01</ele>
        <time>2019-04-05T10:20:09Z</time>
      </trkpt>
      <trkpt lat="60.21761" lon="7.56353">
        <ele>1243.6</ele>
        <time>2019-04-05T10:20:22Z</time>
      </trkpt>
      <trkpt lat="60.21846" lon="7.56378">
        <ele>1242.16</ele>
        <time>2019-04-05T10:20:35Z</time>
      </trkpt>
      <trkpt lat="60.2189" lon="7.56402">
        <ele>1240.72</ele>
        <time>2019-04-05T10:20:42Z</time>
      </trkpt>
      <trkpt lat="60.21922" lon="7.56422">
        <ele>1240.72</ele>
        <time>2019-04-05T10:20:47Z</time>
      </trkpt>
      <trkpt lat="60.21946" lon="7.56433">
        <ele>1240.72</ele>
        <time>2019-04-05T10:20:51Z</time>
      </trkpt>
      <trkpt lat="60.21979" lon="7.56447">
        <ele>1242.16</ele>
        <time>2019-04-05T10:20:57Z</time>
      </trkpt>
      <trkpt lat="60.22001" lon="7.56455">
        <ele>1243.12</ele>
        <time>2019-04-05T10:21:01Z</time>
      </trkpt>
      <trkpt lat="60.22024" lon="7.56466">
        <ele>1244.56</ele>
        <time>2019-04-05T10:21:05Z</time>
      </trkpt>
      <trkpt lat="60.22053" lon="7.56482">
        <ele>1245.04</ele>
        <time>2019-04-05T10:21:11Z</time>
      </trkpt>
      <trkpt lat="60.22061" lon="7.56488">
        <ele>1245.53</ele>
        <time>2019-04-05T10:21:13Z</time>
      </trkpt>
      <trkpt lat="60.22065" lon="7.56483">
        <ele>1244.56</ele>
        <time>2019-04-05T10:21:16Z</time>
      </trkpt>
      <trkpt lat="60.22053" lon="7.56483">
        <ele>1241.2</ele>
        <time>2019-04-05T10:21:19Z</time>
      </trkpt>
      <trkpt lat="60.22039" lon="7.56503">
        <ele>1239.76</ele>
        <time>2019-04-05T10:21:22Z</time>
      </trkpt>
      <trkpt lat="60.22014" lon="7.56547">
        <ele>1237.83</ele>
        <time>2019-04-05T10:21:27Z</time>
      </trkpt>
      <trkpt lat="60.21996" lon="7.56596">
        <ele>1237.35</ele>
        <time>2019-04-05T10:21:32Z</time>
      </trkpt>
      <trkpt lat="60.21972" lon="7.56633">
        <ele>1240.72</ele>
        <time>2019-04-05T10:21:37Z</time>
      </trkpt>
      <trkpt lat="60.21939" lon="7.56676">
        <ele>1237.83</ele>
        <time>2019-04-05T10:21:42Z</time>
      </trkpt>
      <trkpt lat="60.21899" lon="7.56734">
        <ele>1235.91</ele>
        <time>2019-04-05T10:21:48Z</time>
      </trkpt>
      <trkpt lat="60.21821" lon="7.56824">
        <ele>1238.32</ele>
        <time>2019-04-05T10:21:59Z</time>
      </trkpt>
      <trkpt lat="60.21773" lon="7.56862">
        <ele>1239.76</ele>
        <time>2019-04-05T10:22:05Z</time>
      </trkpt>
      <trkpt lat="60.21728" lon="7.569">
        <ele>1240.24</ele>
        <time>2019-04-05T10:22:11Z</time>
      </trkpt>
      <trkpt lat="60.21705" lon="7.56932">
        <ele>1242.64</ele>
        <time>2019-04-05T10:22:15Z</time>
      </trkpt>
      <trkpt lat="60.21619" lon="7.56987">
        <ele>1243.12</ele>
        <time>2019-04-05T10:22:29Z</time>
      </trkpt>
      <trkpt lat="60.21585" lon="7.57007">
        <ele>1243.12</ele>
        <time>2019-04-05T10:22:34Z</time>
      </trkpt>
      <trkpt lat="60.21572" lon="7.57015">
        <ele>1241.2</ele>
        <time>2019-04-05T10:22:36Z</time>
      </trkpt>
      <trkpt lat="60.21567" lon="7.57019">
        <ele>1241.2</ele>
        <time>2019-04-05T10:22:37Z</time>
      </trkpt>
      <trkpt lat="60.21554" lon="7.57022">
        <ele>1242.64</ele>
        <time>2019-04-05T10:22:40Z</time>
      </trkpt>
      <trkpt lat="60.2155" lon="7.57018">
        <ele>1242.64</ele>
        <time>2019-04-05T10:22:49Z</time>
      </trkpt>
      <trkpt lat="60.21551" lon="7.57017">
        <ele>1243.6</ele>
        <time>2019-04-05T10:23:12Z</time>
      </trkpt>
      <trkpt lat="60.21551" lon="7.57016">
        <ele>1243.6</ele>
        <time>2019-04-05T10:23:40Z</time>
      </trkpt>
      <trkpt lat="60.21552" lon="7.57016">
        <ele>1243.6</ele>
        <time>2019-04-05T10:24:18Z</time>
      </trkpt>
      <trkpt lat="60.21551" lon="7.57015">
        <ele>1244.08</ele>
        <time>2019-04-05T10:24:51Z</time>
      </trkpt>
      <trkpt lat="60.2155" lon="7.57014">
        <ele>1244.08</ele>
        <time>2019-04-05T10:25:23Z</time>
      </trkpt>
      <trkpt lat="60.21548" lon="7.57013">
        <ele>1244.08</ele>
        <time>2019-04-05T10:25:48Z</time>
      </trkpt>
      <trkpt lat="60.2154" lon="7.57027">
        <ele>1244.08</ele>
        <time>2019-04-05T10:25:53Z</time>
      </trkpt>
      <trkpt lat="60.21536" lon="7.57034">
        <ele>1244.08</ele>
        <time>2019-04-05T10:25:55Z</time>
      </trkpt>
      <trkpt lat="60.21521" lon="7.57072">
        <ele>1244.56</ele>
        <time>2019-04-05T10:26:00Z</time>
      </trkpt>
      <trkpt lat="60.21513" lon="7.57123">
        <ele>1243.6</ele>
        <time>2019-04-05T10:26:05Z</time>
      </trkpt>
      <trkpt lat="60.21499" lon="7.57187">
        <ele>1242.64</ele>
        <time>2019-04-05T10:26:12Z</time>
      </trkpt>
      <trkpt lat="60.21481" lon="7.57274">
        <ele>1240.72</ele>
        <time>2019-04-05T10:26:21Z</time>
      </trkpt>
      <trkpt lat="60.2145" lon="7.57396">
        <ele>1240.72</ele>
        <time>2019-04-05T10:26:34Z</time>
      </trkpt>
      <trkpt lat="60.21446" lon="7.57414">
        <ele>1240.72</ele>
        <time>2019-04-05T10:26:36Z</time>
      </trkpt>
      <trkpt lat="60.21439" lon="7.57439">
        <ele>1240.72</ele>
        <time>2019-04-05T10:26:39Z</time>
      </trkpt>
      <trkpt lat="60.21425" lon="7.57481">
        <ele>1240.72</ele>
        <time>2019-04-05T10:26:44Z</time>
      </trkpt>
      <trkpt lat="60.214" lon="7.57555">
        <ele>1240.72</ele>
        <time>2019-04-05T10:26:53Z</time>
      </trkpt>
      <trkpt lat="60.21391" lon="7.5758">
        <ele>1241.68</ele>
        <time>2019-04-05T10:26:56Z</time>
      </trkpt>
      <trkpt lat="60.21376" lon="7.57607">
        <ele>1241.2</ele>
        <time>2019-04-05T10:27:01Z</time>
      </trkpt>
      <trkpt lat="60.21345" lon="7.57672">
        <ele>1241.2</ele>
        <time>2019-04-05T10:27:14Z</time>
      </trkpt>
      <trkpt lat="60.21335" lon="7.57709">
        <ele>1241.2</ele>
        <time>2019-04-05T10:27:19Z</time>
      </trkpt>
      <trkpt lat="60.21312" lon="7.57781">
        <ele>1243.12</ele>
        <time>2019-04-05T10:27:28Z</time>
      </trkpt>
      <trkpt lat="60.21304" lon="7.5781">
        <ele>1241.68</ele>
        <time>2019-04-05T10:27:31Z</time>
      </trkpt>
      <trkpt lat="60.21266" lon="7.57929">
        <ele>1237.83</ele>
        <time>2019-04-05T10:27:44Z</time>
      </trkpt>
      <trkpt lat="60.21263" lon="7.5794">
        <ele>1237.83</ele>
        <time>2019-04-05T10:27:45Z</time>
      </trkpt>
      <trkpt lat="60.2126" lon="7.5795">
        <ele>1236.87</ele>
        <time>2019-04-05T10:27:46Z</time>
      </trkpt>
      <trkpt lat="60.21246" lon="7.58013">
        <ele>1239.28</ele>
        <time>2019-04-05T10:27:52Z</time>
      </trkpt>
      <trkpt lat="60.2124" lon="7.58034">
        <ele>1237.83</ele>
        <time>2019-04-05T10:27:54Z</time>
      </trkpt>
      <trkpt lat="60.21234" lon="7.58056">
        <ele>1236.87</ele>
        <time>2019-04-05T10:27:56Z</time>
      </trkpt>
      <trkpt lat="60.21228" lon="7.58091">
        <ele>1235.43</ele>
        <time>2019-04-05T10:27:59Z</time>
      </trkpt>
      <trkpt lat="60.21221" lon="7.5813">
        <ele>1235.43</ele>
        <time>2019-04-05T10:28:03Z</time>
      </trkpt>
      <trkpt lat="60.21215" lon="7.58153">
        <ele>1235.43</ele>
        <time>2019-04-05T10:28:06Z</time>
      </trkpt>
      <trkpt lat="60.21209" lon="7.58167">
        <ele>1234.95</ele>
        <time>2019-04-05T10:28:08Z</time>
      </trkpt>
      <trkpt lat="60.21182" lon="7.58275">
        <ele>1233.99</ele>
        <time>2019-04-05T10:28:19Z</time>
      </trkpt>
      <trkpt lat="60.21177" lon="7.58305">
        <ele>1236.39</ele>
        <time>2019-04-05T10:28:22Z</time>
      </trkpt>
      <trkpt lat="60.21175" lon="7.58313">
        <ele>1234.95</ele>
        <time>2019-04-05T10:28:23Z</time>
      </trkpt>
      <trkpt lat="60.21144" lon="7.58368">
        <ele>1233.99</ele>
        <time>2019-04-05T10:28:34Z</time>
      </trkpt>
      <trkpt lat="60.21138" lon="7.58375">
        <ele>1234.47</ele>
        <time>2019-04-05T10:28:43Z</time>
      </trkpt>
      <trkpt lat="60.21136" lon="7.58376">
        <ele>1234.47</ele>
        <time>2019-04-05T10:28:55Z</time>
      </trkpt>
      <trkpt lat="60.21134" lon="7.5838">
        <ele>1234.47</ele>
        <time>2019-04-05T10:28:57Z</time>
      </trkpt>
      <trkpt lat="60.21118" lon="7.58405">
        <ele>1234.47</ele>
        <time>2019-04-05T10:29:04Z</time>
      </trkpt>
      <trkpt lat="60.211" lon="7.58456">
        <ele>1235.43</ele>
        <time>2019-04-05T10:29:10Z</time>
      </trkpt>
      <trkpt lat="60.21091" lon="7.58482">
        <ele>1233.99</ele>
        <time>2019-04-05T10:29:13Z</time>
      </trkpt>
      <trkpt lat="60.21084" lon="7.585">
        <ele>1233.99</ele>
        <time>2019-04-05T10:29:15Z</time>
      </trkpt>
      <trkpt lat="60.21074" lon="7.58527">
        <ele>1235.43</ele>
        <time>2019-04-05T10:29:18Z</time>
      </trkpt>
      <trkpt lat="60.21065" lon="7.58555">
        <ele>1234.47</ele>
        <time>2019-04-05T10:29:21Z</time>
      </trkpt>
      <trkpt lat="60.2104" lon="7.5862">
        <ele>1233.03</ele>
        <time>2019-04-05T10:29:28Z</time>
      </trkpt>
      <trkpt lat="60.2101" lon="7.58703">
        <ele>1233.51</ele>
        <time>2019-04-05T10:29:37Z</time>
      </trkpt>
      <trkpt lat="60.2097" lon="7.58802">
        <ele>1234.47</ele>
        <time>2019-04-05T10:29:48Z</time>
      </trkpt>
      <trkpt lat="60.20953" lon="7.58839">
        <ele>1233.03</ele>
        <time>2019-04-05T10:29:52Z</time>
      </trkpt>
      <trkpt lat="60.20944" lon="7.58859">
        <ele>1234.95</ele>
        <time>2019-04-05T10:29:54Z</time>
      </trkpt>
      <trkpt lat="60.20936" lon="7.58881">
        <ele>1233.51</ele>
        <time>2019-04-05T10:29:56Z</time>
      </trkpt>
      <trkpt lat="60.20906" lon="7.58946">
        <ele>1235.43</ele>
        <time>2019-04-05T10:30:03Z</time>
      </trkpt>
      <trkpt lat="60.20897" lon="7.58961">
        <ele>1233.99</ele>
        <time>2019-04-05T10:30:05Z</time>
      </trkpt>
      <trkpt lat="60.20888" lon="7.58978">
        <ele>1233.99</ele>
        <time>2019-04-05T10:30:07Z</time>
      </trkpt>
      <trkpt lat="60.20836" lon="7.59089">
        <ele>1235.43</ele>
        <time>2019-04-05T10:30:19Z</time>
      </trkpt>
      <trkpt lat="60.20817" lon="7.59127">
        <ele>1234.47</ele>
        <time>2019-04-05T10:30:23Z</time>
      </trkpt>
      <trkpt lat="60.20775" lon="7.59211">
        <ele>1230.14</ele>
        <time>2019-04-05T10:30:32Z</time>
      </trkpt>
      <trkpt lat="60.20767" lon="7.59229">
        <ele>1228.7</ele>
        <time>2019-04-05T10:30:34Z</time>
      </trkpt>
      <trkpt lat="60.20756" lon="7.59255">
        <ele>1231.59</ele>
        <time>2019-04-05T10:30:37Z</time>
      </trkpt>
      <trkpt lat="60.20753" lon="7.59263">
        <ele>1233.03</ele>
        <time>2019-04-05T10:30:38Z</time>
      </trkpt>
      <trkpt lat="60.20704" lon="7.59357">
        <ele>1233.03</ele>
        <time>2019-04-05T10:30:50Z</time>
      </trkpt>
      <trkpt lat="60.20699" lon="7.59366">
        <ele>1233.03</ele>
        <time>2019-04-05T10:30:51Z</time>
      </trkpt>
      <trkpt lat="60.20686" lon="7.59394">
        <ele>1231.11</ele>
        <time>2019-04-05T10:30:54Z</time>
      </trkpt>
      <trkpt lat="60.20659" lon="7.5946">
        <ele>1233.51</ele>
        <time>2019-04-05T10:31:01Z</time>
      </trkpt>
      <trkpt lat="60.20655" lon="7.59469">
        <ele>1233.51</ele>
        <time>2019-04-05T10:31:02Z</time>
      </trkpt>
      <trkpt lat="60.20642" lon="7.59495">
        <ele>1233.99</ele>
        <time>2019-04-05T10:31:05Z</time>
      </trkpt>
      <trkpt lat="60.20625" lon="7.59535">
        <ele>1234.47</ele>
        <time>2019-04-05T10:31:09Z</time>
      </trkpt>
      <trkpt lat="60.20613" lon="7.59564">
        <ele>1234.47</ele>
        <time>2019-04-05T10:31:12Z</time>
      </trkpt>
      <trkpt lat="60.20557" lon="7.59714">
        <ele>1233.03</ele>
        <time>2019-04-05T10:31:27Z</time>
      </trkpt>
      <trkpt lat="60.20549" lon="7.59732">
        <ele>1233.51</ele>
        <time>2019-04-05T10:31:29Z</time>
      </trkpt>
      <trkpt lat="60.20531" lon="7.59784">
        <ele>1233.03</ele>
        <time>2019-04-05T10:31:34Z</time>
      </trkpt>
      <trkpt lat="60.20522" lon="7.59802">
        <ele>1231.59</ele>
        <time>2019-04-05T10:31:36Z</time>
      </trkpt>
      <trkpt lat="60.20486" lon="7.59868">
        <ele>1231.59</ele>
        <time>2019-04-05T10:31:44Z</time>
      </trkpt>
      <trkpt lat="60.20481" lon="7.59878">
        <ele>1233.03</ele>
        <time>2019-04-05T10:31:45Z</time>
      </trkpt>
      <trkpt lat="60.20467" lon="7.59909">
        <ele>1233.99</ele>
        <time>2019-04-05T10:31:48Z</time>
      </trkpt>
      <trkpt lat="60.20443" lon="7.5999">
        <ele>1234.95</ele>
        <time>2019-04-05T10:31:56Z</time>
      </trkpt>
      <trkpt lat="60.20435" lon="7.6002">
        <ele>1233.03</ele>
        <time>2019-04-05T10:31:59Z</time>
      </trkpt>
      <trkpt lat="60.20424" lon="7.60054">
        <ele>1232.07</ele>
        <time>2019-04-05T10:32:03Z</time>
      </trkpt>
      <trkpt lat="60.20417" lon="7.60075">
        <ele>1235.43</ele>
        <time>2019-04-05T10:32:06Z</time>
      </trkpt>
      <trkpt lat="60.2041" lon="7.60088">
        <ele>1235.43</ele>
        <time>2019-04-05T10:32:08Z</time>
      </trkpt>
      <trkpt lat="60.20394" lon="7.60133">
        <ele>1235.43</ele>
        <time>2019-04-05T10:32:13Z</time>
      </trkpt>
      <trkpt lat="60.20385" lon="7.60165">
        <ele>1235.91</ele>
        <time>2019-04-05T10:32:16Z</time>
      </trkpt>
      <trkpt lat="60.20374" lon="7.60198">
        <ele>1236.39</ele>
        <time>2019-04-05T10:32:20Z</time>
      </trkpt>
      <trkpt lat="60.2036" lon="7.60223">
        <ele>1233.99</ele>
        <time>2019-04-05T10:32:23Z</time>
      </trkpt>
      <trkpt lat="60.20321" lon="7.60306">
        <ele>1230.62</ele>
        <time>2019-04-05T10:32:31Z</time>
      </trkpt>
      <trkpt lat="60.20305" lon="7.6035">
        <ele>1227.74</ele>
        <time>2019-04-05T10:32:35Z</time>
      </trkpt>
      <trkpt lat="60.20293" lon="7.60385">
        <ele>1229.18</ele>
        <time>2019-04-05T10:32:38Z</time>
      </trkpt>
      <trkpt lat="60.20268" lon="7.60455">
        <ele>1232.55</ele>
        <time>2019-04-05T10:32:44Z</time>
      </trkpt>
      <trkpt lat="60.20258" lon="7.6049">
        <ele>1234.95</ele>
        <time>2019-04-05T10:32:47Z</time>
      </trkpt>
      <trkpt lat="60.20254" lon="7.60501">
        <ele>1234.95</ele>
        <time>2019-04-05T10:32:48Z</time>
      </trkpt>
      <trkpt lat="60.20245" lon="7.60523">
        <ele>1229.66</ele>
        <time>2019-04-05T10:32:50Z</time>
      </trkpt>
      <trkpt lat="60.20237" lon="7.60545">
        <ele>1228.7</ele>
        <time>2019-04-05T10:32:52Z</time>
      </trkpt>
      <trkpt lat="60.20223" lon="7.6059">
        <ele>1233.03</ele>
        <time>2019-04-05T10:32:56Z</time>
      </trkpt>
      <trkpt lat="60.2022" lon="7.606">
        <ele>1233.03</ele>
        <time>2019-04-05T10:32:57Z</time>
      </trkpt>
      <trkpt lat="60.20187" lon="7.6069">
        <ele>1231.59</ele>
        <time>2019-04-05T10:33:05Z</time>
      </trkpt>
      <trkpt lat="60.2018" lon="7.60711">
        <ele>1233.51</ele>
        <time>2019-04-05T10:33:07Z</time>
      </trkpt>
      <trkpt lat="60.20177" lon="7.60721">
        <ele>1231.59</ele>
        <time>2019-04-05T10:33:08Z</time>
      </trkpt>
      <trkpt lat="60.20172" lon="7.60737">
        <ele>1229.66</ele>
        <time>2019-04-05T10:33:10Z</time>
      </trkpt>
      <trkpt lat="60.20165" lon="7.60744">
        <ele>1232.55</ele>
        <time>2019-04-05T10:33:13Z</time>
      </trkpt>
      <trkpt lat="60.20164" lon="7.60742">
        <ele>1232.55</ele>
        <time>2019-04-05T10:33:14Z</time>
      </trkpt>
      <trkpt lat="60.20164" lon="7.60738">
        <ele>1232.55</ele>
        <time>2019-04-05T10:33:23Z</time>
      </trkpt>
      <trkpt lat="60.20135" lon="7.60753">
        <ele>1233.99</ele>
        <time>2019-04-05T10:33:30Z</time>
      </trkpt>
      <trkpt lat="60.20111" lon="7.60782">
        <ele>1231.11</ele>
        <time>2019-04-05T10:33:34Z</time>
      </trkpt>
      <trkpt lat="60.20102" lon="7.60798">
        <ele>1229.66</ele>
        <time>2019-04-05T10:33:36Z</time>
      </trkpt>
      <trkpt lat="60.20093" lon="7.60813">
        <ele>1233.03</ele>
        <time>2019-04-05T10:33:38Z</time>
      </trkpt>
      <trkpt lat="60.20089" lon="7.60822">
        <ele>1229.18</ele>
        <time>2019-04-05T10:33:39Z</time>
      </trkpt>
      <trkpt lat="60.20075" lon="7.60855">
        <ele>1233.03</ele>
        <time>2019-04-05T10:33:43Z</time>
      </trkpt>
      <trkpt lat="60.20072" lon="7.60861">
        <ele>1233.03</ele>
        <time>2019-04-05T10:33:44Z</time>
      </trkpt>
      <trkpt lat="60.20058" lon="7.60893">
        <ele>1233.51</ele>
        <time>2019-04-05T10:33:48Z</time>
      </trkpt>
      <trkpt lat="60.20022" lon="7.60982">
        <ele>1228.7</ele>
        <time>2019-04-05T10:33:57Z</time>
      </trkpt>
      <trkpt lat="60.20012" lon="7.61023">
        <ele>1230.14</ele>
        <time>2019-04-05T10:34:01Z</time>
      </trkpt>
      <trkpt lat="60.2001" lon="7.61032">
        <ele>1228.7</ele>
        <time>2019-04-05T10:34:02Z</time>
      </trkpt>
      <trkpt lat="60.20004" lon="7.61048">
        <ele>1233.51</ele>
        <time>2019-04-05T10:34:04Z</time>
      </trkpt>
      <trkpt lat="60.19998" lon="7.61064">
        <ele>1233.51</ele>
        <time>2019-04-05T10:34:06Z</time>
      </trkpt>
      <trkpt lat="60.19983" lon="7.61091">
        <ele>1232.07</ele>
        <time>2019-04-05T10:34:09Z</time>
      </trkpt>
      <trkpt lat="60.19974" lon="7.61111">
        <ele>1234.95</ele>
        <time>2019-04-05T10:34:11Z</time>
      </trkpt>
      <trkpt lat="60.19953" lon="7.61156">
        <ele>1233.03</ele>
        <time>2019-04-05T10:34:16Z</time>
      </trkpt>
      <trkpt lat="60.1995" lon="7.61165">
        <ele>1235.91</ele>
        <time>2019-04-05T10:34:17Z</time>
      </trkpt>
      <trkpt lat="60.19944" lon="7.61182">
        <ele>1232.55</ele>
        <time>2019-04-05T10:34:19Z</time>
      </trkpt>
      <trkpt lat="60.19939" lon="7.61208">
        <ele>1232.55</ele>
        <time>2019-04-05T10:34:22Z</time>
      </trkpt>
      <trkpt lat="60.19931" lon="7.61228">
        <ele>1235.91</ele>
        <time>2019-04-05T10:34:25Z</time>
      </trkpt>
      <trkpt lat="60.19922" lon="7.61251">
        <ele>1235.43</ele>
        <time>2019-04-05T10:34:28Z</time>
      </trkpt>
      <trkpt lat="60.19913" lon="7.61279">
        <ele>1236.87</ele>
        <time>2019-04-05T10:34:31Z</time>
      </trkpt>
      <trkpt lat="60.19908" lon="7.61298">
        <ele>1235.43</ele>
        <time>2019-04-05T10:34:33Z</time>
      </trkpt>
      <trkpt lat="60.19897" lon="7.61345">
        <ele>1235.91</ele>
        <time>2019-04-05T10:34:38Z</time>
      </trkpt>
      <trkpt lat="60.19891" lon="7.61374">
        <ele>1237.35</ele>
        <time>2019-04-05T10:34:41Z</time>
      </trkpt>
      <trkpt lat="60.19891" lon="7.61383">
        <ele>1237.35</ele>
        <time>2019-04-05T10:34:42Z</time>
      </trkpt>
      <trkpt lat="60.1989" lon="7.61396">
        <ele>1235.43</ele>
        <time>2019-04-05T10:34:44Z</time>
      </trkpt>
      <trkpt lat="60.19886" lon="7.614">
        <ele>1236.87</ele>
        <time>2019-04-05T10:34:47Z</time>
      </trkpt>
      <trkpt lat="60.19884" lon="7.61396">
        <ele>1236.87</ele>
        <time>2019-04-05T10:35:01Z</time>
      </trkpt>
      <trkpt lat="60.19882" lon="7.61396">
        <ele>1236.87</ele>
        <time>2019-04-05T10:35:26Z</time>
      </trkpt>
      <trkpt lat="60.19877" lon="7.61394">
        <ele>1236.87</ele>
        <time>2019-04-05T10:35:42Z</time>
      </trkpt>
      <trkpt lat="60.19878" lon="7.61391">
        <ele>1236.87</ele>
        <time>2019-04-05T10:35:45Z</time>
      </trkpt>
      <trkpt lat="60.19892" lon="7.61374">
        <ele>1237.35</ele>
        <time>2019-04-05T10:35:49Z</time>
      </trkpt>
      <trkpt lat="60.19925" lon="7.61351">
        <ele>1238.32</ele>
        <time>2019-04-05T10:35:54Z</time>
      </trkpt>
      <trkpt lat="60.19959" lon="7.6134">
        <ele>1239.28</ele>
        <time>2019-04-05T10:35:59Z</time>
      </trkpt>
      <trkpt lat="60.19973" lon="7.61332">
        <ele>1239.76</ele>
        <time>2019-04-05T10:36:01Z</time>
      </trkpt>
      <trkpt lat="60.19989" lon="7.61328">
        <ele>1239.76</ele>
        <time>2019-04-05T10:36:03Z</time>
      </trkpt>
      <trkpt lat="60.2002" lon="7.6132">
        <ele>1238.32</ele>
        <time>2019-04-05T10:36:07Z</time>
      </trkpt>
      <trkpt lat="60.20048" lon="7.61321">
        <ele>1238.32</ele>
        <time>2019-04-05T10:36:11Z</time>
      </trkpt>
      <trkpt lat="60.20089" lon="7.61323">
        <ele>1238.32</ele>
        <time>2019-04-05T10:36:17Z</time>
      </trkpt>
      <trkpt lat="60.20115" lon="7.61322">
        <ele>1238.32</ele>
        <time>2019-04-05T10:36:21Z</time>
      </trkpt>
      <trkpt lat="60.20141" lon="7.6132">
        <ele>1238.32</ele>
        <time>2019-04-05T10:36:25Z</time>
      </trkpt>
      <trkpt lat="60.20189" lon="7.61314">
        <ele>1235.91</ele>
        <time>2019-04-05T10:36:35Z</time>
      </trkpt>
      <trkpt lat="60.20188" lon="7.61313">
        <ele>1235.91</ele>
        <time>2019-04-05T10:36:51Z</time>
      </trkpt>
      <trkpt lat="60.20188" lon="7.61313">
        <ele>1235.91</ele>
        <time>2019-04-05T10:36:54Z</time>
      </trkpt>
      <trkpt lat="60.20224" lon="7.61304">
        <ele>1238.8</ele>
        <time>2019-04-05T10:37:03Z</time>
      </trkpt>
      <trkpt lat="60.2027" lon="7.61298">
        <ele>1240.24</ele>
        <time>2019-04-05T10:37:10Z</time>
      </trkpt>
      <trkpt lat="60.20288" lon="7.61299">
        <ele>1239.28</ele>
        <time>2019-04-05T10:37:13Z</time>
      </trkpt>
      <trkpt lat="60.20321" lon="7.61292">
        <ele>1239.28</ele>
        <time>2019-04-05T10:37:18Z</time>
      </trkpt>
      <trkpt lat="60.20349" lon="7.61285">
        <ele>1240.72</ele>
        <time>2019-04-05T10:37:22Z</time>
      </trkpt>
      <trkpt lat="60.2038" lon="7.6128">
        <ele>1242.64</ele>
        <time>2019-04-05T10:37:26Z</time>
      </trkpt>
      <trkpt lat="60.2041" lon="7.61274">
        <ele>1242.16</ele>
        <time>2019-04-05T10:37:30Z</time>
      </trkpt>
      <trkpt lat="60.20451" lon="7.61258">
        <ele>1246.49</ele>
        <time>2019-04-05T10:37:36Z</time>
      </trkpt>
      <trkpt lat="60.20464" lon="7.61255">
        <ele>1247.45</ele>
        <time>2019-04-05T10:37:38Z</time>
      </trkpt>
      <trkpt lat="60.20548" lon="7.61219">
        <ele>1248.41</ele>
        <time>2019-04-05T10:37:50Z</time>
      </trkpt>
      <trkpt lat="60.20576" lon="7.61206">
        <ele>1249.37</ele>
        <time>2019-04-05T10:37:54Z</time>
      </trkpt>
      <trkpt lat="60.20616" lon="7.61182">
        <ele>1252.74</ele>
        <time>2019-04-05T10:38:00Z</time>
      </trkpt>
      <trkpt lat="60.20656" lon="7.61159">
        <ele>1254.66</ele>
        <time>2019-04-05T10:38:06Z</time>
      </trkpt>
      <trkpt lat="60.20675" lon="7.61149">
        <ele>1258.02</ele>
        <time>2019-04-05T10:38:09Z</time>
      </trkpt>
      <trkpt lat="60.20687" lon="7.61144">
        <ele>1259.46</ele>
        <time>2019-04-05T10:38:11Z</time>
      </trkpt>
      <trkpt lat="60.20721" lon="7.61138">
        <ele>1260.91</ele>
        <time>2019-04-05T10:38:17Z</time>
      </trkpt>
      <trkpt lat="60.20763" lon="7.61126">
        <ele>1259.46</ele>
        <time>2019-04-05T10:38:26Z</time>
      </trkpt>
      <trkpt lat="60.20785" lon="7.61093">
        <ele>1261.39</ele>
        <time>2019-04-05T10:38:36Z</time>
      </trkpt>
      <trkpt lat="60.20811" lon="7.61082">
        <ele>1263.31</ele>
        <time>2019-04-05T10:38:41Z</time>
      </trkpt>
      <trkpt lat="60.20829" lon="7.61085">
        <ele>1264.75</ele>
        <time>2019-04-05T10:38:45Z</time>
      </trkpt>
      <trkpt lat="60.20837" lon="7.61083">
        <ele>1264.75</ele>
        <time>2019-04-05T10:38:47Z</time>
      </trkpt>
      <trkpt lat="60.20844" lon="7.61079">
        <ele>1264.75</ele>
        <time>2019-04-05T10:38:49Z</time>
      </trkpt>
      <trkpt lat="60.20861" lon="7.61074">
        <ele>1265.23</ele>
        <time>2019-04-05T10:38:53Z</time>
      </trkpt>
      <trkpt lat="60.20887" lon="7.61075">
        <ele>1266.19</ele>
        <time>2019-04-05T10:38:59Z</time>
      </trkpt>
      <trkpt lat="60.20909" lon="7.61075">
        <ele>1266.67</ele>
        <time>2019-04-05T10:39:04Z</time>
      </trkpt>
      <trkpt lat="60.20941" lon="7.6107">
        <ele>1267.16</ele>
        <time>2019-04-05T10:39:09Z</time>
      </trkpt>
      <trkpt lat="60.20985" lon="7.6106">
        <ele>1268.12</ele>
        <time>2019-04-05T10:39:15Z</time>
      </trkpt>
      <trkpt lat="60.2104" lon="7.61054">
        <ele>1270.52</ele>
        <time>2019-04-05T10:39:24Z</time>
      </trkpt>
      <trkpt lat="60.21046" lon="7.61052">
        <ele>1271</ele>
        <time>2019-04-05T10:39:25Z</time>
      </trkpt>
      <trkpt lat="60.21134" lon="7.61029">
        <ele>1271.48</ele>
        <time>2019-04-05T10:39:37Z</time>
      </trkpt>
      <trkpt lat="60.21186" lon="7.6102">
        <ele>1272.44</ele>
        <time>2019-04-05T10:39:44Z</time>
      </trkpt>
      <trkpt lat="60.21228" lon="7.61009">
        <ele>1277.25</ele>
        <time>2019-04-05T10:39:51Z</time>
      </trkpt>
      <trkpt lat="60.21308" lon="7.60995">
        <ele>1279.17</ele>
        <time>2019-04-05T10:40:03Z</time>
      </trkpt>
      <trkpt lat="60.21373" lon="7.60985">
        <ele>1280.61</ele>
        <time>2019-04-05T10:40:13Z</time>
      </trkpt>
      <trkpt lat="60.2141" lon="7.60989">
        <ele>1281.57</ele>
        <time>2019-04-05T10:40:19Z</time>
      </trkpt>
      <trkpt lat="60.2147" lon="7.61">
        <ele>1279.17</ele>
        <time>2019-04-05T10:40:28Z</time>
      </trkpt>
      <trkpt lat="60.21518" lon="7.61018">
        <ele>1279.17</ele>
        <time>2019-04-05T10:40:35Z</time>
      </trkpt>
      <trkpt lat="60.21538" lon="7.61028">
        <ele>1275.81</ele>
        <time>2019-04-05T10:40:38Z</time>
      </trkpt>
      <trkpt lat="60.21544" lon="7.61031">
        <ele>1275.81</ele>
        <time>2019-04-05T10:40:39Z</time>
      </trkpt>
      <trkpt lat="60.21576" lon="7.6105">
        <ele>1273.88</ele>
        <time>2019-04-05T10:40:44Z</time>
      </trkpt>
      <trkpt lat="60.21582" lon="7.61053">
        <ele>1272.92</ele>
        <time>2019-04-05T10:40:45Z</time>
      </trkpt>
      <trkpt lat="60.21606" lon="7.61069">
        <ele>1271</ele>
        <time>2019-04-05T10:40:49Z</time>
      </trkpt>
      <trkpt lat="60.21618" lon="7.61077">
        <ele>1270.04</ele>
        <time>2019-04-05T10:40:51Z</time>
      </trkpt>
      <trkpt lat="60.21681" lon="7.61109">
        <ele>1267.64</ele>
        <time>2019-04-05T10:41:01Z</time>
      </trkpt>
      <trkpt lat="60.2171" lon="7.61115">
        <ele>1267.16</ele>
        <time>2019-04-05T10:41:06Z</time>
      </trkpt>
      <trkpt lat="60.21728" lon="7.61124">
        <ele>1267.16</ele>
        <time>2019-04-05T10:41:09Z</time>
      </trkpt>
      <trkpt lat="60.21787" lon="7.61158">
        <ele>1263.31</ele>
        <time>2019-04-05T10:41:18Z</time>
      </trkpt>
      <trkpt lat="60.21808" lon="7.61167">
        <ele>1262.83</ele>
        <time>2019-04-05T10:41:21Z</time>
      </trkpt>
      <trkpt lat="60.21822" lon="7.61176">
        <ele>1262.83</ele>
        <time>2019-04-05T10:41:23Z</time>
      </trkpt>
      <trkpt lat="60.21832" lon="7.61183">
        <ele>1262.83</ele>
        <time>2019-04-05T10:41:25Z</time>
      </trkpt>
      <trkpt lat="60.21862" lon="7.61187">
        <ele>1264.75</ele>
        <time>2019-04-05T10:41:32Z</time>
      </trkpt>
      <trkpt lat="60.21889" lon="7.61194">
        <ele>1267.64</ele>
        <time>2019-04-05T10:41:39Z</time>
      </trkpt>
      <trkpt lat="60.21924" lon="7.61219">
        <ele>1270.52</ele>
        <time>2019-04-05T10:41:51Z</time>
      </trkpt>
      <trkpt lat="60.21955" lon="7.6124">
        <ele>1271</ele>
        <time>2019-04-05T10:42:03Z</time>
      </trkpt>
      <trkpt lat="60.21983" lon="7.61251">
        <ele>1271.48</ele>
        <time>2019-04-05T10:42:16Z</time>
      </trkpt>
      <trkpt lat="60.21986" lon="7.61255">
        <ele>1271.48</ele>
        <time>2019-04-05T10:42:19Z</time>
      </trkpt>
      <trkpt lat="60.21992" lon="7.61263">
        <ele>1270.52</ele>
        <time>2019-04-05T10:42:27Z</time>
      </trkpt>
      <trkpt lat="60.21993" lon="7.61266">
        <ele>1270.04</ele>
        <time>2019-04-05T10:42:44Z</time>
      </trkpt>
      <trkpt lat="60.21993" lon="7.61265">
        <ele>1270.04</ele>
        <time>2019-04-05T10:43:03Z</time>
      </trkpt>
      <trkpt lat="60.21994" lon="7.61263">
        <ele>1269.56</ele>
        <time>2019-04-05T10:43:22Z</time>
      </trkpt>
      <trkpt lat="60.21994" lon="7.61262">
        <ele>1269.56</ele>
        <time>2019-04-05T10:43:51Z</time>
      </trkpt>
      <trkpt lat="60.21995" lon="7.61262">
        <ele>1269.56</ele>
        <time>2019-04-05T10:44:20Z</time>
      </trkpt>
      <trkpt lat="60.21996" lon="7.61263">
        <ele>1269.56</ele>
        <time>2019-04-05T10:44:44Z</time>
      </trkpt>
      <trkpt lat="60.21996" lon="7.61261">
        <ele>1269.56</ele>
        <time>2019-04-05T10:45:04Z</time>
      </trkpt>
      <trkpt lat="60.21996" lon="7.61261">
        <ele>1268.6</ele>
        <time>2019-04-05T10:45:30Z</time>
      </trkpt>
      <trkpt lat="60.21996" lon="7.6126">
        <ele>1270.04</ele>
        <time>2019-04-05T10:45:58Z</time>
      </trkpt>
      <trkpt lat="60.22014" lon="7.61263">
        <ele>1271.48</ele>
        <time>2019-04-05T10:46:04Z</time>
      </trkpt>
      <trkpt lat="60.22039" lon="7.61283">
        <ele>1270.04</ele>
        <time>2019-04-05T10:46:09Z</time>
      </trkpt>
      <trkpt lat="60.2205" lon="7.61294">
        <ele>1271</ele>
        <time>2019-04-05T10:46:11Z</time>
      </trkpt>
      <trkpt lat="60.22063" lon="7.61304">
        <ele>1268.6</ele>
        <time>2019-04-05T10:46:13Z</time>
      </trkpt>
      <trkpt lat="60.22093" lon="7.61328">
        <ele>1265.71</ele>
        <time>2019-04-05T10:46:18Z</time>
      </trkpt>
      <trkpt lat="60.22106" lon="7.61338">
        <ele>1265.23</ele>
        <time>2019-04-05T10:46:20Z</time>
      </trkpt>
      <trkpt lat="60.22125" lon="7.61358">
        <ele>1263.31</ele>
        <time>2019-04-05T10:46:23Z</time>
      </trkpt>
      <trkpt lat="60.2215" lon="7.61381">
        <ele>1260.91</ele>
        <time>2019-04-05T10:46:27Z</time>
      </trkpt>
      <trkpt lat="60.22184" lon="7.61411">
        <ele>1258.5</ele>
        <time>2019-04-05T10:46:32Z</time>
      </trkpt>
      <trkpt lat="60.22203" lon="7.6143">
        <ele>1256.1</ele>
        <time>2019-04-05T10:46:35Z</time>
      </trkpt>
      <trkpt lat="60.2221" lon="7.61436">
        <ele>1255.62</ele>
        <time>2019-04-05T10:46:36Z</time>
      </trkpt>
      <trkpt lat="60.22243" lon="7.61465">
        <ele>1252.25</ele>
        <time>2019-04-05T10:46:41Z</time>
      </trkpt>
      <trkpt lat="60.22288" lon="7.61489">
        <ele>1247.93</ele>
        <time>2019-04-05T10:46:47Z</time>
      </trkpt>
      <trkpt lat="60.22304" lon="7.61496">
        <ele>1247.45</ele>
        <time>2019-04-05T10:46:49Z</time>
      </trkpt>
      <trkpt lat="60.22343" lon="7.61519">
        <ele>1243.12</ele>
        <time>2019-04-05T10:46:54Z</time>
      </trkpt>
      <trkpt lat="60.22368" lon="7.61533">
        <ele>1239.28</ele>
        <time>2019-04-05T10:46:57Z</time>
      </trkpt>
      <trkpt lat="60.22395" lon="7.61549">
        <ele>1234.95</ele>
        <time>2019-04-05T10:47:00Z</time>
      </trkpt>
      <trkpt lat="60.22431" lon="7.61565">
        <ele>1232.55</ele>
        <time>2019-04-05T10:47:04Z</time>
      </trkpt>
      <trkpt lat="60.2244" lon="7.61568">
        <ele>1231.59</ele>
        <time>2019-04-05T10:47:05Z</time>
      </trkpt>
      <trkpt lat="60.22476" lon="7.61568">
        <ele>1229.18</ele>
        <time>2019-04-05T10:47:09Z</time>
      </trkpt>
      <trkpt lat="60.22508" lon="7.61572">
        <ele>1228.7</ele>
        <time>2019-04-05T10:47:13Z</time>
      </trkpt>
      <trkpt lat="60.22537" lon="7.61572">
        <ele>1229.18</ele>
        <time>2019-04-05T10:47:17Z</time>
      </trkpt>
      <trkpt lat="60.22558" lon="7.6158">
        <ele>1232.07</ele>
        <time>2019-04-05T10:47:20Z</time>
      </trkpt>
      <trkpt lat="60.22564" lon="7.61584">
        <ele>1232.07</ele>
        <time>2019-04-05T10:47:21Z</time>
      </trkpt>
      <trkpt lat="60.22585" lon="7.6159">
        <ele>1230.14</ele>
        <time>2019-04-05T10:47:24Z</time>
      </trkpt>
      <trkpt lat="60.22592" lon="7.61592">
        <ele>1231.11</ele>
        <time>2019-04-05T10:47:25Z</time>
      </trkpt>
      <trkpt lat="60.22606" lon="7.61591">
        <ele>1231.59</ele>
        <time>2019-04-05T10:47:27Z</time>
      </trkpt>
      <trkpt lat="60.22635" lon="7.61584">
        <ele>1233.03</ele>
        <time>2019-04-05T10:47:31Z</time>
      </trkpt>
      <trkpt lat="60.2265" lon="7.61582">
        <ele>1233.51</ele>
        <time>2019-04-05T10:47:33Z</time>
      </trkpt>
      <trkpt lat="60.22673" lon="7.61581">
        <ele>1234.95</ele>
        <time>2019-04-05T10:47:36Z</time>
      </trkpt>
      <trkpt lat="60.22695" lon="7.61579">
        <ele>1236.39</ele>
        <time>2019-04-05T10:47:39Z</time>
      </trkpt>
      <trkpt lat="60.22725" lon="7.61577">
        <ele>1237.35</ele>
        <time>2019-04-05T10:47:43Z</time>
      </trkpt>
      <trkpt lat="60.228" lon="7.61595">
        <ele>1239.28</ele>
        <time>2019-04-05T10:47:53Z</time>
      </trkpt>
      <trkpt lat="60.22857" lon="7.61642">
        <ele>1233.99</ele>
        <time>2019-04-05T10:48:01Z</time>
      </trkpt>
      <trkpt lat="60.22875" lon="7.61658">
        <ele>1233.51</ele>
        <time>2019-04-05T10:48:04Z</time>
      </trkpt>
      <trkpt lat="60.22924" lon="7.61694">
        <ele>1232.07</ele>
        <time>2019-04-05T10:48:12Z</time>
      </trkpt>
      <trkpt lat="60.22954" lon="7.6172">
        <ele>1230.62</ele>
        <time>2019-04-05T10:48:17Z</time>
      </trkpt>
      <trkpt lat="60.22968" lon="7.61736">
        <ele>1230.14</ele>
        <time>2019-04-05T10:48:20Z</time>
      </trkpt>
      <trkpt lat="60.22982" lon="7.61747">
        <ele>1229.18</ele>
        <time>2019-04-05T10:48:23Z</time>
      </trkpt>
      <trkpt lat="60.23013" lon="7.61762">
        <ele>1229.18</ele>
        <time>2019-04-05T10:48:29Z</time>
      </trkpt>
      <trkpt lat="60.23018" lon="7.61765">
        <ele>1229.18</ele>
        <time>2019-04-05T10:48:30Z</time>
      </trkpt>
      <trkpt lat="60.23023" lon="7.61767">
        <ele>1229.18</ele>
        <time>2019-04-05T10:48:31Z</time>
      </trkpt>
      <trkpt lat="60.23028" lon="7.61771">
        <ele>1229.18</ele>
        <time>2019-04-05T10:48:32Z</time>
      </trkpt>
      <trkpt lat="60.23047" lon="7.61786">
        <ele>1229.18</ele>
        <time>2019-04-05T10:48:36Z</time>
      </trkpt>
      <trkpt lat="60.23082" lon="7.61812">
        <ele>1226.3</ele>
        <time>2019-04-05T10:48:42Z</time>
      </trkpt>
      <trkpt lat="60.23104" lon="7.61826">
        <ele>1224.38</ele>
        <time>2019-04-05T10:48:45Z</time>
      </trkpt>
      <trkpt lat="60.2311" lon="7.61831">
        <ele>1224.38</ele>
        <time>2019-04-05T10:48:46Z</time>
      </trkpt>
      <trkpt lat="60.23188" lon="7.61869">
        <ele>1222.93</ele>
        <time>2019-04-05T10:48:58Z</time>
      </trkpt>
      <trkpt lat="60.23203" lon="7.61874">
        <ele>1224.86</ele>
        <time>2019-04-05T10:49:00Z</time>
      </trkpt>
      <trkpt lat="60.23224" lon="7.61885">
        <ele>1222.93</ele>
        <time>2019-04-05T10:49:03Z</time>
      </trkpt>
      <trkpt lat="60.23289" lon="7.61928">
        <ele>1220.05</ele>
        <time>2019-04-05T10:49:12Z</time>
      </trkpt>
      <trkpt lat="60.23322" lon="7.61959">
        <ele>1219.57</ele>
        <time>2019-04-05T10:49:18Z</time>
      </trkpt>
      <trkpt lat="60.2338" lon="7.62006">
        <ele>1214.76</ele>
        <time>2019-04-05T10:49:27Z</time>
      </trkpt>
      <trkpt lat="60.23387" lon="7.62012">
        <ele>1214.76</ele>
        <time>2019-04-05T10:49:28Z</time>
      </trkpt>
      <trkpt lat="60.23394" lon="7.62018">
        <ele>1214.28</ele>
        <time>2019-04-05T10:49:29Z</time>
      </trkpt>
      <trkpt lat="60.23427" lon="7.6205">
        <ele>1213.32</ele>
        <time>2019-04-05T10:49:34Z</time>
      </trkpt>
      <trkpt lat="60.2345" lon="7.62068">
        <ele>1212.36</ele>
        <time>2019-04-05T10:49:38Z</time>
      </trkpt>
      <trkpt lat="60.23534" lon="7.62105">
        <ele>1211.88</ele>
        <time>2019-04-05T10:49:51Z</time>
      </trkpt>
      <trkpt lat="60.23588" lon="7.62138">
        <ele>1210.92</ele>
        <time>2019-04-05T10:49:59Z</time>
      </trkpt>
      <trkpt lat="60.2361" lon="7.62146">
        <ele>1210.92</ele>
        <time>2019-04-05T10:50:03Z</time>
      </trkpt>
      <trkpt lat="60.23638" lon="7.62152">
        <ele>1213.32</ele>
        <time>2019-04-05T10:50:08Z</time>
      </trkpt>
      <trkpt lat="60.2365" lon="7.6216">
        <ele>1214.28</ele>
        <time>2019-04-05T10:50:11Z</time>
      </trkpt>
      <trkpt lat="60.23663" lon="7.62162">
        <ele>1215.72</ele>
        <time>2019-04-05T10:50:15Z</time>
      </trkpt>
      <trkpt lat="60.23698" lon="7.62195">
        <ele>1217.65</ele>
        <time>2019-04-05T10:50:23Z</time>
      </trkpt>
      <trkpt lat="60.23716" lon="7.62217">
        <ele>1213.8</ele>
        <time>2019-04-05T10:50:26Z</time>
      </trkpt>
      <trkpt lat="60.23745" lon="7.62241">
        <ele>1210.44</ele>
        <time>2019-04-05T10:50:30Z</time>
      </trkpt>
      <trkpt lat="60.2376" lon="7.6225">
        <ele>1209.96</ele>
        <time>2019-04-05T10:50:32Z</time>
      </trkpt>
      <trkpt lat="60.2378" lon="7.62266">
        <ele>1209.48</ele>
        <time>2019-04-05T10:50:35Z</time>
      </trkpt>
      <trkpt lat="60.23847" lon="7.62313">
        <ele>1209</ele>
        <time>2019-04-05T10:50:46Z</time>
      </trkpt>
      <trkpt lat="60.23885" lon="7.62341">
        <ele>1209</ele>
        <time>2019-04-05T10:50:52Z</time>
      </trkpt>
      <trkpt lat="60.2391" lon="7.62359">
        <ele>1209</ele>
        <time>2019-04-05T10:50:56Z</time>
      </trkpt>
      <trkpt lat="60.23929" lon="7.6237">
        <ele>1210.44</ele>
        <time>2019-04-05T10:50:59Z</time>
      </trkpt>
      <trkpt lat="60.23935" lon="7.62374">
        <ele>1210.44</ele>
        <time>2019-04-05T10:51:00Z</time>
      </trkpt>
      <trkpt lat="60.23961" lon="7.62385">
        <ele>1210.44</ele>
        <time>2019-04-05T10:51:04Z</time>
      </trkpt>
      <trkpt lat="60.23987" lon="7.62403">
        <ele>1209</ele>
        <time>2019-04-05T10:51:08Z</time>
      </trkpt>
      <trkpt lat="60.23998" lon="7.62406">
        <ele>1209</ele>
        <time>2019-04-05T10:51:10Z</time>
      </trkpt>
      <trkpt lat="60.24014" lon="7.62415">
        <ele>1209</ele>
        <time>2019-04-05T10:51:13Z</time>
      </trkpt>
      <trkpt lat="60.24041" lon="7.6242">
        <ele>1209</ele>
        <time>2019-04-05T10:51:18Z</time>
      </trkpt>
      <trkpt lat="60.24088" lon="7.62433">
        <ele>1210.44</ele>
        <time>2019-04-05T10:51:26Z</time>
      </trkpt>
      <trkpt lat="60.24117" lon="7.62431">
        <ele>1209.48</ele>
        <time>2019-04-05T10:51:31Z</time>
      </trkpt>
      <trkpt lat="60.24167" lon="7.62444">
        <ele>1209.48</ele>
        <time>2019-04-05T10:51:38Z</time>
      </trkpt>
      <trkpt lat="60.24207" lon="7.62455">
        <ele>1210.44</ele>
        <time>2019-04-05T10:51:44Z</time>
      </trkpt>
      <trkpt lat="60.24256" lon="7.62475">
        <ele>1212.84</ele>
        <time>2019-04-05T10:51:52Z</time>
      </trkpt>
      <trkpt lat="60.2433" lon="7.6251">
        <ele>1211.88</ele>
        <time>2019-04-05T10:52:03Z</time>
      </trkpt>
      <trkpt lat="60.24386" lon="7.62532">
        <ele>1210.44</ele>
        <time>2019-04-05T10:52:11Z</time>
      </trkpt>
      <trkpt lat="60.24401" lon="7.62538">
        <ele>1210.44</ele>
        <time>2019-04-05T10:52:13Z</time>
      </trkpt>
      <trkpt lat="60.2445" lon="7.62549">
        <ele>1211.88</ele>
        <time>2019-04-05T10:52:20Z</time>
      </trkpt>
      <trkpt lat="60.24479" lon="7.62554">
        <ele>1212.36</ele>
        <time>2019-04-05T10:52:24Z</time>
      </trkpt>
      <trkpt lat="60.24502" lon="7.62556">
        <ele>1212.84</ele>
        <time>2019-04-05T10:52:27Z</time>
      </trkpt>
      <trkpt lat="60.24548" lon="7.62541">
        <ele>1215.72</ele>
        <time>2019-04-05T10:52:33Z</time>
      </trkpt>
      <trkpt lat="60.2456" lon="7.62533">
        <ele>1217.17</ele>
        <time>2019-04-05T10:52:35Z</time>
      </trkpt>
      <trkpt lat="60.24569" lon="7.62518">
        <ele>1218.13</ele>
        <time>2019-04-05T10:52:42Z</time>
      </trkpt>
      <trkpt lat="60.24567" lon="7.62517">
        <ele>1218.61</ele>
        <time>2019-04-05T10:53:03Z</time>
      </trkpt>
      <trkpt lat="60.24566" lon="7.62518">
        <ele>1218.13</ele>
        <time>2019-04-05T10:53:28Z</time>
      </trkpt>
      <trkpt lat="60.24565" lon="7.6252">
        <ele>1219.09</ele>
        <time>2019-04-05T10:54:00Z</time>
      </trkpt>
      <trkpt lat="60.24564" lon="7.6252">
        <ele>1216.21</ele>
        <time>2019-04-05T10:54:08Z</time>
      </trkpt>
      <trkpt lat="60.24565" lon="7.62521">
        <ele>1215.24</ele>
        <time>2019-04-05T10:54:32Z</time>
      </trkpt>
      <trkpt lat="60.24565" lon="7.62523">
        <ele>1214.76</ele>
        <time>2019-04-05T10:54:33Z</time>
      </trkpt>
      <trkpt lat="60.24564" lon="7.62531">
        <ele>1213.32</ele>
        <time>2019-04-05T10:54:36Z</time>
      </trkpt>
      <trkpt lat="60.24564" lon="7.62544">
        <ele>1212.84</ele>
        <time>2019-04-05T10:54:50Z</time>
      </trkpt>
      <trkpt lat="60.24563" lon="7.62544">
        <ele>1214.28</ele>
        <time>2019-04-05T10:55:08Z</time>
      </trkpt>
      <trkpt lat="60.24562" lon="7.62546">
        <ele>1215.72</ele>
        <time>2019-04-05T10:55:16Z</time>
      </trkpt>
      <trkpt lat="60.24562" lon="7.62546">
        <ele>1214.28</ele>
        <time>2019-04-05T10:55:20Z</time>
      </trkpt>
      <trkpt lat="60.24558" lon="7.62544">
        <ele>1215.72</ele>
        <time>2019-04-05T10:55:45Z</time>
      </trkpt>
      <trkpt lat="60.24557" lon="7.62547">
        <ele>1215.72</ele>
        <time>2019-04-05T10:56:24Z</time>
      </trkpt>
      <trkpt lat="60.24556" lon="7.62545">
        <ele>1215.72</ele>
        <time>2019-04-05T10:56:47Z</time>
      </trkpt>
      <trkpt lat="60.24556" lon="7.62541">
        <ele>1216.21</ele>
        <time>2019-04-05T10:57:23Z</time>
      </trkpt>
      <trkpt lat="60.24555" lon="7.62541">
        <ele>1215.72</ele>
        <time>2019-04-05T10:57:26Z</time>
      </trkpt>
      <trkpt lat="60.24578" lon="7.62555">
        <ele>1216.69</ele>
        <time>2019-04-05T10:57:34Z</time>
      </trkpt>
      <trkpt lat="60.24594" lon="7.62574">
        <ele>1217.17</ele>
        <time>2019-04-05T10:57:37Z</time>
      </trkpt>
      <trkpt lat="60.24601" lon="7.6258">
        <ele>1216.21</ele>
        <time>2019-04-05T10:57:38Z</time>
      </trkpt>
      <trkpt lat="60.24607" lon="7.62586">
        <ele>1216.21</ele>
        <time>2019-04-05T10:57:39Z</time>
      </trkpt>
      <trkpt lat="60.24637" lon="7.62614">
        <ele>1209.96</ele>
        <time>2019-04-05T10:57:43Z</time>
      </trkpt>
      <trkpt lat="60.24653" lon="7.6263">
        <ele>1209</ele>
        <time>2019-04-05T10:57:45Z</time>
      </trkpt>
      <trkpt lat="60.24681" lon="7.62655">
        <ele>1208.03</ele>
        <time>2019-04-05T10:57:49Z</time>
      </trkpt>
      <trkpt lat="60.24708" lon="7.62674">
        <ele>1208.03</ele>
        <time>2019-04-05T10:57:53Z</time>
      </trkpt>
      <trkpt lat="60.24737" lon="7.62675">
        <ele>1208.03</ele>
        <time>2019-04-05T10:57:57Z</time>
      </trkpt>
      <trkpt lat="60.24768" lon="7.62681">
        <ele>1208.03</ele>
        <time>2019-04-05T10:58:01Z</time>
      </trkpt>
      <trkpt lat="60.24791" lon="7.62684">
        <ele>1209</ele>
        <time>2019-04-05T10:58:04Z</time>
      </trkpt>
      <trkpt lat="60.24884" lon="7.62695">
        <ele>1209</ele>
        <time>2019-04-05T10:58:16Z</time>
      </trkpt>
      <trkpt lat="60.24897" lon="7.627">
        <ele>1209.96</ele>
        <time>2019-04-05T10:58:18Z</time>
      </trkpt>
      <trkpt lat="60.2496" lon="7.62741">
        <ele>1210.92</ele>
        <time>2019-04-05T10:58:29Z</time>
      </trkpt>
      <trkpt lat="60.2505" lon="7.62788">
        <ele>1209.48</ele>
        <time>2019-04-05T10:58:43Z</time>
      </trkpt>
      <trkpt lat="60.25063" lon="7.62794">
        <ele>1208.51</ele>
        <time>2019-04-05T10:58:45Z</time>
      </trkpt>
      <trkpt lat="60.25157" lon="7.62851">
        <ele>1208.03</ele>
        <time>2019-04-05T10:59:00Z</time>
      </trkpt>
      <trkpt lat="60.25182" lon="7.62863">
        <ele>1208.03</ele>
        <time>2019-04-05T10:59:04Z</time>
      </trkpt>
      <trkpt lat="60.25201" lon="7.62871">
        <ele>1209</ele>
        <time>2019-04-05T10:59:07Z</time>
      </trkpt>
      <trkpt lat="60.25207" lon="7.62872">
        <ele>1209.48</ele>
        <time>2019-04-05T10:59:08Z</time>
      </trkpt>
      <trkpt lat="60.2528" lon="7.62885">
        <ele>1212.84</ele>
        <time>2019-04-05T10:59:19Z</time>
      </trkpt>
      <trkpt lat="60.25287" lon="7.62887">
        <ele>1212.84</ele>
        <time>2019-04-05T10:59:20Z</time>
      </trkpt>
      <trkpt lat="60.25313" lon="7.629">
        <ele>1214.76</ele>
        <time>2019-04-05T10:59:24Z</time>
      </trkpt>
      <trkpt lat="60.25329" lon="7.62913">
        <ele>1215.24</ele>
        <time>2019-04-05T10:59:27Z</time>
      </trkpt>
      <trkpt lat="60.25335" lon="7.62918">
        <ele>1215.24</ele>
        <time>2019-04-05T10:59:28Z</time>
      </trkpt>
      <trkpt lat="60.25341" lon="7.62922">
        <ele>1215.24</ele>
        <time>2019-04-05T10:59:29Z</time>
      </trkpt>
      <trkpt lat="60.25423" lon="7.62981">
        <ele>1215.72</ele>
        <time>2019-04-05T10:59:42Z</time>
      </trkpt>
      <trkpt lat="60.25499" lon="7.63004">
        <ele>1218.61</ele>
        <time>2019-04-05T10:59:53Z</time>
      </trkpt>
      <trkpt lat="60.25571" lon="7.63009">
        <ele>1222.45</ele>
        <time>2019-04-05T11:00:02Z</time>
      </trkpt>
      <trkpt lat="60.25591" lon="7.63013">
        <ele>1223.9</ele>
        <time>2019-04-05T11:00:05Z</time>
      </trkpt>
      <trkpt lat="60.25598" lon="7.63016">
        <ele>1223.9</ele>
        <time>2019-04-05T11:00:06Z</time>
      </trkpt>
      <trkpt lat="60.25622" lon="7.63025">
        <ele>1226.3</ele>
        <time>2019-04-05T11:00:10Z</time>
      </trkpt>
      <trkpt lat="60.2564" lon="7.63036">
        <ele>1224.38</ele>
        <time>2019-04-05T11:00:13Z</time>
      </trkpt>
      <trkpt lat="60.25684" lon="7.63061">
        <ele>1224.38</ele>
        <time>2019-04-05T11:00:20Z</time>
      </trkpt>
      <trkpt lat="60.25689" lon="7.63065">
        <ele>1224.38</ele>
        <time>2019-04-05T11:00:21Z</time>
      </trkpt>
      <trkpt lat="60.25694" lon="7.63069">
        <ele>1223.42</ele>
        <time>2019-04-05T11:00:22Z</time>
      </trkpt>
      <trkpt lat="60.25698" lon="7.63072">
        <ele>1222.93</ele>
        <time>2019-04-05T11:00:23Z</time>
      </trkpt>
      <trkpt lat="60.25703" lon="7.63074">
        <ele>1222.93</ele>
        <time>2019-04-05T11:00:24Z</time>
      </trkpt>
      <trkpt lat="60.25707" lon="7.63076">
        <ele>1221.97</ele>
        <time>2019-04-05T11:00:25Z</time>
      </trkpt>
      <trkpt lat="60.2572" lon="7.63083">
        <ele>1221.49</ele>
        <time>2019-04-05T11:00:28Z</time>
      </trkpt>
      <trkpt lat="60.25724" lon="7.63087">
        <ele>1221.49</ele>
        <time>2019-04-05T11:00:29Z</time>
      </trkpt>
      <trkpt lat="60.2574" lon="7.63105">
        <ele>1220.53</ele>
        <time>2019-04-05T11:00:33Z</time>
      </trkpt>
      <trkpt lat="60.25781" lon="7.63135">
        <ele>1220.05</ele>
        <time>2019-04-05T11:00:40Z</time>
      </trkpt>
      <trkpt lat="60.25872" lon="7.63169">
        <ele>1216.69</ele>
        <time>2019-04-05T11:00:51Z</time>
      </trkpt>
      <trkpt lat="60.25879" lon="7.63172">
        <ele>1216.69</ele>
        <time>2019-04-05T11:00:52Z</time>
      </trkpt>
      <trkpt lat="60.25984" lon="7.63201">
        <ele>1214.28</ele>
        <time>2019-04-05T11:01:05Z</time>
      </trkpt>
      <trkpt lat="60.26068" lon="7.63218">
        <ele>1212.36</ele>
        <time>2019-04-05T11:01:16Z</time>
      </trkpt>
      <trkpt lat="60.26153" lon="7.63207">
        <ele>1211.88</ele>
        <time>2019-04-05T11:01:26Z</time>
      </trkpt>
      <trkpt lat="60.26204" lon="7.63221">
        <ele>1212.36</ele>
        <time>2019-04-05T11:01:33Z</time>
      </trkpt>
      <trkpt lat="60.2629" lon="7.63231">
        <ele>1210.44</ele>
        <time>2019-04-05T11:01:45Z</time>
      </trkpt>
      <trkpt lat="60.2633" lon="7.63239">
        <ele>1209</ele>
        <time>2019-04-05T11:01:51Z</time>
      </trkpt>
      <trkpt lat="60.26362" lon="7.63253">
        <ele>1210.44</ele>
        <time>2019-04-05T11:01:56Z</time>
      </trkpt>
      <trkpt lat="60.26381" lon="7.63262">
        <ele>1209.48</ele>
        <time>2019-04-05T11:01:59Z</time>
      </trkpt>
      <trkpt lat="60.26412" lon="7.63279">
        <ele>1210.44</ele>
        <time>2019-04-05T11:02:04Z</time>
      </trkpt>
      <trkpt lat="60.26471" lon="7.63305">
        <ele>1212.36</ele>
        <time>2019-04-05T11:02:14Z</time>
      </trkpt>
      <trkpt lat="60.2652" lon="7.63329">
        <ele>1215.72</ele>
        <time>2019-04-05T11:02:22Z</time>
      </trkpt>
      <trkpt lat="60.26562" lon="7.63345">
        <ele>1216.69</ele>
        <time>2019-04-05T11:02:30Z</time>
      </trkpt>
      <trkpt lat="60.26635" lon="7.63386">
        <ele>1217.17</ele>
        <time>2019-04-05T11:02:43Z</time>
      </trkpt>
      <trkpt lat="60.26661" lon="7.634">
        <ele>1214.76</ele>
        <time>2019-04-05T11:02:47Z</time>
      </trkpt>
      <trkpt lat="60.26668" lon="7.63403">
        <ele>1214.76</ele>
        <time>2019-04-05T11:02:48Z</time>
      </trkpt>
      <trkpt lat="60.26682" lon="7.63409">
        <ele>1214.76</ele>
        <time>2019-04-05T11:02:50Z</time>
      </trkpt>
      <trkpt lat="60.26778" lon="7.63447">
        <ele>1213.32</ele>
        <time>2019-04-05T11:03:03Z</time>
      </trkpt>
      <trkpt lat="60.26815" lon="7.63465">
        <ele>1213.32</ele>
        <time>2019-04-05T11:03:09Z</time>
      </trkpt>
      <trkpt lat="60.26842" lon="7.63472">
        <ele>1215.24</ele>
        <time>2019-04-05T11:03:13Z</time>
      </trkpt>
      <trkpt lat="60.26863" lon="7.63474">
        <ele>1216.69</ele>
        <time>2019-04-05T11:03:16Z</time>
      </trkpt>
      <trkpt lat="60.26907" lon="7.63482">
        <ele>1217.65</ele>
        <time>2019-04-05T11:03:22Z</time>
      </trkpt>
      <trkpt lat="60.26982" lon="7.63497">
        <ele>1216.21</ele>
        <time>2019-04-05T11:03:31Z</time>
      </trkpt>
      <trkpt lat="60.27017" lon="7.63505">
        <ele>1213.8</ele>
        <time>2019-04-05T11:03:35Z</time>
      </trkpt>
      <trkpt lat="60.27052" lon="7.63509">
        <ele>1212.36</ele>
        <time>2019-04-05T11:03:39Z</time>
      </trkpt>
      <trkpt lat="60.27126" lon="7.63519">
        <ele>1211.88</ele>
        <time>2019-04-05T11:03:48Z</time>
      </trkpt>
      <trkpt lat="60.27159" lon="7.63517">
        <ele>1211.88</ele>
        <time>2019-04-05T11:03:52Z</time>
      </trkpt>
      <trkpt lat="60.2719" lon="7.63522">
        <ele>1213.32</ele>
        <time>2019-04-05T11:03:56Z</time>
      </trkpt>
      <trkpt lat="60.2724" lon="7.63528">
        <ele>1212.36</ele>
        <time>2019-04-05T11:04:02Z</time>
      </trkpt>
      <trkpt lat="60.27256" lon="7.63532">
        <ele>1213.8</ele>
        <time>2019-04-05T11:04:04Z</time>
      </trkpt>
      <trkpt lat="60.27346" lon="7.63547">
        <ele>1212.36</ele>
        <time>2019-04-05T11:04:15Z</time>
      </trkpt>
      <trkpt lat="60.27367" lon="7.63555">
        <ele>1214.76</ele>
        <time>2019-04-05T11:04:18Z</time>
      </trkpt>
      <trkpt lat="60.27386" lon="7.63559">
        <ele>1212.84</ele>
        <time>2019-04-05T11:04:21Z</time>
      </trkpt>
      <trkpt lat="60.27392" lon="7.63561">
        <ele>1212.84</ele>
        <time>2019-04-05T11:04:22Z</time>
      </trkpt>
      <trkpt lat="60.27425" lon="7.63576">
        <ele>1212.84</ele>
        <time>2019-04-05T11:04:28Z</time>
      </trkpt>
      <trkpt lat="60.27436" lon="7.63575">
        <ele>1212.36</ele>
        <time>2019-04-05T11:04:30Z</time>
      </trkpt>
      <trkpt lat="60.2746" lon="7.63577">
        <ele>1212.36</ele>
        <time>2019-04-05T11:04:34Z</time>
      </trkpt>
      <trkpt lat="60.27541" lon="7.63605">
        <ele>1212.36</ele>
        <time>2019-04-05T11:04:46Z</time>
      </trkpt>
      <trkpt lat="60.27555" lon="7.63608">
        <ele>1213.8</ele>
        <time>2019-04-05T11:04:48Z</time>
      </trkpt>
      <trkpt lat="60.27596" lon="7.63619">
        <ele>1214.28</ele>
        <time>2019-04-05T11:04:54Z</time>
      </trkpt>
      <trkpt lat="60.27626" lon="7.63621">
        <ele>1214.76</ele>
        <time>2019-04-05T11:04:58Z</time>
      </trkpt>
      <trkpt lat="60.27746" lon="7.63617">
        <ele>1216.21</ele>
        <time>2019-04-05T11:05:13Z</time>
      </trkpt>
      <trkpt lat="60.27753" lon="7.63615">
        <ele>1216.21</ele>
        <time>2019-04-05T11:05:14Z</time>
      </trkpt>
      <trkpt lat="60.27803" lon="7.63588">
        <ele>1216.69</ele>
        <time>2019-04-05T11:05:21Z</time>
      </trkpt>
      <trkpt lat="60.27851" lon="7.63582">
        <ele>1215.72</ele>
        <time>2019-04-05T11:05:27Z</time>
      </trkpt>
      <trkpt lat="60.27893" lon="7.63584">
        <ele>1215.72</ele>
        <time>2019-04-05T11:05:32Z</time>
      </trkpt>
      <trkpt lat="60.27953" lon="7.63613">
        <ele>1217.17</ele>
        <time>2019-04-05T11:05:40Z</time>
      </trkpt>
      <trkpt lat="60.28005" lon="7.63638">
        <ele>1217.17</ele>
        <time>2019-04-05T11:05:47Z</time>
      </trkpt>
      <trkpt lat="60.28025" lon="7.63653">
        <ele>1218.61</ele>
        <time>2019-04-05T11:05:50Z</time>
      </trkpt>
      <trkpt lat="60.28067" lon="7.6368">
        <ele>1217.17</ele>
        <time>2019-04-05T11:05:56Z</time>
      </trkpt>
      <trkpt lat="60.28152" lon="7.6371">
        <ele>1218.61</ele>
        <time>2019-04-05T11:06:07Z</time>
      </trkpt>
      <trkpt lat="60.28166" lon="7.63706">
        <ele>1218.61</ele>
        <time>2019-04-05T11:06:09Z</time>
      </trkpt>
      <trkpt lat="60.28178" lon="7.63707">
        <ele>1216.69</ele>
        <time>2019-04-05T11:06:12Z</time>
      </trkpt>
      <trkpt lat="60.28178" lon="7.63702">
        <ele>1216.21</ele>
        <time>2019-04-05T11:06:22Z</time>
      </trkpt>
      <trkpt lat="60.28177" lon="7.637">
        <ele>1215.72</ele>
        <time>2019-04-05T11:06:35Z</time>
      </trkpt>
      <trkpt lat="60.28181" lon="7.63697">
        <ele>1215.72</ele>
        <time>2019-04-05T11:06:52Z</time>
      </trkpt>
      <trkpt lat="60.28183" lon="7.637">
        <ele>1216.69</ele>
        <time>2019-04-05T11:07:23Z</time>
      </trkpt>
      <trkpt lat="60.28185" lon="7.63701">
        <ele>1216.69</ele>
        <time>2019-04-05T11:07:39Z</time>
      </trkpt>
      <trkpt lat="60.28192" lon="7.63707">
        <ele>1216.69</ele>
        <time>2019-04-05T11:07:43Z</time>
      </trkpt>
      <trkpt lat="60.28251" lon="7.63755">
        <ele>1219.57</ele>
        <time>2019-04-05T11:07:56Z</time>
      </trkpt>
      <trkpt lat="60.28292" lon="7.63799">
        <ele>1217.65</ele>
        <time>2019-04-05T11:08:06Z</time>
      </trkpt>
      <trkpt lat="60.28297" lon="7.63801">
        <ele>1216.69</ele>
        <time>2019-04-05T11:08:19Z</time>
      </trkpt>
      <trkpt lat="60.28297" lon="7.63801">
        <ele>1216.69</ele>
        <time>2019-04-05T11:08:39Z</time>
      </trkpt>
      <trkpt lat="60.28308" lon="7.63811">
        <ele>1218.13</ele>
        <time>2019-04-05T11:08:44Z</time>
      </trkpt>
      <trkpt lat="60.2833" lon="7.63826">
        <ele>1220.05</ele>
        <time>2019-04-05T11:08:49Z</time>
      </trkpt>
      <trkpt lat="60.28341" lon="7.63833">
        <ele>1220.53</ele>
        <time>2019-04-05T11:08:51Z</time>
      </trkpt>
      <trkpt lat="60.28358" lon="7.63846">
        <ele>1221.01</ele>
        <time>2019-04-05T11:08:54Z</time>
      </trkpt>
      <trkpt lat="60.28368" lon="7.63857">
        <ele>1219.57</ele>
        <time>2019-04-05T11:08:56Z</time>
      </trkpt>
      <trkpt lat="60.28405" lon="7.63882">
        <ele>1221.01</ele>
        <time>2019-04-05T11:09:02Z</time>
      </trkpt>
      <trkpt lat="60.2849" lon="7.63936">
        <ele>1221.01</ele>
        <time>2019-04-05T11:09:15Z</time>
      </trkpt>
      <trkpt lat="60.28514" lon="7.63951">
        <ele>1221.01</ele>
        <time>2019-04-05T11:09:19Z</time>
      </trkpt>
      <trkpt lat="60.28566" lon="7.63984">
        <ele>1219.09</ele>
        <time>2019-04-05T11:09:28Z</time>
      </trkpt>
      <trkpt lat="60.28601" lon="7.64012">
        <ele>1219.09</ele>
        <time>2019-04-05T11:09:34Z</time>
      </trkpt>
      <trkpt lat="60.28684" lon="7.64095">
        <ele>1218.13</ele>
        <time>2019-04-05T11:09:49Z</time>
      </trkpt>
      <trkpt lat="60.28728" lon="7.64136">
        <ele>1217.17</ele>
        <time>2019-04-05T11:09:57Z</time>
      </trkpt>
      <trkpt lat="60.28797" lon="7.64202">
        <ele>1216.69</ele>
        <time>2019-04-05T11:10:08Z</time>
      </trkpt>
      <trkpt lat="60.28808" lon="7.64216">
        <ele>1218.13</ele>
        <time>2019-04-05T11:10:10Z</time>
      </trkpt>
      <trkpt lat="60.28813" lon="7.64222">
        <ele>1218.61</ele>
        <time>2019-04-05T11:10:11Z</time>
      </trkpt>
      <trkpt lat="60.28817" lon="7.64226">
        <ele>1218.61</ele>
        <time>2019-04-05T11:10:12Z</time>
      </trkpt>
      <trkpt lat="60.28822" lon="7.64231">
        <ele>1218.61</ele>
        <time>2019-04-05T11:10:13Z</time>
      </trkpt>
      <trkpt lat="60.28833" lon="7.64241">
        <ele>1219.09</ele>
        <time>2019-04-05T11:10:15Z</time>
      </trkpt>
      <trkpt lat="60.28853" lon="7.64267">
        <ele>1219.57</ele>
        <time>2019-04-05T11:10:19Z</time>
      </trkpt>
      <trkpt lat="60.28858" lon="7.64272">
        <ele>1219.57</ele>
        <time>2019-04-05T11:10:20Z</time>
      </trkpt>
      <trkpt lat="60.28879" lon="7.64297">
        <ele>1219.57</ele>
        <time>2019-04-05T11:10:24Z</time>
      </trkpt>
      <trkpt lat="60.28906" lon="7.64338">
        <ele>1218.61</ele>
        <time>2019-04-05T11:10:29Z</time>
      </trkpt>
      <trkpt lat="60.28912" lon="7.64345">
        <ele>1218.61</ele>
        <time>2019-04-05T11:10:30Z</time>
      </trkpt>
      <trkpt lat="60.2893" lon="7.64368">
        <ele>1217.65</ele>
        <time>2019-04-05T11:10:33Z</time>
      </trkpt>
      <trkpt lat="60.28936" lon="7.64375">
        <ele>1217.17</ele>
        <time>2019-04-05T11:10:34Z</time>
      </trkpt>
      <trkpt lat="60.28942" lon="7.64381">
        <ele>1217.17</ele>
        <time>2019-04-05T11:10:35Z</time>
      </trkpt>
      <trkpt lat="60.28955" lon="7.64391">
        <ele>1216.69</ele>
        <time>2019-04-05T11:10:37Z</time>
      </trkpt>
      <trkpt lat="60.28977" lon="7.64403">
        <ele>1216.69</ele>
        <time>2019-04-05T11:10:40Z</time>
      </trkpt>
      <trkpt lat="60.28991" lon="7.64415">
        <ele>1216.69</ele>
        <time>2019-04-05T11:10:42Z</time>
      </trkpt>
      <trkpt lat="60.28996" lon="7.6442">
        <ele>1216.69</ele>
        <time>2019-04-05T11:10:43Z</time>
      </trkpt>
      <trkpt lat="60.29021" lon="7.64442">
        <ele>1218.13</ele>
        <time>2019-04-05T11:10:48Z</time>
      </trkpt>
      <trkpt lat="60.29026" lon="7.64446">
        <ele>1218.13</ele>
        <time>2019-04-05T11:10:49Z</time>
      </trkpt>
      <trkpt lat="60.29031" lon="7.6445">
        <ele>1218.13</ele>
        <time>2019-04-05T11:10:50Z</time>
      </trkpt>
      <trkpt lat="60.29036" lon="7.64455">
        <ele>1218.13</ele>
        <time>2019-04-05T11:10:51Z</time>
      </trkpt>
      <trkpt lat="60.29041" lon="7.64459">
        <ele>1218.13</ele>
        <time>2019-04-05T11:10:52Z</time>
      </trkpt>
      <trkpt lat="60.29067" lon="7.64479">
        <ele>1219.57</ele>
        <time>2019-04-05T11:10:57Z</time>
      </trkpt>
      <trkpt lat="60.29073" lon="7.64483">
        <ele>1219.57</ele>
        <time>2019-04-05T11:10:58Z</time>
      </trkpt>
      <trkpt lat="60.29085" lon="7.6449">
        <ele>1219.57</ele>
        <time>2019-04-05T11:11:00Z</time>
      </trkpt>
      <trkpt lat="60.2909" lon="7.64495">
        <ele>1219.57</ele>
        <time>2019-04-05T11:11:01Z</time>
      </trkpt>
      <trkpt lat="60.29112" lon="7.6451">
        <ele>1221.49</ele>
        <time>2019-04-05T11:11:05Z</time>
      </trkpt>
      <trkpt lat="60.29151" lon="7.64524">
        <ele>1224.38</ele>
        <time>2019-04-05T11:11:12Z</time>
      </trkpt>
      <trkpt lat="60.2919" lon="7.64533">
        <ele>1222.45</ele>
        <time>2019-04-05T11:11:19Z</time>
      </trkpt>
      <trkpt lat="60.29197" lon="7.64535">
        <ele>1222.45</ele>
        <time>2019-04-05T11:11:20Z</time>
      </trkpt>
      <trkpt lat="60.29217" lon="7.64543">
        <ele>1221.01</ele>
        <time>2019-04-05T11:11:23Z</time>
      </trkpt>
      <trkpt lat="60.29241" lon="7.64555">
        <ele>1219.09</ele>
        <time>2019-04-05T11:11:26Z</time>
      </trkpt>
      <trkpt lat="60.2925" lon="7.64558">
        <ele>1219.09</ele>
        <time>2019-04-05T11:11:27Z</time>
      </trkpt>
      <trkpt lat="60.29258" lon="7.64559">
        <ele>1219.09</ele>
        <time>2019-04-05T11:11:28Z</time>
      </trkpt>
      <trkpt lat="60.29266" lon="7.64557">
        <ele>1217.17</ele>
        <time>2019-04-05T11:11:29Z</time>
      </trkpt>
      <trkpt lat="60.29275" lon="7.64555">
        <ele>1217.17</ele>
        <time>2019-04-05T11:11:30Z</time>
      </trkpt>
      <trkpt lat="60.29283" lon="7.64555">
        <ele>1218.61</ele>
        <time>2019-04-05T11:11:31Z</time>
      </trkpt>
      <trkpt lat="60.29291" lon="7.64556">
        <ele>1218.61</ele>
        <time>2019-04-05T11:11:32Z</time>
      </trkpt>
      <trkpt lat="60.29298" lon="7.64558">
        <ele>1218.61</ele>
        <time>2019-04-05T11:11:33Z</time>
      </trkpt>
      <trkpt lat="60.29305" lon="7.64559">
        <ele>1217.17</ele>
        <time>2019-04-05T11:11:34Z</time>
      </trkpt>
      <trkpt lat="60.29312" lon="7.64561">
        <ele>1217.17</ele>
        <time>2019-04-05T11:11:35Z</time>
      </trkpt>
      <trkpt lat="60.29319" lon="7.64561">
        <ele>1217.17</ele>
        <time>2019-04-05T11:11:36Z</time>
      </trkpt>
      <trkpt lat="60.29326" lon="7.64563">
        <ele>1219.09</ele>
        <time>2019-04-05T11:11:37Z</time>
      </trkpt>
      <trkpt lat="60.29333" lon="7.64564">
        <ele>1219.09</ele>
        <time>2019-04-05T11:11:38Z</time>
      </trkpt>
      <trkpt lat="60.29339" lon="7.64565">
        <ele>1219.09</ele>
        <time>2019-04-05T11:11:39Z</time>
      </trkpt>
      <trkpt lat="60.2935" lon="7.64567">
        <ele>1219.09</ele>
        <time>2019-04-05T11:11:41Z</time>
      </trkpt>
      <trkpt lat="60.29355" lon="7.64569">
        <ele>1219.09</ele>
        <time>2019-04-05T11:11:42Z</time>
      </trkpt>
      <trkpt lat="60.2936" lon="7.6457">
        <ele>1219.57</ele>
        <time>2019-04-05T11:11:43Z</time>
      </trkpt>
      <trkpt lat="60.29365" lon="7.64571">
        <ele>1219.57</ele>
        <time>2019-04-05T11:11:44Z</time>
      </trkpt>
      <trkpt lat="60.29371" lon="7.64571">
        <ele>1219.57</ele>
        <time>2019-04-05T11:11:45Z</time>
      </trkpt>
      <trkpt lat="60.29376" lon="7.64572">
        <ele>1219.57</ele>
        <time>2019-04-05T11:11:46Z</time>
      </trkpt>
      <trkpt lat="60.29382" lon="7.64573">
        <ele>1220.05</ele>
        <time>2019-04-05T11:11:47Z</time>
      </trkpt>
      <trkpt lat="60.29393" lon="7.64577">
        <ele>1221.01</ele>
        <time>2019-04-05T11:11:49Z</time>
      </trkpt>
      <trkpt lat="60.29408" lon="7.64582">
        <ele>1221.49</ele>
        <time>2019-04-05T11:11:52Z</time>
      </trkpt>
      <trkpt lat="60.29419" lon="7.64587">
        <ele>1221.97</ele>
        <time>2019-04-05T11:11:54Z</time>
      </trkpt>
      <trkpt lat="60.29437" lon="7.64586">
        <ele>1221.97</ele>
        <time>2019-04-05T11:11:58Z</time>
      </trkpt>
      <trkpt lat="60.29458" lon="7.64584">
        <ele>1224.38</ele>
        <time>2019-04-05T11:12:02Z</time>
      </trkpt>
      <trkpt lat="60.29487" lon="7.64594">
        <ele>1222.45</ele>
        <time>2019-04-05T11:12:07Z</time>
      </trkpt>
      <trkpt lat="60.29539" lon="7.64611">
        <ele>1219.57</ele>
        <time>2019-04-05T11:12:15Z</time>
      </trkpt>
      <trkpt lat="60.29554" lon="7.64612">
        <ele>1218.13</ele>
        <time>2019-04-05T11:12:17Z</time>
      </trkpt>
      <trkpt lat="60.29583" lon="7.64612">
        <ele>1214.28</ele>
        <time>2019-04-05T11:12:20Z</time>
      </trkpt>
      <trkpt lat="60.29604" lon="7.64609">
        <ele>1212.84</ele>
        <time>2019-04-05T11:12:22Z</time>
      </trkpt>
      <trkpt lat="60.29667" lon="7.64591">
        <ele>1213.32</ele>
        <time>2019-04-05T11:12:29Z</time>
      </trkpt>
      <trkpt lat="60.29725" lon="7.64569">
        <ele>1211.88</ele>
        <time>2019-04-05T11:12:36Z</time>
      </trkpt>
      <trkpt lat="60.29731" lon="7.64567">
        <ele>1211.88</ele>
        <time>2019-04-05T11:12:37Z</time>
      </trkpt>
      <trkpt lat="60.29744" lon="7.64558">
        <ele>1215.24</ele>
        <time>2019-04-05T11:12:39Z</time>
      </trkpt>
      <trkpt lat="60.29768" lon="7.64547">
        <ele>1216.21</ele>
        <time>2019-04-05T11:12:43Z</time>
      </trkpt>
      <trkpt lat="60.29825" lon="7.64527">
        <ele>1216.21</ele>
        <time>2019-04-05T11:12:52Z</time>
      </trkpt>
      <trkpt lat="60.29841" lon="7.64523">
        <ele>1219.57</ele>
        <time>2019-04-05T11:12:55Z</time>
      </trkpt>
      <trkpt lat="60.29846" lon="7.64521">
        <ele>1219.57</ele>
        <time>2019-04-05T11:12:56Z</time>
      </trkpt>
      <trkpt lat="60.29927" lon="7.64485">
        <ele>1221.97</ele>
        <time>2019-04-05T11:13:09Z</time>
      </trkpt>
      <trkpt lat="60.29963" lon="7.64473">
        <ele>1218.61</ele>
        <time>2019-04-05T11:13:14Z</time>
      </trkpt>
      <trkpt lat="60.29981" lon="7.64473">
        <ele>1218.61</ele>
        <time>2019-04-05T11:13:17Z</time>
      </trkpt>
      <trkpt lat="60.30016" lon="7.64472">
        <ele>1221.97</ele>
        <time>2019-04-05T11:13:24Z</time>
      </trkpt>
      <trkpt lat="60.3002" lon="7.64471">
        <ele>1222.93</ele>
        <time>2019-04-05T11:13:25Z</time>
      </trkpt>
      <trkpt lat="60.30029" lon="7.64469">
        <ele>1223.9</ele>
        <time>2019-04-05T11:13:27Z</time>
      </trkpt>
      <trkpt lat="60.30034" lon="7.64467">
        <ele>1223.9</ele>
        <time>2019-04-05T11:13:28Z</time>
      </trkpt>
      <trkpt lat="60.3006" lon="7.64462">
        <ele>1226.78</ele>
        <time>2019-04-05T11:13:33Z</time>
      </trkpt>
      <trkpt lat="60.30107" lon="7.6444">
        <ele>1228.22</ele>
        <time>2019-04-05T11:13:40Z</time>
      </trkpt>
      <trkpt lat="60.30161" lon="7.64396">
        <ele>1225.82</ele>
        <time>2019-04-05T11:13:47Z</time>
      </trkpt>
      <trkpt lat="60.30167" lon="7.6439">
        <ele>1225.82</ele>
        <time>2019-04-05T11:13:48Z</time>
      </trkpt>
      <trkpt lat="60.30214" lon="7.64369">
        <ele>1226.3</ele>
        <time>2019-04-05T11:13:55Z</time>
      </trkpt>
      <trkpt lat="60.30231" lon="7.6436">
        <ele>1227.26</ele>
        <time>2019-04-05T11:13:57Z</time>
      </trkpt>
      <trkpt lat="60.3028" lon="7.64324">
        <ele>1230.62</ele>
        <time>2019-04-05T11:14:04Z</time>
      </trkpt>
      <trkpt lat="60.30286" lon="7.6432">
        <ele>1230.62</ele>
        <time>2019-04-05T11:14:05Z</time>
      </trkpt>
      <trkpt lat="60.30303" lon="7.64311">
        <ele>1232.55</ele>
        <time>2019-04-05T11:14:08Z</time>
      </trkpt>
      <trkpt lat="60.30314" lon="7.64307">
        <ele>1233.99</ele>
        <time>2019-04-05T11:14:10Z</time>
      </trkpt>
      <trkpt lat="60.30324" lon="7.64306">
        <ele>1234.95</ele>
        <time>2019-04-05T11:14:12Z</time>
      </trkpt>
      <trkpt lat="60.30331" lon="7.64309">
        <ele>1236.39</ele>
        <time>2019-04-05T11:14:15Z</time>
      </trkpt>
      <trkpt lat="60.30335" lon="7.64307">
        <ele>1234.47</ele>
        <time>2019-04-05T11:14:18Z</time>
      </trkpt>
      <trkpt lat="60.30344" lon="7.64296">
        <ele>1233.99</ele>
        <time>2019-04-05T11:14:26Z</time>
      </trkpt>
      <trkpt lat="60.30348" lon="7.64282">
        <ele>1233.03</ele>
        <time>2019-04-05T11:14:35Z</time>
      </trkpt>
      <trkpt lat="60.30351" lon="7.64279">
        <ele>1233.03</ele>
        <time>2019-04-05T11:14:38Z</time>
      </trkpt>
      <trkpt lat="60.30354" lon="7.64279">
        <ele>1232.07</ele>
        <time>2019-04-05T11:14:51Z</time>
      </trkpt>
      <trkpt lat="60.30355" lon="7.64278">
        <ele>1232.07</ele>
        <time>2019-04-05T11:15:10Z</time>
      </trkpt>
      <trkpt lat="60.30357" lon="7.64275">
        <ele>1233.51</ele>
        <time>2019-04-05T11:15:23Z</time>
      </trkpt>
      <trkpt lat="60.30358" lon="7.64273">
        <ele>1234.47</ele>
        <time>2019-04-05T11:15:31Z</time>
      </trkpt>
      <trkpt lat="60.3036" lon="7.64263">
        <ele>1233.03</ele>
        <time>2019-04-05T11:15:35Z</time>
      </trkpt>
      <trkpt lat="60.30361" lon="7.64259">
        <ele>1232.55</ele>
        <time>2019-04-05T11:15:36Z</time>
      </trkpt>
      <trkpt lat="60.30369" lon="7.64245">
        <ele>1235.43</ele>
        <time>2019-04-05T11:15:49Z</time>
      </trkpt>
      <trkpt lat="60.30375" lon="7.6421">
        <ele>1233.51</ele>
        <time>2019-04-05T11:16:00Z</time>
      </trkpt>
      <trkpt lat="60.30376" lon="7.64208">
        <ele>1233.99</ele>
        <time>2019-04-05T11:16:19Z</time>
      </trkpt>
      <trkpt lat="60.30377" lon="7.64206">
        <ele>1233.99</ele>
        <time>2019-04-05T11:16:25Z</time>
      </trkpt>
      <trkpt lat="60.30378" lon="7.64198">
        <ele>1233.99</ele>
        <time>2019-04-05T11:16:28Z</time>
      </trkpt>
      <trkpt lat="60.30371" lon="7.64197">
        <ele>1230.62</ele>
        <time>2019-04-05T11:16:32Z</time>
      </trkpt>
      <trkpt lat="60.3036" lon="7.64204">
        <ele>1228.7</ele>
        <time>2019-04-05T11:16:35Z</time>
      </trkpt>
      <trkpt lat="60.30344" lon="7.64214">
        <ele>1231.11</ele>
        <time>2019-04-05T11:16:39Z</time>
      </trkpt>
      <trkpt lat="60.30335" lon="7.6422">
        <ele>1228.22</ele>
        <time>2019-04-05T11:16:41Z</time>
      </trkpt>
      <trkpt lat="60.30326" lon="7.64229">
        <ele>1223.9</ele>
        <time>2019-04-05T11:16:43Z</time>
      </trkpt>
      <trkpt lat="60.30317" lon="7.64238">
        <ele>1222.93</ele>
        <time>2019-04-05T11:16:45Z</time>
      </trkpt>
      <trkpt lat="60.30312" lon="7.64244">
        <ele>1224.86</ele>
        <time>2019-04-05T11:16:46Z</time>
      </trkpt>
      <trkpt lat="60.30301" lon="7.64257">
        <ele>1221.01</ele>
        <time>2019-04-05T11:16:48Z</time>
      </trkpt>
      <trkpt lat="60.30294" lon="7.64264">
        <ele>1221.01</ele>
        <time>2019-04-05T11:16:49Z</time>
      </trkpt>
      <trkpt lat="60.30289" lon="7.64271">
        <ele>1221.49</ele>
        <time>2019-04-05T11:16:50Z</time>
      </trkpt>
      <trkpt lat="60.30263" lon="7.6429">
        <ele>1216.21</ele>
        <time>2019-04-05T11:16:54Z</time>
      </trkpt>
      <trkpt lat="60.30256" lon="7.64294">
        <ele>1216.21</ele>
        <time>2019-04-05T11:16:55Z</time>
      </trkpt>
      <trkpt lat="60.30234" lon="7.64311">
        <ele>1212.84</ele>
        <time>2019-04-05T11:16:58Z</time>
      </trkpt>
      <trkpt lat="60.30207" lon="7.64341">
        <ele>1216.69</ele>
        <time>2019-04-05T11:17:03Z</time>
      </trkpt>
      <trkpt lat="60.30188" lon="7.64361">
        <ele>1219.57</ele>
        <time>2019-04-05T11:17:07Z</time>
      </trkpt>
      <trkpt lat="60.30178" lon="7.64372">
        <ele>1219.57</ele>
        <time>2019-04-05T11:17:09Z</time>
      </trkpt>
      <trkpt lat="60.30167" lon="7.64383">
        <ele>1218.13</ele>
        <time>2019-04-05T11:17:11Z</time>
      </trkpt>
      <trkpt lat="60.30136" lon="7.64412">
        <ele>1219.09</ele>
        <time>2019-04-05T11:17:16Z</time>
      </trkpt>
      <trkpt lat="60.30124" lon="7.64412">
        <ele>1223.42</ele>
        <time>2019-04-05T11:17:18Z</time>
      </trkpt>
      <trkpt lat="60.30122" lon="7.64405">
        <ele>1224.38</ele>
        <time>2019-04-05T11:17:20Z</time>
      </trkpt>
      <trkpt lat="60.3012" lon="7.64397">
        <ele>1219.57</ele>
        <time>2019-04-05T11:17:30Z</time>
      </trkpt>
      <trkpt lat="60.3012" lon="7.64397">
        <ele>1222.45</ele>
        <time>2019-04-05T11:17:31Z</time>
      </trkpt>
      <trkpt lat="60.30119" lon="7.64399">
        <ele>1218.13</ele>
        <time>2019-04-05T11:17:34Z</time>
      </trkpt>
      <trkpt lat="60.30118" lon="7.644">
        <ele>1222.45</ele>
        <time>2019-04-05T11:17:37Z</time>
      </trkpt>
      <trkpt lat="60.30118" lon="7.644">
        <ele>1222.45</ele>
        <time>2019-04-05T11:17:38Z</time>
      </trkpt>
      <trkpt lat="60.30116" lon="7.644">
        <ele>1223.9</ele>
        <time>2019-04-05T11:17:40Z</time>
      </trkpt>
      <trkpt lat="60.30115" lon="7.64401">
        <ele>1221.97</ele>
        <time>2019-04-05T11:17:42Z</time>
      </trkpt>
      <trkpt lat="60.30112" lon="7.64403">
        <ele>1220.05</ele>
        <time>2019-04-05T11:17:45Z</time>
      </trkpt>
      <trkpt lat="60.30098" lon="7.6441">
        <ele>1219.09</ele>
        <time>2019-04-05T11:17:51Z</time>
      </trkpt>
      <trkpt lat="60.30095" lon="7.64412">
        <ele>1219.09</ele>
        <time>2019-04-05T11:17:52Z</time>
      </trkpt>
      <trkpt lat="60.30081" lon="7.64413">
        <ele>1221.01</ele>
        <time>2019-04-05T11:17:55Z</time>
      </trkpt>
      <trkpt lat="60.30057" lon="7.64416">
        <ele>1216.69</ele>
        <time>2019-04-05T11:17:59Z</time>
      </trkpt>
      <trkpt lat="60.30012" lon="7.64423">
        <ele>1212.84</ele>
        <time>2019-04-05T11:18:05Z</time>
      </trkpt>
      <trkpt lat="60.29996" lon="7.64427">
        <ele>1211.4</ele>
        <time>2019-04-05T11:18:07Z</time>
      </trkpt>
      <trkpt lat="60.29972" lon="7.64433">
        <ele>1209.96</ele>
        <time>2019-04-05T11:18:10Z</time>
      </trkpt>
      <trkpt lat="60.29919" lon="7.6443">
        <ele>1209.96</ele>
        <time>2019-04-05T11:18:16Z</time>
      </trkpt>
      <trkpt lat="60.29902" lon="7.64432">
        <ele>1212.84</ele>
        <time>2019-04-05T11:18:18Z</time>
      </trkpt>
      <trkpt lat="60.29869" lon="7.64455">
        <ele>1211.88</ele>
        <time>2019-04-05T11:18:23Z</time>
      </trkpt>
      <trkpt lat="60.29863" lon="7.64461">
        <ele>1211.88</ele>
        <time>2019-04-05T11:18:24Z</time>
      </trkpt>
      <trkpt lat="60.29841" lon="7.64486">
        <ele>1208.51</ele>
        <time>2019-04-05T11:18:28Z</time>
      </trkpt>
      <trkpt lat="60.29813" lon="7.64518">
        <ele>1209.48</ele>
        <time>2019-04-05T11:18:36Z</time>
      </trkpt>
      <trkpt lat="60.29807" lon="7.64519">
        <ele>1212.36</ele>
        <time>2019-04-05T11:18:40Z</time>
      </trkpt>
      <trkpt lat="60.29807" lon="7.64513">
        <ele>1212.84</ele>
        <time>2019-04-05T11:18:52Z</time>
      </trkpt>
      <trkpt lat="60.2981" lon="7.64506">
        <ele>1212.84</ele>
        <time>2019-04-05T11:19:03Z</time>
      </trkpt>
      <trkpt lat="60.29811" lon="7.64483">
        <ele>1211.4</ele>
        <time>2019-04-05T11:19:09Z</time>
      </trkpt>
      <trkpt lat="60.29808" lon="7.64472">
        <ele>1211.4</ele>
        <time>2019-04-05T11:19:22Z</time>
      </trkpt>
      <trkpt lat="60.29811" lon="7.64466">
        <ele>1211.4</ele>
        <time>2019-04-05T11:19:37Z</time>
      </trkpt>
      <trkpt lat="60.2981" lon="7.64466">
        <ele>1211.4</ele>
        <time>2019-04-05T11:20:00Z</time>
      </trkpt>
      <trkpt lat="60.2981" lon="7.64465">
        <ele>1211.4</ele>
        <time>2019-04-05T11:20:19Z</time>
      </trkpt>
      <trkpt lat="60.2981" lon="7.64465">
        <ele>1212.84</ele>
        <time>2019-04-05T11:20:30Z</time>
      </trkpt>
      <trkpt lat="60.2981" lon="7.64465">
        <ele>1211.4</ele>
        <time>2019-04-05T11:20:51Z</time>
      </trkpt>
      <trkpt lat="60.2981" lon="7.64464">
        <ele>1211.4</ele>
        <time>2019-04-05T11:21:06Z</time>
      </trkpt>
      <trkpt lat="60.2981" lon="7.64466">
        <ele>1211.4</ele>
        <time>2019-04-05T11:21:22Z</time>
      </trkpt>
      <trkpt lat="60.29811" lon="7.64465">
        <ele>1211.4</ele>
        <time>2019-04-05T11:21:40Z</time>
      </trkpt>
      <trkpt lat="60.2981" lon="7.64465">
        <ele>1211.4</ele>
        <time>2019-04-05T11:21:48Z</time>
      </trkpt>
      <trkpt lat="60.29808" lon="7.64454">
        <ele>1210.92</ele>
        <time>2019-04-05T11:21:52Z</time>
      </trkpt>
      <trkpt lat="60.29803" lon="7.64421">
        <ele>1212.84</ele>
        <time>2019-04-05T11:22:02Z</time>
      </trkpt>
      <trkpt lat="60.298" lon="7.64429">
        <ele>1210.92</ele>
        <time>2019-04-05T11:22:16Z</time>
      </trkpt>
      <trkpt lat="60.29799" lon="7.64428">
        <ele>1210.92</ele>
        <time>2019-04-05T11:22:29Z</time>
      </trkpt>
      <trkpt lat="60.29799" lon="7.64429">
        <ele>1210.92</ele>
        <time>2019-04-05T11:22:31Z</time>
      </trkpt>
      <trkpt lat="60.29799" lon="7.64432">
        <ele>1207.55</ele>
        <time>2019-04-05T11:22:38Z</time>
      </trkpt>
      <trkpt lat="60.29798" lon="7.64427">
        <ele>1209.48</ele>
        <time>2019-04-05T11:23:15Z</time>
      </trkpt>
      <trkpt lat="60.29798" lon="7.64425">
        <ele>1209.48</ele>
        <time>2019-04-05T11:23:48Z</time>
      </trkpt>
      <trkpt lat="60.29798" lon="7.64425">
        <ele>1209.48</ele>
        <time>2019-04-05T11:24:29Z</time>
      </trkpt>
      <trkpt lat="60.29798" lon="7.64423">
        <ele>1209.96</ele>
        <time>2019-04-05T11:25:02Z</time>
      </trkpt>
      <trkpt lat="60.29798" lon="7.64424">
        <ele>1209.96</ele>
        <time>2019-04-05T11:25:31Z</time>
      </trkpt>
      <trkpt lat="60.29798" lon="7.64426">
        <ele>1209.96</ele>
        <time>2019-04-05T11:25:47Z</time>
      </trkpt>
      <trkpt lat="60.29801" lon="7.64428">
        <ele>1210.44</ele>
        <time>2019-04-05T11:26:05Z</time>
      </trkpt>
      <trkpt lat="60.29802" lon="7.64429">
        <ele>1210.44</ele>
        <time>2019-04-05T11:26:38Z</time>
      </trkpt>
      <trkpt lat="60.29802" lon="7.64427">
        <ele>1209.48</ele>
        <time>2019-04-05T11:27:14Z</time>
      </trkpt>
      <trkpt lat="60.29803" lon="7.64427">
        <ele>1209.48</ele>
        <time>2019-04-05T11:27:54Z</time>
      </trkpt>
      <trkpt lat="60.29803" lon="7.64428">
        <ele>1209.48</ele>
        <time>2019-04-05T11:28:32Z</time>
      </trkpt>
      <trkpt lat="60.29802" lon="7.64428">
        <ele>1209.48</ele>
        <time>2019-04-05T11:29:12Z</time>
      </trkpt>
      <trkpt lat="60.29802" lon="7.64428">
        <ele>1211.4</ele>
        <time>2019-04-05T11:29:17Z</time>
      </trkpt>
      <trkpt lat="60.29802" lon="7.64428">
        <ele>1209.96</ele>
        <time>2019-04-05T11:29:19Z</time>
      </trkpt>
      <trkpt lat="60.29802" lon="7.64428">
        <ele>1209.96</ele>
        <time>2019-04-05T11:29:56Z</time>
      </trkpt>
      <trkpt lat="60.29802" lon="7.64427">
        <ele>1209.48</ele>
        <time>2019-04-05T11:30:17Z</time>
      </trkpt>
      <trkpt lat="60.29802" lon="7.64426">
        <ele>1210.44</ele>
        <time>2019-04-05T11:30:33Z</time>
      </trkpt>
      <trkpt lat="60.29801" lon="7.64428">
        <ele>1211.88</ele>
        <time>2019-04-05T11:30:37Z</time>
      </trkpt>
      <trkpt lat="60.29807" lon="7.64452">
        <ele>1212.36</ele>
        <time>2019-04-05T11:30:49Z</time>
      </trkpt>
      <trkpt lat="60.29808" lon="7.64456">
        <ele>1210.92</ele>
        <time>2019-04-05T11:30:51Z</time>
      </trkpt>
      <trkpt lat="60.29811" lon="7.64463">
        <ele>1212.36</ele>
        <time>2019-04-05T11:30:56Z</time>
      </trkpt>
      <trkpt lat="60.29811" lon="7.64465">
        <ele>1209.48</ele>
        <time>2019-04-05T11:31:00Z</time>
      </trkpt>
      <trkpt lat="60.29811" lon="7.64471">
        <ele>1211.88</ele>
        <time>2019-04-05T11:31:03Z</time>
      </trkpt>
      <trkpt lat="60.29813" lon="7.64507">
        <ele>1212.36</ele>
        <time>2019-04-05T11:31:18Z</time>
      </trkpt>
      <trkpt lat="60.29813" lon="7.64515">
        <ele>1212.84</ele>
        <time>2019-04-05T11:31:30Z</time>
      </trkpt>
      <trkpt lat="60.29813" lon="7.64514">
        <ele>1211.4</ele>
        <time>2019-04-05T11:31:40Z</time>
      </trkpt>
      <trkpt lat="60.29813" lon="7.64514">
        <ele>1211.4</ele>
        <time>2019-04-05T11:32:02Z</time>
      </trkpt>
      <trkpt lat="60.29813" lon="7.64513">
        <ele>1209.96</ele>
        <time>2019-04-05T11:32:09Z</time>
      </trkpt>
      <trkpt lat="60.29813" lon="7.64514">
        <ele>1211.88</ele>
        <time>2019-04-05T11:32:12Z</time>
      </trkpt>
      <trkpt lat="60.29813" lon="7.64514">
        <ele>1212.36</ele>
        <time>2019-04-05T11:32:24Z</time>
      </trkpt>
      <trkpt lat="60.29812" lon="7.64515">
        <ele>1209.96</ele>
        <time>2019-04-05T11:32:28Z</time>
      </trkpt>
      <trkpt lat="60.29813" lon="7.64516">
        <ele>1209.96</ele>
        <time>2019-04-05T11:33:06Z</time>
      </trkpt>
      <trkpt lat="60.29813" lon="7.64515">
        <ele>1209.96</ele>
        <time>2019-04-05T11:33:39Z</time>
      </trkpt>
      <trkpt lat="60.29811" lon="7.64515">
        <ele>1209.96</ele>
        <time>2019-04-05T11:34:10Z</time>
      </trkpt>
      <trkpt lat="60.29812" lon="7.64513">
        <ele>1209.96</ele>
        <time>2019-04-05T11:34:42Z</time>
      </trkpt>
      <trkpt lat="60.29812" lon="7.64514">
        <ele>1209.96</ele>
        <time>2019-04-05T11:35:19Z</time>
      </trkpt>
      <trkpt lat="60.29813" lon="7.64516">
        <ele>1209.96</ele>
        <time>2019-04-05T11:35:53Z</time>
      </trkpt>
      <trkpt lat="60.29811" lon="7.64514">
        <ele>1211.88</ele>
        <time>2019-04-05T11:35:57Z</time>
      </trkpt>
      <trkpt lat="60.29811" lon="7.64508">
        <ele>1211.88</ele>
        <time>2019-04-05T11:36:01Z</time>
      </trkpt>
      <trkpt lat="60.2981" lon="7.64498">
        <ele>1210.44</ele>
        <time>2019-04-05T11:36:05Z</time>
      </trkpt>
      <trkpt lat="60.29809" lon="7.64483">
        <ele>1209.96</ele>
        <time>2019-04-05T11:36:11Z</time>
      </trkpt>
      <trkpt lat="60.29805" lon="7.64468">
        <ele>1209.48</ele>
        <time>2019-04-05T11:36:18Z</time>
      </trkpt>
      <trkpt lat="60.29804" lon="7.64464">
        <ele>1209.48</ele>
        <time>2019-04-05T11:36:20Z</time>
      </trkpt>
      <trkpt lat="60.29804" lon="7.64463">
        <ele>1208.03</ele>
        <time>2019-04-05T11:36:40Z</time>
      </trkpt>
      <trkpt lat="60.29803" lon="7.6446">
        <ele>1207.55</ele>
        <time>2019-04-05T11:37:28Z</time>
      </trkpt>
      <trkpt lat="60.29804" lon="7.64464">
        <ele>1207.55</ele>
        <time>2019-04-05T11:38:11Z</time>
      </trkpt>
      <trkpt lat="60.29804" lon="7.64464">
        <ele>1207.55</ele>
        <time>2019-04-05T11:38:21Z</time>
      </trkpt>
      <trkpt lat="60.29804" lon="7.64465">
        <ele>1209</ele>
        <time>2019-04-05T11:38:24Z</time>
      </trkpt>
      <trkpt lat="60.29803" lon="7.64467">
        <ele>1209.48</ele>
        <time>2019-04-05T11:38:42Z</time>
      </trkpt>
      <trkpt lat="60.29802" lon="7.64468">
        <ele>1209.96</ele>
        <time>2019-04-05T11:39:18Z</time>
      </trkpt>
      <trkpt lat="60.29803" lon="7.64466">
        <ele>1210.44</ele>
        <time>2019-04-05T11:39:56Z</time>
      </trkpt>
      <trkpt lat="60.29803" lon="7.64464">
        <ele>1210.44</ele>
        <time>2019-04-05T11:40:30Z</time>
      </trkpt>
      <trkpt lat="60.29803" lon="7.64464">
        <ele>1210.44</ele>
        <time>2019-04-05T11:41:07Z</time>
      </trkpt>
      <trkpt lat="60.29803" lon="7.64464">
        <ele>1210.44</ele>
        <time>2019-04-05T11:41:45Z</time>
      </trkpt>
      <trkpt lat="60.29804" lon="7.64464">
        <ele>1210.44</ele>
        <time>2019-04-05T11:42:17Z</time>
      </trkpt>
      <trkpt lat="60.29803" lon="7.64464">
        <ele>1210.44</ele>
        <time>2019-04-05T11:42:52Z</time>
      </trkpt>
      <trkpt lat="60.29803" lon="7.64464">
        <ele>1210.44</ele>
        <time>2019-04-05T11:43:26Z</time>
      </trkpt>
      <trkpt lat="60.29803" lon="7.64464">
        <ele>1210.92</ele>
        <time>2019-04-05T11:43:55Z</time>
      </trkpt>
      <trkpt lat="60.29803" lon="7.64461">
        <ele>1212.84</ele>
        <time>2019-04-05T11:44:18Z</time>
      </trkpt>
      <trkpt lat="60.29805" lon="7.64457">
        <ele>1211.4</ele>
        <time>2019-04-05T11:44:35Z</time>
      </trkpt>
      <trkpt lat="60.29805" lon="7.64456">
        <ele>1211.4</ele>
        <time>2019-04-05T11:44:36Z</time>
      </trkpt>
      <trkpt lat="60.29807" lon="7.64453">
        <ele>1211.4</ele>
        <time>2019-04-05T11:44:48Z</time>
      </trkpt>
      <trkpt lat="60.29815" lon="7.64442">
        <ele>1211.4</ele>
        <time>2019-04-05T11:44:58Z</time>
      </trkpt>
      <trkpt lat="60.29815" lon="7.64442">
        <ele>1211.4</ele>
        <time>2019-04-05T11:44:59Z</time>
      </trkpt>
      <trkpt lat="60.29825" lon="7.64436">
        <ele>1211.4</ele>
        <time>2019-04-05T11:45:05Z</time>
      </trkpt>
      <trkpt lat="60.29833" lon="7.64438">
        <ele>1212.36</ele>
        <time>2019-04-05T11:45:07Z</time>
      </trkpt>
      <trkpt lat="60.2985" lon="7.64445">
        <ele>1212.84</ele>
        <time>2019-04-05T11:45:11Z</time>
      </trkpt>
      <trkpt lat="60.29899" lon="7.64457">
        <ele>1216.21</ele>
        <time>2019-04-05T11:45:24Z</time>
      </trkpt>
      <trkpt lat="60.29933" lon="7.64462">
        <ele>1216.69</ele>
        <time>2019-04-05T11:45:35Z</time>
      </trkpt>
      <trkpt lat="60.29956" lon="7.64465">
        <ele>1216.69</ele>
        <time>2019-04-05T11:45:39Z</time>
      </trkpt>
      <trkpt lat="60.29974" lon="7.6447">
        <ele>1216.69</ele>
        <time>2019-04-05T11:45:42Z</time>
      </trkpt>
      <trkpt lat="60.29998" lon="7.64473">
        <ele>1219.09</ele>
        <time>2019-04-05T11:45:46Z</time>
      </trkpt>
      <trkpt lat="60.30009" lon="7.64476">
        <ele>1219.57</ele>
        <time>2019-04-05T11:45:48Z</time>
      </trkpt>
      <trkpt lat="60.30019" lon="7.64476">
        <ele>1221.01</ele>
        <time>2019-04-05T11:45:50Z</time>
      </trkpt>
      <trkpt lat="60.30028" lon="7.64477">
        <ele>1222.45</ele>
        <time>2019-04-05T11:45:52Z</time>
      </trkpt>
      <trkpt lat="60.3006" lon="7.64485">
        <ele>1224.86</ele>
        <time>2019-04-05T11:45:58Z</time>
      </trkpt>
      <trkpt lat="60.30135" lon="7.64503">
        <ele>1226.78</ele>
        <time>2019-04-05T11:46:08Z</time>
      </trkpt>
      <trkpt lat="60.30159" lon="7.64508">
        <ele>1226.78</ele>
        <time>2019-04-05T11:46:11Z</time>
      </trkpt>
      <trkpt lat="60.30172" lon="7.64507">
        <ele>1228.22</ele>
        <time>2019-04-05T11:46:13Z</time>
      </trkpt>
      <trkpt lat="60.30175" lon="7.64501">
        <ele>1223.9</ele>
        <time>2019-04-05T11:46:14Z</time>
      </trkpt>
      <trkpt lat="60.30165" lon="7.645">
        <ele>1220.05</ele>
        <time>2019-04-05T11:46:18Z</time>
      </trkpt>
      <trkpt lat="60.30156" lon="7.64507">
        <ele>1220.05</ele>
        <time>2019-04-05T11:46:20Z</time>
      </trkpt>
      <trkpt lat="60.30141" lon="7.64522">
        <ele>1217.65</ele>
        <time>2019-04-05T11:46:23Z</time>
      </trkpt>
      <trkpt lat="60.30117" lon="7.64547">
        <ele>1218.61</ele>
        <time>2019-04-05T11:46:27Z</time>
      </trkpt>
      <trkpt lat="60.30106" lon="7.6456">
        <ele>1220.53</ele>
        <time>2019-04-05T11:46:29Z</time>
      </trkpt>
      <trkpt lat="60.3009" lon="7.64581">
        <ele>1223.9</ele>
        <time>2019-04-05T11:46:32Z</time>
      </trkpt>
      <trkpt lat="60.30085" lon="7.64589">
        <ele>1223.9</ele>
        <time>2019-04-05T11:46:33Z</time>
      </trkpt>
      <trkpt lat="60.30039" lon="7.64653">
        <ele>1225.34</ele>
        <time>2019-04-05T11:46:42Z</time>
      </trkpt>
      <trkpt lat="60.30027" lon="7.64666">
        <ele>1226.78</ele>
        <time>2019-04-05T11:46:44Z</time>
      </trkpt>
      <trkpt lat="60.30016" lon="7.6468">
        <ele>1225.34</ele>
        <time>2019-04-05T11:46:46Z</time>
      </trkpt>
      <trkpt lat="60.29961" lon="7.64738">
        <ele>1226.78</ele>
        <time>2019-04-05T11:46:55Z</time>
      </trkpt>
      <trkpt lat="60.29935" lon="7.64771">
        <ele>1224.86</ele>
        <time>2019-04-05T11:47:00Z</time>
      </trkpt>
      <trkpt lat="60.29917" lon="7.64793">
        <ele>1223.9</ele>
        <time>2019-04-05T11:47:03Z</time>
      </trkpt>
      <trkpt lat="60.2991" lon="7.64799">
        <ele>1223.9</ele>
        <time>2019-04-05T11:47:04Z</time>
      </trkpt>
      <trkpt lat="60.29891" lon="7.64812">
        <ele>1224.86</ele>
        <time>2019-04-05T11:47:07Z</time>
      </trkpt>
      <trkpt lat="60.29873" lon="7.64815">
        <ele>1227.26</ele>
        <time>2019-04-05T11:47:13Z</time>
      </trkpt>
      <trkpt lat="60.29872" lon="7.6481">
        <ele>1225.82</ele>
        <time>2019-04-05T11:47:17Z</time>
      </trkpt>
      <trkpt lat="60.2988" lon="7.64787">
        <ele>1223.9</ele>
        <time>2019-04-05T11:47:30Z</time>
      </trkpt>
      <trkpt lat="60.29879" lon="7.64779">
        <ele>1225.34</ele>
        <time>2019-04-05T11:47:46Z</time>
      </trkpt>
      <trkpt lat="60.29878" lon="7.64776">
        <ele>1225.34</ele>
        <time>2019-04-05T11:48:05Z</time>
      </trkpt>
      <trkpt lat="60.29878" lon="7.64774">
        <ele>1224.86</ele>
        <time>2019-04-05T11:48:19Z</time>
      </trkpt>
      <trkpt lat="60.29877" lon="7.64771">
        <ele>1226.78</ele>
        <time>2019-04-05T11:48:24Z</time>
      </trkpt>
      <trkpt lat="60.29877" lon="7.64771">
        <ele>1224.86</ele>
        <time>2019-04-05T11:48:35Z</time>
      </trkpt>
      <trkpt lat="60.29877" lon="7.6477">
        <ele>1225.82</ele>
        <time>2019-04-05T11:48:38Z</time>
      </trkpt>
      <trkpt lat="60.29874" lon="7.64754">
        <ele>1221.97</ele>
        <time>2019-04-05T11:48:53Z</time>
      </trkpt>
      <trkpt lat="60.29876" lon="7.64754">
        <ele>1221.97</ele>
        <time>2019-04-05T11:49:22Z</time>
      </trkpt>
      <trkpt lat="60.29883" lon="7.64747">
        <ele>1223.42</ele>
        <time>2019-04-05T11:49:26Z</time>
      </trkpt>
      <trkpt lat="60.2992" lon="7.64741">
        <ele>1225.34</ele>
        <time>2019-04-05T11:49:33Z</time>
      </trkpt>
      <trkpt lat="60.29947" lon="7.64744">
        <ele>1227.26</ele>
        <time>2019-04-05T11:49:38Z</time>
      </trkpt>
      <trkpt lat="60.29952" lon="7.64745">
        <ele>1226.3</ele>
        <time>2019-04-05T11:49:39Z</time>
      </trkpt>
      <trkpt lat="60.29972" lon="7.64752">
        <ele>1228.7</ele>
        <time>2019-04-05T11:49:43Z</time>
      </trkpt>
      <trkpt lat="60.29981" lon="7.64755">
        <ele>1225.82</ele>
        <time>2019-04-05T11:49:45Z</time>
      </trkpt>
      <trkpt lat="60.30017" lon="7.64749">
        <ele>1224.86</ele>
        <time>2019-04-05T11:49:55Z</time>
      </trkpt>
      <trkpt lat="60.30021" lon="7.64744">
        <ele>1224.86</ele>
        <time>2019-04-05T11:50:09Z</time>
      </trkpt>
      <trkpt lat="60.30021" lon="7.64744">
        <ele>1225.82</ele>
        <time>2019-04-05T11:50:11Z</time>
      </trkpt>
      <trkpt lat="60.30022" lon="7.64743">
        <ele>1225.82</ele>
        <time>2019-04-05T11:50:38Z</time>
      </trkpt>
      <trkpt lat="60.30027" lon="7.6474">
        <ele>1225.82</ele>
        <time>2019-04-05T11:50:49Z</time>
      </trkpt>
      <trkpt lat="60.30033" lon="7.64743">
        <ele>1227.26</ele>
        <time>2019-04-05T11:50:53Z</time>
      </trkpt>
      <trkpt lat="60.30036" lon="7.6474">
        <ele>1225.34</ele>
        <time>2019-04-05T11:51:00Z</time>
      </trkpt>
      <trkpt lat="60.30045" lon="7.64738">
        <ele>1226.78</ele>
        <time>2019-04-05T11:51:05Z</time>
      </trkpt>
      <trkpt lat="60.30055" lon="7.64741">
        <ele>1227.74</ele>
        <time>2019-04-05T11:51:09Z</time>
      </trkpt>
      <trkpt lat="60.3008" lon="7.64765">
        <ele>1227.74</ele>
        <time>2019-04-05T11:51:20Z</time>
      </trkpt>
      <trkpt lat="60.30082" lon="7.64768">
        <ele>1229.18</ele>
        <time>2019-04-05T11:51:35Z</time>
      </trkpt>
      <trkpt lat="60.30082" lon="7.64768">
        <ele>1229.18</ele>
        <time>2019-04-05T11:51:36Z</time>
      </trkpt>
      <trkpt lat="60.30082" lon="7.64767">
        <ele>1227.74</ele>
        <time>2019-04-05T11:51:54Z</time>
      </trkpt>
      <trkpt lat="60.30083" lon="7.64766">
        <ele>1227.26</ele>
        <time>2019-04-05T11:52:17Z</time>
      </trkpt>
      <trkpt lat="60.30085" lon="7.64767">
        <ele>1227.26</ele>
        <time>2019-04-05T11:52:38Z</time>
      </trkpt>
      <trkpt lat="60.30086" lon="7.64767">
        <ele>1229.18</ele>
        <time>2019-04-05T11:52:50Z</time>
      </trkpt>
      <trkpt lat="60.30085" lon="7.64752">
        <ele>1227.26</ele>
        <time>2019-04-05T11:52:54Z</time>
      </trkpt>
      <trkpt lat="60.30075" lon="7.64748">
        <ele>1223.42</ele>
        <time>2019-04-05T11:52:56Z</time>
      </trkpt>
      <trkpt lat="60.30069" lon="7.64748">
        <ele>1223.42</ele>
        <time>2019-04-05T11:52:57Z</time>
      </trkpt>
      <trkpt lat="60.30062" lon="7.6475">
        <ele>1223.42</ele>
        <time>2019-04-05T11:52:58Z</time>
      </trkpt>
      <trkpt lat="60.30008" lon="7.64767">
        <ele>1219.09</ele>
        <time>2019-04-05T11:53:04Z</time>
      </trkpt>
      <trkpt lat="60.29998" lon="7.64769">
        <ele>1217.65</ele>
        <time>2019-04-05T11:53:05Z</time>
      </trkpt>
      <trkpt lat="60.29956" lon="7.64764">
        <ele>1222.45</ele>
        <time>2019-04-05T11:53:09Z</time>
      </trkpt>
      <trkpt lat="60.29948" lon="7.64763">
        <ele>1223.9</ele>
        <time>2019-04-05T11:53:10Z</time>
      </trkpt>
      <trkpt lat="60.29906" lon="7.64754">
        <ele>1219.57</ele>
        <time>2019-04-05T11:53:15Z</time>
      </trkpt>
      <trkpt lat="60.29897" lon="7.64752">
        <ele>1219.57</ele>
        <time>2019-04-05T11:53:16Z</time>
      </trkpt>
      <trkpt lat="60.29879" lon="7.64747">
        <ele>1222.93</ele>
        <time>2019-04-05T11:53:19Z</time>
      </trkpt>
      <trkpt lat="60.29875" lon="7.64746">
        <ele>1222.93</ele>
        <time>2019-04-05T11:53:20Z</time>
      </trkpt>
      <trkpt lat="60.29862" lon="7.64741">
        <ele>1220.05</ele>
        <time>2019-04-05T11:53:24Z</time>
      </trkpt>
      <trkpt lat="60.29855" lon="7.6473">
        <ele>1217.65</ele>
        <time>2019-04-05T11:53:27Z</time>
      </trkpt>
      <trkpt lat="60.29856" lon="7.64724">
        <ele>1217.17</ele>
        <time>2019-04-05T11:53:40Z</time>
      </trkpt>
      <trkpt lat="60.29857" lon="7.64721">
        <ele>1218.61</ele>
        <time>2019-04-05T11:53:50Z</time>
      </trkpt>
      <trkpt lat="60.29882" lon="7.6472">
        <ele>1221.01</ele>
        <time>2019-04-05T11:53:59Z</time>
      </trkpt>
      <trkpt lat="60.29895" lon="7.64719">
        <ele>1222.93</ele>
        <time>2019-04-05T11:54:02Z</time>
      </trkpt>
      <trkpt lat="60.29945" lon="7.64698">
        <ele>1225.82</ele>
        <time>2019-04-05T11:54:10Z</time>
      </trkpt>
      <trkpt lat="60.29951" lon="7.64697">
        <ele>1225.82</ele>
        <time>2019-04-05T11:54:11Z</time>
      </trkpt>
      <trkpt lat="60.29979" lon="7.64698">
        <ele>1227.26</ele>
        <time>2019-04-05T11:54:16Z</time>
      </trkpt>
      <trkpt lat="60.29996" lon="7.64703">
        <ele>1227.26</ele>
        <time>2019-04-05T11:54:19Z</time>
      </trkpt>
      <trkpt lat="60.30017" lon="7.64702">
        <ele>1225.82</ele>
        <time>2019-04-05T11:54:22Z</time>
      </trkpt>
      <trkpt lat="60.30044" lon="7.64701">
        <ele>1227.26</ele>
        <time>2019-04-05T11:54:26Z</time>
      </trkpt>
      <trkpt lat="60.30117" lon="7.64679">
        <ele>1228.7</ele>
        <time>2019-04-05T11:54:35Z</time>
      </trkpt>
      <trkpt lat="60.30149" lon="7.64678">
        <ele>1228.7</ele>
        <time>2019-04-05T11:54:39Z</time>
      </trkpt>
      <trkpt lat="60.30165" lon="7.64681">
        <ele>1227.74</ele>
        <time>2019-04-05T11:54:44Z</time>
      </trkpt>
      <trkpt lat="60.30162" lon="7.64674">
        <ele>1227.74</ele>
        <time>2019-04-05T11:54:59Z</time>
      </trkpt>
      <trkpt lat="60.30156" lon="7.64666">
        <ele>1225.34</ele>
        <time>2019-04-05T11:55:05Z</time>
      </trkpt>
      <trkpt lat="60.30156" lon="7.64666">
        <ele>1226.78</ele>
        <time>2019-04-05T11:55:07Z</time>
      </trkpt>
      <trkpt lat="60.30155" lon="7.64665">
        <ele>1227.26</ele>
        <time>2019-04-05T11:55:20Z</time>
      </trkpt>
      <trkpt lat="60.30157" lon="7.64656">
        <ele>1226.3</ele>
        <time>2019-04-05T11:55:24Z</time>
      </trkpt>
      <trkpt lat="60.30158" lon="7.64655">
        <ele>1226.3</ele>
        <time>2019-04-05T11:55:46Z</time>
      </trkpt>
      <trkpt lat="60.3016" lon="7.64653">
        <ele>1226.3</ele>
        <time>2019-04-05T11:56:14Z</time>
      </trkpt>
      <trkpt lat="60.30162" lon="7.64649">
        <ele>1226.3</ele>
        <time>2019-04-05T11:56:40Z</time>
      </trkpt>
      <trkpt lat="60.30163" lon="7.64647">
        <ele>1226.3</ele>
        <time>2019-04-05T11:57:10Z</time>
      </trkpt>
      <trkpt lat="60.3016" lon="7.64646">
        <ele>1226.3</ele>
        <time>2019-04-05T11:57:34Z</time>
      </trkpt>
      <trkpt lat="60.30159" lon="7.64647">
        <ele>1226.3</ele>
        <time>2019-04-05T11:58:02Z</time>
      </trkpt>
      <trkpt lat="60.30152" lon="7.64648">
        <ele>1224.86</ele>
        <time>2019-04-05T11:58:05Z</time>
      </trkpt>
      <trkpt lat="60.30143" lon="7.64659">
        <ele>1223.9</ele>
        <time>2019-04-05T11:58:08Z</time>
      </trkpt>
      <trkpt lat="60.30109" lon="7.64704">
        <ele>1221.97</ele>
        <time>2019-04-05T11:58:16Z</time>
      </trkpt>
      <trkpt lat="60.30105" lon="7.6471">
        <ele>1223.9</ele>
        <time>2019-04-05T11:58:17Z</time>
      </trkpt>
      <trkpt lat="60.30082" lon="7.64723">
        <ele>1226.3</ele>
        <time>2019-04-05T11:58:22Z</time>
      </trkpt>
      <trkpt lat="60.3007" lon="7.64731">
        <ele>1221.01</ele>
        <time>2019-04-05T11:58:24Z</time>
      </trkpt>
      <trkpt lat="60.30064" lon="7.64738">
        <ele>1221.01</ele>
        <time>2019-04-05T11:58:25Z</time>
      </trkpt>
      <trkpt lat="60.30048" lon="7.64757">
        <ele>1230.14</ele>
        <time>2019-04-05T11:58:28Z</time>
      </trkpt>
      <trkpt lat="60.30036" lon="7.64774">
        <ele>1226.3</ele>
        <time>2019-04-05T11:58:31Z</time>
      </trkpt>
      <trkpt lat="60.30014" lon="7.6481">
        <ele>1226.3</ele>
        <time>2019-04-05T11:58:36Z</time>
      </trkpt>
      <trkpt lat="60.30002" lon="7.64841">
        <ele>1224.86</ele>
        <time>2019-04-05T11:58:40Z</time>
      </trkpt>
      <trkpt lat="60.29997" lon="7.64844">
        <ele>1222.93</ele>
        <time>2019-04-05T11:58:42Z</time>
      </trkpt>
      <trkpt lat="60.30002" lon="7.64829">
        <ele>1222.93</ele>
        <time>2019-04-05T11:58:45Z</time>
      </trkpt>
      <trkpt lat="60.30026" lon="7.64821">
        <ele>1226.3</ele>
        <time>2019-04-05T11:58:52Z</time>
      </trkpt>
      <trkpt lat="60.30027" lon="7.64819">
        <ele>1225.82</ele>
        <time>2019-04-05T11:59:08Z</time>
      </trkpt>
      <trkpt lat="60.3004" lon="7.64816">
        <ele>1227.26</ele>
        <time>2019-04-05T11:59:13Z</time>
      </trkpt>
      <trkpt lat="60.30053" lon="7.64815">
        <ele>1227.74</ele>
        <time>2019-04-05T11:59:16Z</time>
      </trkpt>
      <trkpt lat="60.30103" lon="7.64804">
        <ele>1230.14</ele>
        <time>2019-04-05T11:59:24Z</time>
      </trkpt>
      <trkpt lat="60.30118" lon="7.64803">
        <ele>1230.62</ele>
        <time>2019-04-05T11:59:26Z</time>
      </trkpt>
      <trkpt lat="60.30136" lon="7.648">
        <ele>1232.55</ele>
        <time>2019-04-05T11:59:29Z</time>
      </trkpt>
      <trkpt lat="60.30165" lon="7.64791">
        <ele>1236.87</ele>
        <time>2019-04-05T11:59:34Z</time>
      </trkpt>
      <trkpt lat="60.30178" lon="7.64788">
        <ele>1237.83</ele>
        <time>2019-04-05T11:59:36Z</time>
      </trkpt>
      <trkpt lat="60.302" lon="7.64794">
        <ele>1242.16</ele>
        <time>2019-04-05T11:59:40Z</time>
      </trkpt>
      <trkpt lat="60.30205" lon="7.64795">
        <ele>1242.16</ele>
        <time>2019-04-05T11:59:41Z</time>
      </trkpt>
      <trkpt lat="60.30231" lon="7.648">
        <ele>1243.12</ele>
        <time>2019-04-05T11:59:46Z</time>
      </trkpt>
      <trkpt lat="60.30235" lon="7.64791">
        <ele>1241.2</ele>
        <time>2019-04-05T11:59:49Z</time>
      </trkpt>
      <trkpt lat="60.30222" lon="7.64798">
        <ele>1237.83</ele>
        <time>2019-04-05T11:59:52Z</time>
      </trkpt>
      <trkpt lat="60.30205" lon="7.64821">
        <ele>1236.39</ele>
        <time>2019-04-05T11:59:55Z</time>
      </trkpt>
      <trkpt lat="60.30131" lon="7.64927">
        <ele>1233.99</ele>
        <time>2019-04-05T12:00:09Z</time>
      </trkpt>
      <trkpt lat="60.30085" lon="7.64992">
        <ele>1232.55</ele>
        <time>2019-04-05T12:00:17Z</time>
      </trkpt>
      <trkpt lat="60.30083" lon="7.64999">
        <ele>1232.55</ele>
        <time>2019-04-05T12:00:18Z</time>
      </trkpt>
      <trkpt lat="60.30081" lon="7.64997">
        <ele>1236.39</ele>
        <time>2019-04-05T12:00:20Z</time>
      </trkpt>
      <trkpt lat="60.30089" lon="7.6499">
        <ele>1237.35</ele>
        <time>2019-04-05T12:00:25Z</time>
      </trkpt>
      <trkpt lat="60.30102" lon="7.64987">
        <ele>1239.28</ele>
        <time>2019-04-05T12:00:29Z</time>
      </trkpt>
      <trkpt lat="60.30106" lon="7.64987">
        <ele>1239.28</ele>
        <time>2019-04-05T12:00:30Z</time>
      </trkpt>
      <trkpt lat="60.30119" lon="7.64986">
        <ele>1242.64</ele>
        <time>2019-04-05T12:00:33Z</time>
      </trkpt>
      <trkpt lat="60.30133" lon="7.64988">
        <ele>1244.56</ele>
        <time>2019-04-05T12:00:36Z</time>
      </trkpt>
      <trkpt lat="60.3018" lon="7.64992">
        <ele>1246.49</ele>
        <time>2019-04-05T12:00:44Z</time>
      </trkpt>
      <trkpt lat="60.30186" lon="7.64992">
        <ele>1246.49</ele>
        <time>2019-04-05T12:00:45Z</time>
      </trkpt>
      <trkpt lat="60.30197" lon="7.64993">
        <ele>1248.41</ele>
        <time>2019-04-05T12:00:47Z</time>
      </trkpt>
      <trkpt lat="60.30208" lon="7.64992">
        <ele>1248.41</ele>
        <time>2019-04-05T12:00:49Z</time>
      </trkpt>
      <trkpt lat="60.30226" lon="7.6499">
        <ele>1249.37</ele>
        <time>2019-04-05T12:00:52Z</time>
      </trkpt>
      <trkpt lat="60.30256" lon="7.64989">
        <ele>1251.77</ele>
        <time>2019-04-05T12:00:57Z</time>
      </trkpt>
      <trkpt lat="60.30292" lon="7.64998">
        <ele>1255.14</ele>
        <time>2019-04-05T12:01:04Z</time>
      </trkpt>
      <trkpt lat="60.30315" lon="7.65004">
        <ele>1255.62</ele>
        <time>2019-04-05T12:01:09Z</time>
      </trkpt>
      <trkpt lat="60.30324" lon="7.65004">
        <ele>1255.14</ele>
        <time>2019-04-05T12:01:11Z</time>
      </trkpt>
      <trkpt lat="60.3034" lon="7.65006">
        <ele>1256.58</ele>
        <time>2019-04-05T12:01:14Z</time>
      </trkpt>
      <trkpt lat="60.30359" lon="7.65012">
        <ele>1257.06</ele>
        <time>2019-04-05T12:01:18Z</time>
      </trkpt>
      <trkpt lat="60.30369" lon="7.65012">
        <ele>1258.02</ele>
        <time>2019-04-05T12:01:20Z</time>
      </trkpt>
      <trkpt lat="60.30432" lon="7.65019">
        <ele>1259.94</ele>
        <time>2019-04-05T12:01:31Z</time>
      </trkpt>
      <trkpt lat="60.30453" lon="7.65019">
        <ele>1260.91</ele>
        <time>2019-04-05T12:01:35Z</time>
      </trkpt>
      <trkpt lat="60.30475" lon="7.65017">
        <ele>1261.87</ele>
        <time>2019-04-05T12:01:39Z</time>
      </trkpt>
      <trkpt lat="60.30487" lon="7.65017">
        <ele>1263.79</ele>
        <time>2019-04-05T12:01:41Z</time>
      </trkpt>
      <trkpt lat="60.30498" lon="7.65016">
        <ele>1263.79</ele>
        <time>2019-04-05T12:01:43Z</time>
      </trkpt>
      <trkpt lat="60.30546" lon="7.65016">
        <ele>1265.71</ele>
        <time>2019-04-05T12:01:51Z</time>
      </trkpt>
      <trkpt lat="60.30557" lon="7.65014">
        <ele>1265.71</ele>
        <time>2019-04-05T12:01:53Z</time>
      </trkpt>
      <trkpt lat="60.30611" lon="7.65011">
        <ele>1269.56</ele>
        <time>2019-04-05T12:02:02Z</time>
      </trkpt>
      <trkpt lat="60.30666" lon="7.65019">
        <ele>1270.04</ele>
        <time>2019-04-05T12:02:12Z</time>
      </trkpt>
      <trkpt lat="60.30688" lon="7.65018">
        <ele>1271</ele>
        <time>2019-04-05T12:02:16Z</time>
      </trkpt>
      <trkpt lat="60.30699" lon="7.65021">
        <ele>1271</ele>
        <time>2019-04-05T12:02:18Z</time>
      </trkpt>
      <trkpt lat="60.30729" lon="7.65018">
        <ele>1272.44</ele>
        <time>2019-04-05T12:02:24Z</time>
      </trkpt>
      <trkpt lat="60.30742" lon="7.65019">
        <ele>1274.85</ele>
        <time>2019-04-05T12:02:27Z</time>
      </trkpt>
      <trkpt lat="60.30746" lon="7.65019">
        <ele>1274.85</ele>
        <time>2019-04-05T12:02:28Z</time>
      </trkpt>
      <trkpt lat="60.30783" lon="7.65014">
        <ele>1277.73</ele>
        <time>2019-04-05T12:02:35Z</time>
      </trkpt>
      <trkpt lat="60.30798" lon="7.65015">
        <ele>1279.65</ele>
        <time>2019-04-05T12:02:38Z</time>
      </trkpt>
      <trkpt lat="60.30827" lon="7.65014">
        <ele>1279.17</ele>
        <time>2019-04-05T12:02:43Z</time>
      </trkpt>
      <trkpt lat="60.30844" lon="7.65013">
        <ele>1281.09</ele>
        <time>2019-04-05T12:02:46Z</time>
      </trkpt>
      <trkpt lat="60.30876" lon="7.65007">
        <ele>1283.02</ele>
        <time>2019-04-05T12:02:52Z</time>
      </trkpt>
      <trkpt lat="60.30919" lon="7.65">
        <ele>1286.38</ele>
        <time>2019-04-05T12:03:01Z</time>
      </trkpt>
      <trkpt lat="60.30965" lon="7.65003">
        <ele>1288.78</ele>
        <time>2019-04-05T12:03:14Z</time>
      </trkpt>
      <trkpt lat="60.30992" lon="7.64997">
        <ele>1289.75</ele>
        <time>2019-04-05T12:03:25Z</time>
      </trkpt>
      <trkpt lat="60.30995" lon="7.64997">
        <ele>1288.78</ele>
        <time>2019-04-05T12:03:27Z</time>
      </trkpt>
      <trkpt lat="60.30999" lon="7.64996">
        <ele>1288.78</ele>
        <time>2019-04-05T12:03:33Z</time>
      </trkpt>
      <trkpt lat="60.30985" lon="7.65008">
        <ele>1286.38</ele>
        <time>2019-04-05T12:03:39Z</time>
      </trkpt>
      <trkpt lat="60.30978" lon="7.65018">
        <ele>1286.38</ele>
        <time>2019-04-05T12:03:41Z</time>
      </trkpt>
      <trkpt lat="60.3097" lon="7.65027">
        <ele>1286.38</ele>
        <time>2019-04-05T12:03:43Z</time>
      </trkpt>
      <trkpt lat="60.30951" lon="7.65047">
        <ele>1287.82</ele>
        <time>2019-04-05T12:03:47Z</time>
      </trkpt>
      <trkpt lat="60.30935" lon="7.65068">
        <ele>1285.9</ele>
        <time>2019-04-05T12:03:50Z</time>
      </trkpt>
      <trkpt lat="60.30926" lon="7.65079">
        <ele>1288.78</ele>
        <time>2019-04-05T12:03:52Z</time>
      </trkpt>
      <trkpt lat="60.30918" lon="7.6509">
        <ele>1286.86</ele>
        <time>2019-04-05T12:03:54Z</time>
      </trkpt>
      <trkpt lat="60.30867" lon="7.65158">
        <ele>1287.82</ele>
        <time>2019-04-05T12:04:04Z</time>
      </trkpt>
      <trkpt lat="60.30857" lon="7.65175">
        <ele>1287.82</ele>
        <time>2019-04-05T12:04:06Z</time>
      </trkpt>
      <trkpt lat="60.30828" lon="7.65215">
        <ele>1287.82</ele>
        <time>2019-04-05T12:04:12Z</time>
      </trkpt>
      <trkpt lat="60.30814" lon="7.65233">
        <ele>1287.82</ele>
        <time>2019-04-05T12:04:15Z</time>
      </trkpt>
      <trkpt lat="60.30788" lon="7.6527">
        <ele>1288.78</ele>
        <time>2019-04-05T12:04:21Z</time>
      </trkpt>
      <trkpt lat="60.30771" lon="7.65294">
        <ele>1289.75</ele>
        <time>2019-04-05T12:04:25Z</time>
      </trkpt>
      <trkpt lat="60.30756" lon="7.65317">
        <ele>1290.23</ele>
        <time>2019-04-05T12:04:29Z</time>
      </trkpt>
      <trkpt lat="60.3074" lon="7.65337">
        <ele>1288.78</ele>
        <time>2019-04-05T12:04:33Z</time>
      </trkpt>
      <trkpt lat="60.30699" lon="7.65394">
        <ele>1289.75</ele>
        <time>2019-04-05T12:04:42Z</time>
      </trkpt>
      <trkpt lat="60.30645" lon="7.65479">
        <ele>1290.23</ele>
        <time>2019-04-05T12:04:55Z</time>
      </trkpt>
      <trkpt lat="60.30633" lon="7.65495">
        <ele>1289.75</ele>
        <time>2019-04-05T12:04:58Z</time>
      </trkpt>
      <trkpt lat="60.30622" lon="7.65512">
        <ele>1289.75</ele>
        <time>2019-04-05T12:05:01Z</time>
      </trkpt>
      <trkpt lat="60.30595" lon="7.65548">
        <ele>1293.11</ele>
        <time>2019-04-05T12:05:07Z</time>
      </trkpt>
      <trkpt lat="60.30591" lon="7.65555">
        <ele>1293.11</ele>
        <time>2019-04-05T12:05:08Z</time>
      </trkpt>
      <trkpt lat="60.30579" lon="7.65576">
        <ele>1293.59</ele>
        <time>2019-04-05T12:05:11Z</time>
      </trkpt>
      <trkpt lat="60.30521" lon="7.65657">
        <ele>1293.11</ele>
        <time>2019-04-05T12:05:23Z</time>
      </trkpt>
      <trkpt lat="60.30505" lon="7.65681">
        <ele>1293.59</ele>
        <time>2019-04-05T12:05:26Z</time>
      </trkpt>
      <trkpt lat="60.305" lon="7.65689">
        <ele>1293.59</ele>
        <time>2019-04-05T12:05:27Z</time>
      </trkpt>
      <trkpt lat="60.30477" lon="7.65721">
        <ele>1292.15</ele>
        <time>2019-04-05T12:05:31Z</time>
      </trkpt>
      <trkpt lat="60.30466" lon="7.65735">
        <ele>1291.67</ele>
        <time>2019-04-05T12:05:33Z</time>
      </trkpt>
      <trkpt lat="60.30437" lon="7.65771">
        <ele>1291.67</ele>
        <time>2019-04-05T12:05:38Z</time>
      </trkpt>
      <trkpt lat="60.30416" lon="7.65803">
        <ele>1292.63</ele>
        <time>2019-04-05T12:05:42Z</time>
      </trkpt>
      <trkpt lat="60.3041" lon="7.65814">
        <ele>1289.75</ele>
        <time>2019-04-05T12:05:44Z</time>
      </trkpt>
      <trkpt lat="60.30408" lon="7.65813">
        <ele>1288.3</ele>
        <time>2019-04-05T12:05:45Z</time>
      </trkpt>
      <trkpt lat="60.30408" lon="7.65803">
        <ele>1287.34</ele>
        <time>2019-04-05T12:05:47Z</time>
      </trkpt>
      <trkpt lat="60.30411" lon="7.65797">
        <ele>1288.78</ele>
        <time>2019-04-05T12:05:48Z</time>
      </trkpt>
      <trkpt lat="60.30415" lon="7.65791">
        <ele>1288.78</ele>
        <time>2019-04-05T12:05:49Z</time>
      </trkpt>
      <trkpt lat="60.30419" lon="7.65789">
        <ele>1288.78</ele>
        <time>2019-04-05T12:05:50Z</time>
      </trkpt>
      <trkpt lat="60.30424" lon="7.65787">
        <ele>1288.78</ele>
        <time>2019-04-05T12:05:51Z</time>
      </trkpt>
      <trkpt lat="60.30429" lon="7.65786">
        <ele>1289.27</ele>
        <time>2019-04-05T12:05:52Z</time>
      </trkpt>
      <trkpt lat="60.30435" lon="7.65785">
        <ele>1290.23</ele>
        <time>2019-04-05T12:05:53Z</time>
      </trkpt>
      <trkpt lat="60.3044" lon="7.65784">
        <ele>1290.23</ele>
        <time>2019-04-05T12:05:54Z</time>
      </trkpt>
      <trkpt lat="60.30445" lon="7.65783">
        <ele>1290.71</ele>
        <time>2019-04-05T12:05:55Z</time>
      </trkpt>
      <trkpt lat="60.30462" lon="7.65779">
        <ele>1291.67</ele>
        <time>2019-04-05T12:05:58Z</time>
      </trkpt>
      <trkpt lat="60.3048" lon="7.65772">
        <ele>1291.67</ele>
        <time>2019-04-05T12:06:01Z</time>
      </trkpt>
      <trkpt lat="60.30523" lon="7.65743">
        <ele>1295.99</ele>
        <time>2019-04-05T12:06:08Z</time>
      </trkpt>
      <trkpt lat="60.3056" lon="7.65724">
        <ele>1298.4</ele>
        <time>2019-04-05T12:06:14Z</time>
      </trkpt>
      <trkpt lat="60.30579" lon="7.65717">
        <ele>1299.36</ele>
        <time>2019-04-05T12:06:17Z</time>
      </trkpt>
      <trkpt lat="60.30624" lon="7.65697">
        <ele>1301.28</ele>
        <time>2019-04-05T12:06:24Z</time>
      </trkpt>
      <trkpt lat="60.30692" lon="7.65657">
        <ele>1304.65</ele>
        <time>2019-04-05T12:06:34Z</time>
      </trkpt>
      <trkpt lat="60.307" lon="7.65652">
        <ele>1304.65</ele>
        <time>2019-04-05T12:06:35Z</time>
      </trkpt>
      <trkpt lat="60.30707" lon="7.65647">
        <ele>1305.61</ele>
        <time>2019-04-05T12:06:36Z</time>
      </trkpt>
      <trkpt lat="60.30786" lon="7.65555">
        <ele>1306.09</ele>
        <time>2019-04-05T12:06:47Z</time>
      </trkpt>
      <trkpt lat="60.30816" lon="7.65526">
        <ele>1307.53</ele>
        <time>2019-04-05T12:06:51Z</time>
      </trkpt>
      <trkpt lat="60.3085" lon="7.65502">
        <ele>1306.57</ele>
        <time>2019-04-05T12:06:56Z</time>
      </trkpt>
      <trkpt lat="60.30883" lon="7.65479">
        <ele>1306.09</ele>
        <time>2019-04-05T12:07:01Z</time>
      </trkpt>
      <trkpt lat="60.30945" lon="7.65415">
        <ele>1304.17</ele>
        <time>2019-04-05T12:07:12Z</time>
      </trkpt>
      <trkpt lat="60.30948" lon="7.65411">
        <ele>1303.69</ele>
        <time>2019-04-05T12:07:13Z</time>
      </trkpt>
      <trkpt lat="60.30952" lon="7.65406">
        <ele>1302.72</ele>
        <time>2019-04-05T12:07:14Z</time>
      </trkpt>
      <trkpt lat="60.30966" lon="7.65376">
        <ele>1301.76</ele>
        <time>2019-04-05T12:07:18Z</time>
      </trkpt>
      <trkpt lat="60.3097" lon="7.6537">
        <ele>1301.76</ele>
        <time>2019-04-05T12:07:19Z</time>
      </trkpt>
      <trkpt lat="60.30975" lon="7.65366">
        <ele>1301.76</ele>
        <time>2019-04-05T12:07:20Z</time>
      </trkpt>
      <trkpt lat="60.30979" lon="7.65363">
        <ele>1301.76</ele>
        <time>2019-04-05T12:07:21Z</time>
      </trkpt>
      <trkpt lat="60.30984" lon="7.65362">
        <ele>1301.76</ele>
        <time>2019-04-05T12:07:22Z</time>
      </trkpt>
      <trkpt lat="60.30989" lon="7.65362">
        <ele>1303.69</ele>
        <time>2019-04-05T12:07:23Z</time>
      </trkpt>
      <trkpt lat="60.30994" lon="7.65362">
        <ele>1303.69</ele>
        <time>2019-04-05T12:07:24Z</time>
      </trkpt>
      <trkpt lat="60.31036" lon="7.65356">
        <ele>1303.69</ele>
        <time>2019-04-05T12:07:32Z</time>
      </trkpt>
      <trkpt lat="60.31042" lon="7.65353">
        <ele>1303.69</ele>
        <time>2019-04-05T12:07:33Z</time>
      </trkpt>
      <trkpt lat="60.31047" lon="7.65351">
        <ele>1303.69</ele>
        <time>2019-04-05T12:07:34Z</time>
      </trkpt>
      <trkpt lat="60.31136" lon="7.6533">
        <ele>1301.76</ele>
        <time>2019-04-05T12:07:48Z</time>
      </trkpt>
      <trkpt lat="60.31167" lon="7.65331">
        <ele>1298.88</ele>
        <time>2019-04-05T12:07:52Z</time>
      </trkpt>
      <trkpt lat="60.31246" lon="7.65323">
        <ele>1298.88</ele>
        <time>2019-04-05T12:08:04Z</time>
      </trkpt>
      <trkpt lat="60.31253" lon="7.65323">
        <ele>1298.88</ele>
        <time>2019-04-05T12:08:05Z</time>
      </trkpt>
      <trkpt lat="60.31272" lon="7.65321">
        <ele>1300.32</ele>
        <time>2019-04-05T12:08:08Z</time>
      </trkpt>
      <trkpt lat="60.31304" lon="7.65316">
        <ele>1300.32</ele>
        <time>2019-04-05T12:08:13Z</time>
      </trkpt>
      <trkpt lat="60.3131" lon="7.65317">
        <ele>1300.8</ele>
        <time>2019-04-05T12:08:14Z</time>
      </trkpt>
      <trkpt lat="60.31338" lon="7.65319">
        <ele>1301.76</ele>
        <time>2019-04-05T12:08:19Z</time>
      </trkpt>
      <trkpt lat="60.31346" lon="7.65321">
        <ele>1301.76</ele>
        <time>2019-04-05T12:08:21Z</time>
      </trkpt>
      <trkpt lat="60.31358" lon="7.65322">
        <ele>1302.24</ele>
        <time>2019-04-05T12:08:24Z</time>
      </trkpt>
      <trkpt lat="60.31367" lon="7.65321">
        <ele>1303.2</ele>
        <time>2019-04-05T12:08:26Z</time>
      </trkpt>
      <trkpt lat="60.31371" lon="7.6532">
        <ele>1303.69</ele>
        <time>2019-04-05T12:08:27Z</time>
      </trkpt>
      <trkpt lat="60.31376" lon="7.65319">
        <ele>1304.65</ele>
        <time>2019-04-05T12:08:28Z</time>
      </trkpt>
      <trkpt lat="60.31381" lon="7.65319">
        <ele>1304.65</ele>
        <time>2019-04-05T12:08:29Z</time>
      </trkpt>
      <trkpt lat="60.31386" lon="7.65319">
        <ele>1305.61</ele>
        <time>2019-04-05T12:08:30Z</time>
      </trkpt>
      <trkpt lat="60.31408" lon="7.65319">
        <ele>1307.53</ele>
        <time>2019-04-05T12:08:34Z</time>
      </trkpt>
      <trkpt lat="60.31411" lon="7.65321">
        <ele>1308.49</ele>
        <time>2019-04-05T12:08:35Z</time>
      </trkpt>
      <trkpt lat="60.31415" lon="7.65324">
        <ele>1308.49</ele>
        <time>2019-04-05T12:08:36Z</time>
      </trkpt>
      <trkpt lat="60.31418" lon="7.65324">
        <ele>1308.49</ele>
        <time>2019-04-05T12:08:40Z</time>
      </trkpt>
      <trkpt lat="60.3142" lon="7.65324">
        <ele>1308.49</ele>
        <time>2019-04-05T12:08:43Z</time>
      </trkpt>
      <trkpt lat="60.31425" lon="7.65316">
        <ele>1308.49</ele>
        <time>2019-04-05T12:08:46Z</time>
      </trkpt>
      <trkpt lat="60.31428" lon="7.65312">
        <ele>1308.49</ele>
        <time>2019-04-05T12:08:47Z</time>
      </trkpt>
      <trkpt lat="60.31431" lon="7.6531">
        <ele>1309.45</ele>
        <time>2019-04-05T12:08:48Z</time>
      </trkpt>
      <trkpt lat="60.31434" lon="7.65309">
        <ele>1310.41</ele>
        <time>2019-04-05T12:08:49Z</time>
      </trkpt>
      <trkpt lat="60.31438" lon="7.65307">
        <ele>1311.38</ele>
        <time>2019-04-05T12:08:50Z</time>
      </trkpt>
      <trkpt lat="60.31455" lon="7.65304">
        <ele>1315.22</ele>
        <time>2019-04-05T12:08:55Z</time>
      </trkpt>
      <trkpt lat="60.31458" lon="7.65304">
        <ele>1315.7</ele>
        <time>2019-04-05T12:08:56Z</time>
      </trkpt>
      <trkpt lat="60.31461" lon="7.65304">
        <ele>1315.7</ele>
        <time>2019-04-05T12:08:57Z</time>
      </trkpt>
      <trkpt lat="60.31464" lon="7.65304">
        <ele>1317.14</ele>
        <time>2019-04-05T12:08:58Z</time>
      </trkpt>
      <trkpt lat="60.31466" lon="7.65303">
        <ele>1317.14</ele>
        <time>2019-04-05T12:08:59Z</time>
      </trkpt>
      <trkpt lat="60.31468" lon="7.65303">
        <ele>1317.62</ele>
        <time>2019-04-05T12:09:00Z</time>
      </trkpt>
      <trkpt lat="60.31471" lon="7.65301">
        <ele>1317.62</ele>
        <time>2019-04-05T12:09:01Z</time>
      </trkpt>
      <trkpt lat="60.31473" lon="7.653">
        <ele>1318.59</ele>
        <time>2019-04-05T12:09:02Z</time>
      </trkpt>
      <trkpt lat="60.31487" lon="7.65293">
        <ele>1321.95</ele>
        <time>2019-04-05T12:09:06Z</time>
      </trkpt>
      <trkpt lat="60.31497" lon="7.65292">
        <ele>1323.87</ele>
        <time>2019-04-05T12:09:09Z</time>
      </trkpt>
      <trkpt lat="60.3151" lon="7.65289">
        <ele>1325.8</ele>
        <time>2019-04-05T12:09:12Z</time>
      </trkpt>
      <trkpt lat="60.31514" lon="7.65287">
        <ele>1325.8</ele>
        <time>2019-04-05T12:09:13Z</time>
      </trkpt>
      <trkpt lat="60.31543" lon="7.65273">
        <ele>1329.16</ele>
        <time>2019-04-05T12:09:20Z</time>
      </trkpt>
      <trkpt lat="60.31585" lon="7.65261">
        <ele>1329.64</ele>
        <time>2019-04-05T12:09:30Z</time>
      </trkpt>
      <trkpt lat="60.3159" lon="7.65258">
        <ele>1329.64</ele>
        <time>2019-04-05T12:09:31Z</time>
      </trkpt>
      <trkpt lat="60.31613" lon="7.65246">
        <ele>1328.2</ele>
        <time>2019-04-05T12:09:35Z</time>
      </trkpt>
      <trkpt lat="60.31645" lon="7.6524">
        <ele>1325.8</ele>
        <time>2019-04-05T12:09:41Z</time>
      </trkpt>
      <trkpt lat="60.31723" lon="7.65224">
        <ele>1323.39</ele>
        <time>2019-04-05T12:09:53Z</time>
      </trkpt>
      <trkpt lat="60.3176" lon="7.65219">
        <ele>1321.95</ele>
        <time>2019-04-05T12:09:58Z</time>
      </trkpt>
      <trkpt lat="60.31785" lon="7.65212">
        <ele>1320.99</ele>
        <time>2019-04-05T12:10:01Z</time>
      </trkpt>
      <trkpt lat="60.31838" lon="7.65206">
        <ele>1319.07</ele>
        <time>2019-04-05T12:10:07Z</time>
      </trkpt>
      <trkpt lat="60.31889" lon="7.65184">
        <ele>1318.59</ele>
        <time>2019-04-05T12:10:13Z</time>
      </trkpt>
      <trkpt lat="60.31907" lon="7.6517">
        <ele>1317.14</ele>
        <time>2019-04-05T12:10:15Z</time>
      </trkpt>
      <trkpt lat="60.31951" lon="7.65129">
        <ele>1318.59</ele>
        <time>2019-04-05T12:10:21Z</time>
      </trkpt>
      <trkpt lat="60.31956" lon="7.65127">
        <ele>1318.59</ele>
        <time>2019-04-05T12:10:22Z</time>
      </trkpt>
      <trkpt lat="60.3196" lon="7.65125">
        <ele>1318.59</ele>
        <time>2019-04-05T12:10:23Z</time>
      </trkpt>
      <trkpt lat="60.31963" lon="7.65121">
        <ele>1318.59</ele>
        <time>2019-04-05T12:10:24Z</time>
      </trkpt>
      <trkpt lat="60.31972" lon="7.65107">
        <ele>1318.59</ele>
        <time>2019-04-05T12:10:28Z</time>
      </trkpt>
      <trkpt lat="60.31992" lon="7.65087">
        <ele>1318.59</ele>
        <time>2019-04-05T12:10:32Z</time>
      </trkpt>
      <trkpt lat="60.32098" lon="7.65029">
        <ele>1318.59</ele>
        <time>2019-04-05T12:10:47Z</time>
      </trkpt>
      <trkpt lat="60.32112" lon="7.65027">
        <ele>1318.59</ele>
        <time>2019-04-05T12:10:49Z</time>
      </trkpt>
      <trkpt lat="60.32118" lon="7.65026">
        <ele>1318.59</ele>
        <time>2019-04-05T12:10:50Z</time>
      </trkpt>
      <trkpt lat="60.32136" lon="7.6502">
        <ele>1319.07</ele>
        <time>2019-04-05T12:10:53Z</time>
      </trkpt>
      <trkpt lat="60.32142" lon="7.65017">
        <ele>1319.07</ele>
        <time>2019-04-05T12:10:54Z</time>
      </trkpt>
      <trkpt lat="60.32148" lon="7.65014">
        <ele>1319.07</ele>
        <time>2019-04-05T12:10:55Z</time>
      </trkpt>
      <trkpt lat="60.32154" lon="7.65012">
        <ele>1319.55</ele>
        <time>2019-04-05T12:10:56Z</time>
      </trkpt>
      <trkpt lat="60.3216" lon="7.65011">
        <ele>1319.55</ele>
        <time>2019-04-05T12:10:57Z</time>
      </trkpt>
      <trkpt lat="60.32166" lon="7.65008">
        <ele>1319.55</ele>
        <time>2019-04-05T12:10:58Z</time>
      </trkpt>
      <trkpt lat="60.32173" lon="7.65005">
        <ele>1319.55</ele>
        <time>2019-04-05T12:10:59Z</time>
      </trkpt>
      <trkpt lat="60.32186" lon="7.65002">
        <ele>1320.51</ele>
        <time>2019-04-05T12:11:01Z</time>
      </trkpt>
      <trkpt lat="60.32218" lon="7.65001">
        <ele>1320.99</ele>
        <time>2019-04-05T12:11:06Z</time>
      </trkpt>
      <trkpt lat="60.32224" lon="7.65002">
        <ele>1320.99</ele>
        <time>2019-04-05T12:11:07Z</time>
      </trkpt>
      <trkpt lat="60.32235" lon="7.65003">
        <ele>1320.99</ele>
        <time>2019-04-05T12:11:09Z</time>
      </trkpt>
      <trkpt lat="60.32246" lon="7.65001">
        <ele>1322.43</ele>
        <time>2019-04-05T12:11:11Z</time>
      </trkpt>
      <trkpt lat="60.32251" lon="7.65">
        <ele>1322.91</ele>
        <time>2019-04-05T12:11:12Z</time>
      </trkpt>
      <trkpt lat="60.3227" lon="7.64997">
        <ele>1325.31</ele>
        <time>2019-04-05T12:11:16Z</time>
      </trkpt>
      <trkpt lat="60.3228" lon="7.64995">
        <ele>1326.28</ele>
        <time>2019-04-05T12:11:18Z</time>
      </trkpt>
      <trkpt lat="60.32284" lon="7.64994">
        <ele>1326.76</ele>
        <time>2019-04-05T12:11:19Z</time>
      </trkpt>
      <trkpt lat="60.32289" lon="7.64994">
        <ele>1327.72</ele>
        <time>2019-04-05T12:11:20Z</time>
      </trkpt>
      <trkpt lat="60.32293" lon="7.64994">
        <ele>1327.72</ele>
        <time>2019-04-05T12:11:21Z</time>
      </trkpt>
      <trkpt lat="60.32298" lon="7.64994">
        <ele>1328.2</ele>
        <time>2019-04-05T12:11:22Z</time>
      </trkpt>
      <trkpt lat="60.32303" lon="7.64995">
        <ele>1329.16</ele>
        <time>2019-04-05T12:11:23Z</time>
      </trkpt>
      <trkpt lat="60.32308" lon="7.64995">
        <ele>1330.12</ele>
        <time>2019-04-05T12:11:24Z</time>
      </trkpt>
      <trkpt lat="60.32313" lon="7.64996">
        <ele>1330.12</ele>
        <time>2019-04-05T12:11:25Z</time>
      </trkpt>
      <trkpt lat="60.32318" lon="7.64997">
        <ele>1330.12</ele>
        <time>2019-04-05T12:11:26Z</time>
      </trkpt>
      <trkpt lat="60.32323" lon="7.64998">
        <ele>1329.64</ele>
        <time>2019-04-05T12:11:27Z</time>
      </trkpt>
      <trkpt lat="60.32328" lon="7.64997">
        <ele>1330.12</ele>
        <time>2019-04-05T12:11:28Z</time>
      </trkpt>
      <trkpt lat="60.32333" lon="7.64996">
        <ele>1330.6</ele>
        <time>2019-04-05T12:11:29Z</time>
      </trkpt>
      <trkpt lat="60.32342" lon="7.64993">
        <ele>1331.56</ele>
        <time>2019-04-05T12:11:31Z</time>
      </trkpt>
      <trkpt lat="60.32352" lon="7.64992">
        <ele>1332.04</ele>
        <time>2019-04-05T12:11:33Z</time>
      </trkpt>
      <trkpt lat="60.32357" lon="7.64992">
        <ele>1333.01</ele>
        <time>2019-04-05T12:11:34Z</time>
      </trkpt>
      <trkpt lat="60.32361" lon="7.64994">
        <ele>1333.49</ele>
        <time>2019-04-05T12:11:35Z</time>
      </trkpt>
      <trkpt lat="60.32366" lon="7.64994">
        <ele>1333.49</ele>
        <time>2019-04-05T12:11:36Z</time>
      </trkpt>
      <trkpt lat="60.3237" lon="7.64994">
        <ele>1334.45</ele>
        <time>2019-04-05T12:11:37Z</time>
      </trkpt>
      <trkpt lat="60.32375" lon="7.64995">
        <ele>1334.45</ele>
        <time>2019-04-05T12:11:38Z</time>
      </trkpt>
      <trkpt lat="60.32387" lon="7.65">
        <ele>1335.89</ele>
        <time>2019-04-05T12:11:41Z</time>
      </trkpt>
      <trkpt lat="60.32406" lon="7.65004">
        <ele>1336.85</ele>
        <time>2019-04-05T12:11:50Z</time>
      </trkpt>
      <trkpt lat="60.32409" lon="7.65004">
        <ele>1337.33</ele>
        <time>2019-04-05T12:11:53Z</time>
      </trkpt>
      <trkpt lat="60.3241" lon="7.65005">
        <ele>1337.33</ele>
        <time>2019-04-05T12:11:54Z</time>
      </trkpt>
      <trkpt lat="60.32412" lon="7.65005">
        <ele>1337.33</ele>
        <time>2019-04-05T12:11:55Z</time>
      </trkpt>
      <trkpt lat="60.32414" lon="7.65006">
        <ele>1337.33</ele>
        <time>2019-04-05T12:11:56Z</time>
      </trkpt>
      <trkpt lat="60.32416" lon="7.65007">
        <ele>1337.33</ele>
        <time>2019-04-05T12:11:57Z</time>
      </trkpt>
      <trkpt lat="60.32418" lon="7.65009">
        <ele>1337.33</ele>
        <time>2019-04-05T12:11:58Z</time>
      </trkpt>
      <trkpt lat="60.32421" lon="7.65011">
        <ele>1337.81</ele>
        <time>2019-04-05T12:12:10Z</time>
      </trkpt>
      <trkpt lat="60.32421" lon="7.65009">
        <ele>1337.81</ele>
        <time>2019-04-05T12:12:33Z</time>
      </trkpt>
      <trkpt lat="60.32421" lon="7.6501">
        <ele>1337.33</ele>
        <time>2019-04-05T12:13:08Z</time>
      </trkpt>
      <trkpt lat="60.32424" lon="7.65006">
        <ele>1337.33</ele>
        <time>2019-04-05T12:13:13Z</time>
      </trkpt>
      <trkpt lat="60.32426" lon="7.65003">
        <ele>1337.33</ele>
        <time>2019-04-05T12:13:14Z</time>
      </trkpt>
      <trkpt lat="60.32428" lon="7.64998">
        <ele>1337.33</ele>
        <time>2019-04-05T12:13:15Z</time>
      </trkpt>
      <trkpt lat="60.32432" lon="7.64993">
        <ele>1337.33</ele>
        <time>2019-04-05T12:13:16Z</time>
      </trkpt>
      <trkpt lat="60.32435" lon="7.6499">
        <ele>1338.29</ele>
        <time>2019-04-05T12:13:17Z</time>
      </trkpt>
      <trkpt lat="60.32438" lon="7.64988">
        <ele>1338.29</ele>
        <time>2019-04-05T12:13:18Z</time>
      </trkpt>
      <trkpt lat="60.32441" lon="7.64988">
        <ele>1339.25</ele>
        <time>2019-04-05T12:13:19Z</time>
      </trkpt>
      <trkpt lat="60.32445" lon="7.64989">
        <ele>1339.73</ele>
        <time>2019-04-05T12:13:20Z</time>
      </trkpt>
      <trkpt lat="60.32448" lon="7.6499">
        <ele>1340.22</ele>
        <time>2019-04-05T12:13:21Z</time>
      </trkpt>
      <trkpt lat="60.32481" lon="7.65001">
        <ele>1340.7</ele>
        <time>2019-04-05T12:13:30Z</time>
      </trkpt>
      <trkpt lat="60.32492" lon="7.65004">
        <ele>1341.18</ele>
        <time>2019-04-05T12:13:32Z</time>
      </trkpt>
      <trkpt lat="60.32497" lon="7.65006">
        <ele>1341.18</ele>
        <time>2019-04-05T12:13:33Z</time>
      </trkpt>
      <trkpt lat="60.32518" lon="7.64993">
        <ele>1342.14</ele>
        <time>2019-04-05T12:13:41Z</time>
      </trkpt>
      <trkpt lat="60.32518" lon="7.64993">
        <ele>1342.14</ele>
        <time>2019-04-05T12:13:58Z</time>
      </trkpt>
      <trkpt lat="60.32519" lon="7.64992">
        <ele>1342.62</ele>
        <time>2019-04-05T12:14:26Z</time>
      </trkpt>
      <trkpt lat="60.3252" lon="7.64984">
        <ele>1341.18</ele>
        <time>2019-04-05T12:14:28Z</time>
      </trkpt>
      <trkpt lat="60.32523" lon="7.64978">
        <ele>1341.18</ele>
        <time>2019-04-05T12:14:29Z</time>
      </trkpt>
      <trkpt lat="60.32526" lon="7.64976">
        <ele>1341.18</ele>
        <time>2019-04-05T12:14:30Z</time>
      </trkpt>
      <trkpt lat="60.32529" lon="7.64975">
        <ele>1342.62</ele>
        <time>2019-04-05T12:14:31Z</time>
      </trkpt>
      <trkpt lat="60.32532" lon="7.64975">
        <ele>1343.58</ele>
        <time>2019-04-05T12:14:32Z</time>
      </trkpt>
      <trkpt lat="60.32535" lon="7.64976">
        <ele>1343.58</ele>
        <time>2019-04-05T12:14:33Z</time>
      </trkpt>
      <trkpt lat="60.32555" lon="7.64957">
        <ele>1344.54</ele>
        <time>2019-04-05T12:14:44Z</time>
      </trkpt>
      <trkpt lat="60.32557" lon="7.64943">
        <ele>1344.54</ele>
        <time>2019-04-05T12:14:48Z</time>
      </trkpt>
      <trkpt lat="60.32554" lon="7.64936">
        <ele>1343.58</ele>
        <time>2019-04-05T12:15:01Z</time>
      </trkpt>
      <trkpt lat="60.32553" lon="7.64929">
        <ele>1344.54</ele>
        <time>2019-04-05T12:15:31Z</time>
      </trkpt>
      <trkpt lat="60.32554" lon="7.64929">
        <ele>1344.54</ele>
        <time>2019-04-05T12:15:51Z</time>
      </trkpt>
      <trkpt lat="60.32552" lon="7.64926">
        <ele>1343.58</ele>
        <time>2019-04-05T12:15:56Z</time>
      </trkpt>
      <trkpt lat="60.3255" lon="7.64926">
        <ele>1343.58</ele>
        <time>2019-04-05T12:15:57Z</time>
      </trkpt>
      <trkpt lat="60.32547" lon="7.64928">
        <ele>1343.58</ele>
        <time>2019-04-05T12:15:58Z</time>
      </trkpt>
      <trkpt lat="60.32543" lon="7.64932">
        <ele>1342.62</ele>
        <time>2019-04-05T12:15:59Z</time>
      </trkpt>
      <trkpt lat="60.3254" lon="7.64937">
        <ele>1342.14</ele>
        <time>2019-04-05T12:16:00Z</time>
      </trkpt>
      <trkpt lat="60.32537" lon="7.64943">
        <ele>1342.14</ele>
        <time>2019-04-05T12:16:01Z</time>
      </trkpt>
      <trkpt lat="60.32533" lon="7.6495">
        <ele>1342.14</ele>
        <time>2019-04-05T12:16:02Z</time>
      </trkpt>
      <trkpt lat="60.32526" lon="7.64966">
        <ele>1340.7</ele>
        <time>2019-04-05T12:16:05Z</time>
      </trkpt>
      <trkpt lat="60.32524" lon="7.64965">
        <ele>1340.7</ele>
        <time>2019-04-05T12:16:06Z</time>
      </trkpt>
      <trkpt lat="60.32524" lon="7.64961">
        <ele>1340.7</ele>
        <time>2019-04-05T12:16:07Z</time>
      </trkpt>
      <trkpt lat="60.32529" lon="7.64955">
        <ele>1341.66</ele>
        <time>2019-04-05T12:16:09Z</time>
      </trkpt>
      <trkpt lat="60.32533" lon="7.64954">
        <ele>1342.62</ele>
        <time>2019-04-05T12:16:10Z</time>
      </trkpt>
      <trkpt lat="60.32536" lon="7.64952">
        <ele>1342.62</ele>
        <time>2019-04-05T12:16:11Z</time>
      </trkpt>
      <trkpt lat="60.32564" lon="7.64938">
        <ele>1345.02</ele>
        <time>2019-04-05T12:16:21Z</time>
      </trkpt>
      <trkpt lat="60.32564" lon="7.64937">
        <ele>1344.54</ele>
        <time>2019-04-05T12:16:25Z</time>
      </trkpt>
      <trkpt lat="60.32566" lon="7.64935">
        <ele>1344.54</ele>
        <time>2019-04-05T12:16:26Z</time>
      </trkpt>
      <trkpt lat="60.32583" lon="7.64906">
        <ele>1345.98</ele>
        <time>2019-04-05T12:16:37Z</time>
      </trkpt>
      <trkpt lat="60.32579" lon="7.64892">
        <ele>1344.54</ele>
        <time>2019-04-05T12:16:40Z</time>
      </trkpt>
      <trkpt lat="60.32567" lon="7.64904">
        <ele>1344.54</ele>
        <time>2019-04-05T12:16:44Z</time>
      </trkpt>
      <trkpt lat="60.32557" lon="7.64919">
        <ele>1344.06</ele>
        <time>2019-04-05T12:16:58Z</time>
      </trkpt>
      <trkpt lat="60.32559" lon="7.64919">
        <ele>1343.58</ele>
        <time>2019-04-05T12:17:18Z</time>
      </trkpt>
      <trkpt lat="60.3256" lon="7.64917">
        <ele>1343.58</ele>
        <time>2019-04-05T12:17:42Z</time>
      </trkpt>
      <trkpt lat="60.32558" lon="7.64917">
        <ele>1343.58</ele>
        <time>2019-04-05T12:17:53Z</time>
      </trkpt>
      <trkpt lat="60.32555" lon="7.64918">
        <ele>1343.58</ele>
        <time>2019-04-05T12:17:55Z</time>
      </trkpt>
      <trkpt lat="60.32552" lon="7.64921">
        <ele>1343.58</ele>
        <time>2019-04-05T12:17:56Z</time>
      </trkpt>
      <trkpt lat="60.32538" lon="7.64942">
        <ele>1342.62</ele>
        <time>2019-04-05T12:18:01Z</time>
      </trkpt>
      <trkpt lat="60.32536" lon="7.64939">
        <ele>1342.62</ele>
        <time>2019-04-05T12:18:02Z</time>
      </trkpt>
      <trkpt lat="60.32536" lon="7.64934">
        <ele>1341.66</ele>
        <time>2019-04-05T12:18:03Z</time>
      </trkpt>
      <trkpt lat="60.32541" lon="7.6493">
        <ele>1343.58</ele>
        <time>2019-04-05T12:18:05Z</time>
      </trkpt>
      <trkpt lat="60.32544" lon="7.64929">
        <ele>1343.58</ele>
        <time>2019-04-05T12:18:06Z</time>
      </trkpt>
      <trkpt lat="60.32552" lon="7.64929">
        <ele>1343.58</ele>
        <time>2019-04-05T12:18:11Z</time>
      </trkpt>
      <trkpt lat="60.32553" lon="7.64928">
        <ele>1343.58</ele>
        <time>2019-04-05T12:18:12Z</time>
      </trkpt>
      <trkpt lat="60.32554" lon="7.64927">
        <ele>1343.58</ele>
        <time>2019-04-05T12:18:13Z</time>
      </trkpt>
      <trkpt lat="60.32555" lon="7.64929">
        <ele>1344.06</ele>
        <time>2019-04-05T12:18:30Z</time>
      </trkpt>
      <trkpt lat="60.32556" lon="7.64928">
        <ele>1344.06</ele>
        <time>2019-04-05T12:18:58Z</time>
      </trkpt>
      <trkpt lat="60.32556" lon="7.64927">
        <ele>1344.06</ele>
        <time>2019-04-05T12:19:24Z</time>
      </trkpt>
      <trkpt lat="60.32555" lon="7.64926">
        <ele>1344.06</ele>
        <time>2019-04-05T12:19:53Z</time>
      </trkpt>
      <trkpt lat="60.32555" lon="7.64925">
        <ele>1344.06</ele>
        <time>2019-04-05T12:20:25Z</time>
      </trkpt>
      <trkpt lat="60.32555" lon="7.64925">
        <ele>1344.06</ele>
        <time>2019-04-05T12:20:48Z</time>
      </trkpt>
      <trkpt lat="60.32554" lon="7.64923">
        <ele>1343.58</ele>
        <time>2019-04-05T12:21:12Z</time>
      </trkpt>
      <trkpt lat="60.32555" lon="7.64923">
        <ele>1343.58</ele>
        <time>2019-04-05T12:21:43Z</time>
      </trkpt>
      <trkpt lat="60.32555" lon="7.64921">
        <ele>1343.1</ele>
        <time>2019-04-05T12:22:11Z</time>
      </trkpt>
      <trkpt lat="60.32555" lon="7.64922">
        <ele>1343.1</ele>
        <time>2019-04-05T12:22:38Z</time>
      </trkpt>
      <trkpt lat="60.32556" lon="7.6492">
        <ele>1343.1</ele>
        <time>2019-04-05T12:22:40Z</time>
      </trkpt>
      <trkpt lat="60.32551" lon="7.64912">
        <ele>1341.18</ele>
        <time>2019-04-05T12:22:44Z</time>
      </trkpt>
      <trkpt lat="60.32548" lon="7.64915">
        <ele>1339.73</ele>
        <time>2019-04-05T12:22:45Z</time>
      </trkpt>
      <trkpt lat="60.32544" lon="7.6492">
        <ele>1339.73</ele>
        <time>2019-04-05T12:22:46Z</time>
      </trkpt>
      <trkpt lat="60.32541" lon="7.64926">
        <ele>1339.73</ele>
        <time>2019-04-05T12:22:47Z</time>
      </trkpt>
      <trkpt lat="60.32537" lon="7.64933">
        <ele>1339.25</ele>
        <time>2019-04-05T12:22:48Z</time>
      </trkpt>
      <trkpt lat="60.32534" lon="7.6494">
        <ele>1339.25</ele>
        <time>2019-04-05T12:22:49Z</time>
      </trkpt>
      <trkpt lat="60.32528" lon="7.64954">
        <ele>1338.77</ele>
        <time>2019-04-05T12:22:51Z</time>
      </trkpt>
      <trkpt lat="60.3252" lon="7.64974">
        <ele>1337.33</ele>
        <time>2019-04-05T12:22:54Z</time>
      </trkpt>
      <trkpt lat="60.32514" lon="7.64986">
        <ele>1338.77</ele>
        <time>2019-04-05T12:22:56Z</time>
      </trkpt>
      <trkpt lat="60.32508" lon="7.64999">
        <ele>1337.33</ele>
        <time>2019-04-05T12:22:58Z</time>
      </trkpt>
      <trkpt lat="60.32504" lon="7.65005">
        <ele>1340.7</ele>
        <time>2019-04-05T12:22:59Z</time>
      </trkpt>
      <trkpt lat="60.32496" lon="7.65029">
        <ele>1338.77</ele>
        <time>2019-04-05T12:23:03Z</time>
      </trkpt>
      <trkpt lat="60.32491" lon="7.65033">
        <ele>1337.33</ele>
        <time>2019-04-05T12:23:05Z</time>
      </trkpt>
      <trkpt lat="60.32499" lon="7.65024">
        <ele>1339.25</ele>
        <time>2019-04-05T12:23:10Z</time>
      </trkpt>
      <trkpt lat="60.32511" lon="7.65019">
        <ele>1340.22</ele>
        <time>2019-04-05T12:23:14Z</time>
      </trkpt>
      <trkpt lat="60.32525" lon="7.65002">
        <ele>1342.14</ele>
        <time>2019-04-05T12:23:26Z</time>
      </trkpt>
      <trkpt lat="60.32523" lon="7.64998">
        <ele>1341.66</ele>
        <time>2019-04-05T12:23:43Z</time>
      </trkpt>
      <trkpt lat="60.32522" lon="7.64995">
        <ele>1341.66</ele>
        <time>2019-04-05T12:23:45Z</time>
      </trkpt>
      <trkpt lat="60.3252" lon="7.64989">
        <ele>1341.66</ele>
        <time>2019-04-05T12:23:47Z</time>
      </trkpt>
      <trkpt lat="60.32518" lon="7.64969">
        <ele>1339.73</ele>
        <time>2019-04-05T12:23:50Z</time>
      </trkpt>
      <trkpt lat="60.32519" lon="7.64966">
        <ele>1339.73</ele>
        <time>2019-04-05T12:23:53Z</time>
      </trkpt>
      <trkpt lat="60.32521" lon="7.64962">
        <ele>1339.73</ele>
        <time>2019-04-05T12:23:55Z</time>
      </trkpt>
      <trkpt lat="60.32542" lon="7.64941">
        <ele>1342.62</ele>
        <time>2019-04-05T12:24:04Z</time>
      </trkpt>
      <trkpt lat="60.32545" lon="7.64935">
        <ele>1342.62</ele>
        <time>2019-04-05T12:24:08Z</time>
      </trkpt>
      <trkpt lat="60.32546" lon="7.64932">
        <ele>1342.62</ele>
        <time>2019-04-05T12:24:09Z</time>
      </trkpt>
      <trkpt lat="60.32548" lon="7.64928">
        <ele>1342.62</ele>
        <time>2019-04-05T12:24:10Z</time>
      </trkpt>
      <trkpt lat="60.3255" lon="7.64927">
        <ele>1342.62</ele>
        <time>2019-04-05T12:24:11Z</time>
      </trkpt>
      <trkpt lat="60.32551" lon="7.64926">
        <ele>1342.62</ele>
        <time>2019-04-05T12:24:12Z</time>
      </trkpt>
      <trkpt lat="60.32553" lon="7.64922">
        <ele>1343.58</ele>
        <time>2019-04-05T12:24:28Z</time>
      </trkpt>
      <trkpt lat="60.32554" lon="7.64923">
        <ele>1343.58</ele>
        <time>2019-04-05T12:24:57Z</time>
      </trkpt>
      <trkpt lat="60.32554" lon="7.64922">
        <ele>1343.58</ele>
        <time>2019-04-05T12:25:23Z</time>
      </trkpt>
      <trkpt lat="60.32554" lon="7.64921">
        <ele>1343.58</ele>
        <time>2019-04-05T12:25:50Z</time>
      </trkpt>
      <trkpt lat="60.32553" lon="7.64921">
        <ele>1343.58</ele>
        <time>2019-04-05T12:26:26Z</time>
      </trkpt>
      <trkpt lat="60.32554" lon="7.64923">
        <ele>1343.58</ele>
        <time>2019-04-05T12:26:54Z</time>
      </trkpt>
      <trkpt lat="60.32555" lon="7.64922">
        <ele>1343.58</ele>
        <time>2019-04-05T12:27:21Z</time>
      </trkpt>
      <trkpt lat="60.32555" lon="7.64926">
        <ele>1343.1</ele>
        <time>2019-04-05T12:27:44Z</time>
      </trkpt>
      <trkpt lat="60.32555" lon="7.64925">
        <ele>1342.14</ele>
        <time>2019-04-05T12:28:03Z</time>
      </trkpt>
      <trkpt lat="60.32554" lon="7.64927">
        <ele>1342.14</ele>
        <time>2019-04-05T12:28:24Z</time>
      </trkpt>
      <trkpt lat="60.32554" lon="7.64926">
        <ele>1342.14</ele>
        <time>2019-04-05T12:28:47Z</time>
      </trkpt>
      <trkpt lat="60.32555" lon="7.64924">
        <ele>1341.66</ele>
        <time>2019-04-05T12:29:20Z</time>
      </trkpt>
      <trkpt lat="60.32556" lon="7.64923">
        <ele>1341.66</ele>
        <time>2019-04-05T12:29:43Z</time>
      </trkpt>
      <trkpt lat="60.32553" lon="7.64923">
        <ele>1342.62</ele>
        <time>2019-04-05T12:30:17Z</time>
      </trkpt>
      <trkpt lat="60.32555" lon="7.6492">
        <ele>1342.62</ele>
        <time>2019-04-05T12:30:23Z</time>
      </trkpt>
      <trkpt lat="60.32555" lon="7.64918">
        <ele>1341.18</ele>
        <time>2019-04-05T12:30:24Z</time>
      </trkpt>
      <trkpt lat="60.32553" lon="7.64918">
        <ele>1341.18</ele>
        <time>2019-04-05T12:30:25Z</time>
      </trkpt>
      <trkpt lat="60.32549" lon="7.64921">
        <ele>1341.18</ele>
        <time>2019-04-05T12:30:26Z</time>
      </trkpt>
      <trkpt lat="60.32546" lon="7.64925">
        <ele>1341.18</ele>
        <time>2019-04-05T12:30:27Z</time>
      </trkpt>
      <trkpt lat="60.32542" lon="7.64931">
        <ele>1340.7</ele>
        <time>2019-04-05T12:30:28Z</time>
      </trkpt>
      <trkpt lat="60.32526" lon="7.64957">
        <ele>1339.73</ele>
        <time>2019-04-05T12:30:32Z</time>
      </trkpt>
      <trkpt lat="60.32523" lon="7.64964">
        <ele>1339.73</ele>
        <time>2019-04-05T12:30:33Z</time>
      </trkpt>
      <trkpt lat="60.32517" lon="7.64978">
        <ele>1339.25</ele>
        <time>2019-04-05T12:30:35Z</time>
      </trkpt>
      <trkpt lat="60.32509" lon="7.64998">
        <ele>1339.25</ele>
        <time>2019-04-05T12:30:38Z</time>
      </trkpt>
      <trkpt lat="60.32495" lon="7.65031">
        <ele>1338.29</ele>
        <time>2019-04-05T12:30:43Z</time>
      </trkpt>
      <trkpt lat="60.32478" lon="7.6509">
        <ele>1335.41</ele>
        <time>2019-04-05T12:30:53Z</time>
      </trkpt>
      <trkpt lat="60.32471" lon="7.65091">
        <ele>1333.49</ele>
        <time>2019-04-05T12:30:56Z</time>
      </trkpt>
      <trkpt lat="60.32482" lon="7.65066">
        <ele>1335.41</ele>
        <time>2019-04-05T12:31:02Z</time>
      </trkpt>
      <trkpt lat="60.32484" lon="7.65066">
        <ele>1336.37</ele>
        <time>2019-04-05T12:31:03Z</time>
      </trkpt>
      <trkpt lat="60.3249" lon="7.65069">
        <ele>1336.37</ele>
        <time>2019-04-05T12:31:16Z</time>
      </trkpt>
      <trkpt lat="60.3249" lon="7.65068">
        <ele>1336.37</ele>
        <time>2019-04-05T12:31:23Z</time>
      </trkpt>
      <trkpt lat="60.32498" lon="7.65059">
        <ele>1337.33</ele>
        <time>2019-04-05T12:31:29Z</time>
      </trkpt>
      <trkpt lat="60.3251" lon="7.65055">
        <ele>1338.77</ele>
        <time>2019-04-05T12:31:35Z</time>
      </trkpt>
      <trkpt lat="60.32529" lon="7.6505">
        <ele>1340.7</ele>
        <time>2019-04-05T12:31:45Z</time>
      </trkpt>
      <trkpt lat="60.32532" lon="7.6505">
        <ele>1341.66</ele>
        <time>2019-04-05T12:31:47Z</time>
      </trkpt>
      <trkpt lat="60.32539" lon="7.65046">
        <ele>1342.14</ele>
        <time>2019-04-05T12:31:58Z</time>
      </trkpt>
      <trkpt lat="60.32539" lon="7.65047">
        <ele>1342.14</ele>
        <time>2019-04-05T12:32:32Z</time>
      </trkpt>
      <trkpt lat="60.32539" lon="7.65047">
        <ele>1342.14</ele>
        <time>2019-04-05T12:33:07Z</time>
      </trkpt>
      <trkpt lat="60.32539" lon="7.65047">
        <ele>1342.14</ele>
        <time>2019-04-05T12:33:34Z</time>
      </trkpt>
      <trkpt lat="60.32538" lon="7.65047">
        <ele>1342.14</ele>
        <time>2019-04-05T12:34:06Z</time>
      </trkpt>
      <trkpt lat="60.32538" lon="7.65048">
        <ele>1342.14</ele>
        <time>2019-04-05T12:34:42Z</time>
      </trkpt>
      <trkpt lat="60.32538" lon="7.65046">
        <ele>1342.14</ele>
        <time>2019-04-05T12:35:20Z</time>
      </trkpt>
      <trkpt lat="60.32539" lon="7.65046">
        <ele>1342.14</ele>
        <time>2019-04-05T12:35:52Z</time>
      </trkpt>
      <trkpt lat="60.32539" lon="7.65046">
        <ele>1342.14</ele>
        <time>2019-04-05T12:35:56Z</time>
      </trkpt>
      <trkpt lat="60.32558" lon="7.65032">
        <ele>1343.1</ele>
        <time>2019-04-05T12:36:06Z</time>
      </trkpt>
      <trkpt lat="60.32566" lon="7.65028">
        <ele>1343.58</ele>
        <time>2019-04-05T12:36:08Z</time>
      </trkpt>
      <trkpt lat="60.32576" lon="7.65025">
        <ele>1344.06</ele>
        <time>2019-04-05T12:36:10Z</time>
      </trkpt>
      <trkpt lat="60.32585" lon="7.65025">
        <ele>1345.98</ele>
        <time>2019-04-05T12:36:12Z</time>
      </trkpt>
      <trkpt lat="60.32603" lon="7.65025">
        <ele>1346.46</ele>
        <time>2019-04-05T12:36:16Z</time>
      </trkpt>
      <trkpt lat="60.32616" lon="7.65023">
        <ele>1347.43</ele>
        <time>2019-04-05T12:36:19Z</time>
      </trkpt>
      <trkpt lat="60.32625" lon="7.65022">
        <ele>1347.43</ele>
        <time>2019-04-05T12:36:21Z</time>
      </trkpt>
      <trkpt lat="60.32638" lon="7.65014">
        <ele>1348.39</ele>
        <time>2019-04-05T12:36:24Z</time>
      </trkpt>
      <trkpt lat="60.32665" lon="7.65009">
        <ele>1349.83</ele>
        <time>2019-04-05T12:36:30Z</time>
      </trkpt>
      <trkpt lat="60.32702" lon="7.65025">
        <ele>1349.35</ele>
        <time>2019-04-05T12:36:39Z</time>
      </trkpt>
      <trkpt lat="60.32728" lon="7.65036">
        <ele>1347.91</ele>
        <time>2019-04-05T12:36:45Z</time>
      </trkpt>
      <trkpt lat="60.32747" lon="7.65034">
        <ele>1347.91</ele>
        <time>2019-04-05T12:36:49Z</time>
      </trkpt>
      <trkpt lat="60.3277" lon="7.65024">
        <ele>1347.91</ele>
        <time>2019-04-05T12:36:53Z</time>
      </trkpt>
      <trkpt lat="60.32787" lon="7.65018">
        <ele>1347.91</ele>
        <time>2019-04-05T12:36:56Z</time>
      </trkpt>
      <trkpt lat="60.32813" lon="7.65001">
        <ele>1347.43</ele>
        <time>2019-04-05T12:37:01Z</time>
      </trkpt>
      <trkpt lat="60.32834" lon="7.64995">
        <ele>1347.43</ele>
        <time>2019-04-05T12:37:05Z</time>
      </trkpt>
      <trkpt lat="60.3287" lon="7.64967">
        <ele>1346.46</ele>
        <time>2019-04-05T12:37:13Z</time>
      </trkpt>
      <trkpt lat="60.32884" lon="7.64937">
        <ele>1344.06</ele>
        <time>2019-04-05T12:37:18Z</time>
      </trkpt>
      <trkpt lat="60.32892" lon="7.64919">
        <ele>1344.54</ele>
        <time>2019-04-05T12:37:21Z</time>
      </trkpt>
      <trkpt lat="60.3291" lon="7.64897">
        <ele>1344.06</ele>
        <time>2019-04-05T12:37:25Z</time>
      </trkpt>
      <trkpt lat="60.3292" lon="7.64884">
        <ele>1343.58</ele>
        <time>2019-04-05T12:37:27Z</time>
      </trkpt>
      <trkpt lat="60.32926" lon="7.64878">
        <ele>1343.58</ele>
        <time>2019-04-05T12:37:28Z</time>
      </trkpt>
      <trkpt lat="60.32939" lon="7.64868">
        <ele>1343.1</ele>
        <time>2019-04-05T12:37:30Z</time>
      </trkpt>
      <trkpt lat="60.32945" lon="7.64866">
        <ele>1343.1</ele>
        <time>2019-04-05T12:37:31Z</time>
      </trkpt>
      <trkpt lat="60.32949" lon="7.64861">
        <ele>1342.14</ele>
        <time>2019-04-05T12:37:32Z</time>
      </trkpt>
      <trkpt lat="60.32954" lon="7.64855">
        <ele>1341.66</ele>
        <time>2019-04-05T12:37:33Z</time>
      </trkpt>
      <trkpt lat="60.32958" lon="7.64848">
        <ele>1341.18</ele>
        <time>2019-04-05T12:37:34Z</time>
      </trkpt>
      <trkpt lat="60.32962" lon="7.64841">
        <ele>1341.18</ele>
        <time>2019-04-05T12:37:35Z</time>
      </trkpt>
      <trkpt lat="60.32967" lon="7.64836">
        <ele>1341.18</ele>
        <time>2019-04-05T12:37:36Z</time>
      </trkpt>
      <trkpt lat="60.32973" lon="7.64831">
        <ele>1341.18</ele>
        <time>2019-04-05T12:37:37Z</time>
      </trkpt>
      <trkpt lat="60.32978" lon="7.64826">
        <ele>1341.18</ele>
        <time>2019-04-05T12:37:38Z</time>
      </trkpt>
      <trkpt lat="60.32984" lon="7.64821">
        <ele>1341.18</ele>
        <time>2019-04-05T12:37:39Z</time>
      </trkpt>
      <trkpt lat="60.3299" lon="7.64817">
        <ele>1340.7</ele>
        <time>2019-04-05T12:37:40Z</time>
      </trkpt>
      <trkpt lat="60.32996" lon="7.64813">
        <ele>1341.18</ele>
        <time>2019-04-05T12:37:41Z</time>
      </trkpt>
      <trkpt lat="60.33002" lon="7.64809">
        <ele>1340.7</ele>
        <time>2019-04-05T12:37:42Z</time>
      </trkpt>
      <trkpt lat="60.33015" lon="7.648">
        <ele>1340.22</ele>
        <time>2019-04-05T12:37:44Z</time>
      </trkpt>
      <trkpt lat="60.33046" lon="7.64786">
        <ele>1339.73</ele>
        <time>2019-04-05T12:37:49Z</time>
      </trkpt>
      <trkpt lat="60.33052" lon="7.64785">
        <ele>1339.73</ele>
        <time>2019-04-05T12:37:50Z</time>
      </trkpt>
      <trkpt lat="60.33058" lon="7.64786">
        <ele>1339.73</ele>
        <time>2019-04-05T12:37:51Z</time>
      </trkpt>
      <trkpt lat="60.33063" lon="7.64787">
        <ele>1339.73</ele>
        <time>2019-04-05T12:37:52Z</time>
      </trkpt>
      <trkpt lat="60.33068" lon="7.64787">
        <ele>1339.25</ele>
        <time>2019-04-05T12:37:53Z</time>
      </trkpt>
      <trkpt lat="60.33073" lon="7.64788">
        <ele>1339.25</ele>
        <time>2019-04-05T12:37:54Z</time>
      </trkpt>
      <trkpt lat="60.33077" lon="7.64789">
        <ele>1339.25</ele>
        <time>2019-04-05T12:37:55Z</time>
      </trkpt>
      <trkpt lat="60.33081" lon="7.6479">
        <ele>1339.25</ele>
        <time>2019-04-05T12:37:56Z</time>
      </trkpt>
      <trkpt lat="60.33118" lon="7.64797">
        <ele>1339.25</ele>
        <time>2019-04-05T12:38:06Z</time>
      </trkpt>
      <trkpt lat="60.33153" lon="7.64805">
        <ele>1340.7</ele>
        <time>2019-04-05T12:38:16Z</time>
      </trkpt>
      <trkpt lat="60.33158" lon="7.64807">
        <ele>1340.7</ele>
        <time>2019-04-05T12:38:18Z</time>
      </trkpt>
      <trkpt lat="60.33192" lon="7.64809">
        <ele>1341.18</ele>
        <time>2019-04-05T12:38:29Z</time>
      </trkpt>
      <trkpt lat="60.332" lon="7.6481">
        <ele>1342.14</ele>
        <time>2019-04-05T12:38:32Z</time>
      </trkpt>
      <trkpt lat="60.33202" lon="7.64807">
        <ele>1342.14</ele>
        <time>2019-04-05T12:38:33Z</time>
      </trkpt>
      <trkpt lat="60.33205" lon="7.64805">
        <ele>1342.14</ele>
        <time>2019-04-05T12:38:34Z</time>
      </trkpt>
      <trkpt lat="60.33209" lon="7.64805">
        <ele>1342.14</ele>
        <time>2019-04-05T12:38:35Z</time>
      </trkpt>
      <trkpt lat="60.33212" lon="7.64806">
        <ele>1342.14</ele>
        <time>2019-04-05T12:38:36Z</time>
      </trkpt>
      <trkpt lat="60.33215" lon="7.64807">
        <ele>1342.14</ele>
        <time>2019-04-05T12:38:37Z</time>
      </trkpt>
      <trkpt lat="60.33217" lon="7.64808">
        <ele>1342.14</ele>
        <time>2019-04-05T12:38:38Z</time>
      </trkpt>
      <trkpt lat="60.33244" lon="7.64806">
        <ele>1342.14</ele>
        <time>2019-04-05T12:38:48Z</time>
      </trkpt>
      <trkpt lat="60.33247" lon="7.64804">
        <ele>1342.14</ele>
        <time>2019-04-05T12:38:49Z</time>
      </trkpt>
      <trkpt lat="60.3325" lon="7.64803">
        <ele>1342.14</ele>
        <time>2019-04-05T12:38:50Z</time>
      </trkpt>
      <trkpt lat="60.33252" lon="7.64801">
        <ele>1342.14</ele>
        <time>2019-04-05T12:38:51Z</time>
      </trkpt>
      <trkpt lat="60.33255" lon="7.64799">
        <ele>1342.14</ele>
        <time>2019-04-05T12:38:52Z</time>
      </trkpt>
      <trkpt lat="60.33259" lon="7.64798">
        <ele>1342.62</ele>
        <time>2019-04-05T12:38:53Z</time>
      </trkpt>
      <trkpt lat="60.33263" lon="7.64799">
        <ele>1343.58</ele>
        <time>2019-04-05T12:38:54Z</time>
      </trkpt>
      <trkpt lat="60.33293" lon="7.64793">
        <ele>1344.06</ele>
        <time>2019-04-05T12:39:03Z</time>
      </trkpt>
      <trkpt lat="60.33335" lon="7.64785">
        <ele>1345.5</ele>
        <time>2019-04-05T12:39:15Z</time>
      </trkpt>
      <trkpt lat="60.33343" lon="7.64779">
        <ele>1345.98</ele>
        <time>2019-04-05T12:39:17Z</time>
      </trkpt>
      <trkpt lat="60.33347" lon="7.64776">
        <ele>1345.98</ele>
        <time>2019-04-05T12:39:18Z</time>
      </trkpt>
      <trkpt lat="60.33351" lon="7.64773">
        <ele>1345.98</ele>
        <time>2019-04-05T12:39:19Z</time>
      </trkpt>
      <trkpt lat="60.33359" lon="7.6477">
        <ele>1346.46</ele>
        <time>2019-04-05T12:39:21Z</time>
      </trkpt>
      <trkpt lat="60.33363" lon="7.6477">
        <ele>1346.94</ele>
        <time>2019-04-05T12:39:22Z</time>
      </trkpt>
      <trkpt lat="60.33365" lon="7.64769">
        <ele>1346.94</ele>
        <time>2019-04-05T12:39:23Z</time>
      </trkpt>
      <trkpt lat="60.33374" lon="7.64759">
        <ele>1346.94</ele>
        <time>2019-04-05T12:39:26Z</time>
      </trkpt>
      <trkpt lat="60.33377" lon="7.64758">
        <ele>1347.91</ele>
        <time>2019-04-05T12:39:27Z</time>
      </trkpt>
      <trkpt lat="60.33381" lon="7.64757">
        <ele>1347.91</ele>
        <time>2019-04-05T12:39:28Z</time>
      </trkpt>
      <trkpt lat="60.33384" lon="7.64755">
        <ele>1348.39</ele>
        <time>2019-04-05T12:39:29Z</time>
      </trkpt>
      <trkpt lat="60.33387" lon="7.64754">
        <ele>1348.39</ele>
        <time>2019-04-05T12:39:30Z</time>
      </trkpt>
      <trkpt lat="60.3339" lon="7.64755">
        <ele>1348.87</ele>
        <time>2019-04-05T12:39:31Z</time>
      </trkpt>
      <trkpt lat="60.33397" lon="7.64748">
        <ele>1348.87</ele>
        <time>2019-04-05T12:39:39Z</time>
      </trkpt>
      <trkpt lat="60.33399" lon="7.64746">
        <ele>1348.87</ele>
        <time>2019-04-05T12:39:40Z</time>
      </trkpt>
      <trkpt lat="60.33401" lon="7.64745">
        <ele>1348.87</ele>
        <time>2019-04-05T12:39:41Z</time>
      </trkpt>
      <trkpt lat="60.33403" lon="7.64744">
        <ele>1348.87</ele>
        <time>2019-04-05T12:39:42Z</time>
      </trkpt>
      <trkpt lat="60.33405" lon="7.64742">
        <ele>1348.87</ele>
        <time>2019-04-05T12:39:43Z</time>
      </trkpt>
      <trkpt lat="60.33407" lon="7.64741">
        <ele>1349.35</ele>
        <time>2019-04-05T12:39:44Z</time>
      </trkpt>
      <trkpt lat="60.3341" lon="7.6474">
        <ele>1349.35</ele>
        <time>2019-04-05T12:39:45Z</time>
      </trkpt>
      <trkpt lat="60.33412" lon="7.64739">
        <ele>1349.35</ele>
        <time>2019-04-05T12:39:46Z</time>
      </trkpt>
      <trkpt lat="60.33415" lon="7.64738">
        <ele>1349.35</ele>
        <time>2019-04-05T12:39:47Z</time>
      </trkpt>
      <trkpt lat="60.33417" lon="7.64737">
        <ele>1349.35</ele>
        <time>2019-04-05T12:39:48Z</time>
      </trkpt>
      <trkpt lat="60.3342" lon="7.64736">
        <ele>1349.35</ele>
        <time>2019-04-05T12:39:49Z</time>
      </trkpt>
      <trkpt lat="60.33423" lon="7.64734">
        <ele>1349.83</ele>
        <time>2019-04-05T12:39:50Z</time>
      </trkpt>
      <trkpt lat="60.33425" lon="7.64733">
        <ele>1349.83</ele>
        <time>2019-04-05T12:39:51Z</time>
      </trkpt>
      <trkpt lat="60.33428" lon="7.64732">
        <ele>1349.83</ele>
        <time>2019-04-05T12:39:52Z</time>
      </trkpt>
      <trkpt lat="60.33439" lon="7.6473">
        <ele>1351.27</ele>
        <time>2019-04-05T12:39:56Z</time>
      </trkpt>
      <trkpt lat="60.33442" lon="7.64728">
        <ele>1351.27</ele>
        <time>2019-04-05T12:39:57Z</time>
      </trkpt>
      <trkpt lat="60.33445" lon="7.64726">
        <ele>1351.27</ele>
        <time>2019-04-05T12:39:58Z</time>
      </trkpt>
      <trkpt lat="60.33448" lon="7.64724">
        <ele>1351.27</ele>
        <time>2019-04-05T12:39:59Z</time>
      </trkpt>
      <trkpt lat="60.33452" lon="7.64721">
        <ele>1351.27</ele>
        <time>2019-04-05T12:40:00Z</time>
      </trkpt>
      <trkpt lat="60.33455" lon="7.64717">
        <ele>1351.75</ele>
        <time>2019-04-05T12:40:01Z</time>
      </trkpt>
      <trkpt lat="60.33459" lon="7.64713">
        <ele>1351.75</ele>
        <time>2019-04-05T12:40:02Z</time>
      </trkpt>
      <trkpt lat="60.33472" lon="7.64704">
        <ele>1352.71</ele>
        <time>2019-04-05T12:40:05Z</time>
      </trkpt>
      <trkpt lat="60.33494" lon="7.64696">
        <ele>1353.19</ele>
        <time>2019-04-05T12:40:09Z</time>
      </trkpt>
      <trkpt lat="60.33511" lon="7.64684">
        <ele>1353.19</ele>
        <time>2019-04-05T12:40:12Z</time>
      </trkpt>
      <trkpt lat="60.33529" lon="7.64677">
        <ele>1352.23</ele>
        <time>2019-04-05T12:40:15Z</time>
      </trkpt>
      <trkpt lat="60.33552" lon="7.64665">
        <ele>1352.23</ele>
        <time>2019-04-05T12:40:20Z</time>
      </trkpt>
      <trkpt lat="60.33555" lon="7.6466">
        <ele>1352.23</ele>
        <time>2019-04-05T12:40:21Z</time>
      </trkpt>
      <trkpt lat="60.33559" lon="7.64656">
        <ele>1352.23</ele>
        <time>2019-04-05T12:40:22Z</time>
      </trkpt>
      <trkpt lat="60.33563" lon="7.64653">
        <ele>1352.23</ele>
        <time>2019-04-05T12:40:23Z</time>
      </trkpt>
      <trkpt lat="60.33567" lon="7.6465">
        <ele>1352.23</ele>
        <time>2019-04-05T12:40:24Z</time>
      </trkpt>
      <trkpt lat="60.33571" lon="7.64647">
        <ele>1352.23</ele>
        <time>2019-04-05T12:40:25Z</time>
      </trkpt>
      <trkpt lat="60.3358" lon="7.64641">
        <ele>1352.23</ele>
        <time>2019-04-05T12:40:27Z</time>
      </trkpt>
      <trkpt lat="60.3359" lon="7.64634">
        <ele>1353.19</ele>
        <time>2019-04-05T12:40:29Z</time>
      </trkpt>
      <trkpt lat="60.33628" lon="7.64605">
        <ele>1354.15</ele>
        <time>2019-04-05T12:40:38Z</time>
      </trkpt>
      <trkpt lat="60.33633" lon="7.64601">
        <ele>1355.12</ele>
        <time>2019-04-05T12:40:39Z</time>
      </trkpt>
      <trkpt lat="60.33637" lon="7.64597">
        <ele>1355.12</ele>
        <time>2019-04-05T12:40:40Z</time>
      </trkpt>
      <trkpt lat="60.33645" lon="7.64589">
        <ele>1355.6</ele>
        <time>2019-04-05T12:40:42Z</time>
      </trkpt>
      <trkpt lat="60.33649" lon="7.64584">
        <ele>1355.6</ele>
        <time>2019-04-05T12:40:43Z</time>
      </trkpt>
      <trkpt lat="60.33653" lon="7.64579">
        <ele>1355.6</ele>
        <time>2019-04-05T12:40:44Z</time>
      </trkpt>
      <trkpt lat="60.33657" lon="7.64575">
        <ele>1356.08</ele>
        <time>2019-04-05T12:40:45Z</time>
      </trkpt>
      <trkpt lat="60.33662" lon="7.6457">
        <ele>1356.08</ele>
        <time>2019-04-05T12:40:46Z</time>
      </trkpt>
      <trkpt lat="60.33671" lon="7.64559">
        <ele>1357.04</ele>
        <time>2019-04-05T12:40:48Z</time>
      </trkpt>
      <trkpt lat="60.33676" lon="7.64555">
        <ele>1357.04</ele>
        <time>2019-04-05T12:40:49Z</time>
      </trkpt>
      <trkpt lat="60.33681" lon="7.6455">
        <ele>1358</ele>
        <time>2019-04-05T12:40:50Z</time>
      </trkpt>
      <trkpt lat="60.33686" lon="7.64546">
        <ele>1358</ele>
        <time>2019-04-05T12:40:51Z</time>
      </trkpt>
      <trkpt lat="60.33691" lon="7.64542">
        <ele>1358.48</ele>
        <time>2019-04-05T12:40:52Z</time>
      </trkpt>
      <trkpt lat="60.33704" lon="7.6453">
        <ele>1358.48</ele>
        <time>2019-04-05T12:40:55Z</time>
      </trkpt>
      <trkpt lat="60.33709" lon="7.64525">
        <ele>1358.96</ele>
        <time>2019-04-05T12:40:56Z</time>
      </trkpt>
      <trkpt lat="60.33718" lon="7.64515">
        <ele>1359.44</ele>
        <time>2019-04-05T12:40:58Z</time>
      </trkpt>
      <trkpt lat="60.33723" lon="7.64513">
        <ele>1359.44</ele>
        <time>2019-04-05T12:40:59Z</time>
      </trkpt>
      <trkpt lat="60.33728" lon="7.64512">
        <ele>1359.92</ele>
        <time>2019-04-05T12:41:00Z</time>
      </trkpt>
      <trkpt lat="60.33733" lon="7.64511">
        <ele>1360.4</ele>
        <time>2019-04-05T12:41:01Z</time>
      </trkpt>
      <trkpt lat="60.33737" lon="7.64509">
        <ele>1360.4</ele>
        <time>2019-04-05T12:41:02Z</time>
      </trkpt>
      <trkpt lat="60.33742" lon="7.64506">
        <ele>1360.4</ele>
        <time>2019-04-05T12:41:03Z</time>
      </trkpt>
      <trkpt lat="60.33746" lon="7.64503">
        <ele>1360.4</ele>
        <time>2019-04-05T12:41:04Z</time>
      </trkpt>
      <trkpt lat="60.33751" lon="7.645">
        <ele>1360.4</ele>
        <time>2019-04-05T12:41:05Z</time>
      </trkpt>
      <trkpt lat="60.33756" lon="7.64496">
        <ele>1360.4</ele>
        <time>2019-04-05T12:41:06Z</time>
      </trkpt>
      <trkpt lat="60.33767" lon="7.64487">
        <ele>1358.96</ele>
        <time>2019-04-05T12:41:08Z</time>
      </trkpt>
      <trkpt lat="60.33773" lon="7.64484">
        <ele>1358</ele>
        <time>2019-04-05T12:41:09Z</time>
      </trkpt>
      <trkpt lat="60.33777" lon="7.64481">
        <ele>1357.04</ele>
        <time>2019-04-05T12:41:10Z</time>
      </trkpt>
      <trkpt lat="60.3378" lon="7.64476">
        <ele>1355.12</ele>
        <time>2019-04-05T12:41:11Z</time>
      </trkpt>
      <trkpt lat="60.33783" lon="7.6447">
        <ele>1354.15</ele>
        <time>2019-04-05T12:41:12Z</time>
      </trkpt>
      <trkpt lat="60.33788" lon="7.64466">
        <ele>1354.15</ele>
        <time>2019-04-05T12:41:13Z</time>
      </trkpt>
      <trkpt lat="60.33792" lon="7.64462">
        <ele>1353.67</ele>
        <time>2019-04-05T12:41:14Z</time>
      </trkpt>
      <trkpt lat="60.33804" lon="7.64456">
        <ele>1352.71</ele>
        <time>2019-04-05T12:41:16Z</time>
      </trkpt>
      <trkpt lat="60.3382" lon="7.64446">
        <ele>1349.35</ele>
        <time>2019-04-05T12:41:19Z</time>
      </trkpt>
      <trkpt lat="60.33829" lon="7.64437">
        <ele>1348.39</ele>
        <time>2019-04-05T12:41:21Z</time>
      </trkpt>
      <trkpt lat="60.3384" lon="7.64424">
        <ele>1346.94</ele>
        <time>2019-04-05T12:41:23Z</time>
      </trkpt>
      <trkpt lat="60.33853" lon="7.64414">
        <ele>1345.98</ele>
        <time>2019-04-05T12:41:25Z</time>
      </trkpt>
      <trkpt lat="60.33859" lon="7.64411">
        <ele>1345.98</ele>
        <time>2019-04-05T12:41:26Z</time>
      </trkpt>
      <trkpt lat="60.33866" lon="7.64408">
        <ele>1345.98</ele>
        <time>2019-04-05T12:41:27Z</time>
      </trkpt>
      <trkpt lat="60.33879" lon="7.64403">
        <ele>1345.5</ele>
        <time>2019-04-05T12:41:29Z</time>
      </trkpt>
      <trkpt lat="60.33886" lon="7.64402">
        <ele>1344.54</ele>
        <time>2019-04-05T12:41:30Z</time>
      </trkpt>
      <trkpt lat="60.33892" lon="7.64401">
        <ele>1344.54</ele>
        <time>2019-04-05T12:41:31Z</time>
      </trkpt>
      <trkpt lat="60.33916" lon="7.64395">
        <ele>1344.54</ele>
        <time>2019-04-05T12:41:35Z</time>
      </trkpt>
      <trkpt lat="60.33947" lon="7.64387">
        <ele>1343.58</ele>
        <time>2019-04-05T12:41:40Z</time>
      </trkpt>
      <trkpt lat="60.33953" lon="7.64384">
        <ele>1343.58</ele>
        <time>2019-04-05T12:41:41Z</time>
      </trkpt>
      <trkpt lat="60.33979" lon="7.64369">
        <ele>1342.62</ele>
        <time>2019-04-05T12:41:45Z</time>
      </trkpt>
      <trkpt lat="60.33997" lon="7.64353">
        <ele>1342.14</ele>
        <time>2019-04-05T12:41:48Z</time>
      </trkpt>
      <trkpt lat="60.34004" lon="7.6435">
        <ele>1342.14</ele>
        <time>2019-04-05T12:41:49Z</time>
      </trkpt>
      <trkpt lat="60.3401" lon="7.64349">
        <ele>1342.14</ele>
        <time>2019-04-05T12:41:50Z</time>
      </trkpt>
      <trkpt lat="60.34028" lon="7.64347">
        <ele>1341.66</ele>
        <time>2019-04-05T12:41:53Z</time>
      </trkpt>
      <trkpt lat="60.34044" lon="7.64343">
        <ele>1341.66</ele>
        <time>2019-04-05T12:41:56Z</time>
      </trkpt>
      <trkpt lat="60.34058" lon="7.64341">
        <ele>1341.66</ele>
        <time>2019-04-05T12:41:59Z</time>
      </trkpt>
      <trkpt lat="60.34062" lon="7.64341">
        <ele>1341.66</ele>
        <time>2019-04-05T12:42:00Z</time>
      </trkpt>
      <trkpt lat="60.34067" lon="7.6434">
        <ele>1341.66</ele>
        <time>2019-04-05T12:42:01Z</time>
      </trkpt>
      <trkpt lat="60.3407" lon="7.6434">
        <ele>1341.66</ele>
        <time>2019-04-05T12:42:02Z</time>
      </trkpt>
      <trkpt lat="60.34074" lon="7.64342">
        <ele>1341.66</ele>
        <time>2019-04-05T12:42:03Z</time>
      </trkpt>
      <trkpt lat="60.34077" lon="7.64343">
        <ele>1343.1</ele>
        <time>2019-04-05T12:42:04Z</time>
      </trkpt>
      <trkpt lat="60.3408" lon="7.64344">
        <ele>1343.1</ele>
        <time>2019-04-05T12:42:05Z</time>
      </trkpt>
      <trkpt lat="60.34109" lon="7.64337">
        <ele>1344.54</ele>
        <time>2019-04-05T12:42:14Z</time>
      </trkpt>
      <trkpt lat="60.34126" lon="7.64337">
        <ele>1345.5</ele>
        <time>2019-04-05T12:42:18Z</time>
      </trkpt>
      <trkpt lat="60.3413" lon="7.64338">
        <ele>1345.5</ele>
        <time>2019-04-05T12:42:19Z</time>
      </trkpt>
      <trkpt lat="60.34148" lon="7.64345">
        <ele>1345.5</ele>
        <time>2019-04-05T12:42:23Z</time>
      </trkpt>
      <trkpt lat="60.34157" lon="7.64349">
        <ele>1345.5</ele>
        <time>2019-04-05T12:42:25Z</time>
      </trkpt>
      <trkpt lat="60.34177" lon="7.64349">
        <ele>1345.5</ele>
        <time>2019-04-05T12:42:29Z</time>
      </trkpt>
      <trkpt lat="60.34195" lon="7.64346">
        <ele>1345.5</ele>
        <time>2019-04-05T12:42:32Z</time>
      </trkpt>
      <trkpt lat="60.34201" lon="7.64345">
        <ele>1345.5</ele>
        <time>2019-04-05T12:42:33Z</time>
      </trkpt>
      <trkpt lat="60.34207" lon="7.64343">
        <ele>1344.06</ele>
        <time>2019-04-05T12:42:34Z</time>
      </trkpt>
      <trkpt lat="60.34213" lon="7.64341">
        <ele>1344.06</ele>
        <time>2019-04-05T12:42:35Z</time>
      </trkpt>
      <trkpt lat="60.3422" lon="7.6434">
        <ele>1343.58</ele>
        <time>2019-04-05T12:42:36Z</time>
      </trkpt>
      <trkpt lat="60.34263" lon="7.64332">
        <ele>1340.7</ele>
        <time>2019-04-05T12:42:42Z</time>
      </trkpt>
      <trkpt lat="60.34292" lon="7.64309">
        <ele>1338.29</ele>
        <time>2019-04-05T12:42:46Z</time>
      </trkpt>
      <trkpt lat="60.34299" lon="7.64307">
        <ele>1337.81</ele>
        <time>2019-04-05T12:42:47Z</time>
      </trkpt>
      <trkpt lat="60.34306" lon="7.64308">
        <ele>1337.33</ele>
        <time>2019-04-05T12:42:48Z</time>
      </trkpt>
      <trkpt lat="60.34319" lon="7.6431">
        <ele>1335.89</ele>
        <time>2019-04-05T12:42:50Z</time>
      </trkpt>
      <trkpt lat="60.34323" lon="7.64313">
        <ele>1335.41</ele>
        <time>2019-04-05T12:42:51Z</time>
      </trkpt>
      <trkpt lat="60.3433" lon="7.64314">
        <ele>1333.49</ele>
        <time>2019-04-05T12:42:53Z</time>
      </trkpt>
      <trkpt lat="60.34331" lon="7.64313">
        <ele>1333.01</ele>
        <time>2019-04-05T12:42:54Z</time>
      </trkpt>
      <trkpt lat="60.34332" lon="7.6431">
        <ele>1333.01</ele>
        <time>2019-04-05T12:42:55Z</time>
      </trkpt>
      <trkpt lat="60.34345" lon="7.64283">
        <ele>1333.49</ele>
        <time>2019-04-05T12:43:01Z</time>
      </trkpt>
      <trkpt lat="60.34349" lon="7.64278">
        <ele>1333.49</ele>
        <time>2019-04-05T12:43:02Z</time>
      </trkpt>
      <trkpt lat="60.34353" lon="7.64275">
        <ele>1333.49</ele>
        <time>2019-04-05T12:43:03Z</time>
      </trkpt>
      <trkpt lat="60.34357" lon="7.64272">
        <ele>1333.49</ele>
        <time>2019-04-05T12:43:04Z</time>
      </trkpt>
      <trkpt lat="60.34361" lon="7.64267">
        <ele>1334.93</ele>
        <time>2019-04-05T12:43:05Z</time>
      </trkpt>
      <trkpt lat="60.34365" lon="7.64263">
        <ele>1334.93</ele>
        <time>2019-04-05T12:43:06Z</time>
      </trkpt>
      <trkpt lat="60.34369" lon="7.6426">
        <ele>1334.93</ele>
        <time>2019-04-05T12:43:07Z</time>
      </trkpt>
      <trkpt lat="60.34377" lon="7.64256">
        <ele>1335.89</ele>
        <time>2019-04-05T12:43:09Z</time>
      </trkpt>
      <trkpt lat="60.34387" lon="7.6425">
        <ele>1336.37</ele>
        <time>2019-04-05T12:43:11Z</time>
      </trkpt>
      <trkpt lat="60.34392" lon="7.64247">
        <ele>1336.37</ele>
        <time>2019-04-05T12:43:12Z</time>
      </trkpt>
      <trkpt lat="60.34397" lon="7.64243">
        <ele>1336.85</ele>
        <time>2019-04-05T12:43:13Z</time>
      </trkpt>
      <trkpt lat="60.34402" lon="7.64238">
        <ele>1336.85</ele>
        <time>2019-04-05T12:43:14Z</time>
      </trkpt>
      <trkpt lat="60.34407" lon="7.64234">
        <ele>1336.85</ele>
        <time>2019-04-05T12:43:15Z</time>
      </trkpt>
      <trkpt lat="60.34411" lon="7.64231">
        <ele>1337.33</ele>
        <time>2019-04-05T12:43:16Z</time>
      </trkpt>
      <trkpt lat="60.34414" lon="7.64228">
        <ele>1337.33</ele>
        <time>2019-04-05T12:43:17Z</time>
      </trkpt>
      <trkpt lat="60.34422" lon="7.64219">
        <ele>1337.33</ele>
        <time>2019-04-05T12:43:19Z</time>
      </trkpt>
      <trkpt lat="60.34427" lon="7.64216">
        <ele>1337.33</ele>
        <time>2019-04-05T12:43:20Z</time>
      </trkpt>
      <trkpt lat="60.34439" lon="7.6421">
        <ele>1337.33</ele>
        <time>2019-04-05T12:43:22Z</time>
      </trkpt>
      <trkpt lat="60.3447" lon="7.64187">
        <ele>1335.89</ele>
        <time>2019-04-05T12:43:27Z</time>
      </trkpt>
      <trkpt lat="60.34476" lon="7.64181">
        <ele>1335.89</ele>
        <time>2019-04-05T12:43:28Z</time>
      </trkpt>
      <trkpt lat="60.34488" lon="7.6417">
        <ele>1335.89</ele>
        <time>2019-04-05T12:43:30Z</time>
      </trkpt>
      <trkpt lat="60.34498" lon="7.64161">
        <ele>1335.89</ele>
        <time>2019-04-05T12:43:32Z</time>
      </trkpt>
      <trkpt lat="60.34508" lon="7.64148">
        <ele>1337.33</ele>
        <time>2019-04-05T12:43:35Z</time>
      </trkpt>
      <trkpt lat="60.34516" lon="7.64143">
        <ele>1337.33</ele>
        <time>2019-04-05T12:43:37Z</time>
      </trkpt>
      <trkpt lat="60.3452" lon="7.64142">
        <ele>1337.33</ele>
        <time>2019-04-05T12:43:38Z</time>
      </trkpt>
      <trkpt lat="60.34528" lon="7.6414">
        <ele>1337.33</ele>
        <time>2019-04-05T12:43:40Z</time>
      </trkpt>
      <trkpt lat="60.34531" lon="7.64137">
        <ele>1337.33</ele>
        <time>2019-04-05T12:43:41Z</time>
      </trkpt>
      <trkpt lat="60.34537" lon="7.64131">
        <ele>1336.37</ele>
        <time>2019-04-05T12:43:43Z</time>
      </trkpt>
      <trkpt lat="60.34551" lon="7.64116">
        <ele>1335.89</ele>
        <time>2019-04-05T12:43:55Z</time>
      </trkpt>
      <trkpt lat="60.34558" lon="7.64104">
        <ele>1335.89</ele>
        <time>2019-04-05T12:44:06Z</time>
      </trkpt>
      <trkpt lat="60.34586" lon="7.64088">
        <ele>1335.89</ele>
        <time>2019-04-05T12:44:12Z</time>
      </trkpt>
      <trkpt lat="60.34591" lon="7.64084">
        <ele>1335.89</ele>
        <time>2019-04-05T12:44:13Z</time>
      </trkpt>
      <trkpt lat="60.34597" lon="7.64082">
        <ele>1335.89</ele>
        <time>2019-04-05T12:44:14Z</time>
      </trkpt>
      <trkpt lat="60.34603" lon="7.64081">
        <ele>1335.89</ele>
        <time>2019-04-05T12:44:15Z</time>
      </trkpt>
      <trkpt lat="60.34609" lon="7.64081">
        <ele>1335.89</ele>
        <time>2019-04-05T12:44:16Z</time>
      </trkpt>
      <trkpt lat="60.34615" lon="7.64082">
        <ele>1335.89</ele>
        <time>2019-04-05T12:44:17Z</time>
      </trkpt>
      <trkpt lat="60.34621" lon="7.64083">
        <ele>1335.89</ele>
        <time>2019-04-05T12:44:18Z</time>
      </trkpt>
      <trkpt lat="60.34626" lon="7.64081">
        <ele>1335.89</ele>
        <time>2019-04-05T12:44:19Z</time>
      </trkpt>
      <trkpt lat="60.34707" lon="7.6407">
        <ele>1333.01</ele>
        <time>2019-04-05T12:44:31Z</time>
      </trkpt>
      <trkpt lat="60.34715" lon="7.64067">
        <ele>1332.04</ele>
        <time>2019-04-05T12:44:32Z</time>
      </trkpt>
      <trkpt lat="60.34733" lon="7.64061">
        <ele>1331.56</ele>
        <time>2019-04-05T12:44:34Z</time>
      </trkpt>
      <trkpt lat="60.34751" lon="7.64053">
        <ele>1329.64</ele>
        <time>2019-04-05T12:44:36Z</time>
      </trkpt>
      <trkpt lat="60.34759" lon="7.64048">
        <ele>1328.68</ele>
        <time>2019-04-05T12:44:37Z</time>
      </trkpt>
      <trkpt lat="60.34767" lon="7.64043">
        <ele>1326.76</ele>
        <time>2019-04-05T12:44:38Z</time>
      </trkpt>
      <trkpt lat="60.34776" lon="7.64038">
        <ele>1324.83</ele>
        <time>2019-04-05T12:44:39Z</time>
      </trkpt>
      <trkpt lat="60.34784" lon="7.64035">
        <ele>1323.87</ele>
        <time>2019-04-05T12:44:40Z</time>
      </trkpt>
      <trkpt lat="60.34794" lon="7.64032">
        <ele>1323.87</ele>
        <time>2019-04-05T12:44:41Z</time>
      </trkpt>
      <trkpt lat="60.34803" lon="7.64027">
        <ele>1322.91</ele>
        <time>2019-04-05T12:44:42Z</time>
      </trkpt>
      <trkpt lat="60.34812" lon="7.64023">
        <ele>1321.95</ele>
        <time>2019-04-05T12:44:43Z</time>
      </trkpt>
      <trkpt lat="60.3482" lon="7.64021">
        <ele>1321.47</ele>
        <time>2019-04-05T12:44:44Z</time>
      </trkpt>
      <trkpt lat="60.34828" lon="7.6402">
        <ele>1321.47</ele>
        <time>2019-04-05T12:44:45Z</time>
      </trkpt>
      <trkpt lat="60.3487" lon="7.64011">
        <ele>1318.1</ele>
        <time>2019-04-05T12:44:51Z</time>
      </trkpt>
      <trkpt lat="60.34876" lon="7.64008">
        <ele>1318.1</ele>
        <time>2019-04-05T12:44:52Z</time>
      </trkpt>
      <trkpt lat="60.34882" lon="7.64007">
        <ele>1318.1</ele>
        <time>2019-04-05T12:44:53Z</time>
      </trkpt>
      <trkpt lat="60.34887" lon="7.64006">
        <ele>1318.1</ele>
        <time>2019-04-05T12:44:54Z</time>
      </trkpt>
      <trkpt lat="60.34892" lon="7.64004">
        <ele>1317.62</ele>
        <time>2019-04-05T12:44:55Z</time>
      </trkpt>
      <trkpt lat="60.34897" lon="7.64002">
        <ele>1317.62</ele>
        <time>2019-04-05T12:44:56Z</time>
      </trkpt>
      <trkpt lat="60.34902" lon="7.64001">
        <ele>1317.62</ele>
        <time>2019-04-05T12:44:57Z</time>
      </trkpt>
      <trkpt lat="60.34908" lon="7.64001">
        <ele>1317.62</ele>
        <time>2019-04-05T12:44:58Z</time>
      </trkpt>
      <trkpt lat="60.34913" lon="7.64">
        <ele>1317.62</ele>
        <time>2019-04-05T12:44:59Z</time>
      </trkpt>
      <trkpt lat="60.34917" lon="7.63997">
        <ele>1317.62</ele>
        <time>2019-04-05T12:45:00Z</time>
      </trkpt>
      <trkpt lat="60.34922" lon="7.63994">
        <ele>1317.62</ele>
        <time>2019-04-05T12:45:01Z</time>
      </trkpt>
      <trkpt lat="60.34934" lon="7.63988">
        <ele>1317.14</ele>
        <time>2019-04-05T12:45:03Z</time>
      </trkpt>
      <trkpt lat="60.34974" lon="7.63964">
        <ele>1315.7</ele>
        <time>2019-04-05T12:45:10Z</time>
      </trkpt>
      <trkpt lat="60.34987" lon="7.63952">
        <ele>1315.22</ele>
        <time>2019-04-05T12:45:12Z</time>
      </trkpt>
      <trkpt lat="60.34993" lon="7.63948">
        <ele>1314.26</ele>
        <time>2019-04-05T12:45:13Z</time>
      </trkpt>
      <trkpt lat="60.34999" lon="7.63944">
        <ele>1314.26</ele>
        <time>2019-04-05T12:45:14Z</time>
      </trkpt>
      <trkpt lat="60.35005" lon="7.63939">
        <ele>1313.78</ele>
        <time>2019-04-05T12:45:15Z</time>
      </trkpt>
      <trkpt lat="60.35011" lon="7.63935">
        <ele>1312.82</ele>
        <time>2019-04-05T12:45:16Z</time>
      </trkpt>
      <trkpt lat="60.35016" lon="7.63931">
        <ele>1312.34</ele>
        <time>2019-04-05T12:45:17Z</time>
      </trkpt>
      <trkpt lat="60.35052" lon="7.63912">
        <ele>1309.45</ele>
        <time>2019-04-05T12:45:23Z</time>
      </trkpt>
      <trkpt lat="60.35069" lon="7.63902">
        <ele>1307.53</ele>
        <time>2019-04-05T12:45:26Z</time>
      </trkpt>
      <trkpt lat="60.35087" lon="7.63887">
        <ele>1306.57</ele>
        <time>2019-04-05T12:45:29Z</time>
      </trkpt>
      <trkpt lat="60.35106" lon="7.63879">
        <ele>1306.09</ele>
        <time>2019-04-05T12:45:32Z</time>
      </trkpt>
      <trkpt lat="60.35112" lon="7.63875">
        <ele>1305.61</ele>
        <time>2019-04-05T12:45:33Z</time>
      </trkpt>
      <trkpt lat="60.35123" lon="7.63867">
        <ele>1305.61</ele>
        <time>2019-04-05T12:45:35Z</time>
      </trkpt>
      <trkpt lat="60.35145" lon="7.63851">
        <ele>1307.05</ele>
        <time>2019-04-05T12:45:39Z</time>
      </trkpt>
      <trkpt lat="60.35165" lon="7.6383">
        <ele>1308.49</ele>
        <time>2019-04-05T12:45:43Z</time>
      </trkpt>
      <trkpt lat="60.35171" lon="7.63824">
        <ele>1308.49</ele>
        <time>2019-04-05T12:45:44Z</time>
      </trkpt>
      <trkpt lat="60.35176" lon="7.63818">
        <ele>1308.97</ele>
        <time>2019-04-05T12:45:45Z</time>
      </trkpt>
      <trkpt lat="60.35183" lon="7.6381">
        <ele>1308.97</ele>
        <time>2019-04-05T12:45:46Z</time>
      </trkpt>
      <trkpt lat="60.3519" lon="7.63804">
        <ele>1308.97</ele>
        <time>2019-04-05T12:45:47Z</time>
      </trkpt>
      <trkpt lat="60.35197" lon="7.63797">
        <ele>1308.97</ele>
        <time>2019-04-05T12:45:48Z</time>
      </trkpt>
      <trkpt lat="60.35203" lon="7.63789">
        <ele>1308.97</ele>
        <time>2019-04-05T12:45:49Z</time>
      </trkpt>
      <trkpt lat="60.35209" lon="7.6378">
        <ele>1308.97</ele>
        <time>2019-04-05T12:45:50Z</time>
      </trkpt>
      <trkpt lat="60.35214" lon="7.63771">
        <ele>1308.97</ele>
        <time>2019-04-05T12:45:51Z</time>
      </trkpt>
      <trkpt lat="60.35219" lon="7.63764">
        <ele>1307.53</ele>
        <time>2019-04-05T12:45:52Z</time>
      </trkpt>
      <trkpt lat="60.35223" lon="7.63756">
        <ele>1307.53</ele>
        <time>2019-04-05T12:45:53Z</time>
      </trkpt>
      <trkpt lat="60.35227" lon="7.63747">
        <ele>1307.05</ele>
        <time>2019-04-05T12:45:54Z</time>
      </trkpt>
      <trkpt lat="60.35232" lon="7.63739">
        <ele>1307.05</ele>
        <time>2019-04-05T12:45:55Z</time>
      </trkpt>
      <trkpt lat="60.35238" lon="7.63732">
        <ele>1307.05</ele>
        <time>2019-04-05T12:45:56Z</time>
      </trkpt>
      <trkpt lat="60.35269" lon="7.63695">
        <ele>1305.13</ele>
        <time>2019-04-05T12:46:02Z</time>
      </trkpt>
      <trkpt lat="60.35275" lon="7.63693">
        <ele>1305.13</ele>
        <time>2019-04-05T12:46:03Z</time>
      </trkpt>
      <trkpt lat="60.35291" lon="7.63693">
        <ele>1304.17</ele>
        <time>2019-04-05T12:46:06Z</time>
      </trkpt>
      <trkpt lat="60.35315" lon="7.63692">
        <ele>1301.76</ele>
        <time>2019-04-05T12:46:10Z</time>
      </trkpt>
      <trkpt lat="60.35331" lon="7.63693">
        <ele>1298.88</ele>
        <time>2019-04-05T12:46:13Z</time>
      </trkpt>
      <trkpt lat="60.35336" lon="7.63695">
        <ele>1298.88</ele>
        <time>2019-04-05T12:46:14Z</time>
      </trkpt>
      <trkpt lat="60.3534" lon="7.63698">
        <ele>1298.4</ele>
        <time>2019-04-05T12:46:15Z</time>
      </trkpt>
      <trkpt lat="60.35353" lon="7.63708">
        <ele>1298.4</ele>
        <time>2019-04-05T12:46:18Z</time>
      </trkpt>
      <trkpt lat="60.35358" lon="7.63709">
        <ele>1297.92</ele>
        <time>2019-04-05T12:46:19Z</time>
      </trkpt>
      <trkpt lat="60.35363" lon="7.6371">
        <ele>1296.96</ele>
        <time>2019-04-05T12:46:20Z</time>
      </trkpt>
      <trkpt lat="60.35369" lon="7.63711">
        <ele>1295.51</ele>
        <time>2019-04-05T12:46:21Z</time>
      </trkpt>
      <trkpt lat="60.35375" lon="7.63712">
        <ele>1294.55</ele>
        <time>2019-04-05T12:46:22Z</time>
      </trkpt>
      <trkpt lat="60.35382" lon="7.63713">
        <ele>1293.59</ele>
        <time>2019-04-05T12:46:23Z</time>
      </trkpt>
      <trkpt lat="60.35394" lon="7.63715">
        <ele>1291.19</ele>
        <time>2019-04-05T12:46:25Z</time>
      </trkpt>
      <trkpt lat="60.35412" lon="7.63727">
        <ele>1286.86</ele>
        <time>2019-04-05T12:46:29Z</time>
      </trkpt>
      <trkpt lat="60.3542" lon="7.63735">
        <ele>1285.42</ele>
        <time>2019-04-05T12:46:31Z</time>
      </trkpt>
      <trkpt lat="60.35425" lon="7.63739">
        <ele>1283.98</ele>
        <time>2019-04-05T12:46:32Z</time>
      </trkpt>
      <trkpt lat="60.35442" lon="7.63748">
        <ele>1280.61</ele>
        <time>2019-04-05T12:46:35Z</time>
      </trkpt>
      <trkpt lat="60.35463" lon="7.63752">
        <ele>1275.81</ele>
        <time>2019-04-05T12:46:38Z</time>
      </trkpt>
      <trkpt lat="60.35469" lon="7.63752">
        <ele>1274.36</ele>
        <time>2019-04-05T12:46:39Z</time>
      </trkpt>
      <trkpt lat="60.35494" lon="7.63755">
        <ele>1269.08</ele>
        <time>2019-04-05T12:46:43Z</time>
      </trkpt>
      <trkpt lat="60.3551" lon="7.63757">
        <ele>1267.16</ele>
        <time>2019-04-05T12:46:46Z</time>
      </trkpt>
      <trkpt lat="60.35534" lon="7.63761">
        <ele>1264.27</ele>
        <time>2019-04-05T12:46:50Z</time>
      </trkpt>
      <trkpt lat="60.35546" lon="7.63761">
        <ele>1262.35</ele>
        <time>2019-04-05T12:46:52Z</time>
      </trkpt>
      <trkpt lat="60.35579" lon="7.63761">
        <ele>1257.54</ele>
        <time>2019-04-05T12:46:58Z</time>
      </trkpt>
      <trkpt lat="60.35591" lon="7.63765">
        <ele>1255.62</ele>
        <time>2019-04-05T12:47:00Z</time>
      </trkpt>
      <trkpt lat="60.35618" lon="7.63772">
        <ele>1251.29</ele>
        <time>2019-04-05T12:47:04Z</time>
      </trkpt>
      <trkpt lat="60.35624" lon="7.63773">
        <ele>1251.29</ele>
        <time>2019-04-05T12:47:05Z</time>
      </trkpt>
      <trkpt lat="60.35649" lon="7.6378">
        <ele>1246.97</ele>
        <time>2019-04-05T12:47:09Z</time>
      </trkpt>
      <trkpt lat="60.35662" lon="7.63778">
        <ele>1245.04</ele>
        <time>2019-04-05T12:47:11Z</time>
      </trkpt>
      <trkpt lat="60.35691" lon="7.63767">
        <ele>1242.16</ele>
        <time>2019-04-05T12:47:15Z</time>
      </trkpt>
      <trkpt lat="60.35706" lon="7.63763">
        <ele>1240.24</ele>
        <time>2019-04-05T12:47:17Z</time>
      </trkpt>
      <trkpt lat="60.35746" lon="7.63765">
        <ele>1235.43</ele>
        <time>2019-04-05T12:47:23Z</time>
      </trkpt>
      <trkpt lat="60.35752" lon="7.63764">
        <ele>1235.43</ele>
        <time>2019-04-05T12:47:24Z</time>
      </trkpt>
      <trkpt lat="60.35759" lon="7.63764">
        <ele>1234.95</ele>
        <time>2019-04-05T12:47:25Z</time>
      </trkpt>
      <trkpt lat="60.35776" lon="7.63768">
        <ele>1233.03</ele>
        <time>2019-04-05T12:47:28Z</time>
      </trkpt>
      <trkpt lat="60.35797" lon="7.6377">
        <ele>1232.55</ele>
        <time>2019-04-05T12:47:32Z</time>
      </trkpt>
      <trkpt lat="60.35829" lon="7.63778">
        <ele>1230.14</ele>
        <time>2019-04-05T12:47:38Z</time>
      </trkpt>
      <trkpt lat="60.3584" lon="7.63781">
        <ele>1229.18</ele>
        <time>2019-04-05T12:47:40Z</time>
      </trkpt>
      <trkpt lat="60.35851" lon="7.63782">
        <ele>1228.22</ele>
        <time>2019-04-05T12:47:42Z</time>
      </trkpt>
      <trkpt lat="60.35856" lon="7.63783">
        <ele>1228.22</ele>
        <time>2019-04-05T12:47:43Z</time>
      </trkpt>
      <trkpt lat="60.35911" lon="7.63788">
        <ele>1224.86</ele>
        <time>2019-04-05T12:47:53Z</time>
      </trkpt>
      <trkpt lat="60.35944" lon="7.63798">
        <ele>1222.93</ele>
        <time>2019-04-05T12:47:59Z</time>
      </trkpt>
      <trkpt lat="60.35959" lon="7.63801">
        <ele>1221.01</ele>
        <time>2019-04-05T12:48:02Z</time>
      </trkpt>
      <trkpt lat="60.35969" lon="7.63804">
        <ele>1221.01</ele>
        <time>2019-04-05T12:48:04Z</time>
      </trkpt>
      <trkpt lat="60.3601" lon="7.63814">
        <ele>1218.13</ele>
        <time>2019-04-05T12:48:12Z</time>
      </trkpt>
      <trkpt lat="60.36031" lon="7.63818">
        <ele>1216.21</ele>
        <time>2019-04-05T12:48:16Z</time>
      </trkpt>
      <trkpt lat="60.3607" lon="7.63824">
        <ele>1213.32</ele>
        <time>2019-04-05T12:48:23Z</time>
      </trkpt>
      <trkpt lat="60.36075" lon="7.63826">
        <ele>1212.84</ele>
        <time>2019-04-05T12:48:24Z</time>
      </trkpt>
      <trkpt lat="60.36085" lon="7.63827">
        <ele>1212.36</ele>
        <time>2019-04-05T12:48:26Z</time>
      </trkpt>
      <trkpt lat="60.36131" lon="7.63836">
        <ele>1209.96</ele>
        <time>2019-04-05T12:48:35Z</time>
      </trkpt>
      <trkpt lat="60.36147" lon="7.63843">
        <ele>1209</ele>
        <time>2019-04-05T12:48:38Z</time>
      </trkpt>
      <trkpt lat="60.3619" lon="7.63843">
        <ele>1205.15</ele>
        <time>2019-04-05T12:48:45Z</time>
      </trkpt>
      <trkpt lat="60.36196" lon="7.63842">
        <ele>1205.15</ele>
        <time>2019-04-05T12:48:46Z</time>
      </trkpt>
      <trkpt lat="60.36221" lon="7.63838">
        <ele>1203.71</ele>
        <time>2019-04-05T12:48:50Z</time>
      </trkpt>
      <trkpt lat="60.36238" lon="7.6384">
        <ele>1202.27</ele>
        <time>2019-04-05T12:48:53Z</time>
      </trkpt>
      <trkpt lat="60.36249" lon="7.63841">
        <ele>1201.3</ele>
        <time>2019-04-05T12:48:55Z</time>
      </trkpt>
      <trkpt lat="60.36276" lon="7.63843">
        <ele>1199.38</ele>
        <time>2019-04-05T12:49:00Z</time>
      </trkpt>
      <trkpt lat="60.36303" lon="7.63839">
        <ele>1198.9</ele>
        <time>2019-04-05T12:49:05Z</time>
      </trkpt>
      <trkpt lat="60.36333" lon="7.63843">
        <ele>1197.46</ele>
        <time>2019-04-05T12:49:10Z</time>
      </trkpt>
      <trkpt lat="60.36356" lon="7.63847">
        <ele>1196.98</ele>
        <time>2019-04-05T12:49:15Z</time>
      </trkpt>
      <trkpt lat="60.3637" lon="7.63845">
        <ele>1196.5</ele>
        <time>2019-04-05T12:49:18Z</time>
      </trkpt>
      <trkpt lat="60.36396" lon="7.63842">
        <ele>1196.02</ele>
        <time>2019-04-05T12:49:23Z</time>
      </trkpt>
      <trkpt lat="60.36416" lon="7.6384">
        <ele>1195.54</ele>
        <time>2019-04-05T12:49:27Z</time>
      </trkpt>
      <trkpt lat="60.3643" lon="7.63842">
        <ele>1195.54</ele>
        <time>2019-04-05T12:49:30Z</time>
      </trkpt>
      <trkpt lat="60.36442" lon="7.63845">
        <ele>1194.09</ele>
        <time>2019-04-05T12:49:36Z</time>
      </trkpt>
      <trkpt lat="60.36449" lon="7.63826">
        <ele>1195.54</ele>
        <time>2019-04-05T12:49:41Z</time>
      </trkpt>
      <trkpt lat="60.3647" lon="7.6382">
        <ele>1196.5</ele>
        <time>2019-04-05T12:49:46Z</time>
      </trkpt>
      <trkpt lat="60.36483" lon="7.6382">
        <ele>1196.5</ele>
        <time>2019-04-05T12:49:49Z</time>
      </trkpt>
      <trkpt lat="60.36502" lon="7.63817">
        <ele>1195.54</ele>
        <time>2019-04-05T12:49:54Z</time>
      </trkpt>
      <trkpt lat="60.36514" lon="7.63811">
        <ele>1195.54</ele>
        <time>2019-04-05T12:49:57Z</time>
      </trkpt>
      <trkpt lat="60.36533" lon="7.63807">
        <ele>1195.06</ele>
        <time>2019-04-05T12:50:01Z</time>
      </trkpt>
      <trkpt lat="60.36555" lon="7.63809">
        <ele>1196.5</ele>
        <time>2019-04-05T12:50:06Z</time>
      </trkpt>
      <trkpt lat="60.36569" lon="7.63811">
        <ele>1195.06</ele>
        <time>2019-04-05T12:50:09Z</time>
      </trkpt>
      <trkpt lat="60.36593" lon="7.63816">
        <ele>1194.09</ele>
        <time>2019-04-05T12:50:13Z</time>
      </trkpt>
      <trkpt lat="60.36625" lon="7.63825">
        <ele>1190.25</ele>
        <time>2019-04-05T12:50:18Z</time>
      </trkpt>
      <trkpt lat="60.36631" lon="7.63827">
        <ele>1190.25</ele>
        <time>2019-04-05T12:50:19Z</time>
      </trkpt>
      <trkpt lat="60.36654" lon="7.63834">
        <ele>1188.81</ele>
        <time>2019-04-05T12:50:23Z</time>
      </trkpt>
      <trkpt lat="60.36664" lon="7.63836">
        <ele>1187.85</ele>
        <time>2019-04-05T12:50:25Z</time>
      </trkpt>
      <trkpt lat="60.36678" lon="7.63834">
        <ele>1187.85</ele>
        <time>2019-04-05T12:50:28Z</time>
      </trkpt>
      <trkpt lat="60.36682" lon="7.63831">
        <ele>1187.85</ele>
        <time>2019-04-05T12:50:29Z</time>
      </trkpt>
      <trkpt lat="60.36686" lon="7.63828">
        <ele>1186.88</ele>
        <time>2019-04-05T12:50:30Z</time>
      </trkpt>
      <trkpt lat="60.3669" lon="7.63824">
        <ele>1186.88</ele>
        <time>2019-04-05T12:50:31Z</time>
      </trkpt>
      <trkpt lat="60.36693" lon="7.63822">
        <ele>1186.88</ele>
        <time>2019-04-05T12:50:32Z</time>
      </trkpt>
      <trkpt lat="60.36702" lon="7.63813">
        <ele>1188.33</ele>
        <time>2019-04-05T12:50:35Z</time>
      </trkpt>
      <trkpt lat="60.36718" lon="7.63797">
        <ele>1189.77</ele>
        <time>2019-04-05T12:50:40Z</time>
      </trkpt>
      <trkpt lat="60.3672" lon="7.63792">
        <ele>1190.25</ele>
        <time>2019-04-05T12:50:41Z</time>
      </trkpt>
      <trkpt lat="60.36723" lon="7.6379">
        <ele>1190.25</ele>
        <time>2019-04-05T12:50:42Z</time>
      </trkpt>
      <trkpt lat="60.36726" lon="7.63788">
        <ele>1190.25</ele>
        <time>2019-04-05T12:50:43Z</time>
      </trkpt>
      <trkpt lat="60.36729" lon="7.63785">
        <ele>1190.73</ele>
        <time>2019-04-05T12:50:44Z</time>
      </trkpt>
      <trkpt lat="60.36732" lon="7.63783">
        <ele>1190.73</ele>
        <time>2019-04-05T12:50:45Z</time>
      </trkpt>
      <trkpt lat="60.36735" lon="7.63781">
        <ele>1191.21</ele>
        <time>2019-04-05T12:50:46Z</time>
      </trkpt>
      <trkpt lat="60.36756" lon="7.63754">
        <ele>1194.09</ele>
        <time>2019-04-05T12:50:55Z</time>
      </trkpt>
      <trkpt lat="60.36773" lon="7.63739">
        <ele>1196.02</ele>
        <time>2019-04-05T12:51:00Z</time>
      </trkpt>
      <trkpt lat="60.36803" lon="7.63721">
        <ele>1198.9</ele>
        <time>2019-04-05T12:51:09Z</time>
      </trkpt>
      <trkpt lat="60.36825" lon="7.63712">
        <ele>1200.34</ele>
        <time>2019-04-05T12:51:15Z</time>
      </trkpt>
      <trkpt lat="60.36828" lon="7.6371">
        <ele>1200.34</ele>
        <time>2019-04-05T12:51:16Z</time>
      </trkpt>
      <trkpt lat="60.36832" lon="7.63709">
        <ele>1199.86</ele>
        <time>2019-04-05T12:51:17Z</time>
      </trkpt>
      <trkpt lat="60.36836" lon="7.63707">
        <ele>1199.86</ele>
        <time>2019-04-05T12:51:18Z</time>
      </trkpt>
      <trkpt lat="60.36839" lon="7.63703">
        <ele>1199.86</ele>
        <time>2019-04-05T12:51:19Z</time>
      </trkpt>
      <trkpt lat="60.36842" lon="7.63699">
        <ele>1199.86</ele>
        <time>2019-04-05T12:51:20Z</time>
      </trkpt>
      <trkpt lat="60.36846" lon="7.63694">
        <ele>1200.34</ele>
        <time>2019-04-05T12:51:21Z</time>
      </trkpt>
      <trkpt lat="60.3685" lon="7.63691">
        <ele>1200.34</ele>
        <time>2019-04-05T12:51:22Z</time>
      </trkpt>
      <trkpt lat="60.36863" lon="7.63682">
        <ele>1200.82</ele>
        <time>2019-04-05T12:51:25Z</time>
      </trkpt>
      <trkpt lat="60.36866" lon="7.63681">
        <ele>1200.82</ele>
        <time>2019-04-05T12:51:26Z</time>
      </trkpt>
      <trkpt lat="60.36878" lon="7.6368">
        <ele>1201.79</ele>
        <time>2019-04-05T12:51:29Z</time>
      </trkpt>
      <trkpt lat="60.36881" lon="7.63678">
        <ele>1201.79</ele>
        <time>2019-04-05T12:51:30Z</time>
      </trkpt>
      <trkpt lat="60.36883" lon="7.63676">
        <ele>1202.75</ele>
        <time>2019-04-05T12:51:31Z</time>
      </trkpt>
      <trkpt lat="60.36886" lon="7.63672">
        <ele>1202.75</ele>
        <time>2019-04-05T12:51:32Z</time>
      </trkpt>
      <trkpt lat="60.36888" lon="7.63669">
        <ele>1203.23</ele>
        <time>2019-04-05T12:51:33Z</time>
      </trkpt>
      <trkpt lat="60.36915" lon="7.63641">
        <ele>1205.63</ele>
        <time>2019-04-05T12:51:43Z</time>
      </trkpt>
      <trkpt lat="60.36942" lon="7.63645">
        <ele>1207.07</ele>
        <time>2019-04-05T12:51:52Z</time>
      </trkpt>
      <trkpt lat="60.36973" lon="7.63655">
        <ele>1207.07</ele>
        <time>2019-04-05T12:52:04Z</time>
      </trkpt>
      <trkpt lat="60.37002" lon="7.63679">
        <ele>1207.07</ele>
        <time>2019-04-05T12:52:15Z</time>
      </trkpt>
      <trkpt lat="60.37008" lon="7.63685">
        <ele>1205.63</ele>
        <time>2019-04-05T12:52:17Z</time>
      </trkpt>
      <trkpt lat="60.37034" lon="7.63699">
        <ele>1203.71</ele>
        <time>2019-04-05T12:52:27Z</time>
      </trkpt>
      <trkpt lat="60.37072" lon="7.6371">
        <ele>1203.23</ele>
        <time>2019-04-05T12:52:39Z</time>
      </trkpt>
      <trkpt lat="60.37093" lon="7.63721">
        <ele>1203.23</ele>
        <time>2019-04-05T12:52:45Z</time>
      </trkpt>
      <trkpt lat="60.37119" lon="7.63733">
        <ele>1202.75</ele>
        <time>2019-04-05T12:52:51Z</time>
      </trkpt>
      <trkpt lat="60.37134" lon="7.63741">
        <ele>1202.27</ele>
        <time>2019-04-05T12:52:54Z</time>
      </trkpt>
      <trkpt lat="60.3715" lon="7.63747">
        <ele>1199.86</ele>
        <time>2019-04-05T12:52:57Z</time>
      </trkpt>
      <trkpt lat="60.37155" lon="7.63749">
        <ele>1199.86</ele>
        <time>2019-04-05T12:52:58Z</time>
      </trkpt>
      <trkpt lat="60.37164" lon="7.63754">
        <ele>1199.38</ele>
        <time>2019-04-05T12:53:00Z</time>
      </trkpt>
      <trkpt lat="60.3718" lon="7.63758">
        <ele>1198.42</ele>
        <time>2019-04-05T12:53:05Z</time>
      </trkpt>
      <trkpt lat="60.37188" lon="7.63757">
        <ele>1198.42</ele>
        <time>2019-04-05T12:53:17Z</time>
      </trkpt>
      <trkpt lat="60.37195" lon="7.63752">
        <ele>1199.86</ele>
        <time>2019-04-05T12:53:22Z</time>
      </trkpt>
      <trkpt lat="60.37207" lon="7.63739">
        <ele>1199.86</ele>
        <time>2019-04-05T12:53:26Z</time>
      </trkpt>
      <trkpt lat="60.37231" lon="7.63736">
        <ele>1200.82</ele>
        <time>2019-04-05T12:53:33Z</time>
      </trkpt>
      <trkpt lat="60.37254" lon="7.63716">
        <ele>1201.3</ele>
        <time>2019-04-05T12:53:41Z</time>
      </trkpt>
      <trkpt lat="60.37262" lon="7.63715">
        <ele>1201.79</ele>
        <time>2019-04-05T12:53:43Z</time>
      </trkpt>
      <trkpt lat="60.37268" lon="7.63708">
        <ele>1200.34</ele>
        <time>2019-04-05T12:53:45Z</time>
      </trkpt>
      <trkpt lat="60.37273" lon="7.63705">
        <ele>1200.82</ele>
        <time>2019-04-05T12:53:46Z</time>
      </trkpt>
      <trkpt lat="60.37281" lon="7.63701">
        <ele>1200.82</ele>
        <time>2019-04-05T12:53:48Z</time>
      </trkpt>
      <trkpt lat="60.37293" lon="7.63684">
        <ele>1202.75</ele>
        <time>2019-04-05T12:53:53Z</time>
      </trkpt>
      <trkpt lat="60.3732" lon="7.63647">
        <ele>1203.23</ele>
        <time>2019-04-05T12:54:04Z</time>
      </trkpt>
      <trkpt lat="60.37331" lon="7.63629">
        <ele>1204.19</ele>
        <time>2019-04-05T12:54:08Z</time>
      </trkpt>
      <trkpt lat="60.37354" lon="7.63597">
        <ele>1206.59</ele>
        <time>2019-04-05T12:54:16Z</time>
      </trkpt>
      <trkpt lat="60.37366" lon="7.63579">
        <ele>1207.55</ele>
        <time>2019-04-05T12:54:21Z</time>
      </trkpt>
      <trkpt lat="60.3737" lon="7.63573">
        <ele>1207.55</ele>
        <time>2019-04-05T12:54:23Z</time>
      </trkpt>
      <trkpt lat="60.3738" lon="7.63555">
        <ele>1209</ele>
        <time>2019-04-05T12:54:29Z</time>
      </trkpt>
      <trkpt lat="60.37399" lon="7.6351">
        <ele>1211.4</ele>
        <time>2019-04-05T12:54:41Z</time>
      </trkpt>
      <trkpt lat="60.37417" lon="7.63485">
        <ele>1214.76</ele>
        <time>2019-04-05T12:54:50Z</time>
      </trkpt>
      <trkpt lat="60.37435" lon="7.63457">
        <ele>1217.17</ele>
        <time>2019-04-05T12:55:01Z</time>
      </trkpt>
      <trkpt lat="60.37444" lon="7.63441">
        <ele>1219.09</ele>
        <time>2019-04-05T12:55:06Z</time>
      </trkpt>
      <trkpt lat="60.37451" lon="7.63427">
        <ele>1220.05</ele>
        <time>2019-04-05T12:55:12Z</time>
      </trkpt>
      <trkpt lat="60.37455" lon="7.63419">
        <ele>1221.01</ele>
        <time>2019-04-05T12:55:16Z</time>
      </trkpt>
      <trkpt lat="60.37464" lon="7.63404">
        <ele>1222.45</ele>
        <time>2019-04-05T12:55:23Z</time>
      </trkpt>
      <trkpt lat="60.37483" lon="7.63377">
        <ele>1225.34</ele>
        <time>2019-04-05T12:55:33Z</time>
      </trkpt>
      <trkpt lat="60.37485" lon="7.63376">
        <ele>1225.34</ele>
        <time>2019-04-05T12:55:34Z</time>
      </trkpt>
      <trkpt lat="60.37494" lon="7.63366">
        <ele>1226.78</ele>
        <time>2019-04-05T12:55:44Z</time>
      </trkpt>
      <trkpt lat="60.37491" lon="7.63365">
        <ele>1227.26</ele>
        <time>2019-04-05T12:55:55Z</time>
      </trkpt>
      <trkpt lat="60.37481" lon="7.63363">
        <ele>1225.82</ele>
        <time>2019-04-05T12:56:01Z</time>
      </trkpt>
      <trkpt lat="60.37478" lon="7.63351">
        <ele>1226.3</ele>
        <time>2019-04-05T12:56:11Z</time>
      </trkpt>
      <trkpt lat="60.3748" lon="7.63352">
        <ele>1226.3</ele>
        <time>2019-04-05T12:56:44Z</time>
      </trkpt>
      <trkpt lat="60.3748" lon="7.63352">
        <ele>1226.3</ele>
        <time>2019-04-05T12:57:11Z</time>
      </trkpt>
      <trkpt lat="60.37479" lon="7.63345">
        <ele>1226.78</ele>
        <time>2019-04-05T12:57:27Z</time>
      </trkpt>
      <trkpt lat="60.37473" lon="7.63351">
        <ele>1226.78</ele>
        <time>2019-04-05T12:57:31Z</time>
      </trkpt>
      <trkpt lat="60.37466" lon="7.63394">
        <ele>1222.93</ele>
        <time>2019-04-05T12:57:38Z</time>
      </trkpt>
      <trkpt lat="60.37465" lon="7.63408">
        <ele>1221.97</ele>
        <time>2019-04-05T12:57:41Z</time>
      </trkpt>
      <trkpt lat="60.37464" lon="7.63396">
        <ele>1222.45</ele>
        <time>2019-04-05T12:57:48Z</time>
      </trkpt>
      <trkpt lat="60.37465" lon="7.63392">
        <ele>1222.45</ele>
        <time>2019-04-05T12:57:49Z</time>
      </trkpt>
      <trkpt lat="60.37473" lon="7.6338">
        <ele>1224.38</ele>
        <time>2019-04-05T12:57:59Z</time>
      </trkpt>
      <trkpt lat="60.37472" lon="7.6338">
        <ele>1224.38</ele>
        <time>2019-04-05T12:58:00Z</time>
      </trkpt>
      <trkpt lat="60.37476" lon="7.63363">
        <ele>1225.34</ele>
        <time>2019-04-05T12:58:06Z</time>
      </trkpt>
      <trkpt lat="60.37488" lon="7.63314">
        <ele>1228.22</ele>
        <time>2019-04-05T12:58:18Z</time>
      </trkpt>
      <trkpt lat="60.37498" lon="7.63253">
        <ele>1230.14</ele>
        <time>2019-04-05T12:58:28Z</time>
      </trkpt>
      <trkpt lat="60.37503" lon="7.6323">
        <ele>1232.07</ele>
        <time>2019-04-05T12:58:32Z</time>
      </trkpt>
      <trkpt lat="60.3751" lon="7.63209">
        <ele>1233.03</ele>
        <time>2019-04-05T12:58:35Z</time>
      </trkpt>
      <trkpt lat="60.37514" lon="7.632">
        <ele>1234.47</ele>
        <time>2019-04-05T12:58:37Z</time>
      </trkpt>
      <trkpt lat="60.37521" lon="7.63181">
        <ele>1235.43</ele>
        <time>2019-04-05T12:58:41Z</time>
      </trkpt>
      <trkpt lat="60.37527" lon="7.63174">
        <ele>1236.39</ele>
        <time>2019-04-05T12:58:43Z</time>
      </trkpt>
      <trkpt lat="60.37532" lon="7.63162">
        <ele>1237.35</ele>
        <time>2019-04-05T12:58:48Z</time>
      </trkpt>
      <trkpt lat="60.37537" lon="7.63147">
        <ele>1238.8</ele>
        <time>2019-04-05T12:58:58Z</time>
      </trkpt>
      <trkpt lat="60.37535" lon="7.63148">
        <ele>1238.8</ele>
        <time>2019-04-05T12:59:26Z</time>
      </trkpt>
      <trkpt lat="60.37535" lon="7.63146">
        <ele>1238.8</ele>
        <time>2019-04-05T12:59:42Z</time>
      </trkpt>
      <trkpt lat="60.37526" lon="7.63155">
        <ele>1234.47</ele>
        <time>2019-04-05T12:59:46Z</time>
      </trkpt>
      <trkpt lat="60.37524" lon="7.63163">
        <ele>1233.51</ele>
        <time>2019-04-05T12:59:47Z</time>
      </trkpt>
      <trkpt lat="60.37511" lon="7.6322">
        <ele>1231.59</ele>
        <time>2019-04-05T12:59:55Z</time>
      </trkpt>
      <trkpt lat="60.37509" lon="7.63232">
        <ele>1232.55</ele>
        <time>2019-04-05T12:59:57Z</time>
      </trkpt>
      <trkpt lat="60.37504" lon="7.63258">
        <ele>1231.11</ele>
        <time>2019-04-05T13:00:01Z</time>
      </trkpt>
      <trkpt lat="60.37492" lon="7.6332">
        <ele>1227.74</ele>
        <time>2019-04-05T13:00:11Z</time>
      </trkpt>
      <trkpt lat="60.37484" lon="7.63372">
        <ele>1224.86</ele>
        <time>2019-04-05T13:00:19Z</time>
      </trkpt>
      <trkpt lat="60.3747" lon="7.63451">
        <ele>1221.49</ele>
        <time>2019-04-05T13:00:31Z</time>
      </trkpt>
      <trkpt lat="60.37459" lon="7.63514">
        <ele>1219.09</ele>
        <time>2019-04-05T13:00:41Z</time>
      </trkpt>
      <trkpt lat="60.3744" lon="7.63598">
        <ele>1216.21</ele>
        <time>2019-04-05T13:00:54Z</time>
      </trkpt>
      <trkpt lat="60.37438" lon="7.63605">
        <ele>1215.24</ele>
        <time>2019-04-05T13:00:55Z</time>
      </trkpt>
      <trkpt lat="60.37417" lon="7.63686">
        <ele>1212.36</ele>
        <time>2019-04-05T13:01:05Z</time>
      </trkpt>
      <trkpt lat="60.37412" lon="7.63703">
        <ele>1212.36</ele>
        <time>2019-04-05T13:01:07Z</time>
      </trkpt>
      <trkpt lat="60.37407" lon="7.63719">
        <ele>1211.4</ele>
        <time>2019-04-05T13:01:09Z</time>
      </trkpt>
      <trkpt lat="60.37396" lon="7.63748">
        <ele>1208.51</ele>
        <time>2019-04-05T13:01:13Z</time>
      </trkpt>
      <trkpt lat="60.3739" lon="7.63764">
        <ele>1206.59</ele>
        <time>2019-04-05T13:01:15Z</time>
      </trkpt>
      <trkpt lat="60.37385" lon="7.63779">
        <ele>1208.51</ele>
        <time>2019-04-05T13:01:17Z</time>
      </trkpt>
      <trkpt lat="60.37375" lon="7.63808">
        <ele>1207.07</ele>
        <time>2019-04-05T13:01:21Z</time>
      </trkpt>
      <trkpt lat="60.37373" lon="7.63816">
        <ele>1207.07</ele>
        <time>2019-04-05T13:01:22Z</time>
      </trkpt>
      <trkpt lat="60.37364" lon="7.63843">
        <ele>1208.51</ele>
        <time>2019-04-05T13:01:26Z</time>
      </trkpt>
      <trkpt lat="60.37357" lon="7.63864">
        <ele>1206.11</ele>
        <time>2019-04-05T13:01:29Z</time>
      </trkpt>
      <trkpt lat="60.37352" lon="7.63877">
        <ele>1206.11</ele>
        <time>2019-04-05T13:01:31Z</time>
      </trkpt>
      <trkpt lat="60.37343" lon="7.63897">
        <ele>1205.15</ele>
        <time>2019-04-05T13:01:34Z</time>
      </trkpt>
      <trkpt lat="60.37314" lon="7.63979">
        <ele>1203.23</ele>
        <time>2019-04-05T13:01:47Z</time>
      </trkpt>
      <trkpt lat="60.37296" lon="7.64034">
        <ele>1201.3</ele>
        <time>2019-04-05T13:01:57Z</time>
      </trkpt>
      <trkpt lat="60.37271" lon="7.64089">
        <ele>1200.34</ele>
        <time>2019-04-05T13:02:06Z</time>
      </trkpt>
      <trkpt lat="60.37242" lon="7.64138">
        <ele>1199.86</ele>
        <time>2019-04-05T13:02:16Z</time>
      </trkpt>
      <trkpt lat="60.37234" lon="7.64152">
        <ele>1199.86</ele>
        <time>2019-04-05T13:02:19Z</time>
      </trkpt>
      <trkpt lat="60.37204" lon="7.64214">
        <ele>1197.94</ele>
        <time>2019-04-05T13:02:31Z</time>
      </trkpt>
      <trkpt lat="60.37201" lon="7.64219">
        <ele>1197.94</ele>
        <time>2019-04-05T13:02:32Z</time>
      </trkpt>
      <trkpt lat="60.37169" lon="7.64294">
        <ele>1195.06</ele>
        <time>2019-04-05T13:02:44Z</time>
      </trkpt>
      <trkpt lat="60.37148" lon="7.64333">
        <ele>1194.09</ele>
        <time>2019-04-05T13:02:53Z</time>
      </trkpt>
      <trkpt lat="60.37118" lon="7.64383">
        <ele>1193.13</ele>
        <time>2019-04-05T13:03:04Z</time>
      </trkpt>
      <trkpt lat="60.37099" lon="7.64411">
        <ele>1192.65</ele>
        <time>2019-04-05T13:03:10Z</time>
      </trkpt>
      <trkpt lat="60.37082" lon="7.64432">
        <ele>1192.17</ele>
        <time>2019-04-05T13:03:15Z</time>
      </trkpt>
      <trkpt lat="60.37068" lon="7.64449">
        <ele>1192.17</ele>
        <time>2019-04-05T13:03:19Z</time>
      </trkpt>
      <trkpt lat="60.37041" lon="7.64474">
        <ele>1189.77</ele>
        <time>2019-04-05T13:03:27Z</time>
      </trkpt>
      <trkpt lat="60.37049" lon="7.64461">
        <ele>1190.25</ele>
        <time>2019-04-05T13:03:31Z</time>
      </trkpt>
      <trkpt lat="60.37064" lon="7.64448">
        <ele>1191.69</ele>
        <time>2019-04-05T13:03:37Z</time>
      </trkpt>
      <trkpt lat="60.37085" lon="7.64432">
        <ele>1192.17</ele>
        <time>2019-04-05T13:03:47Z</time>
      </trkpt>
      <trkpt lat="60.37105" lon="7.64415">
        <ele>1192.65</ele>
        <time>2019-04-05T13:04:00Z</time>
      </trkpt>
      <trkpt lat="60.37126" lon="7.64401">
        <ele>1192.65</ele>
        <time>2019-04-05T13:04:11Z</time>
      </trkpt>
      <trkpt lat="60.37147" lon="7.64386">
        <ele>1193.61</ele>
        <time>2019-04-05T13:04:24Z</time>
      </trkpt>
      <trkpt lat="60.37164" lon="7.64367">
        <ele>1194.58</ele>
        <time>2019-04-05T13:04:35Z</time>
      </trkpt>
      <trkpt lat="60.37179" lon="7.64357">
        <ele>1195.06</ele>
        <time>2019-04-05T13:04:48Z</time>
      </trkpt>
      <trkpt lat="60.37189" lon="7.64342">
        <ele>1195.54</ele>
        <time>2019-04-05T13:04:58Z</time>
      </trkpt>
      <trkpt lat="60.37195" lon="7.64334">
        <ele>1196.02</ele>
        <time>2019-04-05T13:05:03Z</time>
      </trkpt>
      <trkpt lat="60.37198" lon="7.64331">
        <ele>1196.02</ele>
        <time>2019-04-05T13:05:05Z</time>
      </trkpt>
      <trkpt lat="60.37206" lon="7.64319">
        <ele>1196.98</ele>
        <time>2019-04-05T13:05:12Z</time>
      </trkpt>
      <trkpt lat="60.37214" lon="7.64309">
        <ele>1197.94</ele>
        <time>2019-04-05T13:05:19Z</time>
      </trkpt>
      <trkpt lat="60.37222" lon="7.64295">
        <ele>1198.42</ele>
        <time>2019-04-05T13:05:28Z</time>
      </trkpt>
      <trkpt lat="60.37227" lon="7.64285">
        <ele>1198.9</ele>
        <time>2019-04-05T13:05:32Z</time>
      </trkpt>
      <trkpt lat="60.37248" lon="7.64261">
        <ele>1200.34</ele>
        <time>2019-04-05T13:05:45Z</time>
      </trkpt>
      <trkpt lat="60.37269" lon="7.6423">
        <ele>1201.3</ele>
        <time>2019-04-05T13:05:56Z</time>
      </trkpt>
      <trkpt lat="60.37277" lon="7.64224">
        <ele>1201.79</ele>
        <time>2019-04-05T13:06:00Z</time>
      </trkpt>
      <trkpt lat="60.37291" lon="7.64207">
        <ele>1202.27</ele>
        <time>2019-04-05T13:06:07Z</time>
      </trkpt>
      <trkpt lat="60.37306" lon="7.64192">
        <ele>1202.75</ele>
        <time>2019-04-05T13:06:14Z</time>
      </trkpt>
      <trkpt lat="60.37314" lon="7.6418">
        <ele>1203.71</ele>
        <time>2019-04-05T13:06:23Z</time>
      </trkpt>
      <trkpt lat="60.37328" lon="7.64154">
        <ele>1204.67</ele>
        <time>2019-04-05T13:06:35Z</time>
      </trkpt>
      <trkpt lat="60.37346" lon="7.64125">
        <ele>1206.11</ele>
        <time>2019-04-05T13:06:47Z</time>
      </trkpt>
      <trkpt lat="60.37348" lon="7.64123">
        <ele>1206.59</ele>
        <time>2019-04-05T13:06:49Z</time>
      </trkpt>
      <trkpt lat="60.37358" lon="7.64108">
        <ele>1207.07</ele>
        <time>2019-04-05T13:07:00Z</time>
      </trkpt>
      <trkpt lat="60.37366" lon="7.64098">
        <ele>1208.03</ele>
        <time>2019-04-05T13:07:05Z</time>
      </trkpt>
      <trkpt lat="60.37379" lon="7.64077">
        <ele>1209</ele>
        <time>2019-04-05T13:07:14Z</time>
      </trkpt>
      <trkpt lat="60.37406" lon="7.64037">
        <ele>1210.44</ele>
        <time>2019-04-05T13:07:27Z</time>
      </trkpt>
      <trkpt lat="60.37426" lon="7.63994">
        <ele>1211.4</ele>
        <time>2019-04-05T13:07:39Z</time>
      </trkpt>
      <trkpt lat="60.37426" lon="7.63989">
        <ele>1211.4</ele>
        <time>2019-04-05T13:07:40Z</time>
      </trkpt>
      <trkpt lat="60.3743" lon="7.63977">
        <ele>1212.36</ele>
        <time>2019-04-05T13:07:49Z</time>
      </trkpt>
      <trkpt lat="60.37432" lon="7.6397">
        <ele>1212.84</ele>
        <time>2019-04-05T13:07:54Z</time>
      </trkpt>
      <trkpt lat="60.3744" lon="7.63937">
        <ele>1214.76</ele>
        <time>2019-04-05T13:08:07Z</time>
      </trkpt>
      <trkpt lat="60.37457" lon="7.63901">
        <ele>1216.21</ele>
        <time>2019-04-05T13:08:17Z</time>
      </trkpt>
      <trkpt lat="60.37466" lon="7.63883">
        <ele>1217.65</ele>
        <time>2019-04-05T13:08:25Z</time>
      </trkpt>
      <trkpt lat="60.37472" lon="7.63866">
        <ele>1219.09</ele>
        <time>2019-04-05T13:08:30Z</time>
      </trkpt>
      <trkpt lat="60.37483" lon="7.63836">
        <ele>1221.01</ele>
        <time>2019-04-05T13:08:42Z</time>
      </trkpt>
      <trkpt lat="60.37492" lon="7.63803">
        <ele>1223.42</ele>
        <time>2019-04-05T13:08:52Z</time>
      </trkpt>
      <trkpt lat="60.37495" lon="7.63797">
        <ele>1224.38</ele>
        <time>2019-04-05T13:08:54Z</time>
      </trkpt>
      <trkpt lat="60.37505" lon="7.63773">
        <ele>1226.3</ele>
        <time>2019-04-05T13:09:04Z</time>
      </trkpt>
      <trkpt lat="60.37516" lon="7.63745">
        <ele>1228.7</ele>
        <time>2019-04-05T13:09:14Z</time>
      </trkpt>
      <trkpt lat="60.37528" lon="7.6371">
        <ele>1230.62</ele>
        <time>2019-04-05T13:09:26Z</time>
      </trkpt>
      <trkpt lat="60.37538" lon="7.63691">
        <ele>1232.55</ele>
        <time>2019-04-05T13:09:34Z</time>
      </trkpt>
      <trkpt lat="60.37541" lon="7.6368">
        <ele>1233.03</ele>
        <time>2019-04-05T13:09:38Z</time>
      </trkpt>
      <trkpt lat="60.37551" lon="7.63651">
        <ele>1234.47</ele>
        <time>2019-04-05T13:09:48Z</time>
      </trkpt>
      <trkpt lat="60.37564" lon="7.63618">
        <ele>1237.35</ele>
        <time>2019-04-05T13:09:59Z</time>
      </trkpt>
      <trkpt lat="60.37572" lon="7.63594">
        <ele>1238.32</ele>
        <time>2019-04-05T13:10:06Z</time>
      </trkpt>
      <trkpt lat="60.37579" lon="7.63574">
        <ele>1239.76</ele>
        <time>2019-04-05T13:10:17Z</time>
      </trkpt>
      <trkpt lat="60.37579" lon="7.63574">
        <ele>1239.76</ele>
        <time>2019-04-05T13:10:18Z</time>
      </trkpt>
      <trkpt lat="60.37574" lon="7.63586">
        <ele>1237.35</ele>
        <time>2019-04-05T13:10:22Z</time>
      </trkpt>
      <trkpt lat="60.37573" lon="7.63591">
        <ele>1236.39</ele>
        <time>2019-04-05T13:10:23Z</time>
      </trkpt>
      <trkpt lat="60.37568" lon="7.63632">
        <ele>1236.39</ele>
        <time>2019-04-05T13:10:35Z</time>
      </trkpt>
      <trkpt lat="60.37563" lon="7.63656">
        <ele>1233.99</ele>
        <time>2019-04-05T13:10:43Z</time>
      </trkpt>
      <trkpt lat="60.3756" lon="7.63675">
        <ele>1234.47</ele>
        <time>2019-04-05T13:10:50Z</time>
      </trkpt>
      <trkpt lat="60.3756" lon="7.63678">
        <ele>1236.39</ele>
        <time>2019-04-05T13:10:52Z</time>
      </trkpt>
      <trkpt lat="60.3756" lon="7.63684">
        <ele>1234.95</ele>
        <time>2019-04-05T13:10:56Z</time>
      </trkpt>
      <trkpt lat="60.37558" lon="7.63699">
        <ele>1234.95</ele>
        <time>2019-04-05T13:11:02Z</time>
      </trkpt>
      <trkpt lat="60.37558" lon="7.6371">
        <ele>1234.47</ele>
        <time>2019-04-05T13:11:07Z</time>
      </trkpt>
      <trkpt lat="60.3756" lon="7.63689">
        <ele>1235.91</ele>
        <time>2019-04-05T13:11:15Z</time>
      </trkpt>
      <trkpt lat="60.37565" lon="7.63667">
        <ele>1237.35</ele>
        <time>2019-04-05T13:11:23Z</time>
      </trkpt>
      <trkpt lat="60.37572" lon="7.63649">
        <ele>1238.8</ele>
        <time>2019-04-05T13:11:34Z</time>
      </trkpt>
      <trkpt lat="60.37575" lon="7.63643">
        <ele>1239.28</ele>
        <time>2019-04-05T13:11:43Z</time>
      </trkpt>
      <trkpt lat="60.37576" lon="7.6364">
        <ele>1239.28</ele>
        <time>2019-04-05T13:11:45Z</time>
      </trkpt>
      <trkpt lat="60.3759" lon="7.63613">
        <ele>1240.72</ele>
        <time>2019-04-05T13:11:59Z</time>
      </trkpt>
      <trkpt lat="60.37604" lon="7.63592">
        <ele>1243.12</ele>
        <time>2019-04-05T13:12:12Z</time>
      </trkpt>
      <trkpt lat="60.37613" lon="7.63572">
        <ele>1244.56</ele>
        <time>2019-04-05T13:12:23Z</time>
      </trkpt>
      <trkpt lat="60.37622" lon="7.63547">
        <ele>1246.49</ele>
        <time>2019-04-05T13:12:34Z</time>
      </trkpt>
      <trkpt lat="60.37626" lon="7.63534">
        <ele>1247.45</ele>
        <time>2019-04-05T13:12:44Z</time>
      </trkpt>
      <trkpt lat="60.37631" lon="7.63511">
        <ele>1248.89</ele>
        <time>2019-04-05T13:12:53Z</time>
      </trkpt>
      <trkpt lat="60.37641" lon="7.63482">
        <ele>1252.25</ele>
        <time>2019-04-05T13:13:01Z</time>
      </trkpt>
      <trkpt lat="60.37644" lon="7.63475">
        <ele>1253.22</ele>
        <time>2019-04-05T13:13:07Z</time>
      </trkpt>
      <trkpt lat="60.37646" lon="7.63466">
        <ele>1253.7</ele>
        <time>2019-04-05T13:13:10Z</time>
      </trkpt>
      <trkpt lat="60.37647" lon="7.63463">
        <ele>1254.66</ele>
        <time>2019-04-05T13:13:14Z</time>
      </trkpt>
      <trkpt lat="60.37648" lon="7.63459">
        <ele>1255.14</ele>
        <time>2019-04-05T13:13:19Z</time>
      </trkpt>
      <trkpt lat="60.37649" lon="7.63444">
        <ele>1256.58</ele>
        <time>2019-04-05T13:13:28Z</time>
      </trkpt>
      <trkpt lat="60.37649" lon="7.63434">
        <ele>1258.02</ele>
        <time>2019-04-05T13:13:34Z</time>
      </trkpt>
      <trkpt lat="60.37649" lon="7.6343">
        <ele>1258.02</ele>
        <time>2019-04-05T13:13:36Z</time>
      </trkpt>
      <trkpt lat="60.3765" lon="7.63425">
        <ele>1258.5</ele>
        <time>2019-04-05T13:13:41Z</time>
      </trkpt>
      <trkpt lat="60.3765" lon="7.63418">
        <ele>1259.46</ele>
        <time>2019-04-05T13:13:46Z</time>
      </trkpt>
      <trkpt lat="60.37652" lon="7.63404">
        <ele>1260.91</ele>
        <time>2019-04-05T13:13:56Z</time>
      </trkpt>
      <trkpt lat="60.37653" lon="7.63398">
        <ele>1261.39</ele>
        <time>2019-04-05T13:14:05Z</time>
      </trkpt>
      <trkpt lat="60.37653" lon="7.63389">
        <ele>1261.39</ele>
        <time>2019-04-05T13:14:13Z</time>
      </trkpt>
      <trkpt lat="60.37653" lon="7.63385">
        <ele>1261.87</ele>
        <time>2019-04-05T13:14:15Z</time>
      </trkpt>
      <trkpt lat="60.37654" lon="7.63371">
        <ele>1263.31</ele>
        <time>2019-04-05T13:14:26Z</time>
      </trkpt>
      <trkpt lat="60.37654" lon="7.6337">
        <ele>1263.31</ele>
        <time>2019-04-05T13:14:31Z</time>
      </trkpt>
      <trkpt lat="60.37648" lon="7.63377">
        <ele>1259.46</ele>
        <time>2019-04-05T13:14:34Z</time>
      </trkpt>
      <trkpt lat="60.37645" lon="7.63393">
        <ele>1255.62</ele>
        <time>2019-04-05T13:14:36Z</time>
      </trkpt>
      <trkpt lat="60.37642" lon="7.63428">
        <ele>1253.22</ele>
        <time>2019-04-05T13:14:42Z</time>
      </trkpt>
      <trkpt lat="60.37642" lon="7.63425">
        <ele>1255.14</ele>
        <time>2019-04-05T13:14:49Z</time>
      </trkpt>
      <trkpt lat="60.37642" lon="7.63425">
        <ele>1253.22</ele>
        <time>2019-04-05T13:14:59Z</time>
      </trkpt>
      <trkpt lat="60.3764" lon="7.63425">
        <ele>1254.66</ele>
        <time>2019-04-05T13:15:06Z</time>
      </trkpt>
      <trkpt lat="60.37638" lon="7.63423">
        <ele>1249.37</ele>
        <time>2019-04-05T13:15:08Z</time>
      </trkpt>
      <trkpt lat="60.37637" lon="7.63423">
        <ele>1251.77</ele>
        <time>2019-04-05T13:15:09Z</time>
      </trkpt>
      <trkpt lat="60.37635" lon="7.63422">
        <ele>1254.66</ele>
        <time>2019-04-05T13:15:11Z</time>
      </trkpt>
      <trkpt lat="60.37632" lon="7.63429">
        <ele>1249.85</ele>
        <time>2019-04-05T13:15:17Z</time>
      </trkpt>
      <trkpt lat="60.37632" lon="7.63428">
        <ele>1258.02</ele>
        <time>2019-04-05T13:15:18Z</time>
      </trkpt>
      <trkpt lat="60.37632" lon="7.63428">
        <ele>1255.62</ele>
        <time>2019-04-05T13:15:19Z</time>
      </trkpt>
      <trkpt lat="60.37632" lon="7.63426">
        <ele>1252.25</ele>
        <time>2019-04-05T13:15:20Z</time>
      </trkpt>
      <trkpt lat="60.37633" lon="7.63426">
        <ele>1253.7</ele>
        <time>2019-04-05T13:15:21Z</time>
      </trkpt>
      <trkpt lat="60.37636" lon="7.63425">
        <ele>1257.06</ele>
        <time>2019-04-05T13:15:28Z</time>
      </trkpt>
      <trkpt lat="60.37637" lon="7.63425">
        <ele>1253.7</ele>
        <time>2019-04-05T13:15:29Z</time>
      </trkpt>
      <trkpt lat="60.37639" lon="7.63425">
        <ele>1258.98</ele>
        <time>2019-04-05T13:15:31Z</time>
      </trkpt>
      <trkpt lat="60.37641" lon="7.63425">
        <ele>1253.22</ele>
        <time>2019-04-05T13:15:32Z</time>
      </trkpt>
      <trkpt lat="60.37642" lon="7.63426">
        <ele>1248.89</ele>
        <time>2019-04-05T13:15:46Z</time>
      </trkpt>
      <trkpt lat="60.37643" lon="7.63427">
        <ele>1259.46</ele>
        <time>2019-04-05T13:15:48Z</time>
      </trkpt>
      <trkpt lat="60.37643" lon="7.63426">
        <ele>1253.22</ele>
        <time>2019-04-05T13:15:49Z</time>
      </trkpt>
      <trkpt lat="60.37643" lon="7.63426">
        <ele>1253.7</ele>
        <time>2019-04-05T13:15:54Z</time>
      </trkpt>
      <trkpt lat="60.37642" lon="7.63427">
        <ele>1258.02</ele>
        <time>2019-04-05T13:16:03Z</time>
      </trkpt>
      <trkpt lat="60.37641" lon="7.63427">
        <ele>1253.7</ele>
        <time>2019-04-05T13:16:04Z</time>
      </trkpt>
      <trkpt lat="60.37642" lon="7.63428">
        <ele>1252.74</ele>
        <time>2019-04-05T13:16:20Z</time>
      </trkpt>
      <trkpt lat="60.37643" lon="7.63427">
        <ele>1255.14</ele>
        <time>2019-04-05T13:16:25Z</time>
      </trkpt>
      <trkpt lat="60.37644" lon="7.63428">
        <ele>1254.18</ele>
        <time>2019-04-05T13:17:02Z</time>
      </trkpt>
      <trkpt lat="60.37643" lon="7.63428">
        <ele>1254.18</ele>
        <time>2019-04-05T13:17:39Z</time>
      </trkpt>
      <trkpt lat="60.37643" lon="7.63427">
        <ele>1254.18</ele>
        <time>2019-04-05T13:18:24Z</time>
      </trkpt>
      <trkpt lat="60.37642" lon="7.63424">
        <ele>1254.18</ele>
        <time>2019-04-05T13:19:09Z</time>
      </trkpt>
      <trkpt lat="60.37642" lon="7.63425">
        <ele>1254.18</ele>
        <time>2019-04-05T13:19:55Z</time>
      </trkpt>
      <trkpt lat="60.37643" lon="7.63424">
        <ele>1254.18</ele>
        <time>2019-04-05T13:20:39Z</time>
      </trkpt>
      <trkpt lat="60.37644" lon="7.63426">
        <ele>1254.18</ele>
        <time>2019-04-05T13:21:14Z</time>
      </trkpt>
      <trkpt lat="60.37644" lon="7.63426">
        <ele>1254.18</ele>
        <time>2019-04-05T13:21:47Z</time>
      </trkpt>
      <trkpt lat="60.37645" lon="7.63426">
        <ele>1254.18</ele>
        <time>2019-04-05T13:22:30Z</time>
      </trkpt>
      <trkpt lat="60.37645" lon="7.63424">
        <ele>1255.62</ele>
        <time>2019-04-05T13:22:58Z</time>
      </trkpt>
      <trkpt lat="60.37644" lon="7.63424">
        <ele>1255.62</ele>
        <time>2019-04-05T13:23:32Z</time>
      </trkpt>
      <trkpt lat="60.37642" lon="7.63426">
        <ele>1255.62</ele>
        <time>2019-04-05T13:24:07Z</time>
      </trkpt>
      <trkpt lat="60.37642" lon="7.63426">
        <ele>1255.62</ele>
        <time>2019-04-05T13:24:43Z</time>
      </trkpt>
      <trkpt lat="60.37641" lon="7.63429">
        <ele>1255.62</ele>
        <time>2019-04-05T13:25:25Z</time>
      </trkpt>
      <trkpt lat="60.37641" lon="7.63429">
        <ele>1256.1</ele>
        <time>2019-04-05T13:25:59Z</time>
      </trkpt>
      <trkpt lat="60.37639" lon="7.63428">
        <ele>1256.1</ele>
        <time>2019-04-05T13:26:33Z</time>
      </trkpt>
      <trkpt lat="60.3764" lon="7.6343">
        <ele>1256.1</ele>
        <time>2019-04-05T13:27:07Z</time>
      </trkpt>
      <trkpt lat="60.37641" lon="7.6343">
        <ele>1256.1</ele>
        <time>2019-04-05T13:27:42Z</time>
      </trkpt>
      <trkpt lat="60.37641" lon="7.63428">
        <ele>1256.58</ele>
        <time>2019-04-05T13:28:21Z</time>
      </trkpt>
      <trkpt lat="60.37641" lon="7.63428">
        <ele>1257.54</ele>
        <time>2019-04-05T13:28:45Z</time>
      </trkpt>
      <trkpt lat="60.37641" lon="7.63428">
        <ele>1257.54</ele>
        <time>2019-04-05T13:28:46Z</time>
      </trkpt>
      <trkpt lat="60.37637" lon="7.63431">
        <ele>1257.54</ele>
        <time>2019-04-05T13:28:59Z</time>
      </trkpt>
      <trkpt lat="60.37638" lon="7.63431">
        <ele>1257.54</ele>
        <time>2019-04-05T13:29:12Z</time>
      </trkpt>
      <trkpt lat="60.37642" lon="7.63427">
        <ele>1258.5</ele>
        <time>2019-04-05T13:29:24Z</time>
      </trkpt>
      <trkpt lat="60.37643" lon="7.63428">
        <ele>1258.5</ele>
        <time>2019-04-05T13:29:35Z</time>
      </trkpt>
      <trkpt lat="60.37642" lon="7.63426">
        <ele>1258.5</ele>
        <time>2019-04-05T13:29:49Z</time>
      </trkpt>
      <trkpt lat="60.37642" lon="7.63427">
        <ele>1256.58</ele>
        <time>2019-04-05T13:29:51Z</time>
      </trkpt>
      <trkpt lat="60.37642" lon="7.63428">
        <ele>1257.54</ele>
        <time>2019-04-05T13:30:00Z</time>
      </trkpt>
      <trkpt lat="60.37642" lon="7.63427">
        <ele>1257.54</ele>
        <time>2019-04-05T13:30:15Z</time>
      </trkpt>
      <trkpt lat="60.37639" lon="7.63428">
        <ele>1257.54</ele>
        <time>2019-04-05T13:30:29Z</time>
      </trkpt>
      <trkpt lat="60.37638" lon="7.63429">
        <ele>1257.54</ele>
        <time>2019-04-05T13:30:46Z</time>
      </trkpt>
      <trkpt lat="60.3764" lon="7.63428">
        <ele>1258.02</ele>
        <time>2019-04-05T13:31:03Z</time>
      </trkpt>
      <trkpt lat="60.3764" lon="7.63427">
        <ele>1258.5</ele>
        <time>2019-04-05T13:31:12Z</time>
      </trkpt>
      <trkpt lat="60.37639" lon="7.63429">
        <ele>1258.5</ele>
        <time>2019-04-05T13:31:14Z</time>
      </trkpt>
      <trkpt lat="60.37639" lon="7.63446">
        <ele>1257.06</ele>
        <time>2019-04-05T13:31:23Z</time>
      </trkpt>
      <trkpt lat="60.37637" lon="7.63446">
        <ele>1256.58</ele>
        <time>2019-04-05T13:31:42Z</time>
      </trkpt>
      <trkpt lat="60.37637" lon="7.63443">
        <ele>1255.62</ele>
        <time>2019-04-05T13:31:55Z</time>
      </trkpt>
      <trkpt lat="60.37638" lon="7.63437">
        <ele>1257.06</ele>
        <time>2019-04-05T13:32:14Z</time>
      </trkpt>
      <trkpt lat="60.37638" lon="7.63437">
        <ele>1257.06</ele>
        <time>2019-04-05T13:32:15Z</time>
      </trkpt>
      <trkpt lat="60.37638" lon="7.63436">
        <ele>1257.06</ele>
        <time>2019-04-05T13:32:16Z</time>
      </trkpt>
      <trkpt lat="60.37634" lon="7.63447">
        <ele>1253.22</ele>
        <time>2019-04-05T13:32:20Z</time>
      </trkpt>
      <trkpt lat="60.37633" lon="7.63459">
        <ele>1251.77</ele>
        <time>2019-04-05T13:32:22Z</time>
      </trkpt>
      <trkpt lat="60.37631" lon="7.63465">
        <ele>1251.77</ele>
        <time>2019-04-05T13:32:23Z</time>
      </trkpt>
      <trkpt lat="60.37621" lon="7.6351">
        <ele>1246.49</ele>
        <time>2019-04-05T13:32:29Z</time>
      </trkpt>
      <trkpt lat="60.37607" lon="7.63549">
        <ele>1242.64</ele>
        <time>2019-04-05T13:32:33Z</time>
      </trkpt>
      <trkpt lat="60.376" lon="7.63569">
        <ele>1240.72</ele>
        <time>2019-04-05T13:32:35Z</time>
      </trkpt>
      <trkpt lat="60.37576" lon="7.63641">
        <ele>1238.32</ele>
        <time>2019-04-05T13:32:43Z</time>
      </trkpt>
      <trkpt lat="60.37557" lon="7.63717">
        <ele>1234.47</ele>
        <time>2019-04-05T13:32:52Z</time>
      </trkpt>
      <trkpt lat="60.37555" lon="7.63726">
        <ele>1234.47</ele>
        <time>2019-04-05T13:32:53Z</time>
      </trkpt>
      <trkpt lat="60.37542" lon="7.6379">
        <ele>1230.62</ele>
        <time>2019-04-05T13:33:01Z</time>
      </trkpt>
      <trkpt lat="60.37528" lon="7.63867">
        <ele>1227.74</ele>
        <time>2019-04-05T13:33:11Z</time>
      </trkpt>
      <trkpt lat="60.37515" lon="7.6395">
        <ele>1227.74</ele>
        <time>2019-04-05T13:33:25Z</time>
      </trkpt>
      <trkpt lat="60.37511" lon="7.63958">
        <ele>1228.22</ele>
        <time>2019-04-05T13:33:36Z</time>
      </trkpt>
      <trkpt lat="60.3751" lon="7.63959">
        <ele>1226.3</ele>
        <time>2019-04-05T13:33:39Z</time>
      </trkpt>
      <trkpt lat="60.37511" lon="7.63957">
        <ele>1225.34</ele>
        <time>2019-04-05T13:33:52Z</time>
      </trkpt>
      <trkpt lat="60.37512" lon="7.63956">
        <ele>1226.78</ele>
        <time>2019-04-05T13:34:02Z</time>
      </trkpt>
      <trkpt lat="60.37513" lon="7.63954">
        <ele>1224.86</ele>
        <time>2019-04-05T13:34:05Z</time>
      </trkpt>
      <trkpt lat="60.37514" lon="7.63951">
        <ele>1226.3</ele>
        <time>2019-04-05T13:34:43Z</time>
      </trkpt>
      <trkpt lat="60.37513" lon="7.63951">
        <ele>1225.82</ele>
        <time>2019-04-05T13:35:22Z</time>
      </trkpt>
      <trkpt lat="60.37515" lon="7.63952">
        <ele>1226.3</ele>
        <time>2019-04-05T13:36:04Z</time>
      </trkpt>
      <trkpt lat="60.37512" lon="7.63953">
        <ele>1226.3</ele>
        <time>2019-04-05T13:36:44Z</time>
      </trkpt>
      <trkpt lat="60.37512" lon="7.63955">
        <ele>1226.3</ele>
        <time>2019-04-05T13:37:23Z</time>
      </trkpt>
      <trkpt lat="60.37512" lon="7.63955">
        <ele>1226.78</ele>
        <time>2019-04-05T13:37:34Z</time>
      </trkpt>
      <trkpt lat="60.37511" lon="7.63954">
        <ele>1228.22</ele>
        <time>2019-04-05T13:37:37Z</time>
      </trkpt>
      <trkpt lat="60.37509" lon="7.63954">
        <ele>1228.7</ele>
        <time>2019-04-05T13:37:49Z</time>
      </trkpt>
      <trkpt lat="60.37509" lon="7.63953">
        <ele>1228.7</ele>
        <time>2019-04-05T13:38:12Z</time>
      </trkpt>
      <trkpt lat="60.37509" lon="7.63952">
        <ele>1228.7</ele>
        <time>2019-04-05T13:38:25Z</time>
      </trkpt>
      <trkpt lat="60.37509" lon="7.63954">
        <ele>1227.26</ele>
        <time>2019-04-05T13:38:49Z</time>
      </trkpt>
      <trkpt lat="60.3751" lon="7.63954">
        <ele>1227.26</ele>
        <time>2019-04-05T13:38:51Z</time>
      </trkpt>
      <trkpt lat="60.37511" lon="7.63948">
        <ele>1227.26</ele>
        <time>2019-04-05T13:38:55Z</time>
      </trkpt>
      <trkpt lat="60.37516" lon="7.63935">
        <ele>1228.7</ele>
        <time>2019-04-05T13:39:00Z</time>
      </trkpt>
      <trkpt lat="60.3753" lon="7.63899">
        <ele>1230.14</ele>
        <time>2019-04-05T13:39:10Z</time>
      </trkpt>
      <trkpt lat="60.37537" lon="7.63887">
        <ele>1232.07</ele>
        <time>2019-04-05T13:39:16Z</time>
      </trkpt>
      <trkpt lat="60.37547" lon="7.63868">
        <ele>1233.51</ele>
        <time>2019-04-05T13:39:23Z</time>
      </trkpt>
      <trkpt lat="60.37552" lon="7.6385">
        <ele>1234.47</ele>
        <time>2019-04-05T13:39:28Z</time>
      </trkpt>
      <trkpt lat="60.37567" lon="7.6382">
        <ele>1236.87</ele>
        <time>2019-04-05T13:39:37Z</time>
      </trkpt>
      <trkpt lat="60.37577" lon="7.63802">
        <ele>1238.8</ele>
        <time>2019-04-05T13:39:47Z</time>
      </trkpt>
      <trkpt lat="60.37583" lon="7.63785">
        <ele>1240.24</ele>
        <time>2019-04-05T13:39:55Z</time>
      </trkpt>
      <trkpt lat="60.37589" lon="7.63775">
        <ele>1242.16</ele>
        <time>2019-04-05T13:40:02Z</time>
      </trkpt>
      <trkpt lat="60.37582" lon="7.63787">
        <ele>1242.16</ele>
        <time>2019-04-05T13:40:06Z</time>
      </trkpt>
      <trkpt lat="60.37578" lon="7.63809">
        <ele>1240.24</ele>
        <time>2019-04-05T13:40:09Z</time>
      </trkpt>
      <trkpt lat="60.37571" lon="7.63854">
        <ele>1237.83</ele>
        <time>2019-04-05T13:40:15Z</time>
      </trkpt>
      <trkpt lat="60.37553" lon="7.63931">
        <ele>1234.47</ele>
        <time>2019-04-05T13:40:27Z</time>
      </trkpt>
      <trkpt lat="60.37542" lon="7.63991">
        <ele>1231.11</ele>
        <time>2019-04-05T13:40:37Z</time>
      </trkpt>
      <trkpt lat="60.3753" lon="7.64058">
        <ele>1228.7</ele>
        <time>2019-04-05T13:40:51Z</time>
      </trkpt>
      <trkpt lat="60.37522" lon="7.64116">
        <ele>1224.86</ele>
        <time>2019-04-05T13:41:02Z</time>
      </trkpt>
      <trkpt lat="60.37521" lon="7.64119">
        <ele>1224.86</ele>
        <time>2019-04-05T13:41:03Z</time>
      </trkpt>
      <trkpt lat="60.37521" lon="7.64123">
        <ele>1224.86</ele>
        <time>2019-04-05T13:41:04Z</time>
      </trkpt>
      <trkpt lat="60.37516" lon="7.6412">
        <ele>1224.38</ele>
        <time>2019-04-05T13:41:08Z</time>
      </trkpt>
      <trkpt lat="60.3752" lon="7.64099">
        <ele>1225.82</ele>
        <time>2019-04-05T13:41:15Z</time>
      </trkpt>
      <trkpt lat="60.3752" lon="7.64096">
        <ele>1226.3</ele>
        <time>2019-04-05T13:41:17Z</time>
      </trkpt>
      <trkpt lat="60.37523" lon="7.64083">
        <ele>1227.26</ele>
        <time>2019-04-05T13:41:23Z</time>
      </trkpt>
      <trkpt lat="60.37528" lon="7.64069">
        <ele>1228.22</ele>
        <time>2019-04-05T13:41:28Z</time>
      </trkpt>
      <trkpt lat="60.37531" lon="7.64059">
        <ele>1229.18</ele>
        <time>2019-04-05T13:41:33Z</time>
      </trkpt>
      <trkpt lat="60.37541" lon="7.64037">
        <ele>1230.62</ele>
        <time>2019-04-05T13:41:45Z</time>
      </trkpt>
      <trkpt lat="60.37549" lon="7.64023">
        <ele>1231.59</ele>
        <time>2019-04-05T13:41:55Z</time>
      </trkpt>
      <trkpt lat="60.3756" lon="7.64008">
        <ele>1233.51</ele>
        <time>2019-04-05T13:42:07Z</time>
      </trkpt>
      <trkpt lat="60.37565" lon="7.63999">
        <ele>1233.99</ele>
        <time>2019-04-05T13:42:11Z</time>
      </trkpt>
      <trkpt lat="60.37578" lon="7.63977">
        <ele>1234.95</ele>
        <time>2019-04-05T13:42:19Z</time>
      </trkpt>
      <trkpt lat="60.37595" lon="7.63946">
        <ele>1237.83</ele>
        <time>2019-04-05T13:42:32Z</time>
      </trkpt>
      <trkpt lat="60.37601" lon="7.63935">
        <ele>1238.32</ele>
        <time>2019-04-05T13:42:36Z</time>
      </trkpt>
      <trkpt lat="60.37606" lon="7.63926">
        <ele>1238.8</ele>
        <time>2019-04-05T13:42:39Z</time>
      </trkpt>
      <trkpt lat="60.37608" lon="7.63923">
        <ele>1239.28</ele>
        <time>2019-04-05T13:42:40Z</time>
      </trkpt>
      <trkpt lat="60.37609" lon="7.63922">
        <ele>1239.28</ele>
        <time>2019-04-05T13:42:41Z</time>
      </trkpt>
      <trkpt lat="60.3761" lon="7.63919">
        <ele>1239.76</ele>
        <time>2019-04-05T13:42:42Z</time>
      </trkpt>
      <trkpt lat="60.37611" lon="7.63917">
        <ele>1239.76</ele>
        <time>2019-04-05T13:42:43Z</time>
      </trkpt>
      <trkpt lat="60.37619" lon="7.63905">
        <ele>1240.72</ele>
        <time>2019-04-05T13:42:50Z</time>
      </trkpt>
      <trkpt lat="60.37623" lon="7.63897">
        <ele>1241.68</ele>
        <time>2019-04-05T13:42:55Z</time>
      </trkpt>
      <trkpt lat="60.37625" lon="7.63893">
        <ele>1242.16</ele>
        <time>2019-04-05T13:42:59Z</time>
      </trkpt>
      <trkpt lat="60.3763" lon="7.6388">
        <ele>1243.6</ele>
        <time>2019-04-05T13:43:06Z</time>
      </trkpt>
      <trkpt lat="60.37639" lon="7.63859">
        <ele>1245.53</ele>
        <time>2019-04-05T13:43:15Z</time>
      </trkpt>
      <trkpt lat="60.37645" lon="7.63846">
        <ele>1246.97</ele>
        <time>2019-04-05T13:43:20Z</time>
      </trkpt>
      <trkpt lat="60.37648" lon="7.63842">
        <ele>1247.93</ele>
        <time>2019-04-05T13:43:22Z</time>
      </trkpt>
      <trkpt lat="60.37659" lon="7.63822">
        <ele>1249.37</ele>
        <time>2019-04-05T13:43:32Z</time>
      </trkpt>
      <trkpt lat="60.37662" lon="7.63815">
        <ele>1249.37</ele>
        <time>2019-04-05T13:43:34Z</time>
      </trkpt>
      <trkpt lat="60.37663" lon="7.63811">
        <ele>1249.85</ele>
        <time>2019-04-05T13:43:38Z</time>
      </trkpt>
      <trkpt lat="60.37658" lon="7.63864">
        <ele>1246.01</ele>
        <time>2019-04-05T13:43:49Z</time>
      </trkpt>
      <trkpt lat="60.37659" lon="7.63869">
        <ele>1246.01</ele>
        <time>2019-04-05T13:43:50Z</time>
      </trkpt>
      <trkpt lat="60.3766" lon="7.63884">
        <ele>1244.56</ele>
        <time>2019-04-05T13:43:53Z</time>
      </trkpt>
      <trkpt lat="60.37665" lon="7.63925">
        <ele>1241.68</ele>
        <time>2019-04-05T13:44:01Z</time>
      </trkpt>
      <trkpt lat="60.37672" lon="7.63982">
        <ele>1238.32</ele>
        <time>2019-04-05T13:44:13Z</time>
      </trkpt>
      <trkpt lat="60.37673" lon="7.63985">
        <ele>1238.32</ele>
        <time>2019-04-05T13:44:14Z</time>
      </trkpt>
      <trkpt lat="60.37681" lon="7.64026">
        <ele>1235.91</ele>
        <time>2019-04-05T13:44:30Z</time>
      </trkpt>
      <trkpt lat="60.37679" lon="7.64029">
        <ele>1234.95</ele>
        <time>2019-04-05T13:44:32Z</time>
      </trkpt>
      <trkpt lat="60.37676" lon="7.64014">
        <ele>1237.35</ele>
        <time>2019-04-05T13:44:37Z</time>
      </trkpt>
      <trkpt lat="60.37675" lon="7.64">
        <ele>1237.83</ele>
        <time>2019-04-05T13:44:41Z</time>
      </trkpt>
      <trkpt lat="60.3768" lon="7.63965">
        <ele>1241.2</ele>
        <time>2019-04-05T13:44:50Z</time>
      </trkpt>
      <trkpt lat="60.37684" lon="7.63954">
        <ele>1241.68</ele>
        <time>2019-04-05T13:44:53Z</time>
      </trkpt>
      <trkpt lat="60.37685" lon="7.63951">
        <ele>1242.64</ele>
        <time>2019-04-05T13:44:54Z</time>
      </trkpt>
      <trkpt lat="60.37686" lon="7.63949">
        <ele>1242.64</ele>
        <time>2019-04-05T13:44:55Z</time>
      </trkpt>
      <trkpt lat="60.37686" lon="7.63947">
        <ele>1243.12</ele>
        <time>2019-04-05T13:44:56Z</time>
      </trkpt>
      <trkpt lat="60.37688" lon="7.63944">
        <ele>1243.6</ele>
        <time>2019-04-05T13:44:57Z</time>
      </trkpt>
      <trkpt lat="60.37689" lon="7.63942">
        <ele>1243.6</ele>
        <time>2019-04-05T13:44:58Z</time>
      </trkpt>
      <trkpt lat="60.37693" lon="7.63936">
        <ele>1244.08</ele>
        <time>2019-04-05T13:45:02Z</time>
      </trkpt>
      <trkpt lat="60.37702" lon="7.63912">
        <ele>1246.49</ele>
        <time>2019-04-05T13:45:13Z</time>
      </trkpt>
      <trkpt lat="60.37711" lon="7.63891">
        <ele>1248.41</ele>
        <time>2019-04-05T13:45:22Z</time>
      </trkpt>
      <trkpt lat="60.37712" lon="7.6389">
        <ele>1248.41</ele>
        <time>2019-04-05T13:45:28Z</time>
      </trkpt>
      <trkpt lat="60.37713" lon="7.63885">
        <ele>1249.37</ele>
        <time>2019-04-05T13:45:33Z</time>
      </trkpt>
      <trkpt lat="60.37713" lon="7.63884">
        <ele>1249.85</ele>
        <time>2019-04-05T13:45:34Z</time>
      </trkpt>
      <trkpt lat="60.37714" lon="7.63879">
        <ele>1250.81</ele>
        <time>2019-04-05T13:45:36Z</time>
      </trkpt>
      <trkpt lat="60.37715" lon="7.63876">
        <ele>1250.81</ele>
        <time>2019-04-05T13:45:38Z</time>
      </trkpt>
      <trkpt lat="60.37718" lon="7.63872">
        <ele>1251.29</ele>
        <time>2019-04-05T13:45:40Z</time>
      </trkpt>
      <trkpt lat="60.37719" lon="7.63865">
        <ele>1252.25</ele>
        <time>2019-04-05T13:45:47Z</time>
      </trkpt>
      <trkpt lat="60.37718" lon="7.6387">
        <ele>1251.29</ele>
        <time>2019-04-05T13:45:49Z</time>
      </trkpt>
      <trkpt lat="60.3772" lon="7.6388">
        <ele>1252.25</ele>
        <time>2019-04-05T13:45:51Z</time>
      </trkpt>
      <trkpt lat="60.37721" lon="7.63887">
        <ele>1248.89</ele>
        <time>2019-04-05T13:45:52Z</time>
      </trkpt>
      <trkpt lat="60.37723" lon="7.63901">
        <ele>1247.93</ele>
        <time>2019-04-05T13:45:54Z</time>
      </trkpt>
      <trkpt lat="60.37738" lon="7.63947">
        <ele>1245.04</ele>
        <time>2019-04-05T13:46:07Z</time>
      </trkpt>
      <trkpt lat="60.37747" lon="7.63976">
        <ele>1242.64</ele>
        <time>2019-04-05T13:46:23Z</time>
      </trkpt>
      <trkpt lat="60.37751" lon="7.63989">
        <ele>1242.16</ele>
        <time>2019-04-05T13:46:36Z</time>
      </trkpt>
      <trkpt lat="60.37758" lon="7.64003">
        <ele>1241.68</ele>
        <time>2019-04-05T13:46:50Z</time>
      </trkpt>
      <trkpt lat="60.37758" lon="7.64003">
        <ele>1241.68</ele>
        <time>2019-04-05T13:46:51Z</time>
      </trkpt>
      <trkpt lat="60.37764" lon="7.64013">
        <ele>1241.68</ele>
        <time>2019-04-05T13:47:03Z</time>
      </trkpt>
      <trkpt lat="60.3777" lon="7.64024">
        <ele>1240.72</ele>
        <time>2019-04-05T13:47:15Z</time>
      </trkpt>
      <trkpt lat="60.37773" lon="7.64033">
        <ele>1241.2</ele>
        <time>2019-04-05T13:47:24Z</time>
      </trkpt>
      <trkpt lat="60.37774" lon="7.64034">
        <ele>1239.76</ele>
        <time>2019-04-05T13:47:26Z</time>
      </trkpt>
      <trkpt lat="60.37772" lon="7.64035">
        <ele>1238.8</ele>
        <time>2019-04-05T13:47:30Z</time>
      </trkpt>
      <trkpt lat="60.3777" lon="7.64029">
        <ele>1238.8</ele>
        <time>2019-04-05T13:47:32Z</time>
      </trkpt>
      <trkpt lat="60.3777" lon="7.64025">
        <ele>1240.24</ele>
        <time>2019-04-05T13:47:33Z</time>
      </trkpt>
      <trkpt lat="60.3777" lon="7.64024">
        <ele>1240.24</ele>
        <time>2019-04-05T13:47:34Z</time>
      </trkpt>
      <trkpt lat="60.37773" lon="7.6401">
        <ele>1242.16</ele>
        <time>2019-04-05T13:47:41Z</time>
      </trkpt>
      <trkpt lat="60.37776" lon="7.64">
        <ele>1243.6</ele>
        <time>2019-04-05T13:47:48Z</time>
      </trkpt>
      <trkpt lat="60.37778" lon="7.6399">
        <ele>1244.08</ele>
        <time>2019-04-05T13:47:53Z</time>
      </trkpt>
      <trkpt lat="60.37781" lon="7.63971">
        <ele>1245.53</ele>
        <time>2019-04-05T13:48:02Z</time>
      </trkpt>
      <trkpt lat="60.37782" lon="7.63963">
        <ele>1246.49</ele>
        <time>2019-04-05T13:48:07Z</time>
      </trkpt>
      <trkpt lat="60.37784" lon="7.63951">
        <ele>1247.45</ele>
        <time>2019-04-05T13:48:10Z</time>
      </trkpt>
      <trkpt lat="60.37789" lon="7.63934">
        <ele>1250.33</ele>
        <time>2019-04-05T13:48:17Z</time>
      </trkpt>
      <trkpt lat="60.37793" lon="7.63913">
        <ele>1251.77</ele>
        <time>2019-04-05T13:48:27Z</time>
      </trkpt>
      <trkpt lat="60.37795" lon="7.63897">
        <ele>1253.7</ele>
        <time>2019-04-05T13:48:33Z</time>
      </trkpt>
      <trkpt lat="60.37796" lon="7.63889">
        <ele>1255.14</ele>
        <time>2019-04-05T13:48:37Z</time>
      </trkpt>
      <trkpt lat="60.37796" lon="7.63884">
        <ele>1255.14</ele>
        <time>2019-04-05T13:48:40Z</time>
      </trkpt>
      <trkpt lat="60.37797" lon="7.63871">
        <ele>1257.06</ele>
        <time>2019-04-05T13:48:46Z</time>
      </trkpt>
      <trkpt lat="60.37799" lon="7.63853">
        <ele>1258.98</ele>
        <time>2019-04-05T13:48:53Z</time>
      </trkpt>
      <trkpt lat="60.378" lon="7.63837">
        <ele>1260.91</ele>
        <time>2019-04-05T13:48:58Z</time>
      </trkpt>
      <trkpt lat="60.37799" lon="7.63827">
        <ele>1262.83</ele>
        <time>2019-04-05T13:49:03Z</time>
      </trkpt>
      <trkpt lat="60.37798" lon="7.63818">
        <ele>1264.27</ele>
        <time>2019-04-05T13:49:07Z</time>
      </trkpt>
      <trkpt lat="60.37797" lon="7.63811">
        <ele>1265.23</ele>
        <time>2019-04-05T13:49:11Z</time>
      </trkpt>
      <trkpt lat="60.37796" lon="7.638">
        <ele>1266.67</ele>
        <time>2019-04-05T13:49:16Z</time>
      </trkpt>
      <trkpt lat="60.37797" lon="7.63781">
        <ele>1269.08</ele>
        <time>2019-04-05T13:49:22Z</time>
      </trkpt>
      <trkpt lat="60.37802" lon="7.63771">
        <ele>1271</ele>
        <time>2019-04-05T13:49:28Z</time>
      </trkpt>
      <trkpt lat="60.37805" lon="7.63762">
        <ele>1272.44</ele>
        <time>2019-04-05T13:49:32Z</time>
      </trkpt>
      <trkpt lat="60.37808" lon="7.63754">
        <ele>1273.88</ele>
        <time>2019-04-05T13:49:36Z</time>
      </trkpt>
      <trkpt lat="60.37816" lon="7.63734">
        <ele>1275.81</ele>
        <time>2019-04-05T13:49:44Z</time>
      </trkpt>
      <trkpt lat="60.37816" lon="7.63731">
        <ele>1276.29</ele>
        <time>2019-04-05T13:49:46Z</time>
      </trkpt>
      <trkpt lat="60.37822" lon="7.63724">
        <ele>1277.73</ele>
        <time>2019-04-05T13:49:51Z</time>
      </trkpt>
      <trkpt lat="60.37838" lon="7.63706">
        <ele>1280.13</ele>
        <time>2019-04-05T13:50:03Z</time>
      </trkpt>
      <trkpt lat="60.37838" lon="7.63706">
        <ele>1280.13</ele>
        <time>2019-04-05T13:50:04Z</time>
      </trkpt>
      <trkpt lat="60.37828" lon="7.63748">
        <ele>1280.61</ele>
        <time>2019-04-05T13:50:11Z</time>
      </trkpt>
      <trkpt lat="60.37831" lon="7.63766">
        <ele>1276.77</ele>
        <time>2019-04-05T13:50:13Z</time>
      </trkpt>
      <trkpt lat="60.37836" lon="7.63789">
        <ele>1272.44</ele>
        <time>2019-04-05T13:50:16Z</time>
      </trkpt>
      <trkpt lat="60.3784" lon="7.63821">
        <ele>1269.08</ele>
        <time>2019-04-05T13:50:20Z</time>
      </trkpt>
      <trkpt lat="60.37846" lon="7.6385">
        <ele>1265.71</ele>
        <time>2019-04-05T13:50:24Z</time>
      </trkpt>
      <trkpt lat="60.37849" lon="7.63862">
        <ele>1264.75</ele>
        <time>2019-04-05T13:50:26Z</time>
      </trkpt>
      <trkpt lat="60.37854" lon="7.63887">
        <ele>1262.83</ele>
        <time>2019-04-05T13:50:31Z</time>
      </trkpt>
      <trkpt lat="60.37857" lon="7.63895">
        <ele>1261.87</ele>
        <time>2019-04-05T13:50:37Z</time>
      </trkpt>
      <trkpt lat="60.37862" lon="7.63912">
        <ele>1261.87</ele>
        <time>2019-04-05T13:50:51Z</time>
      </trkpt>
      <trkpt lat="60.37856" lon="7.63917">
        <ele>1259.46</ele>
        <time>2019-04-05T13:50:55Z</time>
      </trkpt>
      <trkpt lat="60.37855" lon="7.63913">
        <ele>1259.46</ele>
        <time>2019-04-05T13:50:57Z</time>
      </trkpt>
      <trkpt lat="60.37854" lon="7.63906">
        <ele>1260.91</ele>
        <time>2019-04-05T13:50:59Z</time>
      </trkpt>
      <trkpt lat="60.37856" lon="7.63881">
        <ele>1263.31</ele>
        <time>2019-04-05T13:51:07Z</time>
      </trkpt>
      <trkpt lat="60.37858" lon="7.63868">
        <ele>1265.23</ele>
        <time>2019-04-05T13:51:11Z</time>
      </trkpt>
      <trkpt lat="60.37865" lon="7.63843">
        <ele>1268.6</ele>
        <time>2019-04-05T13:51:20Z</time>
      </trkpt>
      <trkpt lat="60.37867" lon="7.63833">
        <ele>1270.52</ele>
        <time>2019-04-05T13:51:23Z</time>
      </trkpt>
      <trkpt lat="60.37873" lon="7.63813">
        <ele>1273.4</ele>
        <time>2019-04-05T13:51:30Z</time>
      </trkpt>
      <trkpt lat="60.37875" lon="7.63805">
        <ele>1273.88</ele>
        <time>2019-04-05T13:51:34Z</time>
      </trkpt>
      <trkpt lat="60.37878" lon="7.63793">
        <ele>1274.85</ele>
        <time>2019-04-05T13:51:39Z</time>
      </trkpt>
      <trkpt lat="60.3788" lon="7.6378">
        <ele>1276.77</ele>
        <time>2019-04-05T13:51:42Z</time>
      </trkpt>
      <trkpt lat="60.37891" lon="7.63762">
        <ele>1279.65</ele>
        <time>2019-04-05T13:51:49Z</time>
      </trkpt>
      <trkpt lat="60.37897" lon="7.63757">
        <ele>1280.13</ele>
        <time>2019-04-05T13:51:52Z</time>
      </trkpt>
      <trkpt lat="60.37939" lon="7.63755">
        <ele>1282.54</ele>
        <time>2019-04-05T13:52:06Z</time>
      </trkpt>
      <trkpt lat="60.37971" lon="7.63792">
        <ele>1280.61</ele>
        <time>2019-04-05T13:52:17Z</time>
      </trkpt>
      <trkpt lat="60.37984" lon="7.63828">
        <ele>1276.77</ele>
        <time>2019-04-05T13:52:25Z</time>
      </trkpt>
      <trkpt lat="60.37987" lon="7.63839">
        <ele>1275.81</ele>
        <time>2019-04-05T13:52:28Z</time>
      </trkpt>
      <trkpt lat="60.37984" lon="7.63846">
        <ele>1274.36</ele>
        <time>2019-04-05T13:52:35Z</time>
      </trkpt>
      <trkpt lat="60.37983" lon="7.63851">
        <ele>1274.36</ele>
        <time>2019-04-05T13:52:37Z</time>
      </trkpt>
      <trkpt lat="60.37981" lon="7.63913">
        <ele>1271.48</ele>
        <time>2019-04-05T13:52:54Z</time>
      </trkpt>
      <trkpt lat="60.37983" lon="7.63964">
        <ele>1268.12</ele>
        <time>2019-04-05T13:53:04Z</time>
      </trkpt>
      <trkpt lat="60.37984" lon="7.64006">
        <ele>1264.27</ele>
        <time>2019-04-05T13:53:10Z</time>
      </trkpt>
      <trkpt lat="60.37984" lon="7.64014">
        <ele>1264.27</ele>
        <time>2019-04-05T13:53:11Z</time>
      </trkpt>
      <trkpt lat="60.37985" lon="7.6407">
        <ele>1260.91</ele>
        <time>2019-04-05T13:53:19Z</time>
      </trkpt>
      <trkpt lat="60.3799" lon="7.64118">
        <ele>1257.54</ele>
        <time>2019-04-05T13:53:31Z</time>
      </trkpt>
      <trkpt lat="60.3799" lon="7.64125">
        <ele>1257.06</ele>
        <time>2019-04-05T13:53:36Z</time>
      </trkpt>
      <trkpt lat="60.3799" lon="7.64182">
        <ele>1254.66</ele>
        <time>2019-04-05T13:53:51Z</time>
      </trkpt>
      <trkpt lat="60.37985" lon="7.64222">
        <ele>1253.22</ele>
        <time>2019-04-05T13:54:05Z</time>
      </trkpt>
      <trkpt lat="60.37984" lon="7.64229">
        <ele>1252.25</ele>
        <time>2019-04-05T13:54:06Z</time>
      </trkpt>
      <trkpt lat="60.37978" lon="7.64253">
        <ele>1252.25</ele>
        <time>2019-04-05T13:54:09Z</time>
      </trkpt>
      <trkpt lat="60.37972" lon="7.6429">
        <ele>1250.33</ele>
        <time>2019-04-05T13:54:13Z</time>
      </trkpt>
      <trkpt lat="60.3797" lon="7.64309">
        <ele>1249.37</ele>
        <time>2019-04-05T13:54:15Z</time>
      </trkpt>
      <trkpt lat="60.37965" lon="7.6431">
        <ele>1246.49</ele>
        <time>2019-04-05T13:54:18Z</time>
      </trkpt>
      <trkpt lat="60.37965" lon="7.64308">
        <ele>1247.45</ele>
        <time>2019-04-05T13:54:20Z</time>
      </trkpt>
      <trkpt lat="60.37967" lon="7.64307">
        <ele>1247.93</ele>
        <time>2019-04-05T13:54:30Z</time>
      </trkpt>
      <trkpt lat="60.37968" lon="7.64306">
        <ele>1247.93</ele>
        <time>2019-04-05T13:54:31Z</time>
      </trkpt>
      <trkpt lat="60.37974" lon="7.643">
        <ele>1249.37</ele>
        <time>2019-04-05T13:54:41Z</time>
      </trkpt>
      <trkpt lat="60.37975" lon="7.643">
        <ele>1249.37</ele>
        <time>2019-04-05T13:54:44Z</time>
      </trkpt>
      <trkpt lat="60.3799" lon="7.64282">
        <ele>1251.29</ele>
        <time>2019-04-05T13:54:56Z</time>
      </trkpt>
      <trkpt lat="60.37999" lon="7.64281">
        <ele>1251.77</ele>
        <time>2019-04-05T13:55:02Z</time>
      </trkpt>
      <trkpt lat="60.38006" lon="7.64275">
        <ele>1252.25</ele>
        <time>2019-04-05T13:55:06Z</time>
      </trkpt>
      <trkpt lat="60.38008" lon="7.64273">
        <ele>1252.25</ele>
        <time>2019-04-05T13:55:07Z</time>
      </trkpt>
      <trkpt lat="60.38011" lon="7.64272">
        <ele>1252.74</ele>
        <time>2019-04-05T13:55:08Z</time>
      </trkpt>
      <trkpt lat="60.38014" lon="7.64271">
        <ele>1252.74</ele>
        <time>2019-04-05T13:55:09Z</time>
      </trkpt>
      <trkpt lat="60.38054" lon="7.64275">
        <ele>1253.7</ele>
        <time>2019-04-05T13:55:23Z</time>
      </trkpt>
      <trkpt lat="60.38063" lon="7.64276">
        <ele>1253.7</ele>
        <time>2019-04-05T13:55:27Z</time>
      </trkpt>
      <trkpt lat="60.38062" lon="7.64275">
        <ele>1253.7</ele>
        <time>2019-04-05T13:55:31Z</time>
      </trkpt>
      <trkpt lat="60.38061" lon="7.6428">
        <ele>1253.7</ele>
        <time>2019-04-05T13:55:32Z</time>
      </trkpt>
      <trkpt lat="60.3806" lon="7.64286">
        <ele>1253.7</ele>
        <time>2019-04-05T13:55:33Z</time>
      </trkpt>
      <trkpt lat="60.38058" lon="7.64301">
        <ele>1253.7</ele>
        <time>2019-04-05T13:55:35Z</time>
      </trkpt>
      <trkpt lat="60.38055" lon="7.64344">
        <ele>1249.85</ele>
        <time>2019-04-05T13:55:40Z</time>
      </trkpt>
      <trkpt lat="60.38055" lon="7.64367">
        <ele>1248.41</ele>
        <time>2019-04-05T13:55:43Z</time>
      </trkpt>
      <trkpt lat="60.38052" lon="7.64373">
        <ele>1246.97</ele>
        <time>2019-04-05T13:55:45Z</time>
      </trkpt>
      <trkpt lat="60.38061" lon="7.64361">
        <ele>1248.89</ele>
        <time>2019-04-05T13:55:50Z</time>
      </trkpt>
      <trkpt lat="60.38073" lon="7.64359">
        <ele>1249.37</ele>
        <time>2019-04-05T13:55:54Z</time>
      </trkpt>
      <trkpt lat="60.38116" lon="7.64359">
        <ele>1250.33</ele>
        <time>2019-04-05T13:56:09Z</time>
      </trkpt>
      <trkpt lat="60.38155" lon="7.64354">
        <ele>1250.33</ele>
        <time>2019-04-05T13:56:19Z</time>
      </trkpt>
      <trkpt lat="60.3817" lon="7.64375">
        <ele>1249.85</ele>
        <time>2019-04-05T13:56:26Z</time>
      </trkpt>
      <trkpt lat="60.38183" lon="7.64401">
        <ele>1247.93</ele>
        <time>2019-04-05T13:56:41Z</time>
      </trkpt>
      <trkpt lat="60.38187" lon="7.64402">
        <ele>1247.93</ele>
        <time>2019-04-05T13:56:45Z</time>
      </trkpt>
      <trkpt lat="60.38189" lon="7.64403">
        <ele>1247.93</ele>
        <time>2019-04-05T13:56:46Z</time>
      </trkpt>
      <trkpt lat="60.38191" lon="7.64404">
        <ele>1247.93</ele>
        <time>2019-04-05T13:56:47Z</time>
      </trkpt>
      <trkpt lat="60.38188" lon="7.64426">
        <ele>1246.01</ele>
        <time>2019-04-05T13:56:55Z</time>
      </trkpt>
      <trkpt lat="60.38188" lon="7.64433">
        <ele>1245.53</ele>
        <time>2019-04-05T13:56:56Z</time>
      </trkpt>
      <trkpt lat="60.38189" lon="7.64448">
        <ele>1244.08</ele>
        <time>2019-04-05T13:56:58Z</time>
      </trkpt>
      <trkpt lat="60.38193" lon="7.64491">
        <ele>1240.24</ele>
        <time>2019-04-05T13:57:05Z</time>
      </trkpt>
      <trkpt lat="60.38193" lon="7.64496">
        <ele>1240.24</ele>
        <time>2019-04-05T13:57:06Z</time>
      </trkpt>
      <trkpt lat="60.38193" lon="7.64507">
        <ele>1238.8</ele>
        <time>2019-04-05T13:57:08Z</time>
      </trkpt>
      <trkpt lat="60.38191" lon="7.64513">
        <ele>1237.35</ele>
        <time>2019-04-05T13:57:10Z</time>
      </trkpt>
      <trkpt lat="60.3819" lon="7.64508">
        <ele>1239.28</ele>
        <time>2019-04-05T13:57:13Z</time>
      </trkpt>
      <trkpt lat="60.38193" lon="7.64505">
        <ele>1240.24</ele>
        <time>2019-04-05T13:57:14Z</time>
      </trkpt>
      <trkpt lat="60.38197" lon="7.64503">
        <ele>1240.72</ele>
        <time>2019-04-05T13:57:16Z</time>
      </trkpt>
      <trkpt lat="60.38219" lon="7.64503">
        <ele>1242.16</ele>
        <time>2019-04-05T13:57:27Z</time>
      </trkpt>
      <trkpt lat="60.38222" lon="7.64503">
        <ele>1242.16</ele>
        <time>2019-04-05T13:57:29Z</time>
      </trkpt>
      <trkpt lat="60.38223" lon="7.64501">
        <ele>1242.16</ele>
        <time>2019-04-05T13:57:30Z</time>
      </trkpt>
      <trkpt lat="60.38224" lon="7.645">
        <ele>1242.16</ele>
        <time>2019-04-05T13:57:31Z</time>
      </trkpt>
      <trkpt lat="60.38226" lon="7.64499">
        <ele>1242.16</ele>
        <time>2019-04-05T13:57:32Z</time>
      </trkpt>
      <trkpt lat="60.38228" lon="7.64497">
        <ele>1243.12</ele>
        <time>2019-04-05T13:57:33Z</time>
      </trkpt>
      <trkpt lat="60.38239" lon="7.64495">
        <ele>1244.56</ele>
        <time>2019-04-05T13:57:39Z</time>
      </trkpt>
      <trkpt lat="60.38256" lon="7.64473">
        <ele>1247.93</ele>
        <time>2019-04-05T13:57:49Z</time>
      </trkpt>
      <trkpt lat="60.38258" lon="7.64472">
        <ele>1247.93</ele>
        <time>2019-04-05T13:57:50Z</time>
      </trkpt>
      <trkpt lat="60.38273" lon="7.64457">
        <ele>1251.29</ele>
        <time>2019-04-05T13:57:59Z</time>
      </trkpt>
      <trkpt lat="60.38278" lon="7.6445">
        <ele>1252.74</ele>
        <time>2019-04-05T13:58:03Z</time>
      </trkpt>
      <trkpt lat="60.38282" lon="7.64445">
        <ele>1254.18</ele>
        <time>2019-04-05T13:58:08Z</time>
      </trkpt>
      <trkpt lat="60.38281" lon="7.64453">
        <ele>1253.7</ele>
        <time>2019-04-05T13:58:16Z</time>
      </trkpt>
      <trkpt lat="60.38281" lon="7.64469">
        <ele>1253.22</ele>
        <time>2019-04-05T13:58:18Z</time>
      </trkpt>
      <trkpt lat="60.38281" lon="7.64488">
        <ele>1251.77</ele>
        <time>2019-04-05T13:58:20Z</time>
      </trkpt>
      <trkpt lat="60.38283" lon="7.64515">
        <ele>1249.37</ele>
        <time>2019-04-05T13:58:23Z</time>
      </trkpt>
      <trkpt lat="60.38287" lon="7.64538">
        <ele>1246.01</ele>
        <time>2019-04-05T13:58:26Z</time>
      </trkpt>
      <trkpt lat="60.38289" lon="7.6455">
        <ele>1245.04</ele>
        <time>2019-04-05T13:58:28Z</time>
      </trkpt>
      <trkpt lat="60.38291" lon="7.64566">
        <ele>1243.12</ele>
        <time>2019-04-05T13:58:31Z</time>
      </trkpt>
      <trkpt lat="60.38294" lon="7.64588">
        <ele>1242.16</ele>
        <time>2019-04-05T13:58:35Z</time>
      </trkpt>
      <trkpt lat="60.38291" lon="7.64591">
        <ele>1238.32</ele>
        <time>2019-04-05T13:58:37Z</time>
      </trkpt>
      <trkpt lat="60.3829" lon="7.64587">
        <ele>1240.24</ele>
        <time>2019-04-05T13:58:38Z</time>
      </trkpt>
      <trkpt lat="60.38292" lon="7.64584">
        <ele>1240.72</ele>
        <time>2019-04-05T13:58:39Z</time>
      </trkpt>
      <trkpt lat="60.38293" lon="7.64579">
        <ele>1241.68</ele>
        <time>2019-04-05T13:58:41Z</time>
      </trkpt>
      <trkpt lat="60.38293" lon="7.64575">
        <ele>1241.68</ele>
        <time>2019-04-05T13:58:42Z</time>
      </trkpt>
      <trkpt lat="60.38293" lon="7.64572">
        <ele>1243.6</ele>
        <time>2019-04-05T13:58:49Z</time>
      </trkpt>
      <trkpt lat="60.38295" lon="7.64569">
        <ele>1243.6</ele>
        <time>2019-04-05T13:58:58Z</time>
      </trkpt>
      <trkpt lat="60.38296" lon="7.64566">
        <ele>1243.6</ele>
        <time>2019-04-05T13:59:00Z</time>
      </trkpt>
      <trkpt lat="60.38297" lon="7.64564">
        <ele>1244.08</ele>
        <time>2019-04-05T13:59:02Z</time>
      </trkpt>
      <trkpt lat="60.383" lon="7.64555">
        <ele>1245.04</ele>
        <time>2019-04-05T13:59:10Z</time>
      </trkpt>
      <trkpt lat="60.38303" lon="7.64544">
        <ele>1246.49</ele>
        <time>2019-04-05T13:59:15Z</time>
      </trkpt>
      <trkpt lat="60.38304" lon="7.64538">
        <ele>1246.49</ele>
        <time>2019-04-05T13:59:19Z</time>
      </trkpt>
      <trkpt lat="60.38306" lon="7.64519">
        <ele>1248.89</ele>
        <time>2019-04-05T13:59:25Z</time>
      </trkpt>
      <trkpt lat="60.38308" lon="7.64506">
        <ele>1250.33</ele>
        <time>2019-04-05T13:59:29Z</time>
      </trkpt>
      <trkpt lat="60.38311" lon="7.64489">
        <ele>1252.74</ele>
        <time>2019-04-05T13:59:34Z</time>
      </trkpt>
      <trkpt lat="60.38314" lon="7.64478">
        <ele>1254.18</ele>
        <time>2019-04-05T13:59:38Z</time>
      </trkpt>
      <trkpt lat="60.38318" lon="7.64463">
        <ele>1256.1</ele>
        <time>2019-04-05T13:59:42Z</time>
      </trkpt>
      <trkpt lat="60.3832" lon="7.64442">
        <ele>1258.98</ele>
        <time>2019-04-05T13:59:47Z</time>
      </trkpt>
      <trkpt lat="60.38327" lon="7.64411">
        <ele>1262.83</ele>
        <time>2019-04-05T13:59:56Z</time>
      </trkpt>
      <trkpt lat="60.38328" lon="7.64409">
        <ele>1262.83</ele>
        <time>2019-04-05T13:59:57Z</time>
      </trkpt>
      <trkpt lat="60.38336" lon="7.64378">
        <ele>1266.19</ele>
        <time>2019-04-05T14:00:05Z</time>
      </trkpt>
      <trkpt lat="60.38341" lon="7.64364">
        <ele>1267.64</ele>
        <time>2019-04-05T14:00:09Z</time>
      </trkpt>
      <trkpt lat="60.38348" lon="7.64344">
        <ele>1271</ele>
        <time>2019-04-05T14:00:15Z</time>
      </trkpt>
      <trkpt lat="60.38364" lon="7.64345">
        <ele>1270.52</ele>
        <time>2019-04-05T14:00:23Z</time>
      </trkpt>
      <trkpt lat="60.38397" lon="7.64372">
        <ele>1267.16</ele>
        <time>2019-04-05T14:00:32Z</time>
      </trkpt>
      <trkpt lat="60.38418" lon="7.64378">
        <ele>1266.19</ele>
        <time>2019-04-05T14:00:40Z</time>
      </trkpt>
      <trkpt lat="60.38429" lon="7.64369">
        <ele>1267.16</ele>
        <time>2019-04-05T14:00:49Z</time>
      </trkpt>
      <trkpt lat="60.38434" lon="7.64362">
        <ele>1267.64</ele>
        <time>2019-04-05T14:00:54Z</time>
      </trkpt>
      <trkpt lat="60.38465" lon="7.64365">
        <ele>1268.6</ele>
        <time>2019-04-05T14:01:07Z</time>
      </trkpt>
      <trkpt lat="60.38484" lon="7.64394">
        <ele>1265.71</ele>
        <time>2019-04-05T14:01:16Z</time>
      </trkpt>
      <trkpt lat="60.38486" lon="7.64395">
        <ele>1265.71</ele>
        <time>2019-04-05T14:01:17Z</time>
      </trkpt>
      <trkpt lat="60.3848" lon="7.64402">
        <ele>1264.27</ele>
        <time>2019-04-05T14:01:22Z</time>
      </trkpt>
      <trkpt lat="60.38476" lon="7.64438">
        <ele>1261.87</ele>
        <time>2019-04-05T14:01:27Z</time>
      </trkpt>
      <trkpt lat="60.38483" lon="7.64488">
        <ele>1258.5</ele>
        <time>2019-04-05T14:01:35Z</time>
      </trkpt>
      <trkpt lat="60.38483" lon="7.64494">
        <ele>1258.5</ele>
        <time>2019-04-05T14:01:36Z</time>
      </trkpt>
      <trkpt lat="60.38484" lon="7.64508">
        <ele>1257.06</ele>
        <time>2019-04-05T14:01:38Z</time>
      </trkpt>
      <trkpt lat="60.38487" lon="7.64551">
        <ele>1254.66</ele>
        <time>2019-04-05T14:01:44Z</time>
      </trkpt>
      <trkpt lat="60.38497" lon="7.64598">
        <ele>1251.29</ele>
        <time>2019-04-05T14:01:55Z</time>
      </trkpt>
      <trkpt lat="60.385" lon="7.64631">
        <ele>1248.89</ele>
        <time>2019-04-05T14:02:02Z</time>
      </trkpt>
      <trkpt lat="60.38503" lon="7.64665">
        <ele>1246.97</ele>
        <time>2019-04-05T14:02:08Z</time>
      </trkpt>
      <trkpt lat="60.38512" lon="7.64708">
        <ele>1245.53</ele>
        <time>2019-04-05T14:02:22Z</time>
      </trkpt>
      <trkpt lat="60.38515" lon="7.64742">
        <ele>1243.12</ele>
        <time>2019-04-05T14:02:29Z</time>
      </trkpt>
      <trkpt lat="60.3852" lon="7.64778">
        <ele>1239.76</ele>
        <time>2019-04-05T14:02:39Z</time>
      </trkpt>
      <trkpt lat="60.3852" lon="7.64784">
        <ele>1239.76</ele>
        <time>2019-04-05T14:02:40Z</time>
      </trkpt>
      <trkpt lat="60.38523" lon="7.64854">
        <ele>1236.87</ele>
        <time>2019-04-05T14:02:51Z</time>
      </trkpt>
      <trkpt lat="60.38528" lon="7.64896">
        <ele>1234.47</ele>
        <time>2019-04-05T14:03:00Z</time>
      </trkpt>
      <trkpt lat="60.3853" lon="7.64935">
        <ele>1232.07</ele>
        <time>2019-04-05T14:03:07Z</time>
      </trkpt>
      <trkpt lat="60.38535" lon="7.64978">
        <ele>1231.11</ele>
        <time>2019-04-05T14:03:17Z</time>
      </trkpt>
      <trkpt lat="60.3853" lon="7.64981">
        <ele>1228.22</ele>
        <time>2019-04-05T14:03:20Z</time>
      </trkpt>
      <trkpt lat="60.38528" lon="7.64973">
        <ele>1229.66</ele>
        <time>2019-04-05T14:03:23Z</time>
      </trkpt>
      <trkpt lat="60.38532" lon="7.64958">
        <ele>1232.07</ele>
        <time>2019-04-05T14:03:32Z</time>
      </trkpt>
      <trkpt lat="60.38532" lon="7.64944">
        <ele>1232.07</ele>
        <time>2019-04-05T14:03:36Z</time>
      </trkpt>
      <trkpt lat="60.38551" lon="7.6491">
        <ele>1235.91</ele>
        <time>2019-04-05T14:03:48Z</time>
      </trkpt>
      <trkpt lat="60.38555" lon="7.64906">
        <ele>1235.91</ele>
        <time>2019-04-05T14:03:51Z</time>
      </trkpt>
      <trkpt lat="60.38573" lon="7.64893">
        <ele>1236.87</ele>
        <time>2019-04-05T14:04:03Z</time>
      </trkpt>
      <trkpt lat="60.3858" lon="7.64887">
        <ele>1237.35</ele>
        <time>2019-04-05T14:04:08Z</time>
      </trkpt>
      <trkpt lat="60.38582" lon="7.64879">
        <ele>1237.35</ele>
        <time>2019-04-05T14:04:11Z</time>
      </trkpt>
      <trkpt lat="60.38583" lon="7.64875">
        <ele>1237.35</ele>
        <time>2019-04-05T14:04:12Z</time>
      </trkpt>
      <trkpt lat="60.38585" lon="7.64872">
        <ele>1237.83</ele>
        <time>2019-04-05T14:04:13Z</time>
      </trkpt>
      <trkpt lat="60.38591" lon="7.6485">
        <ele>1238.8</ele>
        <time>2019-04-05T14:04:17Z</time>
      </trkpt>
      <trkpt lat="60.38594" lon="7.64846">
        <ele>1239.28</ele>
        <time>2019-04-05T14:04:18Z</time>
      </trkpt>
      <trkpt lat="60.38596" lon="7.64843">
        <ele>1239.28</ele>
        <time>2019-04-05T14:04:19Z</time>
      </trkpt>
      <trkpt lat="60.38617" lon="7.64822">
        <ele>1240.24</ele>
        <time>2019-04-05T14:04:29Z</time>
      </trkpt>
      <trkpt lat="60.38662" lon="7.64832">
        <ele>1238.8</ele>
        <time>2019-04-05T14:04:42Z</time>
      </trkpt>
      <trkpt lat="60.38695" lon="7.64865">
        <ele>1235.43</ele>
        <time>2019-04-05T14:04:54Z</time>
      </trkpt>
      <trkpt lat="60.38714" lon="7.64909">
        <ele>1232.55</ele>
        <time>2019-04-05T14:05:04Z</time>
      </trkpt>
      <trkpt lat="60.38725" lon="7.64945">
        <ele>1229.66</ele>
        <time>2019-04-05T14:05:10Z</time>
      </trkpt>
      <trkpt lat="60.38739" lon="7.64982">
        <ele>1226.78</ele>
        <time>2019-04-05T14:05:17Z</time>
      </trkpt>
      <trkpt lat="60.38743" lon="7.64994">
        <ele>1225.82</ele>
        <time>2019-04-05T14:05:19Z</time>
      </trkpt>
      <trkpt lat="60.38751" lon="7.65011">
        <ele>1223.9</ele>
        <time>2019-04-05T14:05:22Z</time>
      </trkpt>
      <trkpt lat="60.38773" lon="7.65035">
        <ele>1219.57</ele>
        <time>2019-04-05T14:05:27Z</time>
      </trkpt>
      <trkpt lat="60.38795" lon="7.65056">
        <ele>1215.24</ele>
        <time>2019-04-05T14:05:31Z</time>
      </trkpt>
      <trkpt lat="60.38812" lon="7.65075">
        <ele>1211.88</ele>
        <time>2019-04-05T14:05:34Z</time>
      </trkpt>
      <trkpt lat="60.38828" lon="7.6509">
        <ele>1210.44</ele>
        <time>2019-04-05T14:05:37Z</time>
      </trkpt>
      <trkpt lat="60.38843" lon="7.65102">
        <ele>1208.51</ele>
        <time>2019-04-05T14:05:40Z</time>
      </trkpt>
      <trkpt lat="60.38872" lon="7.65125">
        <ele>1204.67</ele>
        <time>2019-04-05T14:05:46Z</time>
      </trkpt>
      <trkpt lat="60.38906" lon="7.65145">
        <ele>1202.75</ele>
        <time>2019-04-05T14:05:57Z</time>
      </trkpt>
      <trkpt lat="60.38907" lon="7.65144">
        <ele>1202.75</ele>
        <time>2019-04-05T14:05:59Z</time>
      </trkpt>
      <trkpt lat="60.38922" lon="7.65127">
        <ele>1202.75</ele>
        <time>2019-04-05T14:06:06Z</time>
      </trkpt>
      <trkpt lat="60.38933" lon="7.65131">
        <ele>1202.27</ele>
        <time>2019-04-05T14:06:14Z</time>
      </trkpt>
      <trkpt lat="60.38933" lon="7.65129">
        <ele>1202.75</ele>
        <time>2019-04-05T14:06:21Z</time>
      </trkpt>
      <trkpt lat="60.38927" lon="7.65139">
        <ele>1202.75</ele>
        <time>2019-04-05T14:06:29Z</time>
      </trkpt>
      <trkpt lat="60.38926" lon="7.6515">
        <ele>1201.79</ele>
        <time>2019-04-05T14:06:34Z</time>
      </trkpt>
      <trkpt lat="60.3892" lon="7.65162">
        <ele>1203.23</ele>
        <time>2019-04-05T14:06:39Z</time>
      </trkpt>
      <trkpt lat="60.38913" lon="7.65169">
        <ele>1203.71</ele>
        <time>2019-04-05T14:06:48Z</time>
      </trkpt>
      <trkpt lat="60.38898" lon="7.6518">
        <ele>1202.75</ele>
        <time>2019-04-05T14:06:59Z</time>
      </trkpt>
      <trkpt lat="60.38886" lon="7.65201">
        <ele>1203.71</ele>
        <time>2019-04-05T14:07:09Z</time>
      </trkpt>
      <trkpt lat="60.38883" lon="7.65188">
        <ele>1203.71</ele>
        <time>2019-04-05T14:07:16Z</time>
      </trkpt>
      <trkpt lat="60.38906" lon="7.65174">
        <ele>1204.19</ele>
        <time>2019-04-05T14:07:27Z</time>
      </trkpt>
      <trkpt lat="60.38942" lon="7.65172">
        <ele>1204.67</ele>
        <time>2019-04-05T14:07:39Z</time>
      </trkpt>
      <trkpt lat="60.38949" lon="7.65173">
        <ele>1203.71</ele>
        <time>2019-04-05T14:07:41Z</time>
      </trkpt>
      <trkpt lat="60.3898" lon="7.65173">
        <ele>1203.71</ele>
        <time>2019-04-05T14:07:53Z</time>
      </trkpt>
      <trkpt lat="60.3901" lon="7.65164">
        <ele>1203.71</ele>
        <time>2019-04-05T14:08:06Z</time>
      </trkpt>
      <trkpt lat="60.39028" lon="7.65163">
        <ele>1203.71</ele>
        <time>2019-04-05T14:08:13Z</time>
      </trkpt>
      <trkpt lat="60.39036" lon="7.65162">
        <ele>1203.71</ele>
        <time>2019-04-05T14:08:19Z</time>
      </trkpt>
      <trkpt lat="60.3904" lon="7.6516">
        <ele>1204.67</ele>
        <time>2019-04-05T14:08:27Z</time>
      </trkpt>
      <trkpt lat="60.39054" lon="7.65151">
        <ele>1205.63</ele>
        <time>2019-04-05T14:08:39Z</time>
      </trkpt>
      <trkpt lat="60.39054" lon="7.6515">
        <ele>1205.63</ele>
        <time>2019-04-05T14:08:40Z</time>
      </trkpt>
      <trkpt lat="60.39047" lon="7.65152">
        <ele>1205.63</ele>
        <time>2019-04-05T14:08:45Z</time>
      </trkpt>
      <trkpt lat="60.3903" lon="7.65202">
        <ele>1204.19</ele>
        <time>2019-04-05T14:08:53Z</time>
      </trkpt>
      <trkpt lat="60.3901" lon="7.65275">
        <ele>1202.27</ele>
        <time>2019-04-05T14:09:05Z</time>
      </trkpt>
      <trkpt lat="60.39005" lon="7.65296">
        <ele>1200.82</ele>
        <time>2019-04-05T14:09:10Z</time>
      </trkpt>
      <trkpt lat="60.38987" lon="7.65348">
        <ele>1199.86</ele>
        <time>2019-04-05T14:09:24Z</time>
      </trkpt>
      <trkpt lat="60.38985" lon="7.65356">
        <ele>1201.3</ele>
        <time>2019-04-05T14:09:26Z</time>
      </trkpt>
      <trkpt lat="60.38984" lon="7.65359">
        <ele>1201.3</ele>
        <time>2019-04-05T14:09:27Z</time>
      </trkpt>
      <trkpt lat="60.38981" lon="7.65358">
        <ele>1199.86</ele>
        <time>2019-04-05T14:09:29Z</time>
      </trkpt>
      <trkpt lat="60.38987" lon="7.65346">
        <ele>1201.79</ele>
        <time>2019-04-05T14:09:32Z</time>
      </trkpt>
      <trkpt lat="60.39029" lon="7.65332">
        <ele>1202.75</ele>
        <time>2019-04-05T14:09:44Z</time>
      </trkpt>
      <trkpt lat="60.39064" lon="7.65319">
        <ele>1202.75</ele>
        <time>2019-04-05T14:09:57Z</time>
      </trkpt>
      <trkpt lat="60.39067" lon="7.65317">
        <ele>1203.23</ele>
        <time>2019-04-05T14:09:59Z</time>
      </trkpt>
      <trkpt lat="60.39082" lon="7.65308">
        <ele>1203.71</ele>
        <time>2019-04-05T14:10:06Z</time>
      </trkpt>
      <trkpt lat="60.39114" lon="7.65305">
        <ele>1205.15</ele>
        <time>2019-04-05T14:10:22Z</time>
      </trkpt>
      <trkpt lat="60.39133" lon="7.65306">
        <ele>1205.15</ele>
        <time>2019-04-05T14:10:34Z</time>
      </trkpt>
      <trkpt lat="60.39154" lon="7.6532">
        <ele>1203.71</ele>
        <time>2019-04-05T14:10:43Z</time>
      </trkpt>
      <trkpt lat="60.39165" lon="7.65327">
        <ele>1203.71</ele>
        <time>2019-04-05T14:10:48Z</time>
      </trkpt>
      <trkpt lat="60.39163" lon="7.65322">
        <ele>1201.3</ele>
        <time>2019-04-05T14:10:53Z</time>
      </trkpt>
      <trkpt lat="60.39159" lon="7.65324">
        <ele>1202.27</ele>
        <time>2019-04-05T14:10:57Z</time>
      </trkpt>
      <trkpt lat="60.39136" lon="7.65359">
        <ele>1202.75</ele>
        <time>2019-04-05T14:11:08Z</time>
      </trkpt>
      <trkpt lat="60.39122" lon="7.65418">
        <ele>1201.79</ele>
        <time>2019-04-05T14:11:20Z</time>
      </trkpt>
      <trkpt lat="60.39105" lon="7.65489">
        <ele>1201.79</ele>
        <time>2019-04-05T14:11:33Z</time>
      </trkpt>
      <trkpt lat="60.39097" lon="7.65545">
        <ele>1198.9</ele>
        <time>2019-04-05T14:11:42Z</time>
      </trkpt>
      <trkpt lat="60.3909" lon="7.65606">
        <ele>1196.02</ele>
        <time>2019-04-05T14:11:52Z</time>
      </trkpt>
      <trkpt lat="60.39088" lon="7.65599">
        <ele>1197.46</ele>
        <time>2019-04-05T14:11:59Z</time>
      </trkpt>
      <trkpt lat="60.39108" lon="7.65594">
        <ele>1198.42</ele>
        <time>2019-04-05T14:12:10Z</time>
      </trkpt>
      <trkpt lat="60.39123" lon="7.65587">
        <ele>1198.42</ele>
        <time>2019-04-05T14:12:16Z</time>
      </trkpt>
      <trkpt lat="60.39151" lon="7.65577">
        <ele>1197.94</ele>
        <time>2019-04-05T14:12:27Z</time>
      </trkpt>
      <trkpt lat="60.39174" lon="7.65564">
        <ele>1198.9</ele>
        <time>2019-04-05T14:12:38Z</time>
      </trkpt>
      <trkpt lat="60.39181" lon="7.65552">
        <ele>1199.38</ele>
        <time>2019-04-05T14:12:49Z</time>
      </trkpt>
      <trkpt lat="60.39182" lon="7.65554">
        <ele>1199.38</ele>
        <time>2019-04-05T14:13:23Z</time>
      </trkpt>
      <trkpt lat="60.3918" lon="7.6555">
        <ele>1199.38</ele>
        <time>2019-04-05T14:13:35Z</time>
      </trkpt>
      <trkpt lat="60.39181" lon="7.65551">
        <ele>1199.38</ele>
        <time>2019-04-05T14:13:51Z</time>
      </trkpt>
      <trkpt lat="60.39182" lon="7.6555">
        <ele>1199.38</ele>
        <time>2019-04-05T14:14:13Z</time>
      </trkpt>
      <trkpt lat="60.39183" lon="7.65549">
        <ele>1197.94</ele>
        <time>2019-04-05T14:14:23Z</time>
      </trkpt>
      <trkpt lat="60.39182" lon="7.6555">
        <ele>1197.94</ele>
        <time>2019-04-05T14:14:37Z</time>
      </trkpt>
      <trkpt lat="60.39182" lon="7.65551">
        <ele>1199.38</ele>
        <time>2019-04-05T14:15:07Z</time>
      </trkpt>
      <trkpt lat="60.39182" lon="7.6555">
        <ele>1197.94</ele>
        <time>2019-04-05T14:15:09Z</time>
      </trkpt>
      <trkpt lat="60.39182" lon="7.65545">
        <ele>1199.38</ele>
        <time>2019-04-05T14:15:27Z</time>
      </trkpt>
      <trkpt lat="60.3918" lon="7.65538">
        <ele>1197.94</ele>
        <time>2019-04-05T14:15:34Z</time>
      </trkpt>
      <trkpt lat="60.39175" lon="7.65531">
        <ele>1197.94</ele>
        <time>2019-04-05T14:15:44Z</time>
      </trkpt>
      <trkpt lat="60.39171" lon="7.65522">
        <ele>1197.94</ele>
        <time>2019-04-05T14:15:55Z</time>
      </trkpt>
      <trkpt lat="60.3917" lon="7.65519">
        <ele>1198.9</ele>
        <time>2019-04-05T14:16:05Z</time>
      </trkpt>
      <trkpt lat="60.3917" lon="7.65518">
        <ele>1199.38</ele>
        <time>2019-04-05T14:16:18Z</time>
      </trkpt>
      <trkpt lat="60.39169" lon="7.65518">
        <ele>1199.38</ele>
        <time>2019-04-05T14:16:35Z</time>
      </trkpt>
      <trkpt lat="60.39166" lon="7.65522">
        <ele>1198.42</ele>
        <time>2019-04-05T14:17:17Z</time>
      </trkpt>
      <trkpt lat="60.39167" lon="7.65522">
        <ele>1198.42</ele>
        <time>2019-04-05T14:17:59Z</time>
      </trkpt>
      <trkpt lat="60.39168" lon="7.6552">
        <ele>1198.42</ele>
        <time>2019-04-05T14:18:35Z</time>
      </trkpt>
      <trkpt lat="60.3917" lon="7.65517">
        <ele>1199.86</ele>
        <time>2019-04-05T14:19:01Z</time>
      </trkpt>
      <trkpt lat="60.3917" lon="7.65518">
        <ele>1200.82</ele>
        <time>2019-04-05T14:19:28Z</time>
      </trkpt>
      <trkpt lat="60.39171" lon="7.65518">
        <ele>1198.42</ele>
        <time>2019-04-05T14:19:49Z</time>
      </trkpt>
      <trkpt lat="60.39171" lon="7.65517">
        <ele>1199.86</ele>
        <time>2019-04-05T14:20:09Z</time>
      </trkpt>
      <trkpt lat="60.3917" lon="7.65516">
        <ele>1201.3</ele>
        <time>2019-04-05T14:20:16Z</time>
      </trkpt>
      <trkpt lat="60.39169" lon="7.65518">
        <ele>1201.79</ele>
        <time>2019-04-05T14:20:28Z</time>
      </trkpt>
      <trkpt lat="60.3917" lon="7.65518">
        <ele>1199.86</ele>
        <time>2019-04-05T14:20:39Z</time>
      </trkpt>
      <trkpt lat="60.39169" lon="7.6552">
        <ele>1201.3</ele>
        <time>2019-04-05T14:20:45Z</time>
      </trkpt>
      <trkpt lat="60.39168" lon="7.65523">
        <ele>1201.79</ele>
        <time>2019-04-05T14:20:59Z</time>
      </trkpt>
      <trkpt lat="60.39168" lon="7.6552">
        <ele>1201.79</ele>
        <time>2019-04-05T14:21:09Z</time>
      </trkpt>
      <trkpt lat="60.39167" lon="7.65517">
        <ele>1201.79</ele>
        <time>2019-04-05T14:21:22Z</time>
      </trkpt>
      <trkpt lat="60.39169" lon="7.65519">
        <ele>1199.86</ele>
        <time>2019-04-05T14:21:47Z</time>
      </trkpt>
      <trkpt lat="60.39166" lon="7.65518">
        <ele>1200.34</ele>
        <time>2019-04-05T14:21:58Z</time>
      </trkpt>
      <trkpt lat="60.39168" lon="7.65525">
        <ele>1199.38</ele>
        <time>2019-04-05T14:22:07Z</time>
      </trkpt>
      <trkpt lat="60.39171" lon="7.6553">
        <ele>1200.34</ele>
        <time>2019-04-05T14:22:15Z</time>
      </trkpt>
      <trkpt lat="60.39171" lon="7.65532">
        <ele>1200.34</ele>
        <time>2019-04-05T14:22:16Z</time>
      </trkpt>
      <trkpt lat="60.39172" lon="7.65535">
        <ele>1200.34</ele>
        <time>2019-04-05T14:22:19Z</time>
      </trkpt>
      <trkpt lat="60.39172" lon="7.65551">
        <ele>1199.38</ele>
        <time>2019-04-05T14:22:30Z</time>
      </trkpt>
      <trkpt lat="60.39173" lon="7.65556">
        <ele>1200.34</ele>
        <time>2019-04-05T14:22:38Z</time>
      </trkpt>
      <trkpt lat="60.39181" lon="7.65551">
        <ele>1200.34</ele>
        <time>2019-04-05T14:22:46Z</time>
      </trkpt>
      <trkpt lat="60.39182" lon="7.65547">
        <ele>1198.9</ele>
        <time>2019-04-05T14:22:51Z</time>
      </trkpt>
      <trkpt lat="60.3918" lon="7.65547">
        <ele>1198.42</ele>
        <time>2019-04-05T14:23:30Z</time>
      </trkpt>
      <trkpt lat="60.3918" lon="7.65545">
        <ele>1198.9</ele>
        <time>2019-04-05T14:24:16Z</time>
      </trkpt>
      <trkpt lat="60.3918" lon="7.65546">
        <ele>1198.9</ele>
        <time>2019-04-05T14:24:38Z</time>
      </trkpt>
      <trkpt lat="60.39179" lon="7.65549">
        <ele>1198.9</ele>
        <time>2019-04-05T14:25:27Z</time>
      </trkpt>
      <trkpt lat="60.39181" lon="7.65551">
        <ele>1201.3</ele>
        <time>2019-04-05T14:25:30Z</time>
      </trkpt>
      <trkpt lat="60.39182" lon="7.65552">
        <ele>1199.38</ele>
        <time>2019-04-05T14:25:36Z</time>
      </trkpt>
      <trkpt lat="60.39179" lon="7.65555">
        <ele>1200.82</ele>
        <time>2019-04-05T14:25:46Z</time>
      </trkpt>
      <trkpt lat="60.39171" lon="7.6556">
        <ele>1200.82</ele>
        <time>2019-04-05T14:25:59Z</time>
      </trkpt>
      <trkpt lat="60.3917" lon="7.65558">
        <ele>1200.82</ele>
        <time>2019-04-05T14:26:15Z</time>
      </trkpt>
      <trkpt lat="60.39168" lon="7.65568">
        <ele>1200.82</ele>
        <time>2019-04-05T14:26:31Z</time>
      </trkpt>
      <trkpt lat="60.39167" lon="7.65572">
        <ele>1200.82</ele>
        <time>2019-04-05T14:26:46Z</time>
      </trkpt>
      <trkpt lat="60.39164" lon="7.65568">
        <ele>1199.86</ele>
        <time>2019-04-05T14:26:58Z</time>
      </trkpt>
      <trkpt lat="60.39161" lon="7.65552">
        <ele>1199.38</ele>
        <time>2019-04-05T14:27:11Z</time>
      </trkpt>
      <trkpt lat="60.39161" lon="7.65554">
        <ele>1199.38</ele>
        <time>2019-04-05T14:27:42Z</time>
      </trkpt>
      <trkpt lat="60.39163" lon="7.6555">
        <ele>1199.38</ele>
        <time>2019-04-05T14:27:56Z</time>
      </trkpt>
      <trkpt lat="60.39164" lon="7.65548">
        <ele>1199.38</ele>
        <time>2019-04-05T14:28:26Z</time>
      </trkpt>
      <trkpt lat="60.39166" lon="7.65545">
        <ele>1199.38</ele>
        <time>2019-04-05T14:28:40Z</time>
      </trkpt>
      <trkpt lat="60.39166" lon="7.65544">
        <ele>1199.38</ele>
        <time>2019-04-05T14:28:45Z</time>
      </trkpt>
      <trkpt lat="60.39156" lon="7.6552">
        <ele>1200.34</ele>
        <time>2019-04-05T14:28:51Z</time>
      </trkpt>
      <trkpt lat="60.39141" lon="7.65479">
        <ele>1201.79</ele>
        <time>2019-04-05T14:29:00Z</time>
      </trkpt>
      <trkpt lat="60.39116" lon="7.65441">
        <ele>1203.23</ele>
        <time>2019-04-05T14:29:07Z</time>
      </trkpt>
      <trkpt lat="60.39081" lon="7.65405">
        <ele>1201.79</ele>
        <time>2019-04-05T14:29:16Z</time>
      </trkpt>
      <trkpt lat="60.39061" lon="7.65385">
        <ele>1201.79</ele>
        <time>2019-04-05T14:29:20Z</time>
      </trkpt>
      <trkpt lat="60.3903" lon="7.65367">
        <ele>1200.82</ele>
        <time>2019-04-05T14:29:27Z</time>
      </trkpt>
      <trkpt lat="60.39018" lon="7.65337">
        <ele>1200.82</ele>
        <time>2019-04-05T14:29:32Z</time>
      </trkpt>
      <trkpt lat="60.39015" lon="7.65289">
        <ele>1200.82</ele>
        <time>2019-04-05T14:29:39Z</time>
      </trkpt>
      <trkpt lat="60.39014" lon="7.65278">
        <ele>1202.27</ele>
        <time>2019-04-05T14:29:41Z</time>
      </trkpt>
      <trkpt lat="60.39009" lon="7.65221">
        <ele>1202.75</ele>
        <time>2019-04-05T14:29:51Z</time>
      </trkpt>
      <trkpt lat="60.39006" lon="7.65203">
        <ele>1202.75</ele>
        <time>2019-04-05T14:29:55Z</time>
      </trkpt>
      <trkpt lat="60.38988" lon="7.65186">
        <ele>1202.75</ele>
        <time>2019-04-05T14:30:05Z</time>
      </trkpt>
      <trkpt lat="60.38983" lon="7.65177">
        <ele>1203.23</ele>
        <time>2019-04-05T14:30:17Z</time>
      </trkpt>
      <trkpt lat="60.38982" lon="7.65176">
        <ele>1203.71</ele>
        <time>2019-04-05T14:30:37Z</time>
      </trkpt>
      <trkpt lat="60.38994" lon="7.6517">
        <ele>1204.19</ele>
        <time>2019-04-05T14:30:45Z</time>
      </trkpt>
      <trkpt lat="60.38995" lon="7.6517">
        <ele>1204.19</ele>
        <time>2019-04-05T14:31:05Z</time>
      </trkpt>
      <trkpt lat="60.39018" lon="7.65173">
        <ele>1205.15</ele>
        <time>2019-04-05T14:31:15Z</time>
      </trkpt>
      <trkpt lat="60.39031" lon="7.65173">
        <ele>1205.15</ele>
        <time>2019-04-05T14:31:19Z</time>
      </trkpt>
      <trkpt lat="60.39058" lon="7.65172">
        <ele>1206.11</ele>
        <time>2019-04-05T14:31:27Z</time>
      </trkpt>
      <trkpt lat="60.39066" lon="7.65174">
        <ele>1206.59</ele>
        <time>2019-04-05T14:31:29Z</time>
      </trkpt>
      <trkpt lat="60.39087" lon="7.65173">
        <ele>1207.55</ele>
        <time>2019-04-05T14:31:34Z</time>
      </trkpt>
      <trkpt lat="60.39139" lon="7.65179">
        <ele>1206.59</ele>
        <time>2019-04-05T14:31:46Z</time>
      </trkpt>
      <trkpt lat="60.39152" lon="7.65169">
        <ele>1203.71</ele>
        <time>2019-04-05T14:31:49Z</time>
      </trkpt>
      <trkpt lat="60.39152" lon="7.65162">
        <ele>1202.75</ele>
        <time>2019-04-05T14:31:51Z</time>
      </trkpt>
      <trkpt lat="60.39145" lon="7.65174">
        <ele>1204.19</ele>
        <time>2019-04-05T14:31:55Z</time>
      </trkpt>
      <trkpt lat="60.39137" lon="7.65191">
        <ele>1205.15</ele>
        <time>2019-04-05T14:32:00Z</time>
      </trkpt>
      <trkpt lat="60.39132" lon="7.65204">
        <ele>1205.15</ele>
        <time>2019-04-05T14:32:03Z</time>
      </trkpt>
      <trkpt lat="60.3913" lon="7.65206">
        <ele>1205.15</ele>
        <time>2019-04-05T14:32:04Z</time>
      </trkpt>
      <trkpt lat="60.39129" lon="7.65207">
        <ele>1205.15</ele>
        <time>2019-04-05T14:32:05Z</time>
      </trkpt>
      <trkpt lat="60.39115" lon="7.65254">
        <ele>1206.59</ele>
        <time>2019-04-05T14:32:14Z</time>
      </trkpt>
      <trkpt lat="60.39091" lon="7.65377">
        <ele>1204.19</ele>
        <time>2019-04-05T14:32:29Z</time>
      </trkpt>
      <trkpt lat="60.39079" lon="7.65435">
        <ele>1202.27</ele>
        <time>2019-04-05T14:32:36Z</time>
      </trkpt>
      <trkpt lat="60.39072" lon="7.65462">
        <ele>1202.27</ele>
        <time>2019-04-05T14:32:39Z</time>
      </trkpt>
      <trkpt lat="60.39065" lon="7.65506">
        <ele>1201.79</ele>
        <time>2019-04-05T14:32:44Z</time>
      </trkpt>
      <trkpt lat="60.39046" lon="7.656">
        <ele>1199.38</ele>
        <time>2019-04-05T14:32:55Z</time>
      </trkpt>
      <trkpt lat="60.39041" lon="7.65625">
        <ele>1198.42</ele>
        <time>2019-04-05T14:32:58Z</time>
      </trkpt>
      <trkpt lat="60.39036" lon="7.6564">
        <ele>1197.94</ele>
        <time>2019-04-05T14:33:00Z</time>
      </trkpt>
      <trkpt lat="60.39025" lon="7.65669">
        <ele>1194.58</ele>
        <time>2019-04-05T14:33:08Z</time>
      </trkpt>
      <trkpt lat="60.39034" lon="7.65655">
        <ele>1196.02</ele>
        <time>2019-04-05T14:33:12Z</time>
      </trkpt>
      <trkpt lat="60.3904" lon="7.65651">
        <ele>1196.02</ele>
        <time>2019-04-05T14:33:14Z</time>
      </trkpt>
      <trkpt lat="60.39059" lon="7.65649">
        <ele>1196.02</ele>
        <time>2019-04-05T14:33:24Z</time>
      </trkpt>
      <trkpt lat="60.39059" lon="7.65644">
        <ele>1196.02</ele>
        <time>2019-04-05T14:33:27Z</time>
      </trkpt>
      <trkpt lat="60.39071" lon="7.65618">
        <ele>1197.46</ele>
        <time>2019-04-05T14:33:33Z</time>
      </trkpt>
      <trkpt lat="60.39079" lon="7.65616">
        <ele>1197.46</ele>
        <time>2019-04-05T14:33:35Z</time>
      </trkpt>
      <trkpt lat="60.39113" lon="7.65616">
        <ele>1198.42</ele>
        <time>2019-04-05T14:33:46Z</time>
      </trkpt>
      <trkpt lat="60.39144" lon="7.65617">
        <ele>1196.98</ele>
        <time>2019-04-05T14:33:54Z</time>
      </trkpt>
      <trkpt lat="60.39166" lon="7.65613">
        <ele>1196.98</ele>
        <time>2019-04-05T14:34:03Z</time>
      </trkpt>
      <trkpt lat="60.39171" lon="7.65609">
        <ele>1198.42</ele>
        <time>2019-04-05T14:34:09Z</time>
      </trkpt>
      <trkpt lat="60.39175" lon="7.65602">
        <ele>1198.42</ele>
        <time>2019-04-05T14:34:20Z</time>
      </trkpt>
      <trkpt lat="60.39181" lon="7.65588">
        <ele>1198.9</ele>
        <time>2019-04-05T14:34:25Z</time>
      </trkpt>
      <trkpt lat="60.39189" lon="7.65575">
        <ele>1199.38</ele>
        <time>2019-04-05T14:34:29Z</time>
      </trkpt>
      <trkpt lat="60.392" lon="7.6557">
        <ele>1200.34</ele>
        <time>2019-04-05T14:34:32Z</time>
      </trkpt>
      <trkpt lat="60.3924" lon="7.65582">
        <ele>1200.82</ele>
        <time>2019-04-05T14:34:40Z</time>
      </trkpt>
      <trkpt lat="60.39249" lon="7.65588">
        <ele>1198.9</ele>
        <time>2019-04-05T14:34:42Z</time>
      </trkpt>
      <trkpt lat="60.3927" lon="7.65598">
        <ele>1196.5</ele>
        <time>2019-04-05T14:34:48Z</time>
      </trkpt>
      <trkpt lat="60.39295" lon="7.65611">
        <ele>1193.13</ele>
        <time>2019-04-05T14:34:53Z</time>
      </trkpt>
      <trkpt lat="60.39301" lon="7.65614">
        <ele>1192.17</ele>
        <time>2019-04-05T14:34:54Z</time>
      </trkpt>
      <trkpt lat="60.39322" lon="7.6563">
        <ele>1186.88</ele>
        <time>2019-04-05T14:34:58Z</time>
      </trkpt>
      <trkpt lat="60.39334" lon="7.65639">
        <ele>1183.52</ele>
        <time>2019-04-05T14:35:00Z</time>
      </trkpt>
      <trkpt lat="60.39344" lon="7.6565">
        <ele>1179.19</ele>
        <time>2019-04-05T14:35:02Z</time>
      </trkpt>
      <trkpt lat="60.39369" lon="7.65657">
        <ele>1175.83</ele>
        <time>2019-04-05T14:35:07Z</time>
      </trkpt>
      <trkpt lat="60.39394" lon="7.65675">
        <ele>1171.98</ele>
        <time>2019-04-05T14:35:11Z</time>
      </trkpt>
      <trkpt lat="60.39412" lon="7.65688">
        <ele>1168.62</ele>
        <time>2019-04-05T14:35:14Z</time>
      </trkpt>
      <trkpt lat="60.39435" lon="7.65699">
        <ele>1165.74</ele>
        <time>2019-04-05T14:35:18Z</time>
      </trkpt>
      <trkpt lat="60.39446" lon="7.65702">
        <ele>1164.29</ele>
        <time>2019-04-05T14:35:20Z</time>
      </trkpt>
      <trkpt lat="60.39466" lon="7.65703">
        <ele>1163.81</ele>
        <time>2019-04-05T14:35:23Z</time>
      </trkpt>
      <trkpt lat="60.39485" lon="7.65705">
        <ele>1162.37</ele>
        <time>2019-04-05T14:35:26Z</time>
      </trkpt>
      <trkpt lat="60.39491" lon="7.65705">
        <ele>1162.37</ele>
        <time>2019-04-05T14:35:27Z</time>
      </trkpt>
      <trkpt lat="60.39506" lon="7.65706">
        <ele>1160.93</ele>
        <time>2019-04-05T14:35:30Z</time>
      </trkpt>
      <trkpt lat="60.39563" lon="7.657">
        <ele>1157.56</ele>
        <time>2019-04-05T14:35:39Z</time>
      </trkpt>
      <trkpt lat="60.39612" lon="7.65689">
        <ele>1154.2</ele>
        <time>2019-04-05T14:35:47Z</time>
      </trkpt>
      <trkpt lat="60.39624" lon="7.6569">
        <ele>1153.72</ele>
        <time>2019-04-05T14:35:49Z</time>
      </trkpt>
      <trkpt lat="60.39639" lon="7.65697">
        <ele>1153.24</ele>
        <time>2019-04-05T14:35:52Z</time>
      </trkpt>
      <trkpt lat="60.39632" lon="7.65697">
        <ele>1151.8</ele>
        <time>2019-04-05T14:35:59Z</time>
      </trkpt>
      <trkpt lat="60.39621" lon="7.65715">
        <ele>1153.24</ele>
        <time>2019-04-05T14:36:02Z</time>
      </trkpt>
      <trkpt lat="60.39614" lon="7.65727">
        <ele>1153.24</ele>
        <time>2019-04-05T14:36:04Z</time>
      </trkpt>
      <trkpt lat="60.39607" lon="7.65743">
        <ele>1153.72</ele>
        <time>2019-04-05T14:36:06Z</time>
      </trkpt>
      <trkpt lat="60.39591" lon="7.65768">
        <ele>1154.2</ele>
        <time>2019-04-05T14:36:10Z</time>
      </trkpt>
      <trkpt lat="60.39585" lon="7.65783">
        <ele>1155.64</ele>
        <time>2019-04-05T14:36:12Z</time>
      </trkpt>
      <trkpt lat="60.39578" lon="7.65794">
        <ele>1156.12</ele>
        <time>2019-04-05T14:36:14Z</time>
      </trkpt>
      <trkpt lat="60.39564" lon="7.65824">
        <ele>1157.08</ele>
        <time>2019-04-05T14:36:18Z</time>
      </trkpt>
      <trkpt lat="60.3955" lon="7.65866">
        <ele>1157.56</ele>
        <time>2019-04-05T14:36:23Z</time>
      </trkpt>
      <trkpt lat="60.39536" lon="7.65922">
        <ele>1157.56</ele>
        <time>2019-04-05T14:36:29Z</time>
      </trkpt>
      <trkpt lat="60.39523" lon="7.65994">
        <ele>1155.64</ele>
        <time>2019-04-05T14:36:37Z</time>
      </trkpt>
      <trkpt lat="60.39506" lon="7.66078">
        <ele>1152.28</ele>
        <time>2019-04-05T14:36:45Z</time>
      </trkpt>
      <trkpt lat="60.39503" lon="7.66091">
        <ele>1152.28</ele>
        <time>2019-04-05T14:36:46Z</time>
      </trkpt>
      <trkpt lat="60.39494" lon="7.66131">
        <ele>1150.35</ele>
        <time>2019-04-05T14:36:49Z</time>
      </trkpt>
      <trkpt lat="60.39486" lon="7.66172">
        <ele>1147.47</ele>
        <time>2019-04-05T14:36:52Z</time>
      </trkpt>
      <trkpt lat="60.39474" lon="7.66239">
        <ele>1145.07</ele>
        <time>2019-04-05T14:36:57Z</time>
      </trkpt>
      <trkpt lat="60.3947" lon="7.66264">
        <ele>1144.59</ele>
        <time>2019-04-05T14:36:59Z</time>
      </trkpt>
      <trkpt lat="60.39456" lon="7.66324">
        <ele>1143.14</ele>
        <time>2019-04-05T14:37:05Z</time>
      </trkpt>
      <trkpt lat="60.39442" lon="7.66382">
        <ele>1143.63</ele>
        <time>2019-04-05T14:37:11Z</time>
      </trkpt>
      <trkpt lat="60.39432" lon="7.66416">
        <ele>1143.14</ele>
        <time>2019-04-05T14:37:15Z</time>
      </trkpt>
      <trkpt lat="60.39408" lon="7.66482">
        <ele>1144.59</ele>
        <time>2019-04-05T14:37:26Z</time>
      </trkpt>
      <trkpt lat="60.39403" lon="7.66496">
        <ele>1145.55</ele>
        <time>2019-04-05T14:37:29Z</time>
      </trkpt>
      <trkpt lat="60.39391" lon="7.66522">
        <ele>1146.51</ele>
        <time>2019-04-05T14:37:39Z</time>
      </trkpt>
      <trkpt lat="60.39372" lon="7.66533">
        <ele>1147.95</ele>
        <time>2019-04-05T14:37:44Z</time>
      </trkpt>
      <trkpt lat="60.39356" lon="7.66554">
        <ele>1149.39</ele>
        <time>2019-04-05T14:37:49Z</time>
      </trkpt>
      <trkpt lat="60.3934" lon="7.6658">
        <ele>1151.32</ele>
        <time>2019-04-05T14:37:54Z</time>
      </trkpt>
      <trkpt lat="60.39336" lon="7.66585">
        <ele>1151.32</ele>
        <time>2019-04-05T14:37:55Z</time>
      </trkpt>
      <trkpt lat="60.39324" lon="7.66618">
        <ele>1153.24</ele>
        <time>2019-04-05T14:37:59Z</time>
      </trkpt>
      <trkpt lat="60.39319" lon="7.66635">
        <ele>1153.24</ele>
        <time>2019-04-05T14:38:01Z</time>
      </trkpt>
      <trkpt lat="60.39308" lon="7.66677">
        <ele>1153.72</ele>
        <time>2019-04-05T14:38:06Z</time>
      </trkpt>
      <trkpt lat="60.39301" lon="7.66702">
        <ele>1153.72</ele>
        <time>2019-04-05T14:38:09Z</time>
      </trkpt>
      <trkpt lat="60.39279" lon="7.66796">
        <ele>1152.76</ele>
        <time>2019-04-05T14:38:18Z</time>
      </trkpt>
      <trkpt lat="60.39272" lon="7.6681">
        <ele>1150.84</ele>
        <time>2019-04-05T14:38:20Z</time>
      </trkpt>
      <trkpt lat="60.39269" lon="7.66802">
        <ele>1151.32</ele>
        <time>2019-04-05T14:38:26Z</time>
      </trkpt>
      <trkpt lat="60.39272" lon="7.66797">
        <ele>1151.32</ele>
        <time>2019-04-05T14:38:35Z</time>
      </trkpt>
      <trkpt lat="60.39287" lon="7.66798">
        <ele>1151.32</ele>
        <time>2019-04-05T14:38:42Z</time>
      </trkpt>
      <trkpt lat="60.39293" lon="7.66813">
        <ele>1149.39</ele>
        <time>2019-04-05T14:38:53Z</time>
      </trkpt>
      <trkpt lat="60.39294" lon="7.66811">
        <ele>1149.39</ele>
        <time>2019-04-05T14:39:17Z</time>
      </trkpt>
      <trkpt lat="60.39292" lon="7.66816">
        <ele>1148.91</ele>
        <time>2019-04-05T14:39:39Z</time>
      </trkpt>
      <trkpt lat="60.39292" lon="7.66816">
        <ele>1150.35</ele>
        <time>2019-04-05T14:39:51Z</time>
      </trkpt>
      <trkpt lat="60.39293" lon="7.66814">
        <ele>1150.35</ele>
        <time>2019-04-05T14:39:58Z</time>
      </trkpt>
      <trkpt lat="60.39303" lon="7.66797">
        <ele>1150.35</ele>
        <time>2019-04-05T14:40:03Z</time>
      </trkpt>
      <trkpt lat="60.39379" lon="7.66769">
        <ele>1148.91</ele>
        <time>2019-04-05T14:40:15Z</time>
      </trkpt>
      <trkpt lat="60.39416" lon="7.66744">
        <ele>1146.03</ele>
        <time>2019-04-05T14:40:20Z</time>
      </trkpt>
      <trkpt lat="60.39457" lon="7.66715">
        <ele>1144.59</ele>
        <time>2019-04-05T14:40:26Z</time>
      </trkpt>
      <trkpt lat="60.39491" lon="7.66695">
        <ele>1141.7</ele>
        <time>2019-04-05T14:40:30Z</time>
      </trkpt>
      <trkpt lat="60.39507" lon="7.66685">
        <ele>1140.26</ele>
        <time>2019-04-05T14:40:32Z</time>
      </trkpt>
      <trkpt lat="60.3954" lon="7.6666">
        <ele>1140.26</ele>
        <time>2019-04-05T14:40:37Z</time>
      </trkpt>
      <trkpt lat="60.39559" lon="7.66639">
        <ele>1141.22</ele>
        <time>2019-04-05T14:40:41Z</time>
      </trkpt>
      <trkpt lat="60.39607" lon="7.66603">
        <ele>1143.63</ele>
        <time>2019-04-05T14:40:51Z</time>
      </trkpt>
      <trkpt lat="60.39657" lon="7.66567">
        <ele>1145.07</ele>
        <time>2019-04-05T14:41:01Z</time>
      </trkpt>
      <trkpt lat="60.39691" lon="7.66548">
        <ele>1145.55</ele>
        <time>2019-04-05T14:41:08Z</time>
      </trkpt>
      <trkpt lat="60.39716" lon="7.66535">
        <ele>1146.03</ele>
        <time>2019-04-05T14:41:14Z</time>
      </trkpt>
      <trkpt lat="60.39741" lon="7.6652">
        <ele>1148.43</ele>
        <time>2019-04-05T14:41:25Z</time>
      </trkpt>
      <trkpt lat="60.39753" lon="7.66503">
        <ele>1148.91</ele>
        <time>2019-04-05T14:41:32Z</time>
      </trkpt>
      <trkpt lat="60.39802" lon="7.66441">
        <ele>1148.91</ele>
        <time>2019-04-05T14:41:43Z</time>
      </trkpt>
      <trkpt lat="60.39818" lon="7.66424">
        <ele>1148.91</ele>
        <time>2019-04-05T14:41:46Z</time>
      </trkpt>
      <trkpt lat="60.39833" lon="7.66399">
        <ele>1150.35</ele>
        <time>2019-04-05T14:41:50Z</time>
      </trkpt>
      <trkpt lat="60.39849" lon="7.66378">
        <ele>1151.8</ele>
        <time>2019-04-05T14:41:54Z</time>
      </trkpt>
      <trkpt lat="60.39857" lon="7.66366">
        <ele>1151.8</ele>
        <time>2019-04-05T14:41:56Z</time>
      </trkpt>
      <trkpt lat="60.39862" lon="7.66351">
        <ele>1151.8</ele>
        <time>2019-04-05T14:41:58Z</time>
      </trkpt>
      <trkpt lat="60.39873" lon="7.6633">
        <ele>1152.28</ele>
        <time>2019-04-05T14:42:01Z</time>
      </trkpt>
      <trkpt lat="60.3988" lon="7.66318">
        <ele>1153.24</ele>
        <time>2019-04-05T14:42:03Z</time>
      </trkpt>
      <trkpt lat="60.39883" lon="7.66312">
        <ele>1153.72</ele>
        <time>2019-04-05T14:42:04Z</time>
      </trkpt>
      <trkpt lat="60.39894" lon="7.66297">
        <ele>1155.64</ele>
        <time>2019-04-05T14:42:08Z</time>
      </trkpt>
      <trkpt lat="60.39899" lon="7.66283">
        <ele>1156.6</ele>
        <time>2019-04-05T14:42:11Z</time>
      </trkpt>
      <trkpt lat="60.39916" lon="7.66259">
        <ele>1158.53</ele>
        <time>2019-04-05T14:42:18Z</time>
      </trkpt>
      <trkpt lat="60.39917" lon="7.66249">
        <ele>1158.53</ele>
        <time>2019-04-05T14:42:20Z</time>
      </trkpt>
      <trkpt lat="60.39934" lon="7.66205">
        <ele>1161.89</ele>
        <time>2019-04-05T14:42:28Z</time>
      </trkpt>
      <trkpt lat="60.39937" lon="7.66181">
        <ele>1164.77</ele>
        <time>2019-04-05T14:42:37Z</time>
      </trkpt>
      <trkpt lat="60.39937" lon="7.66182">
        <ele>1164.77</ele>
        <time>2019-04-05T14:42:38Z</time>
      </trkpt>
      <trkpt lat="60.39934" lon="7.66192">
        <ele>1161.89</ele>
        <time>2019-04-05T14:42:42Z</time>
      </trkpt>
      <trkpt lat="60.39933" lon="7.66196">
        <ele>1161.89</ele>
        <time>2019-04-05T14:42:43Z</time>
      </trkpt>
      <trkpt lat="60.39929" lon="7.66259">
        <ele>1160.93</ele>
        <time>2019-04-05T14:42:53Z</time>
      </trkpt>
      <trkpt lat="60.39921" lon="7.66308">
        <ele>1159.49</ele>
        <time>2019-04-05T14:42:59Z</time>
      </trkpt>
      <trkpt lat="60.39906" lon="7.66385">
        <ele>1157.08</ele>
        <time>2019-04-05T14:43:07Z</time>
      </trkpt>
      <trkpt lat="60.39901" lon="7.66407">
        <ele>1156.6</ele>
        <time>2019-04-05T14:43:09Z</time>
      </trkpt>
      <trkpt lat="60.39889" lon="7.66445">
        <ele>1153.72</ele>
        <time>2019-04-05T14:43:12Z</time>
      </trkpt>
      <trkpt lat="60.39857" lon="7.66515">
        <ele>1157.08</ele>
        <time>2019-04-05T14:43:22Z</time>
      </trkpt>
      <trkpt lat="60.39845" lon="7.66534">
        <ele>1157.56</ele>
        <time>2019-04-05T14:43:27Z</time>
      </trkpt>
      <trkpt lat="60.39835" lon="7.66565">
        <ele>1158.05</ele>
        <time>2019-04-05T14:43:32Z</time>
      </trkpt>
      <trkpt lat="60.39821" lon="7.6662">
        <ele>1158.05</ele>
        <time>2019-04-05T14:43:41Z</time>
      </trkpt>
      <trkpt lat="60.39818" lon="7.66622">
        <ele>1156.6</ele>
        <time>2019-04-05T14:43:44Z</time>
      </trkpt>
      <trkpt lat="60.39817" lon="7.66619">
        <ele>1156.12</ele>
        <time>2019-04-05T14:43:47Z</time>
      </trkpt>
      <trkpt lat="60.3983" lon="7.66604">
        <ele>1157.08</ele>
        <time>2019-04-05T14:43:54Z</time>
      </trkpt>
      <trkpt lat="60.3986" lon="7.66589">
        <ele>1158.53</ele>
        <time>2019-04-05T14:44:10Z</time>
      </trkpt>
      <trkpt lat="60.39872" lon="7.66587">
        <ele>1158.53</ele>
        <time>2019-04-05T14:44:23Z</time>
      </trkpt>
      <trkpt lat="60.39889" lon="7.66591">
        <ele>1158.53</ele>
        <time>2019-04-05T14:44:37Z</time>
      </trkpt>
      <trkpt lat="60.39889" lon="7.66592">
        <ele>1158.53</ele>
        <time>2019-04-05T14:44:38Z</time>
      </trkpt>
      <trkpt lat="60.39887" lon="7.66594">
        <ele>1158.05</ele>
        <time>2019-04-05T14:45:05Z</time>
      </trkpt>
      <trkpt lat="60.39896" lon="7.66591">
        <ele>1159.49</ele>
        <time>2019-04-05T14:45:10Z</time>
      </trkpt>
      <trkpt lat="60.39942" lon="7.66603">
        <ele>1158.05</ele>
        <time>2019-04-05T14:45:22Z</time>
      </trkpt>
      <trkpt lat="60.39948" lon="7.66605">
        <ele>1158.05</ele>
        <time>2019-04-05T14:45:23Z</time>
      </trkpt>
      <trkpt lat="60.39953" lon="7.66606">
        <ele>1158.05</ele>
        <time>2019-04-05T14:45:24Z</time>
      </trkpt>
      <trkpt lat="60.39971" lon="7.66594">
        <ele>1156.12</ele>
        <time>2019-04-05T14:45:32Z</time>
      </trkpt>
      <trkpt lat="60.39971" lon="7.66589">
        <ele>1156.12</ele>
        <time>2019-04-05T14:45:58Z</time>
      </trkpt>
      <trkpt lat="60.39984" lon="7.66588">
        <ele>1157.56</ele>
        <time>2019-04-05T14:46:04Z</time>
      </trkpt>
      <trkpt lat="60.40008" lon="7.6659">
        <ele>1158.05</ele>
        <time>2019-04-05T14:46:15Z</time>
      </trkpt>
      <trkpt lat="60.40012" lon="7.66582">
        <ele>1158.05</ele>
        <time>2019-04-05T14:46:17Z</time>
      </trkpt>
      <trkpt lat="60.4004" lon="7.66568">
        <ele>1158.05</ele>
        <time>2019-04-05T14:46:23Z</time>
      </trkpt>
      <trkpt lat="60.4005" lon="7.66571">
        <ele>1158.53</ele>
        <time>2019-04-05T14:46:25Z</time>
      </trkpt>
      <trkpt lat="60.40064" lon="7.66572">
        <ele>1158.53</ele>
        <time>2019-04-05T14:46:28Z</time>
      </trkpt>
      <trkpt lat="60.40084" lon="7.66575">
        <ele>1159.01</ele>
        <time>2019-04-05T14:46:33Z</time>
      </trkpt>
      <trkpt lat="60.40108" lon="7.66572">
        <ele>1159.49</ele>
        <time>2019-04-05T14:46:39Z</time>
      </trkpt>
      <trkpt lat="60.40128" lon="7.66561">
        <ele>1159.01</ele>
        <time>2019-04-05T14:46:44Z</time>
      </trkpt>
      <trkpt lat="60.4018" lon="7.66567">
        <ele>1159.01</ele>
        <time>2019-04-05T14:46:58Z</time>
      </trkpt>
      <trkpt lat="60.40194" lon="7.66569">
        <ele>1159.49</ele>
        <time>2019-04-05T14:47:02Z</time>
      </trkpt>
      <trkpt lat="60.40202" lon="7.66571">
        <ele>1159.49</ele>
        <time>2019-04-05T14:47:04Z</time>
      </trkpt>
      <trkpt lat="60.40237" lon="7.66574">
        <ele>1158.05</ele>
        <time>2019-04-05T14:47:12Z</time>
      </trkpt>
      <trkpt lat="60.40261" lon="7.66581">
        <ele>1157.56</ele>
        <time>2019-04-05T14:47:17Z</time>
      </trkpt>
      <trkpt lat="60.4028" lon="7.66586">
        <ele>1157.56</ele>
        <time>2019-04-05T14:47:21Z</time>
      </trkpt>
      <trkpt lat="60.40288" lon="7.66587">
        <ele>1157.08</ele>
        <time>2019-04-05T14:47:23Z</time>
      </trkpt>
      <trkpt lat="60.40307" lon="7.66592">
        <ele>1157.08</ele>
        <time>2019-04-05T14:47:32Z</time>
      </trkpt>
      <trkpt lat="60.40317" lon="7.66579">
        <ele>1158.53</ele>
        <time>2019-04-05T14:47:39Z</time>
      </trkpt>
      <trkpt lat="60.40326" lon="7.66579">
        <ele>1159.49</ele>
        <time>2019-04-05T14:47:52Z</time>
      </trkpt>
      <trkpt lat="60.40323" lon="7.66576">
        <ele>1159.49</ele>
        <time>2019-04-05T14:48:03Z</time>
      </trkpt>
      <trkpt lat="60.40307" lon="7.666">
        <ele>1157.56</ele>
        <time>2019-04-05T14:48:09Z</time>
      </trkpt>
      <trkpt lat="60.40296" lon="7.66627">
        <ele>1157.56</ele>
        <time>2019-04-05T14:48:12Z</time>
      </trkpt>
      <trkpt lat="60.40285" lon="7.6665">
        <ele>1157.56</ele>
        <time>2019-04-05T14:48:15Z</time>
      </trkpt>
      <trkpt lat="60.40278" lon="7.66664">
        <ele>1157.56</ele>
        <time>2019-04-05T14:48:17Z</time>
      </trkpt>
      <trkpt lat="60.40262" lon="7.66692">
        <ele>1159.01</ele>
        <time>2019-04-05T14:48:22Z</time>
      </trkpt>
      <trkpt lat="60.40256" lon="7.66703">
        <ele>1159.49</ele>
        <time>2019-04-05T14:48:24Z</time>
      </trkpt>
      <trkpt lat="60.40247" lon="7.66717">
        <ele>1159.49</ele>
        <time>2019-04-05T14:48:27Z</time>
      </trkpt>
      <trkpt lat="60.40232" lon="7.66749">
        <ele>1159.97</ele>
        <time>2019-04-05T14:48:33Z</time>
      </trkpt>
      <trkpt lat="60.40225" lon="7.66769">
        <ele>1160.45</ele>
        <time>2019-04-05T14:48:36Z</time>
      </trkpt>
      <trkpt lat="60.40214" lon="7.66793">
        <ele>1159.97</ele>
        <time>2019-04-05T14:48:40Z</time>
      </trkpt>
      <trkpt lat="60.40203" lon="7.66826">
        <ele>1159.97</ele>
        <time>2019-04-05T14:48:45Z</time>
      </trkpt>
      <trkpt lat="60.40176" lon="7.6688">
        <ele>1160.45</ele>
        <time>2019-04-05T14:48:56Z</time>
      </trkpt>
      <trkpt lat="60.40166" lon="7.66901">
        <ele>1160.45</ele>
        <time>2019-04-05T14:49:00Z</time>
      </trkpt>
      <trkpt lat="60.40153" lon="7.66913">
        <ele>1160.45</ele>
        <time>2019-04-05T14:49:04Z</time>
      </trkpt>
      <trkpt lat="60.40132" lon="7.66957">
        <ele>1161.41</ele>
        <time>2019-04-05T14:49:12Z</time>
      </trkpt>
      <trkpt lat="60.40137" lon="7.66939">
        <ele>1161.41</ele>
        <time>2019-04-05T14:49:19Z</time>
      </trkpt>
      <trkpt lat="60.40153" lon="7.66938">
        <ele>1161.41</ele>
        <time>2019-04-05T14:49:22Z</time>
      </trkpt>
      <trkpt lat="60.40188" lon="7.66943">
        <ele>1159.97</ele>
        <time>2019-04-05T14:49:29Z</time>
      </trkpt>
      <trkpt lat="60.40201" lon="7.66939">
        <ele>1159.49</ele>
        <time>2019-04-05T14:49:32Z</time>
      </trkpt>
      <trkpt lat="60.4021" lon="7.66937">
        <ele>1158.53</ele>
        <time>2019-04-05T14:49:34Z</time>
      </trkpt>
      <trkpt lat="60.40225" lon="7.66932">
        <ele>1158.05</ele>
        <time>2019-04-05T14:49:37Z</time>
      </trkpt>
      <trkpt lat="60.40251" lon="7.66929">
        <ele>1158.05</ele>
        <time>2019-04-05T14:49:44Z</time>
      </trkpt>
      <trkpt lat="60.40284" lon="7.66922">
        <ele>1158.05</ele>
        <time>2019-04-05T14:49:52Z</time>
      </trkpt>
      <trkpt lat="60.40293" lon="7.6692">
        <ele>1158.05</ele>
        <time>2019-04-05T14:49:54Z</time>
      </trkpt>
      <trkpt lat="60.40317" lon="7.66921">
        <ele>1158.53</ele>
        <time>2019-04-05T14:50:00Z</time>
      </trkpt>
      <trkpt lat="60.40357" lon="7.66922">
        <ele>1158.53</ele>
        <time>2019-04-05T14:50:10Z</time>
      </trkpt>
      <trkpt lat="60.40371" lon="7.66917">
        <ele>1158.05</ele>
        <time>2019-04-05T14:50:14Z</time>
      </trkpt>
      <trkpt lat="60.40407" lon="7.66903">
        <ele>1158.05</ele>
        <time>2019-04-05T14:50:23Z</time>
      </trkpt>
      <trkpt lat="60.40462" lon="7.66922">
        <ele>1158.05</ele>
        <time>2019-04-05T14:50:36Z</time>
      </trkpt>
      <trkpt lat="60.40476" lon="7.66924">
        <ele>1158.05</ele>
        <time>2019-04-05T14:50:39Z</time>
      </trkpt>
      <trkpt lat="60.40488" lon="7.66919">
        <ele>1158.05</ele>
        <time>2019-04-05T14:50:42Z</time>
      </trkpt>
      <trkpt lat="60.40507" lon="7.66906">
        <ele>1158.05</ele>
        <time>2019-04-05T14:50:46Z</time>
      </trkpt>
      <trkpt lat="60.40525" lon="7.66896">
        <ele>1158.05</ele>
        <time>2019-04-05T14:50:50Z</time>
      </trkpt>
      <trkpt lat="60.40539" lon="7.66893">
        <ele>1158.05</ele>
        <time>2019-04-05T14:50:53Z</time>
      </trkpt>
      <trkpt lat="60.40556" lon="7.66885">
        <ele>1158.05</ele>
        <time>2019-04-05T14:50:57Z</time>
      </trkpt>
      <trkpt lat="60.40571" lon="7.66881">
        <ele>1158.05</ele>
        <time>2019-04-05T14:51:00Z</time>
      </trkpt>
      <trkpt lat="60.4058" lon="7.66874">
        <ele>1158.05</ele>
        <time>2019-04-05T14:51:02Z</time>
      </trkpt>
      <trkpt lat="60.40617" lon="7.66848">
        <ele>1158.05</ele>
        <time>2019-04-05T14:51:09Z</time>
      </trkpt>
      <trkpt lat="60.40641" lon="7.6683">
        <ele>1159.01</ele>
        <time>2019-04-05T14:51:13Z</time>
      </trkpt>
      <trkpt lat="60.40658" lon="7.66809">
        <ele>1159.01</ele>
        <time>2019-04-05T14:51:16Z</time>
      </trkpt>
      <trkpt lat="60.40698" lon="7.6677">
        <ele>1161.89</ele>
        <time>2019-04-05T14:51:25Z</time>
      </trkpt>
      <trkpt lat="60.40703" lon="7.66763">
        <ele>1163.81</ele>
        <time>2019-04-05T14:51:28Z</time>
      </trkpt>
      <trkpt lat="60.40705" lon="7.66757">
        <ele>1163.81</ele>
        <time>2019-04-05T14:51:31Z</time>
      </trkpt>
      <trkpt lat="60.40711" lon="7.66748">
        <ele>1164.77</ele>
        <time>2019-04-05T14:51:38Z</time>
      </trkpt>
      <trkpt lat="60.40714" lon="7.66743">
        <ele>1166.22</ele>
        <time>2019-04-05T14:51:47Z</time>
      </trkpt>
      <trkpt lat="60.40724" lon="7.66713">
        <ele>1169.58</ele>
        <time>2019-04-05T14:51:55Z</time>
      </trkpt>
      <trkpt lat="60.40747" lon="7.66701">
        <ele>1171.5</ele>
        <time>2019-04-05T14:52:05Z</time>
      </trkpt>
      <trkpt lat="60.40755" lon="7.66697">
        <ele>1172.95</ele>
        <time>2019-04-05T14:52:11Z</time>
      </trkpt>
      <trkpt lat="60.40757" lon="7.66694">
        <ele>1172.95</ele>
        <time>2019-04-05T14:52:14Z</time>
      </trkpt>
      <trkpt lat="60.40765" lon="7.66685">
        <ele>1174.39</ele>
        <time>2019-04-05T14:52:21Z</time>
      </trkpt>
      <trkpt lat="60.40796" lon="7.66662">
        <ele>1176.79</ele>
        <time>2019-04-05T14:52:31Z</time>
      </trkpt>
      <trkpt lat="60.40859" lon="7.66673">
        <ele>1178.23</ele>
        <time>2019-04-05T14:52:48Z</time>
      </trkpt>
      <trkpt lat="60.4087" lon="7.66678">
        <ele>1178.23</ele>
        <time>2019-04-05T14:52:51Z</time>
      </trkpt>
      <trkpt lat="60.40911" lon="7.66709">
        <ele>1178.71</ele>
        <time>2019-04-05T14:53:05Z</time>
      </trkpt>
      <trkpt lat="60.40955" lon="7.66749">
        <ele>1180.16</ele>
        <time>2019-04-05T14:53:19Z</time>
      </trkpt>
      <trkpt lat="60.40973" lon="7.66761">
        <ele>1180.16</ele>
        <time>2019-04-05T14:53:27Z</time>
      </trkpt>
      <trkpt lat="60.40972" lon="7.66755">
        <ele>1180.16</ele>
        <time>2019-04-05T14:53:30Z</time>
      </trkpt>
      <trkpt lat="60.4097" lon="7.66753">
        <ele>1180.16</ele>
        <time>2019-04-05T14:53:31Z</time>
      </trkpt>
      <trkpt lat="60.40967" lon="7.66754">
        <ele>1180.16</ele>
        <time>2019-04-05T14:53:32Z</time>
      </trkpt>
      <trkpt lat="60.40964" lon="7.66758">
        <ele>1180.16</ele>
        <time>2019-04-05T14:53:33Z</time>
      </trkpt>
      <trkpt lat="60.40961" lon="7.66763">
        <ele>1180.16</ele>
        <time>2019-04-05T14:53:34Z</time>
      </trkpt>
      <trkpt lat="60.40957" lon="7.66768">
        <ele>1180.16</ele>
        <time>2019-04-05T14:53:35Z</time>
      </trkpt>
      <trkpt lat="60.40951" lon="7.66776">
        <ele>1180.16</ele>
        <time>2019-04-05T14:53:37Z</time>
      </trkpt>
      <trkpt lat="60.40913" lon="7.6682">
        <ele>1181.12</ele>
        <time>2019-04-05T14:53:48Z</time>
      </trkpt>
      <trkpt lat="60.40893" lon="7.66841">
        <ele>1182.08</ele>
        <time>2019-04-05T14:53:54Z</time>
      </trkpt>
      <trkpt lat="60.40884" lon="7.66857">
        <ele>1182.56</ele>
        <time>2019-04-05T14:53:57Z</time>
      </trkpt>
      <trkpt lat="60.40878" lon="7.6687">
        <ele>1181.6</ele>
        <time>2019-04-05T14:53:59Z</time>
      </trkpt>
      <trkpt lat="60.40874" lon="7.66923">
        <ele>1178.23</ele>
        <time>2019-04-05T14:54:06Z</time>
      </trkpt>
      <trkpt lat="60.40871" lon="7.66964">
        <ele>1176.31</ele>
        <time>2019-04-05T14:54:12Z</time>
      </trkpt>
      <trkpt lat="60.40864" lon="7.67033">
        <ele>1171.98</ele>
        <time>2019-04-05T14:54:18Z</time>
      </trkpt>
      <trkpt lat="60.40859" lon="7.67065">
        <ele>1166.22</ele>
        <time>2019-04-05T14:54:20Z</time>
      </trkpt>
      <trkpt lat="60.40856" lon="7.6708">
        <ele>1162.37</ele>
        <time>2019-04-05T14:54:21Z</time>
      </trkpt>
      <trkpt lat="60.40842" lon="7.67146">
        <ele>1161.41</ele>
        <time>2019-04-05T14:54:26Z</time>
      </trkpt>
      <trkpt lat="60.40822" lon="7.67191">
        <ele>1160.93</ele>
        <time>2019-04-05T14:54:31Z</time>
      </trkpt>
      <trkpt lat="60.40813" lon="7.67206">
        <ele>1160.93</ele>
        <time>2019-04-05T14:54:33Z</time>
      </trkpt>
      <trkpt lat="60.40795" lon="7.67234">
        <ele>1161.41</ele>
        <time>2019-04-05T14:54:37Z</time>
      </trkpt>
      <trkpt lat="60.40737" lon="7.67318">
        <ele>1163.33</ele>
        <time>2019-04-05T14:54:49Z</time>
      </trkpt>
      <trkpt lat="60.40686" lon="7.67409">
        <ele>1164.77</ele>
        <time>2019-04-05T14:55:02Z</time>
      </trkpt>
      <trkpt lat="60.40673" lon="7.67439">
        <ele>1164.77</ele>
        <time>2019-04-05T14:55:06Z</time>
      </trkpt>
      <trkpt lat="60.40622" lon="7.67551">
        <ele>1163.33</ele>
        <time>2019-04-05T14:55:19Z</time>
      </trkpt>
      <trkpt lat="60.40605" lon="7.67593">
        <ele>1163.33</ele>
        <time>2019-04-05T14:55:24Z</time>
      </trkpt>
      <trkpt lat="60.40594" lon="7.67591">
        <ele>1161.89</ele>
        <time>2019-04-05T14:55:30Z</time>
      </trkpt>
      <trkpt lat="60.40609" lon="7.67579">
        <ele>1162.85</ele>
        <time>2019-04-05T14:55:34Z</time>
      </trkpt>
      <trkpt lat="60.40633" lon="7.67573">
        <ele>1163.33</ele>
        <time>2019-04-05T14:55:40Z</time>
      </trkpt>
      <trkpt lat="60.40689" lon="7.6756">
        <ele>1165.26</ele>
        <time>2019-04-05T14:55:52Z</time>
      </trkpt>
      <trkpt lat="60.40715" lon="7.67556">
        <ele>1165.74</ele>
        <time>2019-04-05T14:55:57Z</time>
      </trkpt>
      <trkpt lat="60.40753" lon="7.67557">
        <ele>1168.14</ele>
        <time>2019-04-05T14:56:09Z</time>
      </trkpt>
      <trkpt lat="60.40779" lon="7.67562">
        <ele>1169.1</ele>
        <time>2019-04-05T14:56:17Z</time>
      </trkpt>
      <trkpt lat="60.40834" lon="7.6756">
        <ele>1169.1</ele>
        <time>2019-04-05T14:56:28Z</time>
      </trkpt>
      <trkpt lat="60.40853" lon="7.67558">
        <ele>1169.1</ele>
        <time>2019-04-05T14:56:32Z</time>
      </trkpt>
      <trkpt lat="60.40863" lon="7.67557">
        <ele>1169.1</ele>
        <time>2019-04-05T14:56:34Z</time>
      </trkpt>
      <trkpt lat="60.40886" lon="7.67555">
        <ele>1169.58</ele>
        <time>2019-04-05T14:56:39Z</time>
      </trkpt>
      <trkpt lat="60.40953" lon="7.67563">
        <ele>1169.58</ele>
        <time>2019-04-05T14:56:54Z</time>
      </trkpt>
      <trkpt lat="60.40986" lon="7.67563">
        <ele>1171.98</ele>
        <time>2019-04-05T14:57:04Z</time>
      </trkpt>
      <trkpt lat="60.41" lon="7.67558">
        <ele>1171.98</ele>
        <time>2019-04-05T14:57:08Z</time>
      </trkpt>
      <trkpt lat="60.4103" lon="7.67559">
        <ele>1172.95</ele>
        <time>2019-04-05T14:57:15Z</time>
      </trkpt>
      <trkpt lat="60.41072" lon="7.67585">
        <ele>1173.43</ele>
        <time>2019-04-05T14:57:28Z</time>
      </trkpt>
      <trkpt lat="60.41091" lon="7.67609">
        <ele>1173.43</ele>
        <time>2019-04-05T14:57:34Z</time>
      </trkpt>
      <trkpt lat="60.41095" lon="7.67605">
        <ele>1170.54</ele>
        <time>2019-04-05T14:57:38Z</time>
      </trkpt>
      <trkpt lat="60.41082" lon="7.67607">
        <ele>1172.47</ele>
        <time>2019-04-05T14:57:43Z</time>
      </trkpt>
      <trkpt lat="60.4107" lon="7.67609">
        <ele>1172.95</ele>
        <time>2019-04-05T14:57:47Z</time>
      </trkpt>
      <trkpt lat="60.4105" lon="7.67622">
        <ele>1174.39</ele>
        <time>2019-04-05T14:57:54Z</time>
      </trkpt>
      <trkpt lat="60.41043" lon="7.67634">
        <ele>1175.35</ele>
        <time>2019-04-05T14:57:56Z</time>
      </trkpt>
      <trkpt lat="60.41003" lon="7.67724">
        <ele>1174.87</ele>
        <time>2019-04-05T14:58:06Z</time>
      </trkpt>
      <trkpt lat="60.40974" lon="7.67786">
        <ele>1171.98</ele>
        <time>2019-04-05T14:58:12Z</time>
      </trkpt>
      <trkpt lat="60.40952" lon="7.67823">
        <ele>1170.06</ele>
        <time>2019-04-05T14:58:16Z</time>
      </trkpt>
      <trkpt lat="60.40935" lon="7.67849">
        <ele>1168.62</ele>
        <time>2019-04-05T14:58:19Z</time>
      </trkpt>
      <trkpt lat="60.40911" lon="7.67884">
        <ele>1168.62</ele>
        <time>2019-04-05T14:58:24Z</time>
      </trkpt>
      <trkpt lat="60.40883" lon="7.67925">
        <ele>1168.62</ele>
        <time>2019-04-05T14:58:30Z</time>
      </trkpt>
      <trkpt lat="60.40871" lon="7.67944">
        <ele>1168.62</ele>
        <time>2019-04-05T14:58:33Z</time>
      </trkpt>
      <trkpt lat="60.40858" lon="7.6796">
        <ele>1170.06</ele>
        <time>2019-04-05T14:58:36Z</time>
      </trkpt>
      <trkpt lat="60.40849" lon="7.67969">
        <ele>1170.06</ele>
        <time>2019-04-05T14:58:38Z</time>
      </trkpt>
      <trkpt lat="60.40831" lon="7.68001">
        <ele>1172.47</ele>
        <time>2019-04-05T14:58:43Z</time>
      </trkpt>
      <trkpt lat="60.40825" lon="7.68013">
        <ele>1172.95</ele>
        <time>2019-04-05T14:58:45Z</time>
      </trkpt>
      <trkpt lat="60.40807" lon="7.68042">
        <ele>1173.43</ele>
        <time>2019-04-05T14:58:50Z</time>
      </trkpt>
      <trkpt lat="60.40799" lon="7.68055">
        <ele>1173.91</ele>
        <time>2019-04-05T14:58:52Z</time>
      </trkpt>
      <trkpt lat="60.40784" lon="7.68075">
        <ele>1174.39</ele>
        <time>2019-04-05T14:58:56Z</time>
      </trkpt>
      <trkpt lat="60.4076" lon="7.68104">
        <ele>1176.31</ele>
        <time>2019-04-05T14:59:03Z</time>
      </trkpt>
      <trkpt lat="60.40768" lon="7.68086">
        <ele>1175.83</ele>
        <time>2019-04-05T14:59:10Z</time>
      </trkpt>
      <trkpt lat="60.40771" lon="7.6809">
        <ele>1175.83</ele>
        <time>2019-04-05T14:59:11Z</time>
      </trkpt>
      <trkpt lat="60.40819" lon="7.6813">
        <ele>1173.43</ele>
        <time>2019-04-05T14:59:25Z</time>
      </trkpt>
      <trkpt lat="60.40859" lon="7.68158">
        <ele>1171.02</ele>
        <time>2019-04-05T14:59:34Z</time>
      </trkpt>
      <trkpt lat="60.40898" lon="7.68193">
        <ele>1167.18</ele>
        <time>2019-04-05T14:59:42Z</time>
      </trkpt>
      <trkpt lat="60.40928" lon="7.68216">
        <ele>1164.29</ele>
        <time>2019-04-05T14:59:47Z</time>
      </trkpt>
      <trkpt lat="60.40939" lon="7.68224">
        <ele>1163.33</ele>
        <time>2019-04-05T14:59:49Z</time>
      </trkpt>
      <trkpt lat="60.40949" lon="7.6823">
        <ele>1162.37</ele>
        <time>2019-04-05T14:59:51Z</time>
      </trkpt>
      <trkpt lat="60.40969" lon="7.68242">
        <ele>1161.89</ele>
        <time>2019-04-05T14:59:56Z</time>
      </trkpt>
      <trkpt lat="60.40978" lon="7.68246">
        <ele>1161.89</ele>
        <time>2019-04-05T14:59:58Z</time>
      </trkpt>
      <trkpt lat="60.41023" lon="7.68263">
        <ele>1160.45</ele>
        <time>2019-04-05T15:00:08Z</time>
      </trkpt>
      <trkpt lat="60.41036" lon="7.68271">
        <ele>1160.45</ele>
        <time>2019-04-05T15:00:11Z</time>
      </trkpt>
      <trkpt lat="60.41055" lon="7.68281">
        <ele>1159.97</ele>
        <time>2019-04-05T15:00:16Z</time>
      </trkpt>
      <trkpt lat="60.411" lon="7.68328">
        <ele>1157.08</ele>
        <time>2019-04-05T15:00:29Z</time>
      </trkpt>
      <trkpt lat="60.41125" lon="7.6835">
        <ele>1154.68</ele>
        <time>2019-04-05T15:00:34Z</time>
      </trkpt>
      <trkpt lat="60.41144" lon="7.68366">
        <ele>1151.32</ele>
        <time>2019-04-05T15:00:37Z</time>
      </trkpt>
      <trkpt lat="60.41169" lon="7.68386">
        <ele>1147.95</ele>
        <time>2019-04-05T15:00:41Z</time>
      </trkpt>
      <trkpt lat="60.41175" lon="7.6839">
        <ele>1147.95</ele>
        <time>2019-04-05T15:00:42Z</time>
      </trkpt>
      <trkpt lat="60.41186" lon="7.68398">
        <ele>1147.47</ele>
        <time>2019-04-05T15:00:44Z</time>
      </trkpt>
      <trkpt lat="60.412" lon="7.68407">
        <ele>1146.03</ele>
        <time>2019-04-05T15:00:47Z</time>
      </trkpt>
      <trkpt lat="60.41209" lon="7.68415">
        <ele>1145.55</ele>
        <time>2019-04-05T15:00:49Z</time>
      </trkpt>
      <trkpt lat="60.41228" lon="7.68425">
        <ele>1145.07</ele>
        <time>2019-04-05T15:00:53Z</time>
      </trkpt>
      <trkpt lat="60.41242" lon="7.68435">
        <ele>1143.63</ele>
        <time>2019-04-05T15:00:56Z</time>
      </trkpt>
      <trkpt lat="60.4126" lon="7.68443">
        <ele>1142.66</ele>
        <time>2019-04-05T15:01:00Z</time>
      </trkpt>
      <trkpt lat="60.41287" lon="7.68462">
        <ele>1140.74</ele>
        <time>2019-04-05T15:01:06Z</time>
      </trkpt>
      <trkpt lat="60.41301" lon="7.68469">
        <ele>1139.78</ele>
        <time>2019-04-05T15:01:09Z</time>
      </trkpt>
      <trkpt lat="60.41324" lon="7.68488">
        <ele>1138.34</ele>
        <time>2019-04-05T15:01:14Z</time>
      </trkpt>
      <trkpt lat="60.41338" lon="7.68501">
        <ele>1137.38</ele>
        <time>2019-04-05T15:01:17Z</time>
      </trkpt>
      <trkpt lat="60.41343" lon="7.68506">
        <ele>1136.9</ele>
        <time>2019-04-05T15:01:18Z</time>
      </trkpt>
      <trkpt lat="60.4136" lon="7.68514">
        <ele>1134.97</ele>
        <time>2019-04-05T15:01:21Z</time>
      </trkpt>
      <trkpt lat="60.41393" lon="7.68532">
        <ele>1133.53</ele>
        <time>2019-04-05T15:01:26Z</time>
      </trkpt>
      <trkpt lat="60.4143" lon="7.68544">
        <ele>1129.69</ele>
        <time>2019-04-05T15:01:31Z</time>
      </trkpt>
      <trkpt lat="60.41453" lon="7.68551">
        <ele>1126.8</ele>
        <time>2019-04-05T15:01:34Z</time>
      </trkpt>
      <trkpt lat="60.41474" lon="7.68558">
        <ele>1125.36</ele>
        <time>2019-04-05T15:01:37Z</time>
      </trkpt>
      <trkpt lat="60.41492" lon="7.68566">
        <ele>1124.88</ele>
        <time>2019-04-05T15:01:40Z</time>
      </trkpt>
      <trkpt lat="60.41507" lon="7.68567">
        <ele>1123.92</ele>
        <time>2019-04-05T15:01:43Z</time>
      </trkpt>
      <trkpt lat="60.41523" lon="7.6857">
        <ele>1123.92</ele>
        <time>2019-04-05T15:01:46Z</time>
      </trkpt>
      <trkpt lat="60.41537" lon="7.68568">
        <ele>1123.92</ele>
        <time>2019-04-05T15:01:49Z</time>
      </trkpt>
      <trkpt lat="60.41558" lon="7.68564">
        <ele>1123.92</ele>
        <time>2019-04-05T15:01:53Z</time>
      </trkpt>
      <trkpt lat="60.41584" lon="7.68564">
        <ele>1123.92</ele>
        <time>2019-04-05T15:01:58Z</time>
      </trkpt>
      <trkpt lat="60.41615" lon="7.68549">
        <ele>1125.36</ele>
        <time>2019-04-05T15:02:07Z</time>
      </trkpt>
      <trkpt lat="60.41621" lon="7.6854">
        <ele>1126.32</ele>
        <time>2019-04-05T15:02:09Z</time>
      </trkpt>
      <trkpt lat="60.41629" lon="7.68531">
        <ele>1127.76</ele>
        <time>2019-04-05T15:02:12Z</time>
      </trkpt>
      <trkpt lat="60.41657" lon="7.68507">
        <ele>1128.73</ele>
        <time>2019-04-05T15:02:23Z</time>
      </trkpt>
      <trkpt lat="60.41665" lon="7.68501">
        <ele>1128.73</ele>
        <time>2019-04-05T15:02:26Z</time>
      </trkpt>
      <trkpt lat="60.4168" lon="7.68502">
        <ele>1128.73</ele>
        <time>2019-04-05T15:02:29Z</time>
      </trkpt>
      <trkpt lat="60.41707" lon="7.68495">
        <ele>1128.73</ele>
        <time>2019-04-05T15:02:35Z</time>
      </trkpt>
      <trkpt lat="60.41721" lon="7.68481">
        <ele>1127.28</ele>
        <time>2019-04-05T15:02:39Z</time>
      </trkpt>
      <trkpt lat="60.41728" lon="7.68467">
        <ele>1127.28</ele>
        <time>2019-04-05T15:02:49Z</time>
      </trkpt>
      <trkpt lat="60.41728" lon="7.68466">
        <ele>1128.73</ele>
        <time>2019-04-05T15:02:51Z</time>
      </trkpt>
      <trkpt lat="60.41732" lon="7.68453">
        <ele>1129.21</ele>
        <time>2019-04-05T15:02:59Z</time>
      </trkpt>
      <trkpt lat="60.41732" lon="7.68452">
        <ele>1129.21</ele>
        <time>2019-04-05T15:03:00Z</time>
      </trkpt>
      <trkpt lat="60.41724" lon="7.68431">
        <ele>1130.65</ele>
        <time>2019-04-05T15:03:08Z</time>
      </trkpt>
      <trkpt lat="60.4172" lon="7.68416">
        <ele>1132.09</ele>
        <time>2019-04-05T15:03:14Z</time>
      </trkpt>
      <trkpt lat="60.41713" lon="7.68394">
        <ele>1132.09</ele>
        <time>2019-04-05T15:03:23Z</time>
      </trkpt>
      <trkpt lat="60.41702" lon="7.68388">
        <ele>1131.13</ele>
        <time>2019-04-05T15:03:32Z</time>
      </trkpt>
      <trkpt lat="60.41698" lon="7.68376">
        <ele>1130.17</ele>
        <time>2019-04-05T15:03:36Z</time>
      </trkpt>
      <trkpt lat="60.41699" lon="7.68365">
        <ele>1130.65</ele>
        <time>2019-04-05T15:03:45Z</time>
      </trkpt>
      <trkpt lat="60.41706" lon="7.68341">
        <ele>1130.65</ele>
        <time>2019-04-05T15:03:51Z</time>
      </trkpt>
      <trkpt lat="60.41724" lon="7.68313">
        <ele>1131.61</ele>
        <time>2019-04-05T15:04:03Z</time>
      </trkpt>
      <trkpt lat="60.41727" lon="7.68313">
        <ele>1131.61</ele>
        <time>2019-04-05T15:04:04Z</time>
      </trkpt>
      <trkpt lat="60.41735" lon="7.68326">
        <ele>1131.61</ele>
        <time>2019-04-05T15:04:11Z</time>
      </trkpt>
      <trkpt lat="60.41736" lon="7.68321">
        <ele>1131.61</ele>
        <time>2019-04-05T15:04:33Z</time>
      </trkpt>
      <trkpt lat="60.41737" lon="7.68319">
        <ele>1130.65</ele>
        <time>2019-04-05T15:04:49Z</time>
      </trkpt>
      <trkpt lat="60.41737" lon="7.68311">
        <ele>1130.65</ele>
        <time>2019-04-05T15:05:23Z</time>
      </trkpt>
      <trkpt lat="60.41736" lon="7.68315">
        <ele>1130.65</ele>
        <time>2019-04-05T15:05:59Z</time>
      </trkpt>
      <trkpt lat="60.41737" lon="7.68315">
        <ele>1130.65</ele>
        <time>2019-04-05T15:06:28Z</time>
      </trkpt>
      <trkpt lat="60.41737" lon="7.68315">
        <ele>1130.65</ele>
        <time>2019-04-05T15:06:45Z</time>
      </trkpt>
      <trkpt lat="60.41735" lon="7.68315">
        <ele>1130.65</ele>
        <time>2019-04-05T15:07:14Z</time>
      </trkpt>
      <trkpt lat="60.41737" lon="7.68318">
        <ele>1130.65</ele>
        <time>2019-04-05T15:07:45Z</time>
      </trkpt>
      <trkpt lat="60.41735" lon="7.68326">
        <ele>1130.65</ele>
        <time>2019-04-05T15:08:19Z</time>
      </trkpt>
      <trkpt lat="60.41737" lon="7.68317">
        <ele>1131.13</ele>
        <time>2019-04-05T15:08:49Z</time>
      </trkpt>
      <trkpt lat="60.41737" lon="7.68316">
        <ele>1131.13</ele>
        <time>2019-04-05T15:08:52Z</time>
      </trkpt>
      <trkpt lat="60.41731" lon="7.68289">
        <ele>1129.21</ele>
        <time>2019-04-05T15:09:02Z</time>
      </trkpt>
      <trkpt lat="60.41721" lon="7.68291">
        <ele>1128.73</ele>
        <time>2019-04-05T15:09:04Z</time>
      </trkpt>
      <trkpt lat="60.41709" lon="7.68298">
        <ele>1128.24</ele>
        <time>2019-04-05T15:09:07Z</time>
      </trkpt>
      <trkpt lat="60.41682" lon="7.68336">
        <ele>1127.28</ele>
        <time>2019-04-05T15:09:15Z</time>
      </trkpt>
      <trkpt lat="60.41672" lon="7.68331">
        <ele>1127.28</ele>
        <time>2019-04-05T15:09:23Z</time>
      </trkpt>
      <trkpt lat="60.41667" lon="7.68315">
        <ele>1126.32</ele>
        <time>2019-04-05T15:09:35Z</time>
      </trkpt>
      <trkpt lat="60.41666" lon="7.68309">
        <ele>1126.32</ele>
        <time>2019-04-05T15:09:58Z</time>
      </trkpt>
      <trkpt lat="60.41664" lon="7.68307">
        <ele>1125.84</ele>
        <time>2019-04-05T15:10:19Z</time>
      </trkpt>
      <trkpt lat="60.41666" lon="7.68303">
        <ele>1125.84</ele>
        <time>2019-04-05T15:10:38Z</time>
      </trkpt>
      <trkpt lat="60.41667" lon="7.68304">
        <ele>1125.84</ele>
        <time>2019-04-05T15:10:58Z</time>
      </trkpt>
      <trkpt lat="60.41667" lon="7.68305">
        <ele>1125.84</ele>
        <time>2019-04-05T15:11:16Z</time>
      </trkpt>
      <trkpt lat="60.41666" lon="7.68303">
        <ele>1126.32</ele>
        <time>2019-04-05T15:11:51Z</time>
      </trkpt>
      <trkpt lat="60.41666" lon="7.68302">
        <ele>1126.32</ele>
        <time>2019-04-05T15:12:31Z</time>
      </trkpt>
      <trkpt lat="60.41667" lon="7.68303">
        <ele>1125.36</ele>
        <time>2019-04-05T15:12:53Z</time>
      </trkpt>
      <trkpt lat="60.41668" lon="7.68306">
        <ele>1125.36</ele>
        <time>2019-04-05T15:13:23Z</time>
      </trkpt>
      <trkpt lat="60.41668" lon="7.68306">
        <ele>1125.36</ele>
        <time>2019-04-05T15:13:50Z</time>
      </trkpt>
      <trkpt lat="60.41668" lon="7.68305">
        <ele>1125.36</ele>
        <time>2019-04-05T15:14:20Z</time>
      </trkpt>
      <trkpt lat="60.41668" lon="7.68303">
        <ele>1125.84</ele>
        <time>2019-04-05T15:14:41Z</time>
      </trkpt>
      <trkpt lat="60.41668" lon="7.68302">
        <ele>1125.84</ele>
        <time>2019-04-05T15:15:09Z</time>
      </trkpt>
      <trkpt lat="60.41667" lon="7.68303">
        <ele>1125.84</ele>
        <time>2019-04-05T15:15:36Z</time>
      </trkpt>
      <trkpt lat="60.41668" lon="7.68303">
        <ele>1125.84</ele>
        <time>2019-04-05T15:15:59Z</time>
      </trkpt>
      <trkpt lat="60.41669" lon="7.68304">
        <ele>1125.84</ele>
        <time>2019-04-05T15:16:29Z</time>
      </trkpt>
      <trkpt lat="60.41669" lon="7.68304">
        <ele>1125.84</ele>
        <time>2019-04-05T15:16:58Z</time>
      </trkpt>
      <trkpt lat="60.41669" lon="7.68305">
        <ele>1126.32</ele>
        <time>2019-04-05T15:17:40Z</time>
      </trkpt>
      <trkpt lat="60.41669" lon="7.68304">
        <ele>1126.32</ele>
        <time>2019-04-05T15:18:10Z</time>
      </trkpt>
      <trkpt lat="60.41669" lon="7.68303">
        <ele>1127.28</ele>
        <time>2019-04-05T15:18:44Z</time>
      </trkpt>
      <trkpt lat="60.41668" lon="7.68304">
        <ele>1127.76</ele>
        <time>2019-04-05T15:19:15Z</time>
      </trkpt>
      <trkpt lat="60.41668" lon="7.68304">
        <ele>1127.76</ele>
        <time>2019-04-05T15:19:54Z</time>
      </trkpt>
      <trkpt lat="60.41668" lon="7.68304">
        <ele>1128.24</ele>
        <time>2019-04-05T15:20:24Z</time>
      </trkpt>
      <trkpt lat="60.41668" lon="7.68305">
        <ele>1128.24</ele>
        <time>2019-04-05T15:20:58Z</time>
      </trkpt>
      <trkpt lat="60.41668" lon="7.68305">
        <ele>1128.24</ele>
        <time>2019-04-05T15:21:36Z</time>
      </trkpt>
      <trkpt lat="60.41666" lon="7.68307">
        <ele>1127.76</ele>
        <time>2019-04-05T15:21:49Z</time>
      </trkpt>
      <trkpt lat="60.41666" lon="7.68303">
        <ele>1127.76</ele>
        <time>2019-04-05T15:22:31Z</time>
      </trkpt>
      <trkpt lat="60.41666" lon="7.68304">
        <ele>1127.28</ele>
        <time>2019-04-05T15:23:11Z</time>
      </trkpt>
      <trkpt lat="60.41667" lon="7.68304">
        <ele>1127.28</ele>
        <time>2019-04-05T15:23:46Z</time>
      </trkpt>
      <trkpt lat="60.41667" lon="7.68307">
        <ele>1128.24</ele>
        <time>2019-04-05T15:24:05Z</time>
      </trkpt>
    </trkseg>
  </trk>
</gpx>